# Wetter Temperatur Luftdruck Luftfeuchtigkeit Sichtweite Windgeschwindigkeit Windrichtung Zeit
1 Clouds 26 1006 94 10000 3.1 360 02:52 05.04.2020
2 Clouds 27 1005 88 10000 3.1 20 01:48 05.04.2020
3 Clouds 27 1005 88 10000 3.1 20 01:28 05.04.2020
4 Clouds 27 1005 88 10000 3.1 20 01:28 05.04.2020
5 Clouds 28 1005 83 10000 4.1 20 00:44 05.04.2020
6 Clouds 28 1005 83 10000 4.1 20 00:21 05.04.2020
7 Clouds 27 1005 88 10000 3.1 20 23:55 04.04.2020
8 Clouds 27 1005 88 10000 3.1 20 23:37 04.04.2020
9 Clouds 27 1005 88 10000 3.1 20 23:18 04.04.2020
10 Clouds 27 1006 88 10000 3.1 330 22:40 04.04.2020
11 Clouds 27 1006 88 10000 3.1 330 22:21 04.04.2020
12 Rain 27 1006 94 10000 3.6 10 21:58 04.04.2020
13 Rain 27 1006 94 10000 3.6 10 21:39 04.04.2020
14 Rain 27 1006 94 10000 3.6 10 21:19 04.04.2020
15 Rain 27 1007 94 10000 2.6 20 20:58 04.04.2020
16 Rain 27 1007 94 10000 2.6 20 20:39 04.04.2020
17 Rain 27 1007 94 10000 2.6 20 20:20 04.04.2020
18 Drizzle 27 1008 88 10000 3.6 190 19:57 04.04.2020
19 Drizzle 27 1008 88 10000 3.6 190 19:37 04.04.2020
20 Drizzle 27 1008 88 10000 3.6 190 19:18 04.04.2020
21 Clouds 28 1008 83 10000 4.1 160 18:55 04.04.2020
22 Clouds 28 1008 83 10000 4.1 160 18:37 04.04.2020
23 Clouds 28 1008 83 10000 4.1 160 18:18 04.04.2020
24 Clouds 27 1008 88 10000 3.6 150 17:40 04.04.2020
25 Clouds 27 1008 88 10000 3.6 150 17:20 04.04.2020
26 Clouds 26 1007 88 10000 1 190 16:55 04.04.2020
27 Clouds 26 1007 88 10000 1 190 16:37 04.04.2020
28 Clouds 26 1007 88 10000 1 190 16:18 04.04.2020
29 Clouds 26 1007 88 10000 1.5 190 15:40 04.04.2020
30 Clouds 26 1007 88 10000 1.5 190 15:22 04.04.2020
31 Clouds 25 1006 94 10000 1 240 14:56 04.04.2020
32 Clouds 25 1006 94 10000 1 240 14:38 04.04.2020
33 Clouds 25 1006 94 10000 1 240 14:20 04.04.2020
34 Rain 27 1009 82 0 4.82 47 13:55 04.04.2020
35 Rain 27 1009 82 0 4.82 47 13:36 04.04.2020
36 Rain 27 1009 82 0 4.82 47 13:18 04.04.2020
37 Rain 27 1009 82 0 4.82 47 12:42 04.04.2020
38 Rain 27 1009 82 0 4.82 47 12:23 04.04.2020
39 Rain 27 1008 83 0 3.66 50 11:54 04.04.2020
40 Rain 27 1008 83 0 3.66 50 11:36 04.04.2020
41 Rain 27 1008 83 0 3.66 50 11:18 04.04.2020
42 Rain 27 1008 83 0 3.66 50 10:55 04.04.2020
43 Rain 27 1008 83 0 3.66 50 10:37 04.04.2020
44 Rain 27 1008 83 0 3.66 50 10:18 04.04.2020
45 Rain 27 1008 83 0 3.66 50 09:42 04.04.2020
46 Rain 27 1008 83 0 3.66 50 09:24 04.04.2020
47 Rain 27 1009 83 0 2.77 36 08:56 04.04.2020
48 Rain 27 1009 83 0 2.77 36 08:37 04.04.2020
49 Rain 27 1009 83 0 2.77 36 08:19 04.04.2020
50 Rain 27 1009 83 0 2.77 36 07:40 04.04.2020
51 Rain 27 1009 83 0 2.77 36 07:22 04.04.2020
52 Rain 27 1009 83 0 2.77 36 07:22 04.04.2020
53 Rain 27 1009 83 0 2.77 36 06:40 04.04.2020
54 Rain 27 1010 81 0 2.13 58 05:54 04.04.2020
55 Rain 27 1010 81 0 2.13 58 05:33 04.04.2020
56 Rain 27 1010 81 0 2.13 58 04:40 04.04.2020
57 Rain 27 1010 81 0 2.13 58 04:20 04.04.2020
58 Rain 27 1010 81 0 2.13 58 03:45 04.04.2020
59 Clouds 26 1005 94 10000 3.6 150 02:49 04.04.2020
60 Clouds 26 1005 94 10000 3.6 150 02:30 04.04.2020
61 Rain 26 1005 94 10000 3.1 90 01:48 04.04.2020
62 Rain 26 1005 94 10000 3.1 90 01:21 04.04.2020
63 Rain 26 1005 94 10000 4.1 30 00:45 04.04.2020
64 Rain 26 1005 94 10000 4.1 30 00:26 04.04.2020
65 Clouds 27 1006 88 10000 4.1 30 23:39 03.04.2020
66 Clouds 27 1006 88 10000 4.1 30 23:20 03.04.2020
67 Rain 28 1006 83 10000 4.1 50 22:55 03.04.2020
68 Rain 28 1006 83 10000 4.1 50 22:36 03.04.2020
69 Rain 28 1006 83 10000 4.1 50 22:18 03.04.2020
70 Clouds 29 1007 79 10000 4.6 10 21:42 03.04.2020
71 Clouds 29 1007 79 10000 4.6 10 21:22 03.04.2020
72 Clouds 28 1008 83 10000 4.1 360 20:56 03.04.2020
73 Clouds 28 1008 83 10000 4.1 360 20:36 03.04.2020
74 Clouds 28 1008 83 10000 4.1 360 20:18 03.04.2020
75 Clouds 28 1009 83 10000 3.1 40 19:56 03.04.2020
76 Clouds 28 1009 83 10000 3.1 40 19:37 03.04.2020
77 Clouds 28 1009 83 10000 3.1 40 19:19 03.04.2020
78 Clouds 28 1009 83 10000 2.6 350 18:57 03.04.2020
79 Clouds 28 1009 83 10000 2.6 350 18:39 03.04.2020
80 Clouds 28 1009 83 10000 2.6 350 18:21 03.04.2020
81 Clouds 28 1009 83 10000 2.1 10 17:42 03.04.2020
82 Clouds 28 1009 83 10000 2.1 10 17:20 03.04.2020
83 Clear 27 1009 78 10000 2.6 360 16:56 03.04.2020
84 Clear 27 1009 78 10000 2.6 360 16:37 03.04.2020
85 Clear 27 1009 78 10000 2.6 360 16:19 03.04.2020
86 Clear 25 1008 88 10000 1.5 70 15:56 03.04.2020
87 Clear 25 1008 88 10000 1.5 70 15:37 03.04.2020
88 Clouds 25 1008 88 10000 1.5 70 15:19 03.04.2020
89 Clouds 27 1010 79 0 2.17 98 14:40 03.04.2020
90 Clouds 27 1010 79 0 2.55 105 14:22 03.04.2020
91 Clouds 27 1010 79 0 2.55 105 13:54 03.04.2020
92 Clouds 27 1010 79 0 2.55 105 13:36 03.04.2020
93 Clouds 27 1010 79 0 2.55 105 13:18 03.04.2020
94 Clouds 27 1010 79 0 2.55 105 12:42 03.04.2020
95 Clouds 27 1009 78 0 1.96 114 12:19 03.04.2020
96 Clouds 27 1009 78 0 1.96 114 11:56 03.04.2020
97 Clouds 27 1009 78 0 1.96 114 11:37 03.04.2020
98 Clouds 27 1009 78 0 1.96 114 11:18 03.04.2020
99 Clouds 27 1009 78 0 1.96 114 10:57 03.04.2020
100 Clouds 27 1009 78 0 1.96 114 10:57 03.04.2020
101 Clouds 27 1009 78 0 1.96 114 10:37 03.04.2020
102 Clouds 27 1009 78 0 1.96 114 10:19 03.04.2020
103 Clouds 27 1009 78 0 1.96 114 09:55 03.04.2020
104 Clouds 27 1009 78 0 1.96 114 09:37 03.04.2020
105 Clouds 27 1010 78 0 2.22 85 09:19 03.04.2020
106 Clouds 27 1010 78 0 2.22 85 08:44 03.04.2020
107 Clouds 27 1010 78 0 2.22 85 08:24 03.04.2020
108 Clouds 27 1010 78 0 2.22 85 07:51 03.04.2020
109 Clouds 27 1010 78 0 2.22 85 07:33 03.04.2020
110 Clouds 27 1010 78 0 2.22 85 06:58 03.04.2020
111 Clouds 27 1010 78 0 2.22 85 06:28 03.04.2020
112 Clouds 27 1012 80 0 2.72 93 05:42 03.04.2020
113 Clouds 27 1012 80 0 2.72 93 04:18 03.04.2020
114 Clouds 27 1012 80 0 2.72 93 03:32 03.04.2020
115 Clouds 28 1006 78 10000 4.1 170 02:39 03.04.2020
116 Clouds 28 1006 83 10000 5.1 170 01:25 03.04.2020
117 Clouds 29 1006 79 10000 3.1 260 00:46 03.04.2020
118 Clouds 29 1006 79 10000 3.1 260 00:27 03.04.2020
119 Clouds 30 1007 74 10000 3.1 330 23:43 02.04.2020
120 Clouds 30 1007 74 10000 3.1 330 23:25 02.04.2020
121 Clouds 30 1007 74 10000 3.6 320 23:00 02.04.2020
122 Clouds 30 1007 74 10000 3.6 320 22:41 02.04.2020
123 Clouds 30 1007 74 10000 3.6 320 22:22 02.04.2020
124 Clouds 29 1008 74 10000 4.1 10 21:57 02.04.2020
125 Clouds 29 1008 74 10000 4.1 10 21:36 02.04.2020
126 Clouds 29 1008 74 10000 4.1 10 21:18 02.04.2020
127 Clouds 29 1009 74 10000 4.6 140 20:44 02.04.2020
128 Clouds 29 1009 74 10000 4.6 140 20:44 02.04.2020
129 Clouds 29 1009 74 10000 4.6 140 20:24 02.04.2020
130 Clouds 30 1010 70 10000 5.1 150 19:56 02.04.2020
131 Clouds 30 1010 70 10000 5.1 150 19:37 02.04.2020
132 Clouds 30 1010 70 10000 5.1 150 19:19 02.04.2020
133 Clouds 30 1010 70 10000 4.6 180 18:42 02.04.2020
134 Clouds 30 1010 70 10000 4.6 180 18:21 02.04.2020
135 Clouds 30 1010 70 10000 4.1 180 17:57 02.04.2020
136 Clouds 30 1010 70 10000 4.1 180 17:39 02.04.2020
137 Clouds 30 1010 70 10000 4.1 180 17:20 02.04.2020
138 Clouds 28 1010 78 10000 3.1 130 16:57 02.04.2020
139 Clouds 28 1010 78 10000 3.1 130 16:39 02.04.2020
140 Clouds 28 1010 78 10000 3.1 130 16:21 02.04.2020
141 Clouds 26 1009 83 10000 2.1 160 15:55 02.04.2020
142 Clouds 26 1009 83 10000 2.1 160 15:37 02.04.2020
143 Clouds 26 1009 83 10000 2.1 160 15:18 02.04.2020
144 Clouds 23 1008 94 10000 3.1 140 14:40 02.04.2020
145 Clouds 23 1008 94 10000 3.1 140 14:21 02.04.2020
146 Clear 26 1011 76 0 0.51 46 13:59 02.04.2020
147 Clear 26 1011 76 0 0.51 46 13:39 02.04.2020
148 Clear 26 1011 76 0 0.51 46 13:21 02.04.2020
149 Clear 26 1011 76 0 0.51 46 12:56 02.04.2020
150 Clear 26 1011 76 0 0.51 46 12:38 02.04.2020
151 Clear 26 1010 75 0 0.78 49 12:19 02.04.2020
152 Clear 26 1010 75 0 0.78 49 12:19 02.04.2020
153 Clear 26 1010 75 0 0.78 49 11:57 02.04.2020
154 Clear 26 1010 75 0 0.78 49 11:38 02.04.2020
155 Clear 26 1010 75 0 0.78 49 11:19 02.04.2020
156 Clear 26 1010 75 0 0.78 49 10:55 02.04.2020
157 Clear 26 1010 75 0 0.78 49 10:55 02.04.2020
158 Clear 26 1010 75 0 0.78 49 10:37 02.04.2020
159 Clear 26 1010 75 0 0.78 49 10:18 02.04.2020
160 Clear 26 1010 75 0 0.78 49 09:43 02.04.2020
161 Clear 26 1010 75 0 0.78 49 09:25 02.04.2020
162 Clear 26 1011 75 0 1.32 89 08:58 02.04.2020
163 Clear 26 1011 75 0 1.32 89 08:40 02.04.2020
164 Clear 26 1011 75 0 1.32 89 08:22 02.04.2020
165 Clear 26 1011 75 0 1.32 89 07:44 02.04.2020
166 Clear 26 1011 75 0 1.32 89 07:20 02.04.2020
167 Clear 26 1011 75 0 1.32 89 06:58 02.04.2020
168 Clear 26 1011 75 0 1.32 89 06:21 02.04.2020
169 Clear 27 1012 78 0 1.84 106 05:44 02.04.2020
170 Clear 27 1012 78 0 1.84 106 03:57 02.04.2020
171 Clouds 27 1009 69 0 1.54 163 01:34 02.04.2020
172 Clouds 29 1007 74 10000 1.54 163 00:46 02.04.2020
173 Clouds 29 1007 74 10000 1.54 163 00:26 02.04.2020
174 Clouds 30 1007 70 10000 3.1 270 23:41 01.04.2020
175 Clouds 30 1007 70 10000 3.1 270 23:20 01.04.2020
176 Clouds 30 1007 70 10000 3.6 300 22:59 01.04.2020
177 Clouds 30 1007 70 10000 3.6 300 22:39 01.04.2020
178 Clouds 30 1007 70 10000 3.6 300 22:21 01.04.2020
179 Clouds 27 1009 72 0 1.05 222 21:42 01.04.2020
180 Clouds 30 1009 70 10000 3.1 350 21:22 01.04.2020
181 Clouds 30 1009 70 10000 3.1 350 21:22 01.04.2020
182 Clouds 30 1009 70 10000 3.1 350 21:21 01.04.2020
183 Clouds 30 1009 70 10000 3.1 350 21:21 01.04.2020
184 Clouds 30 1009 70 10000 3.1 350 21:20 01.04.2020
185 Clouds 30 1009 70 10000 3.1 350 20:57 01.04.2020
186 Clouds 30 1009 70 10000 3.1 350 20:39 01.04.2020
187 Clouds 30 1009 70 10000 3.1 350 20:20 01.04.2020
188 Clouds 30 1009 70 10000 3.1 350 20:20 01.04.2020
189 Clouds 29 1010 74 10000 2.6 300 19:59 01.04.2020
190 Clouds 29 1010 74 10000 2.6 300 19:40 01.04.2020
191 Clouds 29 1010 74 10000 2.6 300 19:20 01.04.2020
192 Clouds 29 1010 74 10000 2.6 320 18:44 01.04.2020
193 Clouds 29 1010 74 10000 2.6 320 18:25 01.04.2020
194 Clouds 28 1010 74 10000 3.1 330 17:58 01.04.2020
195 Clouds 28 1010 74 10000 3.1 330 17:38 01.04.2020
196 Clouds 28 1010 74 10000 3.1 330 17:19 01.04.2020
197 Clouds 27 1009 78 10000 2.1 120 16:58 01.04.2020
198 Clouds 27 1009 78 10000 2.1 120 16:39 01.04.2020
199 Clouds 27 1009 78 10000 2.1 120 16:21 01.04.2020
200 Clouds 25 1009 88 10000 1.5 90 15:57 01.04.2020
201 Clouds 25 1009 88 10000 1.5 90 15:37 01.04.2020
202 Clouds 25 1009 88 10000 1.5 90 15:18 01.04.2020
203 Clouds 23 1008 94 10000 2.1 100 14:41 01.04.2020
204 Clouds 23 1008 94 10000 2.1 100 14:41 01.04.2020
205 Clouds 23 1008 94 10000 2.1 100 14:23 01.04.2020
206 Clouds 26 1010 77 0 1.74 6 13:59 01.04.2020
207 Clouds 26 1010 77 0 1.74 6 13:40 01.04.2020
208 Clouds 26 1010 77 0 1.74 6 13:20 01.04.2020
209 Clouds 26 1010 77 0 1.74 6 12:59 01.04.2020
210 Clouds 26 1010 77 0 1.74 6 12:41 01.04.2020
211 Clouds 26 1010 77 0 1.74 6 12:22 01.04.2020
212 Clouds 26 1009 77 0 2.09 8 11:57 01.04.2020
213 Clouds 26 1009 77 0 2.09 8 11:38 01.04.2020
214 Clouds 26 1009 77 0 2.09 8 11:20 01.04.2020
215 Clouds 26 1009 77 0 2.09 8 10:40 01.04.2020
216 Clouds 26 1009 77 0 2.09 8 10:21 01.04.2020
217 Clouds 26 1009 77 0 2.09 8 09:59 01.04.2020
218 Clouds 26 1009 77 0 2.09 8 09:40 01.04.2020
219 Clouds 26 1010 77 0 1.78 355 09:20 01.04.2020
220 Clouds 26 1011 76 0 1.71 350 08:56 01.04.2020
221 Clouds 26 1011 76 0 1.71 350 08:37 01.04.2020
222 Clouds 26 1011 76 0 1.71 350 08:18 01.04.2020
223 Clouds 26 1011 76 0 1.71 350 07:41 01.04.2020
224 Clouds 26 1011 76 0 1.71 350 07:19 01.04.2020
225 Clouds 26 1011 76 0 1.71 350 06:43 01.04.2020
226 Clouds 26 1011 76 0 1.71 350 06:21 01.04.2020
227 Clouds 27 1011 76 0 0.68 337 05:41 01.04.2020
228 Clouds 27 1011 76 0 0.68 337 03:57 01.04.2020
229 Clouds 28 1007 78 10000 2.6 350 03:19 01.04.2020
230 Clouds 28 1007 78 10000 2.6 350 02:36 01.04.2020
231 Clouds 28 1007 78 10000 3.1 10 01:50 01.04.2020
232 Clouds 28 1007 78 10000 3.1 10 01:25 01.04.2020
233 Clouds 29 1007 74 10000 3.6 360 00:47 01.04.2020
234 Clouds 29 1007 74 10000 3.6 360 00:22 01.04.2020
235 Clouds 30 1007 70 10000 3.1 360 23:55 31.03.2020
236 Clouds 30 1007 70 10000 3.1 360 23:37 31.03.2020
237 Clouds 30 1007 70 10000 3.1 360 23:19 31.03.2020
238 Clouds 31 1007 66 10000 3.1 320 22:40 31.03.2020
239 Clouds 31 1007 66 10000 3.1 320 22:21 31.03.2020
240 Clouds 31 1007 66 10000 3.1 320 21:58 31.03.2020
241 Clouds 31 1007 66 10000 3.1 320 21:58 31.03.2020
242 Clouds 31 1008 66 10000 4.1 350 21:39 31.03.2020
243 Clouds 31 1008 66 10000 4.1 350 21:21 31.03.2020
244 Clouds 30 1009 70 10000 3.6 350 20:57 31.03.2020
245 Clouds 30 1009 70 10000 3.6 350 20:37 31.03.2020
246 Clouds 30 1009 70 10000 3.6 350 20:37 31.03.2020
247 Clouds 30 1009 70 10000 3.6 350 20:18 31.03.2020
248 Clouds 30 1009 70 10000 4.1 340 19:55 31.03.2020
249 Clouds 30 1009 70 10000 4.1 340 19:37 31.03.2020
250 Clouds 29 1010 74 10000 4.6 330 19:18 31.03.2020
251 Clouds 29 1010 74 10000 4.6 330 18:41 31.03.2020
252 Clouds 28 1009 78 10000 2.6 290 18:20 31.03.2020
253 Clouds 28 1009 78 10000 2.6 290 17:56 31.03.2020
254 Clouds 28 1009 78 10000 2.6 290 17:56 31.03.2020
255 Clouds 28 1009 78 10000 2.6 290 17:56 31.03.2020
256 Clouds 28 1009 78 10000 2.6 290 17:38 31.03.2020
257 Clouds 28 1009 78 10000 2.6 290 17:20 31.03.2020
258 Clouds 27 1009 78 10000 1.5 100 16:42 31.03.2020
259 Clouds 27 1009 78 10000 1.5 100 16:20 31.03.2020
260 Clouds 25 1008 83 10000 1.5 120 15:59 31.03.2020
261 Clouds 25 1008 83 10000 1.5 120 15:41 31.03.2020
262 Clouds 25 1008 83 10000 1.5 120 15:23 31.03.2020
263 Clear 22 1007 94 10000 2.1 100 14:58 31.03.2020
264 Clear 22 1007 94 10000 2.1 100 14:40 31.03.2020
265 Clear 22 1007 94 10000 2.1 100 14:21 31.03.2020
266 Clear 26 1010 75 0 3.1 36 13:44 31.03.2020
267 Clear 26 1010 75 0 3.1 36 13:20 31.03.2020
268 Clear 26 1010 75 0 3.1 36 12:59 31.03.2020
269 Clear 26 1010 75 0 3.1 36 12:40 31.03.2020
270 Clear 26 1010 77 0 4 45 12:19 31.03.2020
271 Clear 26 1010 77 0 4 45 12:19 31.03.2020
272 Clear 26 1010 77 0 4 45 11:41 31.03.2020
273 Clear 26 1010 77 0 4 45 11:21 31.03.2020
274 Clear 26 1010 77 0 4 45 10:59 31.03.2020
275 Clear 26 1010 77 0 4 45 10:41 31.03.2020
276 Clear 26 1010 77 0 4 45 10:22 31.03.2020
277 Clear 26 1010 77 0 4 45 09:59 31.03.2020
278 Clear 26 1010 77 0 4 45 09:41 31.03.2020
279 Clear 26 1010 77 0 3.9 47 09:22 31.03.2020
280 Clouds 26 1011 75 0 3.35 56 08:57 31.03.2020
281 Clouds 26 1011 75 0 3.35 56 08:38 31.03.2020
282 Clouds 26 1011 75 0 3.35 56 08:19 31.03.2020
283 Clouds 26 1011 75 0 3.35 56 08:19 31.03.2020
284 Clouds 26 1011 75 0 3.35 56 07:56 31.03.2020
285 Clouds 26 1011 75 0 3.35 56 07:37 31.03.2020
286 Clouds 26 1011 75 0 3.35 56 07:18 31.03.2020
287 Clouds 26 1011 75 0 3.35 56 06:43 31.03.2020
288 Clouds 27 1011 74 0 2.75 57 05:59 31.03.2020
289 Clouds 27 1011 74 0 2.75 57 05:39 31.03.2020
290 Clouds 27 1007 83 10000 3.6 280 03:28 31.03.2020
291 Clouds 28 1006 78 10000 3.1 270 01:52 31.03.2020
292 Clouds 28 1006 78 10000 3.1 270 01:33 31.03.2020
293 Clouds 29 1006 74 10000 3.6 330 00:46 31.03.2020
294 Clouds 29 1006 74 10000 3.6 330 00:24 31.03.2020
295 Clouds 30 1007 70 10000 3.6 260 23:41 30.03.2020
296 Clouds 30 1007 70 10000 3.6 260 23:20 30.03.2020
297 Clouds 30 1007 70 10000 3.1 330 22:58 30.03.2020
298 Clouds 30 1007 70 10000 3.1 330 22:39 30.03.2020
299 Clouds 30 1007 70 10000 3.1 330 22:20 30.03.2020
300 Clouds 30 1008 70 10000 4.1 350 21:58 30.03.2020
301 Clouds 30 1008 70 10000 4.1 350 21:39 30.03.2020
302 Clouds 30 1008 70 10000 4.1 350 21:39 30.03.2020
303 Clouds 30 1008 70 10000 4.1 350 21:20 30.03.2020
304 Clouds 30 1009 70 10000 5.1 330 20:59 30.03.2020
305 Clouds 30 1009 70 10000 5.1 330 20:39 30.03.2020
306 Clouds 30 1009 70 10000 5.1 330 20:39 30.03.2020
307 Clouds 30 1009 70 10000 5.1 330 20:20 30.03.2020
308 Clouds 29 1009 74 10000 5.1 40 19:56 30.03.2020
309 Clouds 29 1009 74 10000 5.1 40 19:37 30.03.2020
310 Clouds 29 1009 74 10000 5.1 40 19:19 30.03.2020
311 Clouds 29 1010 70 10000 6.7 40 18:42 30.03.2020
312 Clouds 29 1010 70 10000 6.7 40 18:42 30.03.2020
313 Clouds 29 1010 70 10000 6.7 40 18:24 30.03.2020
314 Clouds 30 1010 66 0 3.6 60 17:58 30.03.2020
315 Clouds 30 1010 66 0 3.6 60 17:39 30.03.2020
316 Clouds 30 1010 66 0 3.6 60 17:19 30.03.2020
317 Clouds 29 1010 70 10000 3.1 30 16:57 30.03.2020
318 Clouds 29 1010 70 10000 3.1 30 16:39 30.03.2020
319 Clouds 29 1010 70 10000 3.1 30 16:20 30.03.2020
320 Clouds 29 1010 70 10000 3.1 30 16:20 30.03.2020
321 Clouds 27 1009 78 0 4.47 66 15:55 30.03.2020
322 Clouds 27 1009 78 0 4.47 66 15:37 30.03.2020
323 Clouds 27 1009 78 0 5.58 59 15:19 30.03.2020
324 Clouds 25 1008 83 10000 3.6 70 14:55 30.03.2020
325 Clouds 25 1008 83 10000 3.6 70 14:37 30.03.2020
326 Clouds 25 1008 83 10000 3.6 70 14:18 30.03.2020
327 Clear 26 1010 82 0 5.56 51 13:54 30.03.2020
328 Clear 26 1010 82 0 5.56 51 13:36 30.03.2020
329 Clear 26 1010 82 0 5.56 51 13:18 30.03.2020
330 Clear 26 1010 82 0 5.56 51 12:41 30.03.2020
331 Clear 26 1010 80 0 4.55 51 12:20 30.03.2020
332 Clear 26 1010 80 0 4.55 51 11:57 30.03.2020
333 Clear 26 1010 80 0 4.55 51 11:39 30.03.2020
334 Clear 26 1010 80 0 4.55 51 11:21 30.03.2020
335 Clear 26 1010 80 0 4.55 51 10:41 30.03.2020
336 Clear 26 1010 80 0 4.55 51 10:22 30.03.2020
337 Clear 26 1010 80 0 4.55 51 09:57 30.03.2020
338 Clear 26 1010 80 0 4.55 51 09:57 30.03.2020
339 Clear 26 1010 80 0 4.55 51 09:38 30.03.2020
340 Clouds 26 1011 76 0 2.6 61 09:19 30.03.2020
341 Clouds 26 1011 76 0 2.41 60 08:42 30.03.2020
342 Clouds 26 1011 76 0 2.41 60 08:22 30.03.2020
343 Clouds 26 1011 76 0 2.41 60 07:50 30.03.2020
344 Clouds 26 1011 76 0 2.41 60 07:31 30.03.2020
345 Clouds 26 1011 76 0 2.41 60 06:57 30.03.2020
346 Clouds 26 1011 76 0 2.41 60 06:33 30.03.2020
347 Clouds 27 1011 75 0 2.02 51 05:54 30.03.2020
348 Clouds 27 1011 75 0 2.02 51 05:22 30.03.2020
349 Clouds 27 1011 75 0 2.02 51 04:23 30.03.2020
350 Clouds 27 1011 75 0 2.02 51 03:44 30.03.2020
351 Clouds 28 1008 78 10000 3.1 280 02:39 30.03.2020
352 Clouds 29 1007 74 10000 4.1 350 01:44 30.03.2020
353 Clouds 29 1006 74 10000 3.6 360 00:49 30.03.2020
354 Clouds 29 1006 74 10000 3.6 360 00:22 30.03.2020
355 Clouds 29 1007 74 10000 4.6 310 23:42 29.03.2020
356 Clouds 29 1007 74 10000 4.6 310 23:23 29.03.2020
357 Clouds 30 1007 70 10000 4.1 320 22:57 29.03.2020
358 Clouds 30 1007 70 10000 4.1 320 22:38 29.03.2020
359 Clouds 30 1007 70 10000 4.1 320 22:19 29.03.2020
360 Clouds 31 1008 62 10000 4.6 330 21:55 29.03.2020
361 Clouds 31 1008 62 10000 4.6 330 21:36 29.03.2020
362 Clouds 31 1008 62 10000 4.6 330 21:36 29.03.2020
363 Clouds 31 1008 62 10000 4.6 330 21:18 29.03.2020
364 Clouds 32 1008 59 10000 4.6 330 20:54 29.03.2020
365 Clouds 32 1008 59 10000 4.6 330 20:36 29.03.2020
366 Clouds 32 1008 59 10000 4.6 330 20:18 29.03.2020
367 Clouds 32 1008 59 10000 5.1 270 19:41 29.03.2020
368 Clouds 32 1008 59 10000 5.1 270 19:23 29.03.2020
369 Clouds 31 1009 58 10000 3.6 260 18:57 29.03.2020
370 Clouds 31 1009 58 10000 3.6 260 18:39 29.03.2020
371 Clouds 31 1009 58 10000 3.6 260 18:20 29.03.2020
372 Clouds 30 1008 62 10000 3.1 270 17:56 29.03.2020
373 Clouds 30 1008 62 10000 3.1 270 17:38 29.03.2020
374 Clouds 30 1008 62 10000 3.1 270 17:20 29.03.2020
375 Clouds 28 1008 69 10000 1.5 10 16:57 29.03.2020
376 Clouds 28 1008 69 10000 1.5 10 16:39 29.03.2020
377 Clouds 28 1008 69 10000 1.5 10 16:20 29.03.2020
378 Clouds 25 1008 78 10000 1.5 100 15:43 29.03.2020
379 Clouds 25 1008 78 10000 1.5 100 15:25 29.03.2020
380 Clouds 23 1007 83 10000 1.5 40 14:59 29.03.2020
381 Clouds 23 1007 83 10000 1.5 40 14:40 29.03.2020
382 Clouds 23 1007 83 10000 1.5 40 14:20 29.03.2020
383 Clouds 26 1009 77 0 4.09 59 13:58 29.03.2020
384 Clouds 26 1009 77 0 4.09 59 13:40 29.03.2020
385 Clouds 26 1009 77 0 4.09 59 13:20 29.03.2020
386 Clouds 26 1009 77 0 4.09 59 12:57 29.03.2020
387 Clouds 26 1009 77 0 4.09 59 12:38 29.03.2020
388 Clouds 26 1009 79 0 4.55 56 12:19 29.03.2020
389 Clouds 26 1009 79 0 4.55 56 12:19 29.03.2020
390 Clouds 26 1009 79 0 4.55 56 11:55 29.03.2020
391 Clouds 26 1009 79 0 4.55 56 11:37 29.03.2020
392 Clouds 26 1009 79 0 4.55 56 11:18 29.03.2020
393 Clouds 26 1009 79 0 4.55 56 11:18 29.03.2020
394 Clouds 26 1009 79 0 4.55 56 10:38 29.03.2020
395 Clouds 26 1009 79 0 4.55 56 10:19 29.03.2020
396 Clouds 26 1009 79 0 4.55 56 09:41 29.03.2020
397 Clouds 26 1009 79 0 4.55 56 09:22 29.03.2020
398 Clouds 26 1010 80 0 3.94 62 08:56 29.03.2020
399 Clouds 26 1010 80 0 3.94 62 08:38 29.03.2020
400 Clouds 26 1010 80 0 3.94 62 08:19 29.03.2020
401 Clouds 26 1010 80 0 3.94 62 07:42 29.03.2020
402 Clouds 26 1010 80 0 3.94 62 07:21 29.03.2020
403 Clouds 26 1011 81 0 3.95 56 05:50 29.03.2020
404 Clouds 26 1011 81 0 3.95 56 04:29 29.03.2020
405 Clouds 26 1011 81 0 3.95 56 03:31 29.03.2020
406 Clouds 27 1005 83 10000 3.1 30 01:51 29.03.2020
407 Clouds 27 1005 83 10000 3.1 30 01:23 29.03.2020
408 Clouds 28 1005 78 10000 3.1 10 00:58 29.03.2020
409 Clouds 28 1005 78 10000 3.1 10 00:33 29.03.2020
410 Clouds 28 1005 78 10000 2.6 20 23:56 28.03.2020
411 Clouds 28 1005 78 10000 2.6 20 23:38 28.03.2020
412 Clouds 28 1005 78 10000 2.6 20 23:18 28.03.2020
413 Clouds 28 1006 78 10000 4.1 30 22:39 28.03.2020
414 Clouds 28 1006 78 10000 4.1 30 22:21 28.03.2020
415 Clouds 29 1006 74 10000 3.1 360 21:55 28.03.2020
416 Clouds 29 1006 74 10000 3.1 360 21:37 28.03.2020
417 Clouds 29 1006 74 10000 3.1 360 21:18 28.03.2020
418 Clouds 29 1006 74 10000 3.1 360 21:18 28.03.2020
419 Clouds 29 1007 74 10000 3.6 340 20:42 28.03.2020
420 Clouds 29 1007 74 10000 3.6 340 20:23 28.03.2020
421 Clouds 29 1008 74 10000 3.6 330 19:57 28.03.2020
422 Clouds 29 1008 74 10000 3.6 330 19:39 28.03.2020
423 Clouds 29 1008 74 10000 3.6 330 19:20 28.03.2020
424 Clouds 29 1008 74 10000 3.6 330 19:20 28.03.2020
425 Clouds 29 1009 74 10000 3.6 360 18:58 28.03.2020
426 Clouds 29 1009 74 10000 3.6 360 18:38 28.03.2020
427 Clouds 29 1009 74 10000 3.6 360 18:19 28.03.2020
428 Clouds 29 1009 74 10000 3.6 360 18:19 28.03.2020
429 Clouds 28 1009 78 10000 2.6 340 17:39 28.03.2020
430 Clouds 28 1009 78 10000 2.6 340 17:20 28.03.2020
431 Clouds 28 941 78 0 2.6 300 16:43 28.03.2020
432 Clouds 28 941 78 0 2.6 300 16:20 28.03.2020
433 Clear 27 941 83 10000 1.5 10 15:58 28.03.2020
434 Clear 27 941 83 10000 1.5 10 15:39 28.03.2020
435 Clear 27 941 83 10000 1.5 10 15:19 28.03.2020
436 Clear 25 1007 83 10000 1 20 14:54 28.03.2020
437 Clear 25 1007 83 10000 1 20 14:36 28.03.2020
438 Clouds 25 1007 83 10000 1 20 14:18 28.03.2020
439 Clouds 22 1007 94 10000 1.5 100 13:38 28.03.2020
440 Clouds 22 1007 94 10000 1.5 100 13:19 28.03.2020
441 Clear 25 1009 82 0 2.99 74 12:39 28.03.2020
442 Clear 25 1009 82 0 2.99 74 12:21 28.03.2020
443 Clear 25 1009 82 0 2.99 74 11:42 28.03.2020
444 Clear 25 1009 82 0 2.99 74 11:21 28.03.2020
445 Clouds 26 1009 81 0 2.12 72 10:56 28.03.2020
446 Clouds 26 1009 81 0 2.12 72 10:37 28.03.2020
447 Clouds 26 1009 81 0 2.12 72 10:18 28.03.2020
448 Clouds 26 1009 81 0 2.12 72 09:41 28.03.2020
449 Clouds 26 1009 81 0 2.12 72 09:22 28.03.2020
450 Clouds 26 1009 81 0 2.12 72 08:45 28.03.2020
451 Clouds 26 1009 81 0 2.12 72 08:27 28.03.2020
452 Clouds 26 1010 83 0 3.06 113 07:59 28.03.2020
453 Clouds 26 1010 83 0 3.06 113 07:41 28.03.2020
454 Clouds 26 1010 83 0 3.06 113 06:54 28.03.2020
455 Clouds 26 1010 83 0 3.06 113 06:29 28.03.2020
456 Clouds 26 1010 83 0 3.06 113 05:38 28.03.2020
457 Clouds 26 1011 82 0 2.53 101 05:19 28.03.2020
458 Clouds 26 1011 82 0 2.53 101 04:39 28.03.2020
459 Clouds 26 1011 82 0 2.53 101 02:52 28.03.2020
460 Clouds 28 1005 74 10000 2.6 320 01:48 28.03.2020
461 Clouds 28 1005 74 10000 2.6 320 01:23 28.03.2020
462 Clouds 29 1005 74 10000 3.1 310 00:51 28.03.2020
463 Clouds 29 1005 74 10000 3.1 310 00:25 28.03.2020
464 Clouds 29 1005 74 10000 3.6 10 23:44 27.03.2020
465 Clouds 29 1005 74 10000 3.6 10 23:26 27.03.2020
466 Clouds 30 1006 70 10000 3.6 350 22:57 27.03.2020
467 Clouds 30 1006 70 10000 3.6 350 22:39 27.03.2020
468 Clouds 30 1006 70 10000 3.6 350 22:20 27.03.2020
469 Clouds 30 1006 70 10000 4.1 310 21:58 27.03.2020
470 Clouds 30 1006 70 10000 4.1 310 21:40 27.03.2020
471 Clouds 30 1006 70 10000 4.1 310 21:22 27.03.2020
472 Clouds 30 1006 70 10000 4.1 310 21:22 27.03.2020
473 Clouds 30 1007 66 10000 3.6 330 20:56 27.03.2020
474 Clouds 30 1007 66 10000 3.6 330 20:37 27.03.2020
475 Clouds 30 1007 66 10000 3.6 330 20:19 27.03.2020
476 Clouds 30 1008 70 10000 3.6 360 19:43 27.03.2020
477 Clouds 30 1008 70 10000 3.6 360 19:23 27.03.2020
478 Clouds 29 1009 74 10000 3.1 330 18:57 27.03.2020
479 Clouds 29 1009 74 10000 3.1 330 18:38 27.03.2020
480 Clouds 29 1009 74 10000 3.1 330 18:19 27.03.2020
481 Clouds 28 1009 78 10000 3.6 350 17:40 27.03.2020
482 Clouds 28 1009 78 10000 3.6 350 17:20 27.03.2020
483 Clouds 28 1009 78 10000 3.1 330 16:55 27.03.2020
484 Clouds 28 1009 78 10000 3.1 330 16:37 27.03.2020
485 Clouds 28 1009 78 10000 3.1 330 16:19 27.03.2020
486 Clouds 27 1008 83 10000 2.1 120 15:42 27.03.2020
487 Clouds 27 1008 83 10000 2.1 120 15:24 27.03.2020
488 Clouds 24 1007 88 10000 1.5 130 14:46 27.03.2020
489 Clouds 24 1007 88 10000 1.5 130 14:25 27.03.2020
490 Clouds 22 1007 94 10000 1.5 90 13:57 27.03.2020
491 Clouds 22 1007 94 10000 1.5 90 13:38 27.03.2020
492 Clouds 22 1007 94 10000 1.5 90 13:19 27.03.2020
493 Clouds 25 1009 79 0 2.62 27 12:55 27.03.2020
494 Clouds 25 1009 79 0 2.62 27 12:37 27.03.2020
495 Clouds 25 1009 79 0 2.62 27 12:18 27.03.2020
496 Clouds 25 1009 79 0 2.62 27 11:41 27.03.2020
497 Clouds 25 1009 79 0 2.62 27 11:23 27.03.2020
498 Clouds 25 1009 77 0 3 71 10:55 27.03.2020
499 Clouds 25 1009 77 0 3 71 10:37 27.03.2020
500 Clouds 25 1009 77 0 3 71 10:37 27.03.2020
501 Clouds 25 1009 77 0 3 71 10:18 27.03.2020
502 Clouds 25 1009 77 0 3 71 09:56 27.03.2020
503 Clouds 25 1009 77 0 3 71 09:37 27.03.2020
504 Clouds 25 1009 77 0 3 71 09:18 27.03.2020
505 Clouds 25 1009 77 0 3 71 08:55 27.03.2020
506 Clouds 25 1009 77 0 3 71 08:37 27.03.2020
507 Clouds 26 1010 77 0 2.45 68 08:18 27.03.2020
508 Clouds 26 1010 77 0 2.45 68 07:49 27.03.2020
509 Clouds 26 1010 77 0 2.45 68 07:23 27.03.2020
510 Clouds 26 1010 77 0 2.45 68 06:46 27.03.2020
511 Clouds 26 1010 77 0 2.45 68 06:27 27.03.2020
512 Clouds 26 1011 79 0 2.23 58 04:21 27.03.2020
513 Clouds 28 1006 78 10000 2.6 100 02:25 27.03.2020
514 Clouds 28 1006 78 10000 2.6 100 01:22 27.03.2020
515 Clouds 28 1005 78 10000 4.6 150 00:47 27.03.2020
516 Clouds 28 1005 78 10000 4.6 150 00:23 27.03.2020
517 Clouds 28 1006 78 10000 3.6 270 23:42 26.03.2020
518 Clouds 29 1006 74 10000 3.1 300 23:19 26.03.2020
519 Clouds 29 1006 74 10000 3.1 300 22:57 26.03.2020
520 Clouds 29 1006 74 10000 3.1 300 22:37 26.03.2020
521 Clouds 29 1006 74 10000 3.1 300 22:18 26.03.2020
522 Clouds 29 1007 74 10000 4.1 330 21:40 26.03.2020
523 Clouds 29 1007 74 10000 4.1 330 21:22 26.03.2020
524 Clouds 29 1008 74 10000 3.6 350 20:59 26.03.2020
525 Clouds 29 1008 74 10000 3.6 350 20:39 26.03.2020
526 Clouds 29 1008 74 10000 3.6 350 20:21 26.03.2020
527 Clouds 29 1009 74 10000 3.1 350 19:58 26.03.2020
528 Clouds 29 1009 74 10000 3.1 350 19:40 26.03.2020
529 Clouds 29 1009 74 10000 3.1 350 19:21 26.03.2020
530 Clouds 29 1010 70 10000 3.1 270 18:58 26.03.2020
531 Clouds 29 1010 70 10000 3.1 270 18:40 26.03.2020
532 Clouds 29 1010 70 10000 3.1 270 18:21 26.03.2020
533 Clouds 29 1010 70 10000 2.6 280 17:44 26.03.2020
534 Clouds 29 1010 70 10000 2.6 280 17:44 26.03.2020
535 Clouds 28 1010 74 10000 3.1 360 17:20 26.03.2020
536 Clouds 28 1010 74 10000 3.1 360 16:57 26.03.2020
537 Clouds 28 1010 74 10000 3.1 360 16:38 26.03.2020
538 Clouds 28 1010 74 10000 3.1 360 16:18 26.03.2020
539 Clear 26 1009 83 10000 2.1 300 15:42 26.03.2020
540 Clear 26 1009 83 10000 2.1 300 15:22 26.03.2020
541 Clouds 23 1008 88 10000 1.5 60 14:59 26.03.2020
542 Clouds 23 1008 88 10000 1.5 60 14:41 26.03.2020
543 Clouds 23 1008 88 10000 1.5 60 14:23 26.03.2020
544 Clouds 21 1008 94 10000 2.1 130 13:45 26.03.2020
545 Clouds 21 1008 94 10000 2.1 130 13:24 26.03.2020
546 Clouds 26 1010 78 0 4.43 93 12:59 26.03.2020
547 Clouds 26 1010 78 0 4.43 93 12:38 26.03.2020
548 Clouds 26 1010 78 0 4.43 93 12:20 26.03.2020
549 Clouds 26 1010 78 0 4.43 93 11:46 26.03.2020
550 Clouds 26 1010 78 0 4.43 93 11:22 26.03.2020
551 Clouds 26 1010 78 0 4.43 93 11:22 26.03.2020
552 Clouds 25 1010 78 0 3.26 83 10:56 26.03.2020
553 Clouds 25 1010 78 0 3.26 83 10:37 26.03.2020
554 Clouds 25 1010 78 0 3.26 83 10:19 26.03.2020
555 Clouds 25 1010 78 0 3.26 83 09:44 26.03.2020
556 Clouds 25 1010 78 0 3.26 83 09:20 26.03.2020
557 Clouds 25 1010 78 0 3.26 83 08:55 26.03.2020
558 Clouds 25 1010 78 0 3.26 83 08:37 26.03.2020
559 Clouds 26 1011 77 0 2.71 72 08:18 26.03.2020
560 Clouds 26 1011 79 0 2.79 61 07:43 26.03.2020
561 Clouds 26 1011 79 0 2.79 61 07:21 26.03.2020
562 Clouds 26 1011 79 0 2.79 61 06:48 26.03.2020
563 Clouds 26 1011 79 0 2.79 61 05:54 26.03.2020
564 Clouds 26 1011 78 0 2.99 64 03:59 26.03.2020
565 Clouds 26 1011 78 0 2.99 64 03:36 26.03.2020
566 Clouds 26 1011 78 0 2.99 64 02:54 26.03.2020
567 Clouds 27 1007 78 10000 3.1 250 01:50 26.03.2020
568 Clouds 28 1007 78 10000 2.6 240 00:45 26.03.2020
569 Clouds 29 1007 74 10000 4.6 290 23:47 25.03.2020
570 Clouds 29 1007 74 10000 4.6 290 23:28 25.03.2020
571 Clouds 29 1007 74 10000 4.1 270 22:58 25.03.2020
572 Clouds 29 1007 74 10000 4.1 270 22:38 25.03.2020
573 Clouds 29 1007 74 10000 4.1 270 22:20 25.03.2020
574 Clouds 30 1008 70 10000 4.1 280 21:55 25.03.2020
575 Clouds 30 1008 70 10000 4.1 280 21:37 25.03.2020
576 Clouds 30 1008 70 10000 4.1 280 21:18 25.03.2020
577 Clouds 29 1009 74 10000 4.1 290 20:40 25.03.2020
578 Clouds 29 1009 74 10000 4.1 290 20:20 25.03.2020
579 Clouds 29 1010 74 10000 2.6 350 19:58 25.03.2020
580 Clouds 29 1010 74 10000 2.6 350 19:39 25.03.2020
581 Clouds 29 1010 74 10000 2.6 350 19:21 25.03.2020
582 Clouds 29 1010 74 10000 3.1 300 18:54 25.03.2020
583 Clouds 29 1010 74 10000 3.1 300 18:36 25.03.2020
584 Clouds 29 1010 74 10000 3.1 300 18:36 25.03.2020
585 Clouds 29 1011 74 10000 4.1 20 18:18 25.03.2020
586 Clouds 29 1011 74 10000 4.1 20 17:41 25.03.2020
587 Clouds 29 1011 74 10000 4.1 20 17:22 25.03.2020
588 Clouds 28 1011 78 10000 3.1 20 16:58 25.03.2020
589 Clouds 28 1011 78 10000 3.1 20 16:39 25.03.2020
590 Clouds 28 1011 78 10000 3.1 20 16:21 25.03.2020
591 Clouds 27 1010 83 10000 2.1 20 15:43 25.03.2020
592 Clouds 27 1010 83 10000 2.1 20 15:21 25.03.2020
593 Clouds 23 1009 88 10000 1.5 40 14:59 25.03.2020
594 Clouds 23 1009 88 10000 1.5 40 14:40 25.03.2020
595 Clouds 23 1009 88 10000 1.5 40 14:20 25.03.2020
596 Clouds 22 1008 88 10000 2.1 70 13:44 25.03.2020
597 Clouds 22 1008 88 10000 2.1 70 13:24 25.03.2020
598 Clouds 25 1011 84 0 4.08 69 12:39 25.03.2020
599 Clouds 25 1011 84 0 4.08 69 12:21 25.03.2020
600 Clouds 25 1011 82 0 4.01 70 11:59 25.03.2020
601 Clouds 25 1011 84 0 4.08 69 11:40 25.03.2020
602 Clouds 25 1011 84 0 4.08 69 11:21 25.03.2020
603 Clouds 25 1011 83 0 3.37 67 10:58 25.03.2020
604 Clouds 25 1011 83 0 3.37 67 10:39 25.03.2020
605 Clouds 25 1011 83 0 3.37 67 10:39 25.03.2020
606 Clouds 25 1011 83 0 3.37 67 10:39 25.03.2020
607 Clouds 25 1011 83 0 3.37 67 10:18 25.03.2020
608 Clouds 25 1011 83 0 3.37 67 09:43 25.03.2020
609 Clouds 25 1011 83 0 3.37 67 09:25 25.03.2020
610 Clouds 25 1011 83 0 3.37 67 08:58 25.03.2020
611 Clouds 25 1011 83 0 3.37 67 08:39 25.03.2020
612 Clouds 25 1012 83 0 3.87 66 08:20 25.03.2020
613 Clouds 25 1012 82 0 3.98 73 07:44 25.03.2020
614 Clouds 25 1012 82 0 3.98 73 07:24 25.03.2020
615 Clouds 25 1012 82 0 3.98 73 06:50 25.03.2020
616 Clouds 25 1012 82 0 3.98 73 06:29 25.03.2020
617 Clouds 25 1012 82 0 3.98 73 06:29 25.03.2020
618 Clouds 25 1012 82 0 3.98 73 05:58 25.03.2020
619 Clouds 25 1012 82 0 3.98 73 05:37 25.03.2020
620 Clouds 26 1013 80 0 3.57 54 04:41 25.03.2020
621 Clouds 26 1013 80 0 3.57 54 03:52 25.03.2020
622 Clouds 26 1013 80 0 3.57 54 03:29 25.03.2020
623 Clouds 26 1009 88 10000 3.1 330 01:31 25.03.2020
624 Clouds 27 1008 83 10000 3.1 350 00:49 25.03.2020
625 Clouds 27 1008 83 10000 3.1 350 00:26 25.03.2020
626 Clouds 28 1008 78 10000 3.6 350 23:50 24.03.2020
627 Clouds 28 1008 78 10000 3.6 350 23:28 24.03.2020
628 Clouds 29 1009 74 10000 4.6 330 22:57 24.03.2020
629 Clouds 29 1009 74 10000 4.6 330 22:38 24.03.2020
630 Clouds 29 1009 74 10000 4.6 330 22:19 24.03.2020
631 Clouds 29 1009 74 10000 4.6 330 22:19 24.03.2020
632 Clouds 29 1009 74 10000 4.6 330 22:19 24.03.2020
633 Clouds 26 1010 79 0 3.7 73 21:56 24.03.2020
634 Clouds 26 1010 79 0 3.7 73 21:38 24.03.2020
635 Clouds 29 1010 74 10000 3.1 300 21:18 24.03.2020
636 Clouds 29 1010 74 10000 3.1 300 20:56 24.03.2020
637 Clouds 29 1010 74 10000 3.1 300 20:38 24.03.2020
638 Clouds 29 1010 74 10000 3.1 300 20:20 24.03.2020
639 Clouds 28 1011 78 10000 4.1 10 19:44 24.03.2020
640 Clouds 28 1011 78 10000 4.1 10 19:19 24.03.2020
641 Clouds 26 1013 80 0 3.82 96 18:56 24.03.2020
642 Clouds 26 1013 80 0 3.82 96 18:56 24.03.2020
643 Clouds 26 1013 80 0 3.82 96 18:37 24.03.2020
644 Clouds 28 1012 78 10000 3.6 300 18:18 24.03.2020
645 Clouds 28 1012 78 10000 3.6 300 17:42 24.03.2020
646 Clouds 28 1012 78 10000 3.6 300 17:24 24.03.2020
647 Clouds 26 1015 78 0 3.9 80 16:58 24.03.2020
648 Clouds 26 1015 78 0 3.9 80 16:40 24.03.2020
649 Clouds 26 1015 78 0 3.9 80 16:22 24.03.2020
650 Clouds 26 1015 78 0 3.9 80 15:58 24.03.2020
651 Clouds 26 1015 78 0 3.9 80 15:38 24.03.2020
652 Clouds 23 1011 88 0 1.5 90 15:20 24.03.2020
653 Clouds 23 1011 88 0 1.5 90 14:43 24.03.2020
654 Clouds 23 1011 88 0 1.5 90 14:20 24.03.2020
655 Clouds 21 1010 94 10000 2.1 60 13:44 24.03.2020
656 Clouds 21 1010 94 10000 2.1 60 13:24 24.03.2020
657 Clouds 25 1012 80 0 3.28 73 12:58 24.03.2020
658 Clouds 25 1012 80 0 3.28 73 12:38 24.03.2020
659 Clouds 25 1012 80 0 3.28 73 12:38 24.03.2020
660 Clouds 25 1012 80 0 3.28 73 12:20 24.03.2020
661 Clouds 25 1012 80 0 3.28 73 11:40 24.03.2020
662 Clear 25 1012 81 0 3.79 68 11:20 24.03.2020
663 Clear 25 1012 81 0 3.79 68 10:54 24.03.2020
664 Clear 25 1012 81 0 3.79 68 10:36 24.03.2020
665 Clear 25 1012 81 0 3.79 68 10:18 24.03.2020
666 Clear 25 1012 81 0 3.79 68 09:42 24.03.2020
667 Clear 25 1012 81 0 3.79 68 09:24 24.03.2020
668 Clear 25 1012 81 0 3.79 68 08:40 24.03.2020
669 Clear 25 1012 81 0 3.79 68 08:21 24.03.2020
670 Clear 25 1012 81 0 3.79 68 08:21 24.03.2020
671 Clouds 25 1013 81 0 3.51 70 07:51 24.03.2020
672 Clouds 25 1013 81 0 3.51 70 07:25 24.03.2020
673 Clouds 25 1013 81 0 3.51 70 07:25 24.03.2020
674 Clouds 25 1013 81 0 3.51 70 06:58 24.03.2020
675 Clouds 25 1013 81 0 3.51 70 06:32 24.03.2020
676 Clouds 25 1013 81 0 3.51 70 05:27 24.03.2020
677 Clouds 26 1014 80 0 3.75 70 04:31 24.03.2020
678 Clouds 26 1014 80 0 3.75 70 03:18 24.03.2020
679 Clouds 27 1010 83 10000 4.1 20 01:49 24.03.2020
680 Clouds 28 1009 74 10000 4.1 30 00:49 24.03.2020
681 Clouds 28 1009 74 10000 4.1 30 00:26 24.03.2020
682 Clouds 29 1009 70 10000 4.6 20 23:46 23.03.2020
683 Clouds 29 1009 70 10000 4.6 20 23:26 23.03.2020
684 Clouds 29 1009 70 10000 4.1 10 22:56 23.03.2020
685 Clouds 29 1009 70 10000 4.1 10 22:37 23.03.2020
686 Clouds 29 1009 70 10000 4.1 10 22:19 23.03.2020
687 Clouds 29 1010 70 10000 5.1 60 21:44 23.03.2020
688 Clouds 29 1010 70 10000 5.1 60 21:21 23.03.2020
689 Clouds 29 1011 70 10000 3.6 50 20:58 23.03.2020
690 Clouds 29 1011 70 10000 3.6 50 20:40 23.03.2020
691 Clouds 29 1011 70 10000 3.6 50 20:22 23.03.2020
692 Clouds 29 1011 70 10000 6.7 30 19:46 23.03.2020
693 Clouds 29 1011 70 10000 6.7 30 19:28 23.03.2020
694 Clouds 29 1012 70 10000 5.7 40 18:59 23.03.2020
695 Clouds 29 1012 70 10000 5.7 40 18:41 23.03.2020
696 Clouds 29 1012 70 10000 5.7 40 18:22 23.03.2020
697 Clouds 29 1012 70 10000 5.7 40 17:56 23.03.2020
698 Clouds 29 1012 74 10000 6.2 30 17:37 23.03.2020
699 Clouds 27 1012 83 10000 4.1 330 17:18 23.03.2020
700 Clouds 27 1012 83 10000 4.1 330 16:43 23.03.2020
701 Clouds 27 1012 83 10000 4.1 330 16:24 23.03.2020
702 Clouds 27 1012 83 10000 2.1 320 15:42 23.03.2020
703 Clouds 27 1012 83 10000 2.1 320 15:20 23.03.2020
704 Clouds 24 1011 88 10000 1.5 290 14:55 23.03.2020
705 Clouds 24 1011 88 10000 1.5 290 14:36 23.03.2020
706 Clouds 24 1011 88 10000 1.5 290 14:18 23.03.2020
707 Clouds 22 1010 94 10000 1.5 10 13:40 23.03.2020
708 Clouds 22 1010 94 10000 1.5 10 13:40 23.03.2020
709 Clouds 22 1010 94 10000 1.5 10 13:22 23.03.2020
710 Clouds 25 1013 82 0 4.68 61 12:46 23.03.2020
711 Clouds 25 1013 82 0 4.68 61 12:26 23.03.2020
712 Clouds 25 1013 82 0 4.68 61 11:59 23.03.2020
713 Clouds 25 1013 82 0 4.68 61 11:40 23.03.2020
714 Clouds 25 1013 82 0 4.68 61 11:21 23.03.2020
715 Clear 25 1011 79 0 4.93 54 10:58 23.03.2020
716 Clear 25 1011 79 0 4.93 54 10:58 23.03.2020
717 Clear 25 1011 79 0 4.93 54 10:39 23.03.2020
718 Clear 25 1011 79 0 4.93 54 10:21 23.03.2020
719 Clear 25 1011 79 0 4.93 54 09:46 23.03.2020
720 Clear 25 1011 79 0 4.93 54 09:21 23.03.2020
721 Clear 25 1011 79 0 4.93 54 08:58 23.03.2020
722 Clear 25 1011 79 0 4.93 54 08:36 23.03.2020
723 Clear 26 1012 78 0 4.78 74 08:18 23.03.2020
724 Clear 26 1013 79 0 4.66 79 07:45 23.03.2020
725 Clear 26 1013 79 0 4.66 79 07:27 23.03.2020
726 Clear 26 1013 79 0 4.66 79 06:52 23.03.2020
727 Clear 26 1013 79 0 4.66 79 05:54 23.03.2020
728 Clear 26 1013 79 0 4.66 79 05:29 23.03.2020
729 Clear 26 1013 78 0 4.8 79 03:29 23.03.2020
730 Clouds 27 1008 83 10000 2.1 300 02:29 23.03.2020
731 Clouds 27 1008 83 10000 2.1 300 01:34 23.03.2020
732 Clear 26 1010 75 0 4.33 96 00:40 23.03.2020
733 Clear 26 1010 75 0 4.33 96 23:48 22.03.2020
734 Clear 26 1010 75 0 4.33 96 23:26 22.03.2020
735 Clear 26 1010 73 0 3.52 111 22:45 22.03.2020
736 Clear 26 1010 73 0 3.52 111 22:26 22.03.2020
737 Clear 26 1010 73 0 3.52 111 21:56 22.03.2020
738 Clear 26 1010 73 0 3.52 111 21:37 22.03.2020
739 Clear 26 1010 73 0 3.52 111 21:19 22.03.2020
740 Clear 26 1010 73 0 3.52 111 20:46 22.03.2020
741 Clear 26 1010 73 0 3.52 111 20:26 22.03.2020
742 Clear 26 1012 77 0 3.96 113 19:59 22.03.2020
743 Clear 26 1012 77 0 3.96 113 19:40 22.03.2020
744 Clear 26 1012 77 0 3.96 113 19:21 22.03.2020
745 Clear 26 1012 77 0 3.96 113 18:59 22.03.2020
746 Clear 26 1012 77 0 3.96 113 18:41 22.03.2020
747 Clear 26 1012 77 0 3.96 113 18:22 22.03.2020
748 Clear 26 1012 77 0 3.96 113 17:59 22.03.2020
749 Clear 26 1012 77 0 3.96 113 17:39 22.03.2020
750 Clear 26 1012 77 0 3.96 113 17:39 22.03.2020
751 Clear 26 1012 77 0 3.96 113 17:21 22.03.2020
752 Clear 26 1014 78 0 4.16 96 16:58 22.03.2020
753 Clear 26 1014 78 0 4.16 96 16:40 22.03.2020
754 Clear 26 1014 78 0 4.16 96 16:21 22.03.2020
755 Clear 26 1014 78 0 4.16 96 15:57 22.03.2020
756 Clear 26 1014 78 0 4.16 96 15:39 22.03.2020
757 Clouds 24 1009 83 10000 1.5 50 14:47 22.03.2020
758 Clouds 24 1009 83 10000 1.5 50 14:19 22.03.2020
759 Clouds 22 1008 88 10000 1.5 90 13:56 22.03.2020
760 Clouds 22 1008 88 10000 1.5 90 13:37 22.03.2020
761 Clouds 22 1008 88 10000 1.5 90 13:19 22.03.2020
762 Clouds 26 1011 79 0 3.75 73 12:43 22.03.2020
763 Clouds 26 1011 79 0 3.75 73 12:20 22.03.2020
764 Clouds 26 1011 79 0 3.75 73 11:56 22.03.2020
765 Clouds 26 1011 79 0 3.75 73 11:37 22.03.2020
766 Clouds 26 1011 78 0 3.7 65 11:19 22.03.2020
767 Clouds 26 1011 78 0 3.7 65 10:43 22.03.2020
768 Clouds 26 1011 78 0 3.7 65 10:23 22.03.2020
769 Clouds 26 1011 78 0 3.7 65 09:48 22.03.2020
770 Clouds 26 1011 78 0 3.7 65 09:29 22.03.2020
771 Clouds 26 1011 78 0 3.7 65 08:54 22.03.2020
772 Clouds 26 1011 78 0 3.7 65 08:36 22.03.2020
773 Clouds 26 1012 80 0 4.83 65 08:18 22.03.2020
774 Clouds 26 1012 80 0 5.1 65 07:41 22.03.2020
775 Clouds 26 1012 80 0 5.1 65 07:18 22.03.2020
776 Clouds 26 1012 80 0 5.1 65 05:54 22.03.2020
777 Clouds 26 1013 80 0 4.7 52 04:39 22.03.2020
778 Clouds 26 1013 80 0 4.7 52 02:34 22.03.2020
779 Clouds 26 1008 88 10000 5.1 20 01:19 22.03.2020
780 Clouds 27 1008 83 10000 5.1 20 00:34 22.03.2020
781 Clouds 28 1008 78 10000 5.22 46 23:47 21.03.2020
782 Clouds 28 1008 78 10000 5.22 46 23:23 21.03.2020
783 Clouds 29 1009 74 10000 5.1 30 22:59 21.03.2020
784 Clouds 29 1009 74 10000 5.1 30 22:38 21.03.2020
785 Clouds 29 1009 74 10000 5.1 30 22:20 21.03.2020
786 Clouds 29 1010 74 10000 3.1 20 21:58 21.03.2020
787 Clouds 29 1010 74 10000 3.1 20 21:38 21.03.2020
788 Clouds 29 1010 74 10000 3.1 20 21:20 21.03.2020
789 Clouds 29 1011 79 10000 4.1 10 20:43 21.03.2020
790 Clouds 29 1011 79 10000 4.1 10 20:22 21.03.2020
791 Clouds 29 1012 79 10000 3.6 20 19:55 21.03.2020
792 Clouds 29 1012 79 10000 3.6 20 19:37 21.03.2020
793 Clouds 29 1012 79 10000 3.6 20 19:18 21.03.2020
794 Clouds 28 1012 78 10000 4.1 10 18:41 21.03.2020
795 Clouds 28 1012 78 10000 4.1 10 18:21 21.03.2020
796 Clouds 28 1013 78 10000 2.6 10 17:59 21.03.2020
797 Clouds 28 1013 78 10000 2.6 10 17:41 21.03.2020
798 Clouds 28 1013 78 10000 2.6 10 17:22 21.03.2020
799 Clouds 27 1012 78 10000 2.6 30 16:42 21.03.2020
800 Clouds 27 1012 78 10000 2.6 30 16:24 21.03.2020
801 Clouds 26 1012 83 10000 2.1 40 15:59 21.03.2020
802 Clouds 26 1012 83 10000 2.1 40 15:40 21.03.2020
803 Clouds 26 1012 83 10000 2.1 40 15:22 21.03.2020
804 Clouds 24 1011 88 10000 1.5 90 14:57 21.03.2020
805 Clouds 24 1011 88 10000 1.5 90 14:38 21.03.2020
806 Clouds 24 1011 88 10000 1.5 90 14:19 21.03.2020
807 Clouds 22 1010 94 10000 1.5 90 13:57 21.03.2020
808 Clouds 22 1010 94 10000 1.5 90 13:39 21.03.2020
809 Clouds 22 1010 94 10000 1.5 90 13:20 21.03.2020
810 Clouds 25 1013 79 0 3.5 41 12:54 21.03.2020
811 Clouds 25 1013 79 0 3.5 41 12:36 21.03.2020
812 Clouds 25 1013 79 0 3.5 41 12:18 21.03.2020
813 Clouds 25 1013 79 0 3.5 41 11:54 21.03.2020
814 Clouds 25 1013 79 0 3.5 41 11:54 21.03.2020
815 Clouds 25 1013 79 0 3.5 41 11:36 21.03.2020
816 Clouds 25 1011 78 0 2.54 34 11:18 21.03.2020
817 Clouds 25 1011 78 0 2.54 34 10:55 21.03.2020
818 Clouds 25 1011 78 0 2.54 34 10:55 21.03.2020
819 Clouds 25 1011 78 0 2.54 34 10:37 21.03.2020
820 Clouds 25 1011 78 0 2.54 34 10:18 21.03.2020
821 Clouds 25 1011 78 0 2.54 34 09:40 21.03.2020
822 Clouds 25 1011 78 0 2.54 34 09:21 21.03.2020
823 Clouds 25 1011 78 0 2.54 34 08:56 21.03.2020
824 Clouds 25 1011 78 0 2.54 34 08:38 21.03.2020
825 Clouds 25 1013 79 0 3.21 45 08:19 21.03.2020
826 Clouds 26 1013 77 0 3.2 50 07:39 21.03.2020
827 Clouds 26 1013 77 0 3.2 50 07:20 21.03.2020
828 Clouds 26 1013 77 0 3.2 50 06:44 21.03.2020
829 Clouds 26 1013 77 0 3.2 50 06:25 21.03.2020
830 Clouds 26 1013 77 0 3.2 50 05:40 21.03.2020
831 Clear 26 1014 76 0 3.43 51 04:26 21.03.2020
832 Clear 26 1014 76 0 3.43 51 02:37 21.03.2020
833 Clouds 27 1010 83 10000 3.6 40 01:45 21.03.2020
834 Clouds 27 1010 83 10000 3.6 40 01:25 21.03.2020
835 Clouds 26 1012 70 0 1.94 77 00:39 21.03.2020
836 Clouds 26 1012 70 0 1.94 77 00:21 21.03.2020
837 Clouds 26 1012 70 0 1.94 77 23:43 20.03.2020
838 Clouds 26 1012 70 0 1.94 77 23:22 20.03.2020
839 Clear 26 1012 71 0 2.47 125 22:44 20.03.2020
840 Clouds 28 1011 78 10000 4.1 10 22:25 20.03.2020
841 Clouds 28 1011 78 10000 4.1 10 21:58 20.03.2020
842 Clouds 28 1011 78 10000 4.1 10 21:40 20.03.2020
843 Clouds 28 1011 78 10000 4.1 10 21:20 20.03.2020
844 Clouds 28 1012 78 10000 3.6 10 20:58 20.03.2020
845 Clouds 28 1012 78 10000 3.6 10 20:40 20.03.2020
846 Clouds 28 1012 78 10000 3.6 10 20:19 20.03.2020
847 Clouds 28 1013 78 10000 3.1 360 19:47 20.03.2020
848 Clouds 28 1013 78 10000 3.1 360 19:20 20.03.2020
849 Clouds 28 1014 78 10000 3.6 10 18:58 20.03.2020
850 Clouds 28 1014 78 10000 3.6 10 18:38 20.03.2020
851 Clouds 28 1014 78 10000 3.6 10 18:20 20.03.2020
852 Clouds 28 1014 74 10000 2.6 10 17:56 20.03.2020
853 Clouds 28 1014 74 10000 2.6 10 17:37 20.03.2020
854 Clouds 27 1014 83 10000 3.1 20 17:18 20.03.2020
855 Clouds 27 1014 83 10000 3.1 20 16:41 20.03.2020
856 Clouds 27 1014 83 10000 3.1 20 16:21 20.03.2020
857 Clouds 26 1013 83 10000 3.6 40 15:44 20.03.2020
858 Clouds 26 1013 83 10000 3.6 40 15:23 20.03.2020
859 Clouds 25 1012 83 10000 2.1 30 14:58 20.03.2020
860 Clouds 25 1012 83 10000 2.1 30 14:40 20.03.2020
861 Clouds 25 1012 83 10000 2.1 30 14:20 20.03.2020
862 Clouds 25 1014 75 0 1.52 72 13:48 20.03.2020
863 Clouds 25 1014 78 0 2.24 47 13:21 20.03.2020
864 Clouds 25 1014 78 0 2.24 47 12:58 20.03.2020
865 Clouds 25 1014 78 0 2.24 47 12:37 20.03.2020
866 Clouds 25 1014 78 0 2.24 47 12:18 20.03.2020
867 Clouds 25 1014 78 0 2.24 47 11:39 20.03.2020
868 Clouds 26 1013 76 0 1.81 64 11:20 20.03.2020
869 Clouds 26 1013 76 0 1.81 64 10:54 20.03.2020
870 Clouds 26 1013 76 0 1.81 64 10:36 20.03.2020
871 Clouds 26 1013 76 0 1.81 64 10:18 20.03.2020
872 Clouds 26 1013 76 0 1.81 64 09:43 20.03.2020
873 Clouds 26 1013 76 0 1.81 64 09:20 20.03.2020
874 Clouds 26 1013 76 0 1.81 64 08:43 20.03.2020
875 Clouds 26 1013 76 0 1.81 64 08:23 20.03.2020
876 Clouds 26 1015 76 0 2.16 97 07:57 20.03.2020
877 Clouds 26 1015 76 0 2.16 97 07:38 20.03.2020
878 Clouds 26 1015 76 0 2.16 97 07:19 20.03.2020
879 Clouds 26 1015 76 0 2.16 97 06:42 20.03.2020
880 Clear 26 1015 76 0 2.03 88 04:57 20.03.2020
881 Clear 26 1015 76 0 2.03 88 04:27 20.03.2020
882 Clouds 28 1011 74 10000 2.6 320 02:27 20.03.2020
883 Clouds 28 1011 74 10000 2.6 320 01:50 20.03.2020
884 Clouds 28 1010 74 10000 2.6 270 00:38 20.03.2020
885 Clouds 28 1010 74 10000 2.6 270 23:55 19.03.2020
886 Clouds 26 1013 75 0 2.97 103 23:36 19.03.2020
887 Clouds 26 1012 78 0 4.05 104 23:18 19.03.2020
888 Clouds 26 1012 78 0 4.05 104 22:38 19.03.2020
889 Clouds 26 1012 78 0 4.05 104 22:20 19.03.2020
890 Clouds 26 1012 78 0 4.05 104 21:56 19.03.2020
891 Clouds 26 1012 78 0 4.05 104 21:37 19.03.2020
892 Clouds 26 1012 78 0 4.05 104 21:18 19.03.2020
893 Clouds 26 1012 78 0 4.05 104 21:18 19.03.2020
894 Clouds 26 1012 78 0 4.05 104 20:42 19.03.2020
895 Clouds 30 1012 70 10000 5.1 30 20:23 19.03.2020
896 Clouds 30 1012 70 10000 5.1 30 19:56 19.03.2020
897 Clouds 30 1012 70 10000 5.1 30 19:38 19.03.2020
898 Clouds 30 1012 70 10000 5.1 30 19:19 19.03.2020
899 Clouds 26 1014 78 0 4.61 99 18:56 19.03.2020
900 Clouds 26 1014 78 0 4.61 99 18:38 19.03.2020
901 Clouds 29 1013 70 10000 1.5 40 18:19 19.03.2020
902 Clouds 29 1013 70 10000 1.5 40 17:41 19.03.2020
903 Clouds 28 1013 78 10000 1.5 270 17:19 19.03.2020
904 Clouds 28 1013 78 10000 1.5 270 16:45 19.03.2020
905 Clouds 28 1013 78 10000 1.5 270 16:24 19.03.2020
906 Clouds 26 1015 78 0 4.4 90 15:54 19.03.2020
907 Clouds 26 1015 78 0 4.4 90 15:36 19.03.2020
908 Clouds 26 1015 78 0 4.4 90 15:18 19.03.2020
909 Clouds 26 1015 78 0 4.4 90 14:42 19.03.2020
910 Clouds 22 1011 94 10000 1.5 60 14:20 19.03.2020
911 Clouds 22 1011 94 10000 1.5 60 13:41 19.03.2020
912 Clouds 22 1011 94 10000 1.5 60 13:19 19.03.2020
913 Clouds 26 1014 78 0 3.75 72 12:56 19.03.2020
914 Clouds 26 1014 78 0 3.75 72 12:56 19.03.2020
915 Clouds 26 1014 78 0 3.75 72 12:38 19.03.2020
916 Clouds 26 1014 78 0 3.75 72 12:19 19.03.2020
917 Clouds 26 1014 78 0 3.75 72 11:42 19.03.2020
918 Clouds 26 1014 78 0 3.75 72 11:23 19.03.2020
919 Clouds 25 1012 80 0 3.01 55 10:57 19.03.2020
920 Clouds 25 1012 80 0 3.01 55 10:37 19.03.2020
921 Clouds 25 1012 80 0 3.01 55 10:18 19.03.2020
922 Clouds 25 1012 80 0 3.01 55 09:44 19.03.2020
923 Clouds 25 1012 80 0 3.01 55 09:26 19.03.2020
924 Clouds 25 1012 80 0 3.01 55 08:57 19.03.2020
925 Clouds 25 1012 80 0 3.01 55 08:38 19.03.2020
926 Clouds 26 1014 79 0 2.71 66 08:18 19.03.2020
927 Clouds 26 1014 79 0 2.71 66 07:43 19.03.2020
928 Clouds 26 1014 79 0 2.71 66 07:22 19.03.2020
929 Clouds 26 1014 79 0 2.71 66 06:29 19.03.2020
930 Clouds 26 1014 79 0 2.71 66 05:25 19.03.2020
931 Clouds 26 1013 78 0 2.98 66 04:51 19.03.2020
932 Clouds 26 1013 78 0 2.98 66 04:22 19.03.2020
933 Clouds 26 1013 78 0 2.98 66 02:33 19.03.2020
934 Clouds 27 1011 71 0 3.02 99 00:53 19.03.2020
935 Clouds 27 1011 71 0 3.02 99 00:20 19.03.2020
936 Clouds 27 1011 71 0 3.02 99 23:44 18.03.2020
937 Clouds 29 1008 74 10000 3.1 300 23:26 18.03.2020
938 Clouds 29 1008 74 10000 3.1 300 22:43 18.03.2020
939 Clouds 29 1008 74 10000 3.1 300 22:23 18.03.2020
940 Clouds 30 1009 70 10000 4.1 330 21:58 18.03.2020
941 Clouds 30 1009 70 10000 4.1 330 21:40 18.03.2020
942 Clouds 30 1009 70 10000 4.1 330 21:20 18.03.2020
943 Clouds 30 1010 70 10000 3.6 300 20:55 18.03.2020
944 Clouds 30 1010 70 10000 3.6 300 20:37 18.03.2020
945 Clouds 30 1010 70 10000 3.6 300 20:19 18.03.2020
946 Clouds 30 1011 70 10000 5.1 40 19:41 18.03.2020
947 Clouds 30 1011 70 10000 5.1 40 19:21 18.03.2020
948 Clouds 30 1011 70 10000 5.1 40 19:21 18.03.2020
949 Clouds 30 1011 70 10000 5.7 30 18:58 18.03.2020
950 Clouds 30 1011 70 10000 5.7 30 18:58 18.03.2020
951 Clouds 30 1011 70 10000 5.7 30 18:39 18.03.2020
952 Clouds 30 1011 70 10000 5.7 30 18:19 18.03.2020
953 Clouds 30 1011 70 10000 5.7 30 18:19 18.03.2020
954 Clouds 30 1011 70 10000 5.7 30 17:55 18.03.2020
955 Clouds 28 1011 78 10000 4.6 10 17:37 18.03.2020
956 Clouds 28 1011 78 10000 3.1 30 17:19 18.03.2020
957 Clouds 28 1011 78 10000 3.1 30 16:42 18.03.2020
958 Clouds 28 1011 78 10000 3.1 30 16:21 18.03.2020
959 Clouds 26 1011 88 10000 3.1 10 15:57 18.03.2020
960 Clouds 26 1011 88 10000 3.1 10 15:38 18.03.2020
961 Clouds 26 1011 88 10000 3.1 10 15:20 18.03.2020
962 Clouds 24 1010 88 10000 2.1 270 14:42 18.03.2020
963 Clouds 24 1010 88 10000 2.1 270 14:21 18.03.2020
964 Clouds 22 1010 94 10000 2.1 120 13:42 18.03.2020
965 Clouds 22 1010 94 10000 2.1 120 13:19 18.03.2020
966 Clear 26 1012 74 0 2.03 59 12:55 18.03.2020
967 Clear 26 1012 74 0 2.03 59 12:37 18.03.2020
968 Clear 26 1012 74 0 2.03 59 12:18 18.03.2020
969 Clear 26 1012 74 0 2.03 59 11:38 18.03.2020
970 Clear 26 1011 74 0 2.62 52 11:19 18.03.2020
971 Clear 26 1011 74 0 2.62 52 10:57 18.03.2020
972 Clear 26 1011 74 0 2.62 52 10:37 18.03.2020
973 Clear 26 1011 74 0 2.62 52 10:19 18.03.2020
974 Clear 26 1011 74 0 2.62 52 09:42 18.03.2020
975 Clear 26 1011 74 0 2.62 52 09:23 18.03.2020
976 Clear 26 1011 74 0 2.62 52 08:55 18.03.2020
977 Clear 26 1011 74 0 2.62 52 08:37 18.03.2020
978 Clear 26 1013 76 0 2.99 61 08:19 18.03.2020
979 Clear 26 1013 76 0 2.99 61 07:41 18.03.2020
980 Clear 26 1013 76 0 2.99 61 07:23 18.03.2020
981 Clear 26 1013 76 0 2.99 61 06:43 18.03.2020
982 Clear 26 1013 76 0 2.99 61 05:53 18.03.2020
983 Clear 26 1013 77 0 1.93 46 05:19 18.03.2020
984 Clear 26 1013 77 0 1.93 46 03:53 18.03.2020
985 Clear 26 1013 77 0 1.93 46 02:37 18.03.2020
986 Clouds 27 1009 78 10000 4.6 40 01:46 18.03.2020
987 Clouds 29 1008 70 10000 4.6 30 01:20 18.03.2020
988 Clouds 29 1008 70 10000 4.6 30 00:22 18.03.2020
989 Clouds 27 1011 69 0 0.98 346 23:43 17.03.2020
990 Clouds 27 1011 69 0 0.98 346 23:22 17.03.2020
991 Clouds 26 1011 70 0 1.48 226 22:47 17.03.2020
992 Clouds 30 1009 66 10000 3.6 330 22:28 17.03.2020
993 Clouds 30 1009 66 10000 3.6 330 21:57 17.03.2020
994 Clouds 30 1009 66 10000 3.6 330 21:37 17.03.2020
995 Clouds 30 1009 66 10000 3.6 330 21:19 17.03.2020
996 Clouds 30 1010 66 10000 4.1 350 20:38 17.03.2020
997 Clouds 30 1010 66 10000 4.1 350 20:20 17.03.2020
998 Clouds 30 1011 66 10000 3.6 190 19:42 17.03.2020
999 Clouds 30 1011 66 10000 3.6 190 19:22 17.03.2020
1000 Clouds 29 1012 74 10000 3.1 250 18:59 17.03.2020
1001 Clouds 29 1012 74 10000 3.1 250 18:40 17.03.2020
1002 Clouds 29 1012 74 10000 3.1 250 18:22 17.03.2020
1003 Clouds 29 1012 74 10000 2.6 290 17:59 17.03.2020
1004 Clouds 29 1012 74 10000 2.6 290 17:39 17.03.2020
1005 Clouds 29 1012 74 10000 2.6 290 17:20 17.03.2020
1006 Clouds 28 1012 78 10000 2.1 160 16:43 17.03.2020
1007 Clouds 28 1012 78 10000 2.1 160 16:19 17.03.2020
1008 Clouds 26 1012 88 10000 2.1 180 15:48 17.03.2020
1009 Clouds 26 1012 88 10000 2.1 180 15:23 17.03.2020
1010 Clouds 24 1011 88 10000 2.1 60 14:49 17.03.2020
1011 Clouds 24 1011 88 10000 2.1 60 14:30 17.03.2020
1012 Clouds 22 1010 88 10000 1.5 110 13:59 17.03.2020
1013 Clouds 22 1010 88 10000 1.5 110 13:41 17.03.2020
1014 Clouds 22 1010 88 10000 1.5 110 13:22 17.03.2020
1015 Clear 25 1012 77 0 2.37 28 12:47 17.03.2020
1016 Clear 25 1012 77 0 2.37 28 12:25 17.03.2020
1017 Clear 25 1012 77 0 2.37 28 11:57 17.03.2020
1018 Clear 25 1011 78 0 2.4 31 11:39 17.03.2020
1019 Clear 26 1011 76 0 2.6 44 11:20 17.03.2020
1020 Clear 26 1011 76 0 2.6 44 10:54 17.03.2020
1021 Clear 26 1011 76 0 2.6 44 10:36 17.03.2020
1022 Clear 26 1011 76 0 2.6 44 10:18 17.03.2020
1023 Clear 26 1011 76 0 2.6 44 09:44 17.03.2020
1024 Clear 25 1011 78 0 2.78 42 09:20 17.03.2020
1025 Clear 25 1011 78 0 2.78 42 08:51 17.03.2020
1026 Clear 26 1011 76 0 2.6 44 08:24 17.03.2020
1027 Clouds 26 1013 77 0 2.54 30 07:58 17.03.2020
1028 Clouds 26 1013 77 0 2.54 30 07:40 17.03.2020
1029 Clouds 26 1013 77 0 2.54 30 07:19 17.03.2020
1030 Clouds 26 1013 77 0 2.54 30 06:41 17.03.2020
1031 Clouds 26 1013 77 0 2.54 30 06:19 17.03.2020
1032 Clouds 26 1013 78 0 1.97 14 04:51 17.03.2020
1033 Clouds 26 1013 78 0 1.97 14 03:26 17.03.2020
1034 Clouds 28 1008 74 10000 2.1 360 01:49 17.03.2020
1035 Clouds 28 1008 74 10000 2.1 360 01:29 17.03.2020
1036 Clouds 28 1008 74 10000 2.6 350 00:50 17.03.2020
1037 Clouds 29 1008 70 10000 2.1 330 23:51 16.03.2020
1038 Clouds 29 1008 70 10000 2.1 330 23:33 16.03.2020
1039 Clouds 30 1009 66 10000 2.6 270 22:45 16.03.2020
1040 Clouds 30 1009 66 10000 2.6 270 22:45 16.03.2020
1041 Clouds 30 1009 66 10000 2.6 270 22:26 16.03.2020
1042 Clouds 29 1009 70 10000 2.1 260 21:59 16.03.2020
1043 Clouds 29 1009 70 10000 2.1 260 21:41 16.03.2020
1044 Clouds 29 1009 70 10000 2.1 260 21:23 16.03.2020
1045 Clouds 27 1010 70 0 1.93 158 20:57 16.03.2020
1046 Clouds 27 1010 70 0 1.93 158 20:38 16.03.2020
1047 Clouds 26 1012 73 0 2.86 135 20:19 16.03.2020
1048 Clouds 26 1012 77 0 3.52 123 19:41 16.03.2020
1049 Clouds 26 1012 77 0 3.52 123 19:21 16.03.2020
1050 Clouds 26 1012 77 0 3.52 123 18:56 16.03.2020
1051 Clouds 26 1012 77 0 3.52 123 18:37 16.03.2020
1052 Clouds 26 1012 77 0 3.52 123 18:18 16.03.2020
1053 Clouds 26 1012 77 0 3.52 123 17:42 16.03.2020
1054 Clouds 28 1011 74 10000 2.6 270 17:22 16.03.2020
1055 Clouds 28 1011 74 10000 2.6 270 16:46 16.03.2020
1056 Clouds 28 1011 74 10000 2.6 270 16:27 16.03.2020
1057 Clouds 27 1011 78 10000 1.5 220 15:56 16.03.2020
1058 Clouds 27 1011 78 10000 1.5 220 15:37 16.03.2020
1059 Clouds 27 1011 78 10000 1.5 220 15:18 16.03.2020
1060 Clouds 24 1010 88 10000 1 100 14:39 16.03.2020
1061 Clouds 24 1010 88 10000 1 100 14:19 16.03.2020
1062 Clouds 22 1009 88 10000 1.5 100 13:41 16.03.2020
1063 Clouds 22 1009 88 10000 1.5 100 13:22 16.03.2020
1064 Clear 26 1011 80 0 2.18 38 12:45 16.03.2020
1065 Clear 26 1011 80 0 2.18 38 12:26 16.03.2020
1066 Clear 26 1011 80 0 2.18 38 11:56 16.03.2020
1067 Clear 26 1011 80 0 2.18 38 11:37 16.03.2020
1068 Clear 26 1011 81 0 3 38 11:18 16.03.2020
1069 Clear 26 1011 81 0 3 38 10:40 16.03.2020
1070 Clear 26 1011 81 0 3 38 10:19 16.03.2020
1071 Clear 26 1011 81 0 3 38 09:42 16.03.2020
1072 Clear 26 1011 81 0 3 38 09:24 16.03.2020
1073 Clear 26 1011 81 0 3 38 08:53 16.03.2020
1074 Clear 26 1011 81 0 3 38 08:25 16.03.2020
1075 Clear 26 1011 81 0 3 38 08:25 16.03.2020
1076 Clouds 26 1012 80 0 2.48 57 07:48 16.03.2020
1077 Clouds 26 1012 80 0 2.48 57 07:25 16.03.2020
1078 Clouds 26 1012 80 0 2.48 57 06:52 16.03.2020
1079 Clouds 26 1012 80 0 2.48 57 06:24 16.03.2020
1080 Clouds 26 1013 80 0 2.55 82 04:54 16.03.2020
1081 Clouds 26 1013 80 0 2.55 82 02:41 16.03.2020
1082 Clouds 28 1008 83 10000 3.1 330 00:52 16.03.2020
1083 Clouds 28 1008 83 10000 3.1 330 00:32 16.03.2020
1084 Clouds 29 1008 79 10000 3.1 20 23:46 15.03.2020
1085 Clouds 29 1008 79 10000 3.1 20 23:20 15.03.2020
1086 Clouds 29 1008 79 10000 3.6 350 22:42 15.03.2020
1087 Clouds 29 1008 79 10000 3.6 350 22:22 15.03.2020
1088 Clouds 28 1009 83 10000 2.6 280 21:56 15.03.2020
1089 Clouds 28 1009 83 10000 2.6 280 21:37 15.03.2020
1090 Clouds 28 1009 83 10000 2.6 280 21:18 15.03.2020
1091 Clouds 28 1010 83 10000 1.5 130 20:42 15.03.2020
1092 Clouds 28 1010 83 10000 1.5 130 20:20 15.03.2020
1093 Clouds 29 1011 74 10000 2.1 30 19:56 15.03.2020
1094 Clouds 29 1011 74 10000 2.1 30 19:38 15.03.2020
1095 Clouds 29 1011 74 10000 2.1 30 19:19 15.03.2020
1096 Clouds 30 1012 70 10000 4.6 180 18:55 15.03.2020
1097 Clouds 30 1012 70 10000 4.6 180 18:36 15.03.2020
1098 Clouds 30 1012 70 10000 4.6 180 18:18 15.03.2020
1099 Clouds 30 1012 70 10000 5.1 150 17:40 15.03.2020
1100 Clouds 30 1012 70 10000 5.1 150 17:21 15.03.2020
1101 Clouds 29 1012 74 10000 1 330 16:56 15.03.2020
1102 Clouds 29 1012 74 10000 1 330 16:38 15.03.2020
1103 Clouds 29 1012 74 10000 1 330 16:19 15.03.2020
1104 Clouds 28 1012 78 10000 1 280 15:43 15.03.2020
1105 Clouds 28 1012 78 10000 1 280 15:43 15.03.2020
1106 Clouds 28 1012 78 10000 1 280 15:25 15.03.2020
1107 Clouds 24 1011 94 10000 1 120 14:55 15.03.2020
1108 Clouds 24 1011 94 10000 1 120 14:37 15.03.2020
1109 Clouds 24 1011 94 10000 1 120 14:18 15.03.2020
1110 Clouds 23 1010 94 10000 1 90 13:40 15.03.2020
1111 Clouds 23 1010 94 10000 1 90 13:21 15.03.2020
1112 Clouds 26 1012 82 0 4.1 82 12:58 15.03.2020
1113 Clouds 26 1012 82 0 4.1 82 12:38 15.03.2020
1114 Clouds 26 1012 82 0 4.1 82 12:20 15.03.2020
1115 Clouds 26 1012 82 0 4.1 82 11:42 15.03.2020
1116 Clouds 26 1012 82 0 4.1 82 11:22 15.03.2020
1117 Clear 26 1011 83 0 3.7 92 10:56 15.03.2020
1118 Clear 26 1011 83 0 3.7 92 10:38 15.03.2020
1119 Clear 26 1011 83 0 3.7 92 10:20 15.03.2020
1120 Clear 26 1011 83 0 3.7 92 09:41 15.03.2020
1121 Clear 26 1011 83 0 3.7 92 09:22 15.03.2020
1122 Clear 26 1011 83 0 3.7 92 08:45 15.03.2020
1123 Clear 26 1011 82 0 3.89 93 08:21 15.03.2020
1124 Clouds 26 1013 83 0 3.32 83 07:51 15.03.2020
1125 Clouds 26 1013 83 0 3.32 83 07:32 15.03.2020
1126 Clouds 26 1013 83 0 3.32 83 06:53 15.03.2020
1127 Clouds 26 1013 83 0 3.32 83 06:18 15.03.2020
1128 Clouds 26 1013 84 0 4.13 74 05:19 15.03.2020
1129 Clouds 26 1013 84 0 4.13 74 04:43 15.03.2020
1130 Clouds 26 1013 84 0 4.13 74 04:24 15.03.2020
1131 Clouds 26 1013 84 0 4.13 74 03:54 15.03.2020
1132 Clouds 26 1013 84 0 4.13 74 02:44 15.03.2020
1133 Clouds 28 1009 78 10000 1.5 270 01:35 15.03.2020
1134 Clouds 29 1009 70 10000 2.1 300 00:46 15.03.2020
1135 Clouds 29 1009 70 10000 2.1 300 00:27 15.03.2020
1136 Clouds 29 1008 70 10000 4.1 360 23:55 14.03.2020
1137 Clouds 29 1008 70 10000 4.1 360 23:37 14.03.2020
1138 Clouds 29 1008 70 10000 4.1 360 23:18 14.03.2020
1139 Clouds 28 1009 78 10000 1.5 270 22:42 14.03.2020
1140 Clouds 28 1009 78 10000 1.5 270 22:23 14.03.2020
1141 Clouds 29 1010 74 10000 2.6 240 21:56 14.03.2020
1142 Clouds 29 1010 74 10000 2.6 240 21:36 14.03.2020
1143 Clouds 29 1010 74 10000 2.6 240 21:18 14.03.2020
1144 Clouds 28 1011 78 10000 3.1 30 20:58 14.03.2020
1145 Clouds 28 1011 78 10000 3.1 30 20:40 14.03.2020
1146 Clouds 28 1011 78 10000 3.1 30 20:19 14.03.2020
1147 Clouds 28 1012 78 10000 2.1 270 19:43 14.03.2020
1148 Clouds 28 1012 78 10000 2.1 270 19:25 14.03.2020
1149 Clouds 29 1013 79 10000 2.1 330 18:41 14.03.2020
1150 Clouds 29 1013 79 10000 2.1 330 18:23 14.03.2020
1151 Clouds 27 1013 83 10000 1.5 280 17:56 14.03.2020
1152 Clouds 27 1013 83 10000 1.5 280 17:37 14.03.2020
1153 Clouds 26 1012 88 10000 1 30 17:19 14.03.2020
1154 Clouds 26 1012 88 10000 1 30 16:40 14.03.2020
1155 Clouds 26 1012 88 10000 1 30 16:22 14.03.2020
1156 Clouds 26 1012 88 10000 3.1 30 15:54 14.03.2020
1157 Clouds 26 1012 88 10000 3.1 30 15:26 14.03.2020
1158 Clouds 23 1011 94 10000 2.6 30 14:47 14.03.2020
1159 Clouds 23 1011 94 10000 2.6 30 14:24 14.03.2020
1160 Clouds 23 1011 88 10000 4.1 120 13:58 14.03.2020
1161 Clouds 23 1011 88 10000 4.1 120 13:39 14.03.2020
1162 Clouds 23 1011 88 10000 4.1 120 13:20 14.03.2020
1163 Clear 25 1012 80 0 3.48 59 12:46 14.03.2020
1164 Clear 25 1012 80 0 3.48 59 12:27 14.03.2020
1165 Clear 25 1012 80 0 3.48 59 11:56 14.03.2020
1166 Clear 25 1012 80 0 3.48 59 11:56 14.03.2020
1167 Clear 25 1012 80 0 3.48 59 11:38 14.03.2020
1168 Clear 26 1011 81 0 2.63 52 11:19 14.03.2020
1169 Clear 26 1011 81 0 2.63 52 10:42 14.03.2020
1170 Clear 26 1011 81 0 2.63 52 10:42 14.03.2020
1171 Clear 26 1011 81 0 2.63 52 10:23 14.03.2020
1172 Clear 26 1011 81 0 2.63 52 09:47 14.03.2020
1173 Clear 26 1011 81 0 2.63 52 09:24 14.03.2020
1174 Clear 26 1011 81 0 2.63 52 08:51 14.03.2020
1175 Clear 26 1011 79 0 2.57 53 08:29 14.03.2020
1176 Clouds 26 1013 81 0 3.17 74 07:55 14.03.2020
1177 Clouds 26 1013 81 0 3.17 74 07:37 14.03.2020
1178 Clouds 26 1013 81 0 3.17 74 07:19 14.03.2020
1179 Clouds 26 1013 81 0 3.17 74 06:40 14.03.2020
1180 Clouds 26 1013 81 0 3.17 74 06:40 14.03.2020
1181 Clouds 26 1013 81 0 3.17 74 05:24 14.03.2020
1182 Clouds 26 1013 81 0 2.46 81 03:46 14.03.2020
1183 Clouds 26 1013 81 0 2.46 81 03:24 14.03.2020
1184 Clouds 27 1008 88 10000 2.1 330 02:22 14.03.2020
1185 Clouds 28 1007 78 10000 2.6 360 00:44 14.03.2020
1186 Clouds 29 1007 79 10000 1.5 210 23:45 13.03.2020
1187 Clouds 29 1007 79 10000 1.5 210 23:27 13.03.2020
1188 Clouds 30 1008 74 10000 1.5 240 22:49 13.03.2020
1189 Clouds 30 1008 74 10000 1.5 240 22:26 13.03.2020
1190 Clouds 29 1008 79 10000 1 300 21:44 13.03.2020
1191 Clouds 29 1008 79 10000 1 300 21:21 13.03.2020
1192 Clouds 29 1009 79 10000 2.1 330 20:57 13.03.2020
1193 Clouds 29 1009 79 10000 2.1 330 20:38 13.03.2020
1194 Clouds 29 1009 79 10000 2.1 330 20:19 13.03.2020
1195 Clouds 29 1011 79 10000 3.1 30 19:45 13.03.2020
1196 Clouds 29 1011 79 10000 3.1 30 19:27 13.03.2020
1197 Clouds 28 1011 78 10000 3.1 30 18:47 13.03.2020
1198 Clouds 28 1011 78 10000 3.1 30 18:28 13.03.2020
1199 Clouds 29 1011 79 10000 3.6 300 17:57 13.03.2020
1200 Clouds 26 1012 84 0 5.18 111 17:37 13.03.2020
1201 Clouds 29 1011 70 10000 2.1 300 17:18 13.03.2020
1202 Clouds 29 1011 70 10000 2.1 300 16:41 13.03.2020
1203 Clouds 29 1011 70 10000 2.1 300 16:23 13.03.2020
1204 Clouds 28 1010 78 10000 1 120 15:56 13.03.2020
1205 Clouds 28 1010 78 10000 1 120 15:37 13.03.2020
1206 Clouds 28 1010 78 10000 1 120 15:19 13.03.2020
1207 Clouds 26 1009 83 10000 1 60 14:41 13.03.2020
1208 Clouds 26 1009 83 10000 1 60 14:22 13.03.2020
1209 Clouds 25 1008 83 10000 1.5 90 13:56 13.03.2020
1210 Clouds 25 1008 83 10000 1.5 90 13:38 13.03.2020
1211 Clouds 25 1008 83 10000 1.5 90 13:18 13.03.2020
1212 Clouds 26 1010 82 0 3.26 98 12:40 13.03.2020
1213 Clouds 26 1010 82 0 3.26 98 12:21 13.03.2020
1214 Clouds 26 1010 82 0 3.26 98 11:57 13.03.2020
1215 Clouds 26 1010 82 0 3.26 98 11:38 13.03.2020
1216 Clouds 26 1010 82 0 3.83 147 11:19 13.03.2020
1217 Clouds 26 1010 82 0 3.83 147 10:47 13.03.2020
1218 Clouds 26 1010 82 0 3.83 147 10:27 13.03.2020
1219 Clouds 26 1010 82 0 3.83 147 09:57 13.03.2020
1220 Clouds 26 1010 82 0 3.83 147 09:38 13.03.2020
1221 Clouds 26 1010 82 0 3.83 147 09:20 13.03.2020
1222 Clouds 26 1010 82 0 3.83 147 08:42 13.03.2020
1223 Clear 26 1010 82 0 3.47 150 08:22 13.03.2020
1224 Clear 26 1012 82 0 3.13 168 07:47 13.03.2020
1225 Clear 26 1012 82 0 3.13 168 07:27 13.03.2020
1226 Clear 26 1012 82 0 3.13 168 06:46 13.03.2020
1227 Clear 26 1012 82 0 3.13 168 06:24 13.03.2020
1228 Clear 26 1012 82 0 3.13 168 05:46 13.03.2020
1229 Clear 26 1011 82 0 3.11 148 05:19 13.03.2020
1230 Clear 26 1011 82 0 3.11 148 04:35 13.03.2020
1231 Clear 26 1011 82 0 3.11 148 02:58 13.03.2020
1232 Clouds 26 1007 88 10000 4.1 190 01:41 13.03.2020
1233 Clouds 26 1007 88 10000 4.1 190 01:18 13.03.2020
1234 Clouds 26 1007 88 10000 4.6 180 00:43 13.03.2020
1235 Clouds 26 1007 88 10000 4.6 180 00:20 13.03.2020
1236 Clouds 26 1007 83 10000 3.1 150 23:40 12.03.2020
1237 Clouds 26 1007 83 10000 3.1 150 23:22 12.03.2020
1238 Rain 25 1007 94 6000 4.1 170 22:47 12.03.2020
1239 Rain 25 1007 94 6000 4.1 170 22:29 12.03.2020
1240 Clouds 26 1008 79 0 2.24 104 21:59 12.03.2020
1241 Clouds 26 1008 79 0 2.24 104 21:40 12.03.2020
1242 Clouds 28 1008 78 10000 2.6 300 21:21 12.03.2020
1243 Clouds 28 1008 78 10000 2.6 300 20:42 12.03.2020
1244 Clouds 28 1008 78 10000 2.6 300 20:20 12.03.2020
1245 Clouds 28 1008 78 10000 2.6 300 20:20 12.03.2020
1246 Clouds 28 1008 78 10000 2.1 220 19:56 12.03.2020
1247 Clouds 28 1008 78 10000 2.1 220 19:37 12.03.2020
1248 Clouds 28 1008 78 10000 2.1 220 19:18 12.03.2020
1249 Clouds 29 1009 74 10000 3.1 210 18:42 12.03.2020
1250 Clouds 29 1009 74 10000 3.1 210 18:22 12.03.2020
1251 Clouds 29 1009 74 10000 3.1 210 17:56 12.03.2020
1252 Clouds 28 1009 78 10000 3.1 270 17:37 12.03.2020
1253 Clouds 28 1009 78 10000 3.1 270 17:18 12.03.2020
1254 Clouds 27 1008 83 10000 3.1 330 16:41 12.03.2020
1255 Clouds 27 1008 83 10000 3.1 330 16:23 12.03.2020
1256 Clouds 27 1008 83 10000 0.5 210 15:49 12.03.2020
1257 Clouds 27 1008 83 10000 0.5 210 15:28 12.03.2020
1258 Clouds 25 1007 88 10000 2.6 120 14:58 12.03.2020
1259 Clouds 25 1007 88 10000 2.6 120 14:38 12.03.2020
1260 Clouds 25 1007 88 10000 2.6 120 14:38 12.03.2020
1261 Clouds 25 1007 88 10000 2.6 120 14:18 12.03.2020
1262 Clouds 24 1006 94 10000 1 140 13:40 12.03.2020
1263 Clouds 24 1006 94 10000 1 140 13:21 12.03.2020
1264 Clear 26 1009 82 0 2.32 86 12:55 12.03.2020
1265 Clear 26 1009 82 0 2.32 86 12:37 12.03.2020
1266 Clear 26 1009 82 0 2.32 86 12:18 12.03.2020
1267 Clear 26 1009 82 0 2.32 86 11:55 12.03.2020
1268 Clear 26 1009 82 0 2.32 86 11:36 12.03.2020
1269 Clear 26 1009 83 0 2.24 64 11:18 12.03.2020
1270 Clear 26 1009 83 0 2.24 64 10:43 12.03.2020
1271 Clear 26 1009 83 0 2.24 64 10:23 12.03.2020
1272 Clear 26 1009 83 0 2.24 64 09:56 12.03.2020
1273 Clear 26 1009 83 0 2.24 64 09:37 12.03.2020
1274 Clear 26 1009 83 0 2.24 64 09:19 12.03.2020
1275 Clear 26 1009 83 0 2.24 64 08:38 12.03.2020
1276 Clear 26 1011 83 0 1.88 63 08:18 12.03.2020
1277 Clear 26 1011 83 0 1.88 63 07:47 12.03.2020
1278 Clear 26 1011 83 0 1.88 63 07:22 12.03.2020
1279 Clear 26 1011 83 0 1.88 63 06:20 12.03.2020
1280 Clear 26 1011 83 0 1.88 63 05:34 12.03.2020
1281 Clear 26 1011 83 0 2.73 80 03:34 12.03.2020
1282 Clouds 27 1006 83 10000 1 270 01:57 12.03.2020
1283 Clouds 27 1006 83 10000 1 270 01:21 12.03.2020
1284 Clouds 26 1006 94 10000 2.1 300 00:42 12.03.2020
1285 Clouds 29 1006 79 10000 2.1 300 23:57 11.03.2020
1286 Clouds 29 1006 79 10000 2.1 300 23:28 11.03.2020
1287 Clouds 29 1006 74 10000 2.1 60 22:59 11.03.2020
1288 Clouds 29 1006 74 10000 2.1 60 22:39 11.03.2020
1289 Clouds 29 1006 74 10000 2.1 60 22:21 11.03.2020
1290 Clouds 28 1007 78 10000 2.6 30 21:56 11.03.2020
1291 Clouds 28 1007 78 10000 2.6 30 21:37 11.03.2020
1292 Clouds 28 1007 78 10000 2.6 30 21:19 11.03.2020
1293 Clouds 30 1008 74 10000 2.1 300 20:55 11.03.2020
1294 Clouds 30 1008 74 10000 2.1 300 20:36 11.03.2020
1295 Clouds 30 1008 74 10000 2.1 300 20:18 11.03.2020
1296 Clouds 30 1009 74 10000 1.5 300 19:42 11.03.2020
1297 Clouds 30 1009 74 10000 1.5 300 19:23 11.03.2020
1298 Clouds 29 1010 79 10000 4.31 101 18:56 11.03.2020
1299 Clouds 29 1010 79 10000 4.31 101 18:36 11.03.2020
1300 Clouds 29 1010 79 10000 4.31 101 18:18 11.03.2020
1301 Clouds 29 1010 79 0 4.1 30 17:40 11.03.2020
1302 Clouds 29 1010 79 0 4.1 30 17:21 11.03.2020
1303 Clouds 29 1009 74 10000 5.7 30 16:56 11.03.2020
1304 Clouds 29 1009 74 10000 5.7 30 16:37 11.03.2020
1305 Clouds 29 1009 74 10000 5.7 30 16:19 11.03.2020
1306 Clouds 27 1009 83 10000 1 30 15:42 11.03.2020
1307 Clouds 27 1009 83 10000 1 30 15:22 11.03.2020
1308 Clouds 25 1009 94 10000 1.5 360 14:44 11.03.2020
1309 Clouds 25 1009 94 10000 1.5 360 14:23 11.03.2020
1310 Clouds 26 1010 83 0 3.73 73 13:58 11.03.2020
1311 Clouds 26 1010 83 0 3.73 73 13:39 11.03.2020
1312 Clouds 26 1010 83 0 3.73 73 13:21 11.03.2020
1313 Clouds 26 1010 84 0 4.06 70 12:41 11.03.2020
1314 Clouds 26 1010 84 0 4.06 70 12:21 11.03.2020
1315 Clouds 26 1010 84 0 4.06 70 11:57 11.03.2020
1316 Clouds 26 1010 84 0 4.06 70 11:57 11.03.2020
1317 Clouds 26 1010 84 0 4.06 70 11:38 11.03.2020
1318 Clouds 26 1010 84 0 4.57 96 11:19 11.03.2020
1319 Clouds 26 1010 84 0 4.57 96 10:43 11.03.2020
1320 Clouds 26 1010 84 0 4.57 96 10:19 11.03.2020
1321 Clouds 26 1010 84 0 4.57 96 09:43 11.03.2020
1322 Clouds 26 1010 84 0 4.57 96 09:25 11.03.2020
1323 Clouds 26 1010 84 0 4.57 96 08:58 11.03.2020
1324 Clouds 26 1010 84 0 4.57 96 08:40 11.03.2020
1325 Clear 26 1012 84 0 4.84 87 08:19 11.03.2020
1326 Clear 26 1012 84 0 4.86 85 07:43 11.03.2020
1327 Clear 26 1012 84 0 4.86 85 07:19 11.03.2020
1328 Clear 26 1012 84 0 4.86 85 06:44 11.03.2020
1329 Clear 26 1012 84 0 4.86 85 05:36 11.03.2020
1330 Clear 26 1012 83 0 3.93 62 04:31 11.03.2020
1331 Clouds 28 1008 78 10000 3.6 60 02:24 11.03.2020
1332 Clouds 28 1008 78 10000 3.6 60 01:28 11.03.2020
1333 Clouds 28 1007 78 10000 4.6 30 00:46 11.03.2020
1334 Clouds 29 1008 74 10000 4.1 30 23:58 10.03.2020
1335 Clouds 29 1008 74 10000 4.1 30 23:40 10.03.2020
1336 Clouds 29 1008 74 10000 4.1 30 23:21 10.03.2020
1337 Clouds 29 1008 74 10000 1.5 280 22:39 10.03.2020
1338 Clouds 29 1008 74 10000 1.5 280 22:20 10.03.2020
1339 Clouds 29 1008 74 10000 2.1 270 21:57 10.03.2020
1340 Clouds 29 1008 74 10000 2.1 270 21:57 10.03.2020
1341 Clouds 29 1008 74 10000 2.1 270 21:38 10.03.2020
1342 Clouds 29 1008 74 10000 2.1 270 21:20 10.03.2020
1343 Clouds 29 1010 74 10000 1.5 320 20:58 10.03.2020
1344 Clouds 29 1010 74 10000 1.5 320 20:40 10.03.2020
1345 Clouds 29 1010 74 10000 1.5 320 20:18 10.03.2020
1346 Clouds 29 1011 79 10000 2.6 360 19:56 10.03.2020
1347 Clouds 29 1011 79 10000 2.6 360 19:37 10.03.2020
1348 Clouds 29 1011 79 10000 2.6 360 19:18 10.03.2020
1349 Clouds 29 1012 79 10000 2.1 270 18:44 10.03.2020
1350 Clouds 29 1012 79 10000 2.1 270 18:25 10.03.2020
1351 Clouds 29 1012 79 10000 2.6 300 17:57 10.03.2020
1352 Clouds 29 1012 79 10000 2.6 300 17:38 10.03.2020
1353 Clouds 29 1012 79 10000 2.6 300 17:20 10.03.2020
1354 Clouds 28 1011 78 10000 1.5 330 16:38 10.03.2020
1355 Clouds 28 1011 78 10000 1.5 330 16:18 10.03.2020
1356 Clouds 27 1011 83 10000 2.1 120 15:55 10.03.2020
1357 Clouds 27 1011 83 10000 2.1 120 15:37 10.03.2020
1358 Clouds 27 1011 83 10000 2.1 120 15:18 10.03.2020
1359 Clouds 25 1010 88 10000 1 120 14:40 10.03.2020
1360 Clouds 25 1010 88 10000 1 120 14:19 10.03.2020
1361 Clouds 24 1009 94 10000 1.5 100 13:54 10.03.2020
1362 Clouds 24 1009 94 10000 1.5 100 13:36 10.03.2020
1363 Clouds 24 1009 94 10000 1.5 100 13:18 10.03.2020
1364 Clear 26 1011 84 0 5.78 85 12:39 10.03.2020
1365 Clear 26 1011 84 0 5.78 85 12:19 10.03.2020
1366 Clear 26 1011 84 0 5.78 85 11:43 10.03.2020
1367 Clear 26 1011 84 0 5.78 85 11:25 10.03.2020
1368 Clear 26 1011 83 0 4.97 78 10:59 10.03.2020
1369 Clear 26 1011 83 0 4.97 78 10:41 10.03.2020
1370 Clear 26 1011 83 0 4.97 78 10:22 10.03.2020
1371 Clear 26 1011 83 0 4.97 78 09:56 10.03.2020
1372 Clear 26 1011 83 0 4.97 78 09:37 10.03.2020
1373 Clear 26 1011 83 0 4.97 78 09:18 10.03.2020
1374 Clear 26 1011 83 0 4.97 78 08:45 10.03.2020
1375 Clear 26 1011 83 0 4.97 78 08:26 10.03.2020
1376 Clear 27 1012 83 0 5.38 78 07:46 10.03.2020
1377 Clear 27 1012 83 0 5.38 78 07:28 10.03.2020
1378 Clear 27 1012 83 0 5.38 78 06:42 10.03.2020
1379 Clear 27 1012 83 0 5.38 78 06:23 10.03.2020
1380 Clear 27 1012 83 0 5.38 78 05:38 10.03.2020
1381 Clear 27 1012 82 0 4.71 64 04:34 10.03.2020
1382 Clear 27 1012 82 0 4.71 64 03:31 10.03.2020
1383 Clouds 28 1008 78 10000 1 270 01:43 10.03.2020
1384 Clouds 28 1007 78 10000 0.5 270 00:52 10.03.2020
1385 Clouds 28 1007 78 10000 0.5 270 00:29 10.03.2020
1386 Clouds 29 1007 74 10000 2.1 300 23:55 09.03.2020
1387 Clouds 29 1007 74 10000 2.1 300 23:36 09.03.2020
1388 Clouds 29 1007 74 10000 3.1 270 23:18 09.03.2020
1389 Clouds 29 1007 74 10000 3.1 270 22:38 09.03.2020
1390 Clouds 29 1007 74 10000 3.1 270 22:20 09.03.2020
1391 Clouds 29 1008 79 10000 2.6 280 21:45 09.03.2020
1392 Clouds 29 1008 79 10000 2.6 280 21:22 09.03.2020
1393 Clouds 30 1008 74 10000 2.6 210 20:59 09.03.2020
1394 Clouds 30 1008 74 10000 2.6 210 20:41 09.03.2020
1395 Clouds 30 1008 74 10000 2.6 210 20:22 09.03.2020
1396 Clouds 29 1009 79 10000 2.1 330 19:59 09.03.2020
1397 Clouds 29 1009 79 10000 2.1 330 19:59 09.03.2020
1398 Clouds 29 1009 79 10000 2.1 330 19:41 09.03.2020
1399 Clouds 29 1009 79 10000 2.1 330 19:18 09.03.2020
1400 Clouds 29 1010 79 10000 2.1 300 18:56 09.03.2020
1401 Clouds 29 1010 79 10000 2.1 300 18:37 09.03.2020
1402 Clouds 29 1010 79 10000 2.1 300 18:18 09.03.2020
1403 Clouds 28 1011 88 10000 2.1 300 17:55 09.03.2020
1404 Clouds 28 1011 88 10000 2.1 300 17:37 09.03.2020
1405 Clouds 27 1011 83 10000 1.5 30 17:19 09.03.2020
1406 Clear 27 1013 80 0 4.6 87 16:42 09.03.2020
1407 Clouds 28 1011 78 10000 1 30 16:22 09.03.2020
1408 Clouds 28 1011 78 10000 1 30 15:59 09.03.2020
1409 Clouds 28 1011 78 10000 1 30 15:40 09.03.2020
1410 Clouds 28 1011 78 10000 1 30 15:22 09.03.2020
1411 Clouds 28 1011 78 10000 1 30 15:22 09.03.2020
1412 Clouds 25 1009 94 10000 1 120 14:59 09.03.2020
1413 Clouds 25 1009 94 10000 1 120 14:38 09.03.2020
1414 Clouds 25 1009 94 10000 1 120 14:20 09.03.2020
1415 Clouds 23 1006 94 10000 1.5 120 13:58 09.03.2020
1416 Clouds 23 1006 94 10000 1.5 120 13:39 09.03.2020
1417 Clouds 23 1006 94 10000 1.5 120 13:39 09.03.2020
1418 Clouds 23 1006 94 10000 1.5 120 13:20 09.03.2020
1419 Clear 26 1011 83 0 4.37 73 12:43 09.03.2020
1420 Clear 26 1011 83 0 4.37 73 12:23 09.03.2020
1421 Clear 26 1011 83 0 4.37 73 11:58 09.03.2020
1422 Clear 26 1011 83 0 4.37 73 11:38 09.03.2020
1423 Clear 26 1010 82 0 3.73 70 11:20 09.03.2020
1424 Clear 26 1010 82 0 3.73 70 10:55 09.03.2020
1425 Clear 26 1010 82 0 3.73 70 10:36 09.03.2020
1426 Clear 26 1010 82 0 3.73 70 10:18 09.03.2020
1427 Clear 26 1010 82 0 3.73 70 09:40 09.03.2020
1428 Clear 26 1010 82 0 3.73 70 09:21 09.03.2020
1429 Clear 26 1010 82 0 3.73 70 08:44 09.03.2020
1430 Clear 26 1010 82 0 3.73 70 08:26 09.03.2020
1431 Clear 27 1011 83 0 3.2 72 07:43 09.03.2020
1432 Clear 27 1011 83 0 3.2 72 07:22 09.03.2020
1433 Clear 27 1011 83 0 3.2 72 06:46 09.03.2020
1434 Clear 27 1011 83 0 3.2 72 06:28 09.03.2020
1435 Clear 27 1011 83 0 3.2 72 05:58 09.03.2020
1436 Clear 27 1011 83 0 3.2 72 05:39 09.03.2020
1437 Clear 27 1011 83 0 3.42 72 04:43 09.03.2020
1438 Clear 27 1011 83 0 3.42 72 04:23 09.03.2020
1439 Clear 27 1011 83 0 3.42 72 03:28 09.03.2020
1440 Rain 26 1006 94 10000 0.5 300 01:50 09.03.2020
1441 Clouds 26 1005 94 10000 1.5 180 00:40 09.03.2020
1442 Clouds 26 1005 94 10000 1.5 180 00:22 09.03.2020
1443 Rain 27 1005 94 10000 2.6 50 23:53 08.03.2020
1444 Rain 27 1005 94 10000 2.6 50 23:25 08.03.2020
1445 Rain 26 1006 94 10000 2.6 30 22:58 08.03.2020
1446 Rain 26 1006 94 10000 2.6 30 22:39 08.03.2020
1447 Rain 26 1006 94 10000 2.6 30 22:20 08.03.2020
1448 Rain 28 1006 88 10000 1 210 21:56 08.03.2020
1449 Rain 28 1006 88 10000 1 210 21:56 08.03.2020
1450 Rain 28 1006 88 10000 1 210 21:38 08.03.2020
1451 Rain 28 1006 88 10000 1 210 21:19 08.03.2020
1452 Clouds 28 1007 83 10000 1.5 270 20:40 08.03.2020
1453 Clouds 28 1007 83 10000 1.5 270 20:40 08.03.2020
1454 Clouds 28 1007 83 10000 1.5 270 20:21 08.03.2020
1455 Clouds 28 1007 83 10000 1.5 270 20:21 08.03.2020
1456 Clouds 29 1008 79 10000 3.1 290 19:57 08.03.2020
1457 Clouds 29 1008 79 10000 3.1 290 19:37 08.03.2020
1458 Clouds 27 1009 88 10000 1.5 270 19:19 08.03.2020
1459 Clouds 27 1009 88 10000 1.5 270 18:42 08.03.2020
1460 Clouds 27 1009 88 10000 1.5 270 18:42 08.03.2020
1461 Clouds 27 1009 88 10000 1.5 270 18:24 08.03.2020
1462 Rain 27 1010 77 0 3.19 75 17:56 08.03.2020
1463 Rain 27 1010 77 0 3.19 75 17:38 08.03.2020
1464 Clouds 27 1009 88 10000 2.1 30 17:19 08.03.2020
1465 Clouds 27 1009 88 10000 2.1 30 16:46 08.03.2020
1466 Clouds 27 1009 88 10000 2.1 30 16:27 08.03.2020
1467 Clouds 26 1008 88 10000 0.5 300 15:56 08.03.2020
1468 Clouds 26 1008 88 10000 0.5 300 15:38 08.03.2020
1469 Clouds 26 1008 88 10000 0.5 300 15:19 08.03.2020
1470 Clouds 25 1007 94 10000 1.5 150 14:41 08.03.2020
1471 Clouds 25 1007 94 10000 1.5 150 14:21 08.03.2020
1472 Clouds 25 1007 94 10000 1.5 140 13:57 08.03.2020
1473 Clouds 25 1007 94 10000 1.5 140 13:38 08.03.2020
1474 Clouds 25 1007 94 10000 1.5 140 13:19 08.03.2020
1475 Rain 27 1010 77 0 1.38 266 12:41 08.03.2020
1476 Rain 27 1010 77 0 1.38 266 12:21 08.03.2020
1477 Rain 27 1010 77 0 1.38 266 11:54 08.03.2020
1478 Rain 27 1010 77 0 1.38 266 11:36 08.03.2020
1479 Rain 27 1009 78 0 2.13 273 11:18 08.03.2020
1480 Rain 27 1009 78 0 2.13 273 10:41 08.03.2020
1481 Rain 27 1009 78 0 2.13 273 10:23 08.03.2020
1482 Rain 27 1009 78 0 2.13 273 09:40 08.03.2020
1483 Rain 27 1009 78 0 2.13 273 09:22 08.03.2020
1484 Rain 27 1009 78 0 2.13 273 08:49 08.03.2020
1485 Rain 27 1009 78 0 2.13 273 08:25 08.03.2020
1486 Rain 27 1011 79 0 1.96 330 07:50 08.03.2020
1487 Rain 27 1011 79 0 1.96 330 07:28 08.03.2020
1488 Rain 27 1011 79 0 1.96 330 06:54 08.03.2020
1489 Rain 27 1011 79 0 1.96 330 06:35 08.03.2020
1490 Rain 27 1011 79 0 1.96 330 05:58 08.03.2020
1491 Rain 27 1011 79 0 1 325 04:24 08.03.2020
1492 Rain 27 1011 79 0 1 325 03:19 08.03.2020
1493 Clouds 25 1006 94 8000 1 30 01:55 08.03.2020
1494 Clouds 25 1006 94 8000 1 30 01:20 08.03.2020
1495 Clouds 28 1009 72 0 1.13 287 00:41 08.03.2020
1496 Rain 26 1006 94 5000 3.1 30 23:59 07.03.2020
1497 Rain 26 1006 94 5000 3.1 30 23:41 07.03.2020
1498 Rain 26 1006 94 5000 3.1 30 23:20 07.03.2020
1499 Rain 26 1006 94 6000 2.1 40 22:38 07.03.2020
1500 Rain 26 1006 94 6000 2.1 40 22:20 07.03.2020
1501 Rain 26 1007 94 6000 0.5 90 21:45 07.03.2020
1502 Rain 26 1007 94 6000 0.5 90 21:24 07.03.2020
1503 Rain 27 1008 74 0 1.89 266 20:41 07.03.2020
1504 Rain 28 1009 83 8000 0.5 150 20:22 07.03.2020
1505 Rain 28 1009 83 8000 0.5 150 19:55 07.03.2020
1506 Rain 28 1009 83 8000 0.5 150 19:36 07.03.2020
1507 Rain 28 1009 83 8000 0.5 150 19:18 07.03.2020
1508 Clouds 29 1010 79 10000 1.5 270 18:40 07.03.2020
1509 Clouds 29 1010 79 10000 1.5 270 18:21 07.03.2020
1510 Clouds 28 1010 78 10000 2.1 280 17:42 07.03.2020
1511 Clouds 28 1010 78 10000 2.1 280 17:20 07.03.2020
1512 Clouds 28 1010 83 10000 2.6 300 16:59 07.03.2020
1513 Clouds 28 1010 83 10000 2.6 300 16:40 07.03.2020
1514 Clouds 28 1010 83 10000 2.6 300 16:22 07.03.2020
1515 Clouds 27 1010 88 10000 0.5 90 15:57 07.03.2020
1516 Clouds 27 1010 88 10000 0.5 90 15:37 07.03.2020
1517 Clouds 27 1010 88 10000 0.5 90 15:19 07.03.2020
1518 Clouds 24 1009 100 10000 1 120 14:45 07.03.2020
1519 Clouds 24 1009 100 10000 1 120 14:24 07.03.2020
1520 Clouds 23 1008 100 10000 2.1 120 13:57 07.03.2020
1521 Clouds 23 1008 100 10000 2.1 120 13:38 07.03.2020
1522 Clouds 23 1008 100 10000 2.1 120 13:18 07.03.2020
1523 Clouds 27 1011 76 0 0.39 310 12:40 07.03.2020
1524 Clouds 27 1011 76 0 0.39 310 12:20 07.03.2020
1525 Clouds 27 1011 76 0 0.39 310 11:56 07.03.2020
1526 Clouds 27 1011 76 0 0.39 310 11:37 07.03.2020
1527 Clouds 27 1009 77 0 0.63 306 11:19 07.03.2020
1528 Clouds 27 1009 77 0 0.63 306 10:39 07.03.2020
1529 Clouds 27 1009 77 0 0.63 306 10:20 07.03.2020
1530 Clouds 27 1009 77 0 0.63 306 09:42 07.03.2020
1531 Clouds 27 1009 77 0 0.63 306 09:20 07.03.2020
1532 Clouds 27 1009 77 0 0.63 306 09:20 07.03.2020
1533 Clouds 27 1009 77 0 0.63 306 08:59 07.03.2020
1534 Clouds 27 1009 77 0 0.63 306 08:41 07.03.2020
1535 Clouds 27 1012 78 0 1.17 20 08:20 07.03.2020
1536 Clouds 27 1012 78 0 1.17 20 07:47 07.03.2020
1537 Clouds 27 1012 78 0 1.17 20 07:22 07.03.2020
1538 Clouds 27 1012 78 0 1.17 20 06:52 07.03.2020
1539 Clouds 27 1012 78 0 1.17 20 06:28 07.03.2020
1540 Clouds 27 1012 78 0 1.17 20 05:41 07.03.2020
1541 Rain 27 1012 79 0 0.84 34 03:57 07.03.2020
1542 Rain 27 1012 79 0 0.84 34 02:45 07.03.2020
1543 Clouds 27 1008 88 10000 2.6 30 01:58 07.03.2020
1544 Clouds 27 1008 88 10000 2.6 30 01:18 07.03.2020
1545 Clouds 28 1007 83 10000 2.1 310 00:28 07.03.2020
1546 Clouds 29 1007 79 10000 1.5 300 23:59 06.03.2020
1547 Clouds 29 1007 79 10000 1.5 300 23:40 06.03.2020
1548 Clouds 29 1007 79 10000 1.5 300 23:22 06.03.2020
1549 Clouds 28 1008 83 10000 2.1 280 22:44 06.03.2020
1550 Clouds 28 1008 83 10000 2.1 280 22:20 06.03.2020
1551 Clouds 28 1008 83 10000 3.6 210 21:47 06.03.2020
1552 Clouds 28 1008 83 10000 3.6 210 21:20 06.03.2020
1553 Clouds 29 1009 79 10000 4.6 210 20:44 06.03.2020
1554 Clouds 29 1009 79 10000 4.6 210 20:23 06.03.2020
1555 Clouds 30 1010 79 10000 3.6 210 19:57 06.03.2020
1556 Clouds 30 1010 79 10000 3.6 210 19:39 06.03.2020
1557 Clouds 30 1010 79 10000 3.6 210 19:20 06.03.2020
1558 Clouds 29 1011 79 10000 3.1 330 18:42 06.03.2020
1559 Clouds 29 1011 79 10000 3.1 330 18:20 06.03.2020
1560 Clouds 28 1011 83 10000 2.6 360 17:56 06.03.2020
1561 Clouds 28 1011 83 10000 2.6 360 17:38 06.03.2020
1562 Clouds 28 1010 78 10000 2.6 150 17:20 06.03.2020
1563 Clouds 28 1010 78 10000 2.6 150 16:43 06.03.2020
1564 Clouds 28 1010 78 10000 2.6 150 16:22 06.03.2020
1565 Clouds 26 1010 88 10000 1.5 120 15:59 06.03.2020
1566 Clouds 26 1010 88 10000 1.5 120 15:40 06.03.2020
1567 Clouds 26 1010 88 10000 1.5 120 15:21 06.03.2020
1568 Clear 27 1013 77 0 1.41 91 14:40 06.03.2020
1569 Clear 27 1013 77 0 1.41 91 14:21 06.03.2020
1570 Clear 26 1011 79 0 1.49 35 13:44 06.03.2020
1571 Clear 26 1011 79 0 1.49 35 13:23 06.03.2020
1572 Clear 26 1011 79 0 1.38 34 12:59 06.03.2020
1573 Clear 26 1011 79 0 1.38 34 12:39 06.03.2020
1574 Clear 26 1011 79 0 1.38 34 12:20 06.03.2020
1575 Clear 26 1011 79 0 1.38 34 11:58 06.03.2020
1576 Clear 26 1011 79 0 1.38 34 11:40 06.03.2020
1577 Clouds 26 1010 77 0 0.45 76 11:20 06.03.2020
1578 Clouds 26 1010 77 0 0.45 76 10:40 06.03.2020
1579 Clouds 26 1010 77 0 0.45 76 10:21 06.03.2020
1580 Clouds 26 1010 77 0 0.45 76 09:55 06.03.2020
1581 Clouds 26 1010 77 0 0.45 76 09:37 06.03.2020
1582 Clouds 26 1010 77 0 0.45 76 09:19 06.03.2020
1583 Clouds 26 1010 77 0 0.45 76 08:45 06.03.2020
1584 Clouds 26 1010 77 0 0.45 76 08:27 06.03.2020
1585 Clouds 27 1013 78 0 1.34 120 07:57 06.03.2020
1586 Clouds 27 1013 78 0 1.34 120 07:38 06.03.2020
1587 Clouds 27 1013 78 0 1.34 120 06:58 06.03.2020
1588 Clouds 27 1013 78 0 1.34 120 06:39 06.03.2020
1589 Clouds 27 1013 78 0 1.34 120 05:42 06.03.2020
1590 Clouds 27 1013 78 0 1.34 120 05:24 06.03.2020
1591 Clouds 27 1012 81 0 0.85 102 04:57 06.03.2020
1592 Clouds 27 1008 88 10000 2.1 30 01:59 06.03.2020
1593 Clouds 27 1008 88 10000 2.1 30 01:39 06.03.2020
1594 Clouds 27 1008 88 10000 2.1 30 01:19 06.03.2020
1595 Clouds 27 1007 83 10000 1.5 180 00:32 06.03.2020
1596 Clouds 28 1007 78 10000 0.5 240 23:50 05.03.2020
1597 Clouds 28 1007 78 10000 0.5 240 23:30 05.03.2020
1598 Clouds 27 1007 88 10000 1.5 360 22:58 05.03.2020
1599 Clouds 27 1007 88 10000 1.5 360 22:39 05.03.2020
1600 Clouds 27 1007 88 10000 1.5 360 22:21 05.03.2020
1601 Rain 27 1007 88 10000 2.1 360 21:56 05.03.2020
1602 Rain 27 1007 88 10000 2.1 360 21:38 05.03.2020
1603 Rain 27 1007 88 10000 2.1 360 21:20 05.03.2020
1604 Clouds 28 1009 83 10000 2.1 240 20:57 05.03.2020
1605 Clouds 28 1009 83 10000 2.1 240 20:38 05.03.2020
1606 Clouds 28 1009 83 10000 2.1 240 20:18 05.03.2020
1607 Clouds 28 1010 78 10000 3.6 270 19:55 05.03.2020
1608 Clouds 28 1010 78 10000 3.6 270 19:37 05.03.2020
1609 Clouds 28 1010 78 10000 3.6 270 19:18 05.03.2020
1610 Clouds 28 1011 78 10000 3.1 270 18:38 05.03.2020
1611 Clouds 28 1011 78 10000 3.1 270 18:19 05.03.2020
1612 Clouds 28 1011 83 10000 3.1 240 17:59 05.03.2020
1613 Clouds 28 1011 83 10000 3.1 240 17:40 05.03.2020
1614 Clouds 28 1011 83 10000 3.1 240 17:21 05.03.2020
1615 Clouds 28 1010 83 10000 0.5 100 16:43 05.03.2020
1616 Clouds 28 1010 83 10000 0.5 100 16:25 05.03.2020
1617 Clouds 28 1010 83 10000 0.5 100 15:59 05.03.2020
1618 Clouds 28 1010 83 10000 0.5 100 15:40 05.03.2020
1619 Clouds 28 1010 83 10000 0.5 100 15:21 05.03.2020
1620 Clouds 26 1009 88 10000 0.5 120 14:55 05.03.2020
1621 Clouds 26 1009 88 10000 0.5 120 14:36 05.03.2020
1622 Clouds 26 1009 88 10000 0.5 120 14:18 05.03.2020
1623 Clouds 24 1008 94 10000 1.5 120 13:43 05.03.2020
1624 Clouds 24 1008 94 10000 1.5 120 13:21 05.03.2020
1625 Clouds 24 1008 94 10000 1.5 120 13:21 05.03.2020
1626 Clouds 24 1008 94 10000 1.5 120 12:57 05.03.2020
1627 Clouds 24 1008 94 10000 1.5 120 12:38 05.03.2020
1628 Clouds 24 1008 94 10000 1.5 120 12:19 05.03.2020
1629 Clouds 26 1011 82 0 2.6 28 11:56 05.03.2020
1630 Clouds 26 1011 82 0 2.6 28 11:37 05.03.2020
1631 Clouds 26 1009 81 0 2.63 12 11:18 05.03.2020
1632 Clouds 26 1009 81 0 2.63 12 10:56 05.03.2020
1633 Clouds 26 1009 81 0 2.63 12 10:38 05.03.2020
1634 Clouds 26 1009 81 0 2.63 12 10:38 05.03.2020
1635 Clouds 26 1009 81 0 2.63 12 10:38 05.03.2020
1636 Clouds 26 1009 81 0 2.63 12 10:19 05.03.2020
1637 Clouds 26 1009 81 0 2.63 12 09:44 05.03.2020
1638 Clouds 26 1009 81 0 2.63 12 09:26 05.03.2020
1639 Clouds 26 1009 81 0 2.63 12 08:44 05.03.2020
1640 Clouds 26 1009 81 0 2.63 12 08:25 05.03.2020
1641 Rain 26 1011 83 0 2.8 15 07:46 05.03.2020
1642 Rain 26 1011 83 0 2.8 15 07:22 05.03.2020
1643 Rain 26 1011 83 0 2.8 15 06:48 05.03.2020
1644 Rain 26 1011 83 0 2.8 15 06:22 05.03.2020
1645 Rain 26 1011 83 0 2.8 15 06:22 05.03.2020
1646 Rain 26 1011 83 0 2.8 15 05:39 05.03.2020
1647 Rain 27 1011 82 0 2.26 0 04:45 05.03.2020
1648 Rain 27 1011 82 0 2.26 0 04:22 05.03.2020
1649 Rain 27 1011 82 0 2.26 0 03:19 05.03.2020
1650 Clouds 26 1007 94 10000 1.5 330 01:46 05.03.2020
1651 Clouds 26 1007 94 10000 1.5 330 01:20 05.03.2020
1652 Clouds 26 1006 94 10000 2.1 310 00:25 05.03.2020
1653 Clouds 26 1006 94 10000 1.5 320 23:42 04.03.2020
1654 Clouds 26 1006 94 10000 1.5 320 23:22 04.03.2020
1655 Rain 26 1007 94 6000 2.1 320 22:57 04.03.2020
1656 Rain 26 1007 94 6000 2.1 320 22:39 04.03.2020
1657 Rain 26 1007 94 6000 2.1 320 22:19 04.03.2020
1658 Rain 26 1007 94 5000 1.5 330 21:57 04.03.2020
1659 Rain 26 1007 94 5000 1.5 330 21:38 04.03.2020
1660 Rain 26 1007 94 5000 1.5 330 21:38 04.03.2020
1661 Rain 26 1007 94 5000 1.5 330 21:18 04.03.2020
1662 Rain 26 1008 94 2000 2.1 320 20:41 04.03.2020
1663 Rain 26 1008 94 2000 2.1 320 20:23 04.03.2020
1664 Rain 25 1009 100 3000 2.1 30 19:58 04.03.2020
1665 Rain 25 1009 100 3000 2.1 30 19:40 04.03.2020
1666 Rain 25 1009 100 3000 2.1 30 19:22 04.03.2020
1667 Rain 25 1010 100 3000 2.1 40 18:42 04.03.2020
1668 Rain 25 1010 100 3000 2.1 40 18:24 04.03.2020
1669 Rain 26 1011 83 0 2.75 144 17:59 04.03.2020
1670 Rain 26 1011 83 0 2.75 144 17:39 04.03.2020
1671 Clouds 26 1010 83 10000 2.6 20 17:20 04.03.2020
1672 Clouds 26 1010 83 10000 2.6 20 16:56 04.03.2020
1673 Rain 26 1012 83 0 2.73 176 16:37 04.03.2020
1674 Clouds 26 1009 88 10000 2.6 40 16:19 04.03.2020
1675 Clouds 26 1009 88 10000 2.6 40 15:44 04.03.2020
1676 Clouds 26 1009 88 10000 2.6 40 15:26 04.03.2020
1677 Clouds 25 1009 94 10000 2.1 30 14:59 04.03.2020
1678 Clouds 25 1009 94 10000 2.1 30 14:40 04.03.2020
1679 Clouds 25 1009 94 10000 2.1 30 14:20 04.03.2020
1680 Clouds 24 1008 94 10000 1.5 40 13:58 04.03.2020
1681 Clouds 24 1008 94 10000 1.5 40 13:39 04.03.2020
1682 Clouds 24 1008 94 10000 1.5 40 13:20 04.03.2020
1683 Rain 26 1010 83 0 2.19 165 12:55 04.03.2020
1684 Rain 26 1010 83 0 2.19 165 12:37 04.03.2020
1685 Rain 26 1010 83 0 2.19 165 12:19 04.03.2020
1686 Rain 26 1010 83 0 2.19 165 11:42 04.03.2020
1687 Rain 26 1010 83 0 2.19 165 11:23 04.03.2020
1688 Rain 26 1009 83 0 2.96 171 10:58 04.03.2020
1689 Rain 26 1009 83 0 2.96 171 10:40 04.03.2020
1690 Rain 26 1009 83 0 2.96 171 10:19 04.03.2020
1691 Rain 26 1009 83 0 2.96 171 09:43 04.03.2020
1692 Rain 26 1009 83 0 2.96 171 09:21 04.03.2020
1693 Rain 26 1009 83 0 2.96 171 08:48 04.03.2020
1694 Rain 26 1009 84 0 2.88 164 08:28 04.03.2020
1695 Rain 26 1011 84 0 3.46 164 07:57 04.03.2020
1696 Rain 26 1011 84 0 3.46 164 07:38 04.03.2020
1697 Rain 26 1011 84 0 3.46 164 07:20 04.03.2020
1698 Rain 26 1011 84 0 3.46 164 06:43 04.03.2020
1699 Rain 26 1011 84 0 3.46 164 06:23 04.03.2020
1700 Rain 26 1011 84 0 3.46 164 05:50 04.03.2020
1701 Rain 26 1011 85 0 3.95 158 04:30 04.03.2020
1702 Rain 26 1011 85 0 3.95 158 03:42 04.03.2020
1703 Rain 26 1011 85 0 3.95 158 03:24 04.03.2020
1704 Rain 26 1011 85 0 3.95 158 02:55 04.03.2020
1705 Clouds 26 1006 88 10000 3.1 190 02:20 04.03.2020
1706 Clouds 26 1006 88 10000 3.1 190 01:52 04.03.2020
1707 Clouds 26 1006 88 10000 3.1 190 00:50 04.03.2020
1708 Clouds 26 1006 88 10000 3.1 190 00:25 04.03.2020
1709 Rain 27 1009 81 0 3.86 155 23:46 03.03.2020
1710 Drizzle 27 1006 88 8000 4.6 160 23:27 03.03.2020
1711 Drizzle 27 1006 88 8000 4.6 160 22:57 03.03.2020
1712 Drizzle 27 1006 88 8000 4.6 160 22:39 03.03.2020
1713 Drizzle 27 1006 88 8000 4.6 160 22:19 03.03.2020
1714 Rain 28 1007 83 8000 5.1 160 21:56 03.03.2020
1715 Rain 28 1007 83 8000 5.1 160 21:37 03.03.2020
1716 Rain 28 1007 83 8000 5.1 160 21:18 03.03.2020
1717 Clouds 28 1008 83 10000 4.1 360 20:41 03.03.2020
1718 Clouds 28 1008 83 10000 4.1 360 20:20 03.03.2020
1719 Clouds 29 1009 79 10000 5.1 150 19:59 03.03.2020
1720 Clouds 29 1009 79 10000 5.1 150 19:37 03.03.2020
1721 Clouds 29 1009 79 10000 5.1 150 19:37 03.03.2020
1722 Clouds 29 1009 79 10000 5.1 150 19:19 03.03.2020
1723 Clouds 29 1009 79 10000 2.6 300 18:58 03.03.2020
1724 Clouds 29 1009 79 10000 2.6 300 18:40 03.03.2020
1725 Clouds 29 1009 79 10000 2.6 300 18:20 03.03.2020
1726 Clouds 28 1010 78 10000 2.6 330 17:55 03.03.2020
1727 Clouds 28 1010 78 10000 2.6 330 17:37 03.03.2020
1728 Clouds 28 1010 78 10000 2.6 330 17:19 03.03.2020
1729 Clouds 29 1009 79 10000 2.6 330 16:55 03.03.2020
1730 Clouds 29 1009 79 10000 2.6 330 16:36 03.03.2020
1731 Clouds 29 1009 79 10000 2.6 330 16:18 03.03.2020
1732 Clouds 29 1009 79 10000 2.6 330 16:18 03.03.2020
1733 Clouds 26 1012 79 0 1.96 137 15:43 03.03.2020
1734 Clouds 24 1008 88 10000 1.5 120 15:21 03.03.2020
1735 Clouds 24 1008 88 10000 1.5 120 14:55 03.03.2020
1736 Clouds 24 1008 88 10000 1.5 120 14:37 03.03.2020
1737 Clouds 24 1008 88 10000 1.5 120 14:18 03.03.2020
1738 Clouds 23 1008 94 10000 2.1 120 13:42 03.03.2020
1739 Clouds 23 1008 94 10000 2.1 120 13:24 03.03.2020
1740 Clear 26 1010 80 0 2.62 157 12:55 03.03.2020
1741 Clear 26 1010 80 0 2.62 157 12:37 03.03.2020
1742 Clear 26 1010 80 0 2.62 157 12:18 03.03.2020
1743 Clear 26 1010 80 0 2.62 157 11:39 03.03.2020
1744 Clear 26 1010 81 0 2.33 150 11:20 03.03.2020
1745 Clear 26 1010 81 0 2.33 150 10:58 03.03.2020
1746 Clear 26 1010 81 0 2.33 150 10:39 03.03.2020
1747 Clear 26 1010 81 0 2.33 150 10:20 03.03.2020
1748 Clear 26 1010 81 0 2.33 150 09:59 03.03.2020
1749 Clear 26 1010 81 0 2.33 150 09:40 03.03.2020
1750 Clear 26 1010 81 0 2.33 150 09:19 03.03.2020
1751 Clear 26 1010 81 0 2.33 150 08:41 03.03.2020
1752 Clear 26 1010 81 0 2.68 140 08:22 03.03.2020
1753 Clear 26 1011 81 0 2.93 131 07:45 03.03.2020
1754 Clear 26 1011 81 0 2.93 131 07:24 03.03.2020
1755 Clear 26 1011 81 0 2.93 131 06:59 03.03.2020
1756 Clear 26 1011 81 0 2.93 131 06:39 03.03.2020
1757 Clear 26 1011 81 0 2.93 131 06:18 03.03.2020
1758 Clear 26 1011 81 0 2.93 131 05:39 03.03.2020
1759 Clear 27 1012 81 0 3.67 118 04:48 03.03.2020
1760 Clear 27 1012 81 0 3.67 118 02:37 03.03.2020
1761 Clouds 28 1007 78 10000 2.1 320 01:21 03.03.2020
1762 Clouds 29 1007 74 10000 2.6 10 00:40 03.03.2020
1763 Clouds 29 1007 74 10000 2.6 10 00:20 03.03.2020
1764 Clouds 31 1007 70 10000 3.1 260 23:46 02.03.2020
1765 Clouds 31 1007 70 10000 3.1 260 23:23 02.03.2020
1766 Clouds 31 1007 70 10000 6.2 160 22:56 02.03.2020
1767 Clouds 31 1007 70 10000 6.2 160 22:56 02.03.2020
1768 Clouds 31 1007 70 10000 6.2 160 22:38 02.03.2020
1769 Clouds 31 1007 70 10000 6.2 160 22:38 02.03.2020
1770 Clouds 31 1007 70 10000 6.2 160 22:19 02.03.2020
1771 Clouds 31 1009 66 10000 3.1 340 21:43 02.03.2020
1772 Clouds 31 1009 66 10000 3.1 340 21:24 02.03.2020
1773 Clouds 30 1009 70 10000 4.1 310 20:59 02.03.2020
1774 Clouds 30 1009 70 10000 4.1 310 20:41 02.03.2020
1775 Clouds 30 1009 70 10000 4.1 310 20:22 02.03.2020
1776 Clouds 29 1010 74 10000 3.1 30 19:57 02.03.2020
1777 Clouds 29 1010 74 10000 3.1 30 19:39 02.03.2020
1778 Clouds 29 1010 74 10000 3.1 30 19:20 02.03.2020
1779 Clouds 28 1011 78 10000 3.1 320 18:55 02.03.2020
1780 Clouds 28 1011 78 10000 3.1 320 18:55 02.03.2020
1781 Clouds 28 1011 78 10000 3.1 320 18:37 02.03.2020
1782 Clouds 28 1011 78 10000 3.1 320 18:18 02.03.2020
1783 Rain 26 1012 80 0 5.52 139 17:55 02.03.2020
1784 Rain 26 1012 80 0 5.52 139 17:37 02.03.2020
1785 Clouds 29 1011 79 10000 4.1 130 17:18 02.03.2020
1786 Clouds 29 1011 79 10000 4.1 130 16:41 02.03.2020
1787 Clouds 29 1011 79 10000 4.1 130 16:22 02.03.2020
1788 Clouds 28 1010 78 10000 3.1 110 15:45 02.03.2020
1789 Clouds 28 1010 78 10000 3.1 110 15:22 02.03.2020
1790 Clouds 25 1009 88 10000 2.1 130 14:58 02.03.2020
1791 Clouds 25 1009 88 10000 2.1 130 14:37 02.03.2020
1792 Clouds 25 1009 88 10000 2.1 130 14:19 02.03.2020
1793 Clouds 23 1009 94 10000 1.5 90 13:44 02.03.2020
1794 Clouds 23 1009 94 10000 1.5 90 13:20 02.03.2020
1795 Clear 26 1011 81 0 4.05 120 12:59 02.03.2020
1796 Clear 26 1011 81 0 4.05 120 12:40 02.03.2020
1797 Clear 26 1011 81 0 4.05 120 12:18 02.03.2020
1798 Clear 26 1011 81 0 4.05 120 11:38 02.03.2020
1799 Clear 26 1010 81 0 4.93 91 11:19 02.03.2020
1800 Clear 26 1010 81 0 4.93 91 10:55 02.03.2020
1801 Clear 26 1010 81 0 4.93 91 10:37 02.03.2020
1802 Clear 26 1010 81 0 4.93 91 10:18 02.03.2020
1803 Clear 26 1010 81 0 4.93 91 09:45 02.03.2020
1804 Clear 26 1010 81 0 4.93 91 09:26 02.03.2020
1805 Clear 26 1010 81 0 4.93 91 08:48 02.03.2020
1806 Clear 26 1010 82 0 4.39 96 08:22 02.03.2020
1807 Clouds 26 1012 82 0 4.37 98 07:47 02.03.2020
1808 Clouds 26 1012 82 0 4.37 98 07:28 02.03.2020
1809 Clouds 26 1012 82 0 4.37 98 06:50 02.03.2020
1810 Clouds 26 1012 82 0 4.37 98 05:58 02.03.2020
1811 Clouds 27 1012 81 0 4.37 107 04:56 02.03.2020
1812 Clouds 27 1012 81 0 4.37 107 03:25 02.03.2020
1813 Clouds 27 1012 81 0 4.37 107 02:53 02.03.2020
1814 Clouds 28 1008 78 10000 5.7 130 01:55 02.03.2020
1815 Clouds 28 1008 78 10000 5.7 130 01:33 02.03.2020
1816 Clear 29 1007 79 10000 6.7 150 00:24 02.03.2020
1817 Clear 29 1007 79 10000 6.7 150 00:24 02.03.2020
1818 Clear 27 1010 78 0 5.01 93 23:59 01.03.2020
1819 Clear 27 1010 78 0 5.01 93 23:41 01.03.2020
1820 Clouds 30 1007 74 10000 7.2 170 23:20 01.03.2020
1821 Clouds 30 1007 74 10000 7.2 170 22:43 01.03.2020
1822 Clouds 30 1007 74 10000 7.2 170 22:21 01.03.2020
1823 Clouds 30 1008 74 10000 8.2 160 21:56 01.03.2020
1824 Clouds 30 1008 74 10000 8.2 160 21:38 01.03.2020
1825 Clouds 30 1008 74 10000 8.2 160 21:19 01.03.2020
1826 Clouds 31 1009 70 10000 8.2 160 20:44 01.03.2020
1827 Clouds 31 1009 70 10000 8.2 160 20:25 01.03.2020
1828 Clouds 31 1010 70 10000 8.2 160 19:56 01.03.2020
1829 Clouds 31 1010 70 10000 8.2 160 19:37 01.03.2020
1830 Clouds 31 1010 70 10000 8.2 160 19:19 01.03.2020
1831 Clouds 31 1011 70 10000 7.2 160 18:41 01.03.2020
1832 Clouds 31 1011 70 10000 7.2 160 18:20 01.03.2020
1833 Clouds 30 1011 74 10000 5.1 130 17:58 01.03.2020
1834 Clouds 30 1011 74 10000 5.1 130 17:40 01.03.2020
1835 Clouds 30 1011 74 10000 5.1 130 17:21 01.03.2020
1836 Clouds 30 1012 74 10000 4.1 120 16:57 01.03.2020
1837 Clouds 30 1012 74 10000 4.1 120 16:39 01.03.2020
1838 Clouds 30 1012 74 10000 4.1 120 16:39 01.03.2020
1839 Clouds 30 1012 74 10000 4.1 120 16:18 01.03.2020
1840 Clouds 30 1012 74 10000 4.1 120 16:18 01.03.2020
1841 Clouds 28 1011 83 10000 4.1 120 15:57 01.03.2020
1842 Clouds 28 1011 83 10000 4.1 120 15:38 01.03.2020
1843 Clouds 28 1011 83 10000 4.1 120 15:20 01.03.2020
1844 Clouds 26 1010 88 10000 2.1 130 14:57 01.03.2020
1845 Clouds 26 1010 88 10000 2.1 130 14:57 01.03.2020
1846 Clouds 26 1010 88 10000 2.1 130 14:38 01.03.2020
1847 Clouds 26 1010 88 10000 2.1 130 14:20 01.03.2020
1848 Clouds 25 1010 94 10000 3.1 130 13:55 01.03.2020
1849 Clouds 25 1010 94 10000 3.1 130 13:37 01.03.2020
1850 Clouds 25 1010 94 10000 3.1 130 13:18 01.03.2020
1851 Clear 26 1012 82 0 5.66 99 12:42 01.03.2020
1852 Clear 26 1012 82 0 5.66 99 12:42 01.03.2020
1853 Clouds 26 1012 82 0 4.82 103 12:21 01.03.2020
1854 Clouds 26 1012 82 0 4.82 103 12:21 01.03.2020
1855 Clear 26 1012 82 0 5.66 99 11:43 01.03.2020
1856 Clear 26 1012 82 0 5.66 99 11:25 01.03.2020
1857 Clouds 27 1012 82 0 4.82 98 10:57 01.03.2020
1858 Clouds 27 1012 82 0 4.82 98 10:38 01.03.2020
1859 Clouds 27 1012 82 0 4.82 98 10:20 01.03.2020
1860 Clouds 27 1012 82 0 4.82 98 09:57 01.03.2020
1861 Clouds 27 1012 82 0 4.82 98 09:39 01.03.2020
1862 Clouds 27 1012 82 0 4.82 98 09:21 01.03.2020
1863 Clouds 27 1012 82 0 4.82 98 08:41 01.03.2020
1864 Clouds 27 1013 85 0 3.14 100 08:21 01.03.2020
1865 Clouds 27 1013 85 0 3.14 100 07:43 01.03.2020
1866 Clouds 27 1013 85 0 3.14 100 07:24 01.03.2020
1867 Clouds 27 1013 85 0 3.14 100 06:57 01.03.2020
1868 Clouds 27 1013 85 0 3.14 100 06:37 01.03.2020
1869 Clouds 27 1013 83 0 4.31 93 04:27 01.03.2020
1870 Clouds 27 1013 83 0 4.31 93 02:55 01.03.2020
1871 Clouds 28 1008 83 10000 5.1 130 01:53 01.03.2020
1872 Clouds 28 1008 83 10000 5.1 130 01:28 01.03.2020
1873 Clouds 29 1008 79 10000 6.2 150 00:43 01.03.2020
1874 Clouds 29 1008 79 10000 6.2 150 00:21 01.03.2020
1875 Clouds 30 1008 74 10000 7.2 150 23:51 29.02.2020
1876 Clouds 30 1008 74 10000 7.2 150 23:32 29.02.2020
1877 Clouds 30 1008 74 10000 7.2 140 22:44 29.02.2020
1878 Clouds 30 1008 74 10000 7.2 140 22:25 29.02.2020
1879 Clouds 31 1008 70 10000 8.2 160 21:44 29.02.2020
1880 Clouds 31 1008 70 10000 8.2 160 21:26 29.02.2020
1881 Clouds 30 1009 74 10000 7.7 130 20:44 29.02.2020
1882 Clouds 30 1009 74 10000 7.7 130 20:22 29.02.2020
1883 Clouds 30 1011 74 10000 7.2 170 19:57 29.02.2020
1884 Clouds 30 1011 74 10000 7.2 170 19:38 29.02.2020
1885 Clouds 30 1011 74 10000 7.2 170 19:20 29.02.2020
1886 Clouds 30 1011 74 10000 7.2 170 19:20 29.02.2020
1887 Clouds 30 1011 74 10000 7.7 150 18:44 29.02.2020
1888 Clouds 30 1011 74 10000 7.7 150 18:25 29.02.2020
1889 Clouds 29 1012 79 10000 6.2 150 17:58 29.02.2020
1890 Clouds 29 1012 79 10000 6.2 150 17:40 29.02.2020
1891 Clouds 29 1012 79 10000 6.2 150 17:21 29.02.2020
1892 Clouds 28 1012 78 10000 6.2 150 16:56 29.02.2020
1893 Clouds 28 1012 78 10000 6.2 150 16:37 29.02.2020
1894 Clouds 28 1012 78 10000 6.2 150 16:18 29.02.2020
1895 Clouds 28 1012 78 10000 6.2 150 16:18 29.02.2020
1896 Clouds 28 1011 78 10000 5.1 160 15:41 29.02.2020
1897 Clouds 28 1011 78 10000 5.1 160 15:23 29.02.2020
1898 Clouds 26 1011 88 10000 2.1 160 14:42 29.02.2020
1899 Clouds 26 1011 88 10000 2.1 160 14:24 29.02.2020
1900 Clouds 26 1011 88 10000 2.1 160 14:24 29.02.2020
1901 Clouds 25 1010 94 10000 4.6 150 13:57 29.02.2020
1902 Clouds 25 1010 94 10000 4.6 150 13:38 29.02.2020
1903 Clouds 25 1010 94 10000 4.6 150 13:20 29.02.2020
1904 Clouds 27 1012 83 0 4.46 127 12:42 29.02.2020
1905 Clouds 27 1012 83 0 4.46 127 12:22 29.02.2020
1906 Clouds 27 1012 83 0 4.46 127 11:57 29.02.2020
1907 Clouds 27 1012 83 0 4.46 127 11:39 29.02.2020
1908 Clouds 27 1012 83 0 3.5 128 11:20 29.02.2020
1909 Clouds 27 1012 83 0 3.5 128 10:46 29.02.2020
1910 Clouds 27 1012 83 0 3.5 128 10:28 29.02.2020
1911 Clouds 27 1012 83 0 3.5 128 09:48 29.02.2020
1912 Clouds 27 1012 83 0 3.5 128 09:25 29.02.2020
1913 Clouds 27 1012 83 0 3.5 128 08:42 29.02.2020
1914 Clouds 27 1012 83 0 3.5 128 08:23 29.02.2020
1915 Clear 27 1013 84 0 4.05 108 07:58 29.02.2020
1916 Clear 27 1013 84 0 4.05 108 07:40 29.02.2020
1917 Clear 27 1013 84 0 4.05 108 07:18 29.02.2020
1918 Clear 27 1013 84 0 4.05 108 06:44 29.02.2020
1919 Clear 27 1013 84 0 4.05 108 06:23 29.02.2020
1920 Clear 27 1013 84 0 4.05 108 05:46 29.02.2020
1921 Clear 27 1013 84 0 4.15 105 04:46 29.02.2020
1922 Clear 27 1013 84 0 4.15 105 03:40 29.02.2020
1923 Clear 27 1013 84 0 4.15 105 03:21 29.02.2020
1924 Clear 27 1013 84 0 4.15 105 02:37 29.02.2020
1925 Clear 27 1013 84 0 4.15 105 02:37 29.02.2020
1926 Clouds 29 1007 74 10000 6.2 150 00:59 29.02.2020
1927 Clouds 29 1007 74 10000 6.2 150 00:37 29.02.2020
1928 Clouds 30 1007 70 10000 6.7 160 23:43 28.02.2020
1929 Clouds 30 1007 70 10000 6.7 160 23:25 28.02.2020
1930 Clouds 30 1007 70 10000 7.2 160 22:54 28.02.2020
1931 Clouds 30 1007 70 10000 7.2 160 22:36 28.02.2020
1932 Clouds 30 1007 70 10000 7.2 160 22:18 28.02.2020
1933 Clouds 30 1008 70 10000 7.2 160 21:41 28.02.2020
1934 Clouds 30 1008 70 10000 7.2 160 21:41 28.02.2020
1935 Clouds 30 1008 70 10000 7.2 160 21:20 28.02.2020
1936 Clouds 30 1009 70 10000 6.7 150 20:41 28.02.2020
1937 Clouds 30 1009 70 10000 6.7 150 20:22 28.02.2020
1938 Clouds 30 1009 70 10000 6.7 150 20:22 28.02.2020
1939 Rain 29 1011 74 10000 3.1 170 19:59 28.02.2020
1940 Rain 29 1011 74 10000 3.1 170 19:39 28.02.2020
1941 Rain 29 1011 74 10000 3.1 170 19:21 28.02.2020
1942 Rain 29 1011 74 10000 5.7 120 18:57 28.02.2020
1943 Rain 29 1011 74 10000 5.7 120 18:38 28.02.2020
1944 Rain 29 1011 74 10000 5.7 120 18:20 28.02.2020
1945 Clouds 28 1011 83 10000 6.2 140 17:40 28.02.2020
1946 Clouds 28 1011 83 10000 6.2 140 17:22 28.02.2020
1947 Clouds 28 1011 83 10000 6.2 160 16:46 28.02.2020
1948 Clouds 28 1011 83 10000 6.2 160 16:20 28.02.2020
1949 Clouds 28 1010 78 10000 5.7 160 15:58 28.02.2020
1950 Clouds 28 1010 78 10000 5.7 160 15:40 28.02.2020
1951 Clouds 28 1010 78 10000 5.7 160 15:19 28.02.2020
1952 Clouds 26 1010 88 10000 5.1 130 14:57 28.02.2020
1953 Clouds 26 1010 88 10000 5.1 130 14:38 28.02.2020
1954 Clouds 26 1010 88 10000 5.1 130 14:38 28.02.2020
1955 Clouds 26 1010 88 10000 5.1 130 14:18 28.02.2020
1956 Clouds 25 1009 94 10000 5.1 140 13:41 28.02.2020
1957 Clouds 25 1009 94 10000 5.1 140 13:20 28.02.2020
1958 Clouds 25 1009 94 10000 5.1 140 13:20 28.02.2020
1959 Clouds 26 1012 85 0 3.85 103 12:58 28.02.2020
1960 Clouds 26 1012 85 0 3.85 103 12:40 28.02.2020
1961 Clouds 26 1012 85 0 3.85 103 12:22 28.02.2020
1962 Clouds 26 1012 85 0 3.85 103 11:41 28.02.2020
1963 Clouds 26 1012 85 0 3.85 103 11:22 28.02.2020
1964 Rain 26 1011 86 0 3.11 97 10:55 28.02.2020
1965 Rain 26 1011 86 0 3.11 97 10:36 28.02.2020
1966 Rain 26 1011 86 0 3.11 97 10:18 28.02.2020
1967 Rain 26 1011 86 0 3.11 97 09:42 28.02.2020
1968 Rain 26 1011 86 0 3.11 97 09:20 28.02.2020
1969 Rain 26 1011 86 0 3.11 97 08:43 28.02.2020
1970 Rain 26 1011 86 0 3.11 97 08:22 28.02.2020
1971 Clear 26 1013 85 0 3.77 72 07:47 28.02.2020
1972 Clear 26 1013 85 0 3.77 72 07:27 28.02.2020
1973 Clear 26 1013 85 0 3.77 72 06:59 28.02.2020
1974 Clear 26 1013 85 0 3.77 72 06:38 28.02.2020
1975 Clear 26 1013 85 0 3.77 72 05:31 28.02.2020
1976 Clear 26 1012 85 0 2.79 74 04:32 28.02.2020
1977 Clear 26 1012 85 0 2.79 74 03:34 28.02.2020
1978 Clear 26 1012 85 0 2.79 74 02:41 28.02.2020
1979 Clouds 27 1008 83 10000 4.6 130 01:48 28.02.2020
1980 Clouds 29 1008 79 10000 5.1 120 00:33 28.02.2020
1981 Clouds 29 1008 74 10000 6.2 140 23:47 27.02.2020
1982 Clouds 29 1008 74 10000 6.2 140 23:23 27.02.2020
1983 Clouds 31 1008 70 10000 6.7 150 22:58 27.02.2020
1984 Clouds 31 1008 70 10000 6.7 150 22:39 27.02.2020
1985 Clouds 31 1008 70 10000 6.7 150 22:21 27.02.2020
1986 Clouds 31 1008 70 10000 6.2 120 21:42 27.02.2020
1987 Clouds 31 1008 70 10000 6.2 120 21:23 27.02.2020
1988 Clouds 26 1010 83 0 5.04 111 20:59 27.02.2020
1989 Clouds 26 1010 83 0 5.04 111 20:41 27.02.2020
1990 Clouds 31 1010 70 10000 5.1 320 20:23 27.02.2020
1991 Clouds 31 1010 70 10000 5.1 320 20:23 27.02.2020
1992 Clouds 31 1010 70 10000 5.1 320 19:57 27.02.2020
1993 Clouds 31 1010 70 10000 5.1 320 19:39 27.02.2020
1994 Clouds 31 1010 70 10000 5.1 320 19:20 27.02.2020
1995 Clouds 30 1011 74 10000 4.1 130 18:54 27.02.2020
1996 Clouds 30 1011 74 10000 4.1 130 18:36 27.02.2020
1997 Clouds 30 1011 74 10000 4.1 130 18:18 27.02.2020
1998 Clouds 28 1012 78 10000 3.1 330 17:40 27.02.2020
1999 Clouds 28 1012 78 10000 3.1 330 17:20 27.02.2020
2000 Clouds 29 1011 79 10000 2.1 40 16:59 27.02.2020
2001 Clouds 29 1011 79 10000 2.1 40 16:40 27.02.2020
2002 Clouds 29 1011 79 10000 2.1 40 16:20 27.02.2020
2003 Clouds 28 1011 78 10000 2.1 170 15:58 27.02.2020
2004 Clouds 28 1011 78 10000 2.1 170 15:58 27.02.2020
2005 Clouds 28 1011 78 10000 2.1 170 15:37 27.02.2020
2006 Clouds 28 1011 78 10000 2.1 170 15:19 27.02.2020
2007 Clouds 25 1010 88 10000 2.1 110 14:56 27.02.2020
2008 Clouds 25 1010 88 10000 2.1 110 14:37 27.02.2020
2009 Clouds 25 1010 88 10000 2.1 110 14:18 27.02.2020
2010 Clouds 24 1009 88 10000 2.1 60 13:42 27.02.2020
2011 Clouds 24 1009 88 10000 2.1 60 13:42 27.02.2020
2012 Clouds 24 1009 88 10000 2.1 60 13:21 27.02.2020
2013 Clouds 24 1009 88 10000 2.1 60 13:21 27.02.2020
2014 Clouds 26 1012 84 0 2.81 64 12:48 27.02.2020
2015 Clouds 26 1012 84 0 2.81 64 12:25 27.02.2020
2016 Clouds 26 1012 84 0 2.81 64 11:59 27.02.2020
2017 Clouds 26 1012 84 0 2.81 64 11:41 27.02.2020
2018 Clouds 26 1012 84 0 2.81 64 11:21 27.02.2020
2019 Clouds 26 1011 83 0 2.1 63 10:43 27.02.2020
2020 Clouds 26 1011 83 0 2.1 63 10:23 27.02.2020
2021 Clouds 26 1011 83 0 2.1 63 09:48 27.02.2020
2022 Clouds 26 1011 83 0 2.1 63 09:29 27.02.2020
2023 Clouds 26 1011 83 0 2.1 63 08:57 27.02.2020
2024 Clouds 26 1011 83 0 2.1 63 08:39 27.02.2020
2025 Clouds 26 1011 83 0 2.36 73 08:21 27.02.2020
2026 Clouds 26 1013 84 0 2.09 105 07:44 27.02.2020
2027 Clouds 26 1013 84 0 2.09 105 07:25 27.02.2020
2028 Clouds 26 1013 84 0 2.09 105 06:45 27.02.2020
2029 Clouds 26 1013 84 0 2.09 105 05:34 27.02.2020
2030 Clouds 26 1013 83 0 3 89 03:35 27.02.2020
2031 Clouds 28 1008 74 10000 5.1 140 02:20 27.02.2020
2032 Clouds 29 1008 70 10000 6.2 140 00:44 27.02.2020
2033 Clouds 29 1008 70 10000 6.2 140 00:24 27.02.2020
2034 Clouds 30 1008 70 10000 5.1 140 23:39 26.02.2020
2035 Clouds 30 1008 70 10000 5.1 140 23:19 26.02.2020
2036 Clouds 30 1009 70 10000 3.6 360 22:56 26.02.2020
2037 Clouds 30 1009 70 10000 3.6 360 22:38 26.02.2020
2038 Clouds 30 1009 70 10000 3.6 360 22:19 26.02.2020
2039 Clouds 30 1010 70 10000 3.1 330 21:40 26.02.2020
2040 Clouds 30 1010 70 10000 3.1 330 21:21 26.02.2020
2041 Clouds 29 1011 79 10000 2.1 360 20:57 26.02.2020
2042 Clouds 29 1011 79 10000 2.1 360 20:38 26.02.2020
2043 Clouds 29 1011 79 10000 2.1 360 20:38 26.02.2020
2044 Clouds 29 1011 79 10000 2.1 360 20:19 26.02.2020
2045 Clouds 30 1012 74 10000 5.1 130 19:57 26.02.2020
2046 Clouds 30 1012 74 10000 5.1 130 19:38 26.02.2020
2047 Clouds 30 1012 74 10000 5.1 130 19:19 26.02.2020
2048 Clouds 29 1012 74 10000 5.1 150 18:57 26.02.2020
2049 Clouds 29 1012 74 10000 5.1 150 18:37 26.02.2020
2050 Clouds 29 1012 74 10000 5.1 150 18:19 26.02.2020
2051 Clouds 28 1012 78 10000 2.6 320 17:41 26.02.2020
2052 Clouds 28 1012 78 10000 2.6 320 17:41 26.02.2020
2053 Clouds 28 1012 78 10000 2.6 320 17:20 26.02.2020
2054 Clouds 28 1012 78 10000 2.1 60 16:57 26.02.2020
2055 Clouds 28 1012 78 10000 2.1 60 16:38 26.02.2020
2056 Clouds 28 1012 78 10000 2.1 60 16:20 26.02.2020
2057 Clouds 27 1011 83 10000 4.1 130 15:45 26.02.2020
2058 Clouds 27 1011 83 10000 4.1 130 15:45 26.02.2020
2059 Clouds 27 1011 83 10000 4.1 130 15:45 26.02.2020
2060 Clouds 27 1011 83 10000 4.1 130 15:27 26.02.2020
2061 Clouds 25 1010 88 10000 2.6 130 14:43 26.02.2020
2062 Clouds 25 1010 88 10000 2.6 130 14:43 26.02.2020
2063 Clouds 25 1010 88 10000 2.6 130 14:24 26.02.2020
2064 Clouds 24 1010 94 10000 2.1 130 13:58 26.02.2020
2065 Clouds 24 1010 94 10000 2.1 130 13:39 26.02.2020
2066 Clouds 24 1010 94 10000 2.1 130 13:19 26.02.2020
2067 Clear 26 1012 84 0 4.41 108 12:39 26.02.2020
2068 Clear 26 1012 84 0 4.41 108 12:19 26.02.2020
2069 Clear 26 1012 84 0 4.41 108 11:55 26.02.2020
2070 Clear 26 1012 84 0 4.41 108 11:55 26.02.2020
2071 Clear 26 1012 84 0 4.41 108 11:37 26.02.2020
2072 Clear 26 1011 85 0 4.47 97 11:18 26.02.2020
2073 Clear 26 1011 85 0 4.47 97 10:41 26.02.2020
2074 Clear 26 1011 85 0 4.47 97 10:22 26.02.2020
2075 Clear 26 1011 85 0 4.47 97 09:46 26.02.2020
2076 Clear 26 1011 85 0 4.47 97 09:25 26.02.2020
2077 Clear 26 1011 85 0 4.47 97 08:59 26.02.2020
2078 Clear 26 1011 85 0 4.47 97 08:38 26.02.2020
2079 Clouds 26 1013 86 0 3.71 88 08:19 26.02.2020
2080 Clouds 26 1013 86 0 3.71 88 07:43 26.02.2020
2081 Clouds 26 1013 86 0 3.71 88 07:25 26.02.2020
2082 Clouds 26 1013 86 0 3.71 88 06:52 26.02.2020
2083 Clouds 26 1013 86 0 3.71 88 06:34 26.02.2020
2084 Clouds 26 1013 86 0 3.71 88 05:53 26.02.2020
2085 Clouds 26 1013 86 0 3.71 88 05:53 26.02.2020
2086 Clouds 26 1013 86 0 3.71 88 05:24 26.02.2020
2087 Clouds 26 1012 83 0 3.25 78 04:23 26.02.2020
2088 Clouds 27 1008 83 10000 4.6 150 02:23 26.02.2020
2089 Clouds 27 1008 83 10000 4.6 150 01:45 26.02.2020
2090 Clouds 28 1008 83 10000 4.1 130 00:48 26.02.2020
2091 Clouds 28 1008 83 10000 4.1 130 00:22 26.02.2020
2092 Clouds 28 1008 83 10000 4.1 130 00:22 26.02.2020
2093 Clouds 29 1008 79 10000 3.1 30 23:45 25.02.2020
2094 Clouds 29 1008 79 10000 3.1 30 23:26 25.02.2020
2095 Clouds 29 1008 79 10000 4.1 30 22:59 25.02.2020
2096 Clouds 29 1008 79 10000 4.1 30 22:41 25.02.2020
2097 Clouds 29 1008 79 10000 4.1 30 22:19 25.02.2020
2098 Clouds 29 1009 74 10000 4.1 170 21:39 25.02.2020
2099 Clouds 29 1009 74 10000 4.1 170 21:20 25.02.2020
2100 Rain 30 1011 74 10000 3.6 240 20:58 25.02.2020
2101 Rain 30 1011 74 10000 3.6 240 20:39 25.02.2020
2102 Rain 30 1011 74 10000 3.6 240 20:20 25.02.2020
2103 Rain 28 1011 83 10000 2.1 290 19:58 25.02.2020
2104 Rain 28 1011 83 10000 2.1 290 19:40 25.02.2020
2105 Rain 28 1011 83 10000 2.1 290 19:19 25.02.2020
2106 Clouds 29 1012 79 10000 3.1 290 18:41 25.02.2020
2107 Clouds 29 1012 79 10000 3.1 290 18:21 25.02.2020
2108 Clouds 29 1012 79 10000 3.1 290 18:21 25.02.2020
2109 Clouds 29 1012 79 10000 2.1 240 17:57 25.02.2020
2110 Clouds 29 1012 79 10000 2.1 240 17:37 25.02.2020
2111 Clouds 29 1012 79 10000 2.1 240 17:19 25.02.2020
2112 Clouds 28 1012 78 10000 2.1 300 16:58 25.02.2020
2113 Clouds 28 1012 78 10000 2.1 300 16:39 25.02.2020
2114 Clouds 28 1012 78 10000 2.1 300 16:20 25.02.2020
2115 Clear 28 1011 78 10000 1.5 60 15:55 25.02.2020
2116 Clear 28 1011 78 10000 1.5 60 15:36 25.02.2020
2117 Clear 28 1011 78 10000 1.5 60 15:18 25.02.2020
2118 Clear 24 1010 94 10000 1.5 100 14:40 25.02.2020
2119 Clouds 24 1010 94 10000 1.5 100 14:19 25.02.2020
2120 Clouds 24 1010 94 10000 1.5 100 14:19 25.02.2020
2121 Clouds 24 1010 94 10000 1.5 100 14:19 25.02.2020
2122 Clouds 23 1009 94 10000 2.1 110 13:59 25.02.2020
2123 Clouds 23 1009 94 10000 2.1 110 13:41 25.02.2020
2124 Clouds 23 1009 94 10000 2.1 110 13:21 25.02.2020
2125 Clouds 26 1011 85 0 4.03 111 12:59 25.02.2020
2126 Clouds 26 1011 85 0 4.03 111 12:39 25.02.2020
2127 Clouds 26 1011 85 0 4.03 111 12:20 25.02.2020
2128 Clouds 26 1011 85 0 4.03 111 11:56 25.02.2020
2129 Clouds 26 1011 85 0 4.03 111 11:37 25.02.2020
2130 Clear 26 1010 84 0 3.58 112 11:18 25.02.2020
2131 Clear 26 1010 84 0 3.58 112 10:42 25.02.2020
2132 Clear 26 1010 84 0 3.58 112 10:23 25.02.2020
2133 Clear 26 1010 84 0 3.58 112 09:56 25.02.2020
2134 Clear 26 1010 84 0 3.58 112 09:38 25.02.2020
2135 Clear 26 1010 84 0 3.58 112 09:18 25.02.2020
2136 Clear 26 1010 84 0 3.58 112 08:42 25.02.2020
2137 Clear 26 1010 84 0 3.58 112 08:24 25.02.2020
2138 Clouds 26 1013 84 0 2.59 135 07:49 25.02.2020
2139 Clouds 26 1013 84 0 2.59 135 07:24 25.02.2020
2140 Clouds 26 1013 84 0 2.59 135 06:55 25.02.2020
2141 Clouds 26 1013 84 0 2.59 135 05:54 25.02.2020
2142 Clouds 26 1013 82 0 2.54 136 05:19 25.02.2020
2143 Clouds 26 1013 82 0 2.54 136 02:34 25.02.2020
2144 Clouds 28 1007 78 10000 5.7 150 00:58 25.02.2020
2145 Clouds 28 1007 78 10000 5.7 150 00:31 25.02.2020
2146 Clouds 28 1007 83 10000 6.7 160 23:48 24.02.2020
2147 Clouds 28 1007 83 10000 6.7 160 23:29 24.02.2020
2148 Clouds 29 1008 79 10000 6.2 170 22:56 24.02.2020
2149 Clouds 29 1008 79 10000 6.2 170 22:37 24.02.2020
2150 Clouds 29 1008 79 10000 6.2 170 22:18 24.02.2020
2151 Clouds 29 1008 79 10000 6.2 180 21:54 24.02.2020
2152 Clouds 29 1008 79 10000 6.2 180 21:54 24.02.2020
2153 Clouds 29 1008 79 10000 6.2 180 21:36 24.02.2020
2154 Clouds 29 1008 79 10000 6.2 180 21:18 24.02.2020
2155 Clouds 28 1010 78 10000 5.1 170 20:41 24.02.2020
2156 Clouds 28 1010 78 10000 5.1 170 20:20 24.02.2020
2157 Clouds 28 1010 78 10000 5.1 170 20:20 24.02.2020
2158 Clouds 29 1011 70 10000 6.2 170 19:58 24.02.2020
2159 Clouds 29 1011 70 10000 6.2 170 19:40 24.02.2020
2160 Clouds 29 1011 70 10000 6.2 170 19:22 24.02.2020
2161 Clouds 29 1011 74 10000 5.7 170 18:56 24.02.2020
2162 Clouds 29 1011 74 10000 5.7 170 18:37 24.02.2020
2163 Clouds 29 1011 74 10000 5.7 170 18:19 24.02.2020
2164 Clouds 29 1011 74 10000 4.6 170 17:42 24.02.2020
2165 Clouds 29 1011 74 10000 4.6 170 17:20 24.02.2020
2166 Clouds 28 1011 78 10000 4.1 170 16:58 24.02.2020
2167 Clouds 28 1011 78 10000 4.1 170 16:39 24.02.2020
2168 Clouds 28 1011 78 10000 4.1 170 16:20 24.02.2020
2169 Clouds 27 1011 83 10000 3.1 160 15:58 24.02.2020
2170 Clouds 27 1011 83 10000 3.1 160 15:39 24.02.2020
2171 Clouds 27 1011 83 10000 3.1 160 15:21 24.02.2020
2172 Clouds 25 1009 88 10000 3.1 110 14:57 24.02.2020
2173 Clouds 25 1009 88 10000 3.1 110 14:38 24.02.2020
2174 Clouds 25 1009 88 10000 3.1 110 14:18 24.02.2020
2175 Clouds 24 1009 94 10000 4.1 150 13:56 24.02.2020
2176 Clouds 24 1009 94 10000 4.1 150 13:36 24.02.2020
2177 Clouds 24 1009 94 10000 4.1 150 13:18 24.02.2020
2178 Clouds 26 1012 84 0 3.32 119 12:42 24.02.2020
2179 Clouds 26 1012 84 0 3.32 119 12:24 24.02.2020
2180 Clouds 26 1012 84 0 3.32 119 11:51 24.02.2020
2181 Clouds 26 1012 84 0 3.32 119 11:32 24.02.2020
2182 Clouds 26 1011 84 0 3.54 128 10:58 24.02.2020
2183 Clouds 26 1011 84 0 3.54 128 10:40 24.02.2020
2184 Clouds 26 1011 84 0 3.54 128 10:22 24.02.2020
2185 Clouds 26 1011 84 0 3.54 128 09:40 24.02.2020
2186 Clouds 26 1011 84 0 3.54 128 09:19 24.02.2020
2187 Clouds 26 1011 84 0 3.54 128 08:51 24.02.2020
2188 Clouds 26 1011 86 0 4.06 126 08:29 24.02.2020
2189 Clouds 26 1011 84 0 3.54 128 08:29 24.02.2020
2190 Clouds 26 1013 85 0 3.02 126 07:55 24.02.2020
2191 Clouds 26 1013 85 0 3.02 126 07:33 24.02.2020
2192 Clouds 26 1013 85 0 3.02 126 06:50 24.02.2020
2193 Clouds 26 1013 85 0 3.02 126 06:23 24.02.2020
2194 Clouds 26 1013 85 0 3.02 126 05:44 24.02.2020
2195 Clouds 26 1013 85 0 3.02 126 05:24 24.02.2020
2196 Clouds 26 1013 83 0 3.37 120 02:57 24.02.2020
2197 Clouds 27 1008 88 10000 3.1 150 01:55 24.02.2020
2198 Clouds 27 1008 88 10000 3.1 150 01:29 24.02.2020
2199 Clouds 27 1008 88 10000 3.1 150 01:29 24.02.2020
2200 Clouds 28 1008 83 10000 3.1 140 00:44 24.02.2020
2201 Clouds 28 1008 83 10000 3.1 140 00:20 24.02.2020
2202 Clouds 28 1008 83 10000 4.1 150 23:42 23.02.2020
2203 Clouds 28 1008 83 10000 4.1 150 23:23 23.02.2020
2204 Clouds 28 1008 83 10000 3.1 110 22:58 23.02.2020
2205 Clouds 28 1008 83 10000 3.1 110 22:40 23.02.2020
2206 Clouds 28 1008 83 10000 3.1 110 22:21 23.02.2020
2207 Clouds 28 1008 78 10000 5.1 160 21:46 23.02.2020
2208 Clouds 28 1008 78 10000 5.1 160 21:21 23.02.2020
2209 Clouds 28 1009 78 10000 5.1 170 20:58 23.02.2020
2210 Clouds 28 1009 78 10000 5.1 170 20:40 23.02.2020
2211 Clouds 28 1009 78 10000 5.1 170 20:22 23.02.2020
2212 Clouds 30 1010 74 10000 5.1 180 19:59 23.02.2020
2213 Clouds 30 1010 74 10000 5.1 180 19:40 23.02.2020
2214 Clouds 30 1010 74 10000 5.1 180 19:19 23.02.2020
2215 Clouds 29 1011 79 10000 5.1 170 18:58 23.02.2020
2216 Clouds 29 1011 79 10000 5.1 170 18:37 23.02.2020
2217 Clouds 29 1011 79 10000 5.1 170 18:19 23.02.2020
2218 Clouds 29 1011 79 10000 5.1 170 17:57 23.02.2020
2219 Clouds 29 1011 79 10000 5.1 170 17:38 23.02.2020
2220 Clouds 29 1011 79 10000 5.1 170 17:19 23.02.2020
2221 Clouds 28 1011 83 10000 3.6 160 16:46 23.02.2020
2222 Clouds 28 1011 83 10000 3.6 160 16:27 23.02.2020
2223 Clouds 24 1011 94 10000 1.5 110 15:59 23.02.2020
2224 Clouds 24 1011 94 10000 1.5 110 15:38 23.02.2020
2225 Clouds 24 1011 94 10000 1.5 110 15:20 23.02.2020
2226 Clouds 24 1010 94 10000 2.1 110 14:58 23.02.2020
2227 Clouds 24 1010 94 10000 2.1 110 14:40 23.02.2020
2228 Clouds 24 1010 94 10000 2.1 110 14:21 23.02.2020
2229 Clouds 24 1009 88 10000 2.1 110 13:57 23.02.2020
2230 Clouds 24 1009 88 10000 2.1 110 13:38 23.02.2020
2231 Clouds 24 1009 88 10000 2.1 110 13:20 23.02.2020
2232 Clouds 26 1012 86 0 3.78 79 12:42 23.02.2020
2233 Clouds 26 1012 86 0 3.78 79 12:21 23.02.2020
2234 Clouds 26 1012 86 0 3.78 79 11:54 23.02.2020
2235 Clouds 26 1012 86 0 3.78 79 11:36 23.02.2020
2236 Clouds 26 1012 86 0 3.78 79 11:36 23.02.2020
2237 Clouds 26 1011 87 0 3.46 86 11:18 23.02.2020
2238 Clouds 26 1011 87 0 3.46 86 10:41 23.02.2020
2239 Clouds 26 1011 87 0 3.46 86 10:23 23.02.2020
2240 Clouds 26 1011 87 0 3.46 86 09:56 23.02.2020
2241 Clouds 26 1011 87 0 3.46 86 09:38 23.02.2020
2242 Clouds 26 1011 87 0 3.46 86 09:19 23.02.2020
2243 Clouds 26 1011 87 0 3.46 86 08:50 23.02.2020
2244 Clouds 26 1011 87 0 3.46 86 08:29 23.02.2020
2245 Clouds 26 1013 88 0 3.55 99 07:48 23.02.2020
2246 Clouds 26 1013 88 0 3.55 99 07:29 23.02.2020
2247 Clouds 26 1013 88 0 3.55 99 06:25 23.02.2020
2248 Clouds 26 1013 88 0 3.55 99 05:34 23.02.2020
2249 Clouds 26 1012 85 0 3.49 80 04:23 23.02.2020
2250 Clouds 26 1012 85 0 3.49 80 02:53 23.02.2020
2251 Clouds 25 1008 100 10000 2.1 90 01:43 23.02.2020
2252 Clouds 25 1008 100 10000 2.1 90 01:21 23.02.2020
2253 Rain 26 1010 85 0 3.3 106 00:44 23.02.2020
2254 Rain 27 1008 88 10000 4.1 70 00:23 23.02.2020
2255 Clouds 27 1008 88 10000 2.6 200 23:43 22.02.2020
2256 Clouds 27 1008 88 10000 2.6 200 23:24 22.02.2020
2257 Clouds 27 1008 88 10000 2.6 200 22:46 22.02.2020
2258 Clouds 27 1008 88 10000 2.6 200 22:46 22.02.2020
2259 Clouds 27 1008 88 10000 2.6 200 22:22 22.02.2020
2260 Rain 26 1010 85 0 4.42 110 21:55 22.02.2020
2261 Rain 26 1010 85 0 4.42 110 21:37 22.02.2020
2262 Rain 26 1010 85 0 4.42 110 21:18 22.02.2020
2263 Rain 27 1010 94 10000 3.1 190 20:41 22.02.2020
2264 Rain 27 1010 94 10000 3.1 190 20:22 22.02.2020
2265 Rain 26 1013 86 0 4.1 113 19:43 22.02.2020
2266 Clouds 26 1011 94 0 3.6 160 19:24 22.02.2020
2267 Clouds 26 1011 94 0 3.6 160 18:58 22.02.2020
2268 Clouds 26 1011 94 0 3.6 160 18:38 22.02.2020
2269 Clouds 26 1011 94 0 3.6 160 18:19 22.02.2020
2270 Rain 26 1013 86 0 4.1 113 17:44 22.02.2020
2271 Rain 26 1013 86 0 4.1 113 17:26 22.02.2020
2272 Clouds 26 1014 88 0 3.89 116 17:00 22.02.2020
2273 Rain 25 1012 100 3000 3.1 130 16:40 22.02.2020
2274 Rain 25 1012 100 3000 3.1 130 16:20 22.02.2020
2275 Clouds 26 1014 88 0 3.89 116 15:56 22.02.2020
2276 Clouds 26 1014 88 0 3.89 116 15:38 22.02.2020
2277 Clouds 26 1014 88 0 3.89 116 15:20 22.02.2020
2278 Clouds 26 1014 88 0 3.89 116 14:42 22.02.2020
2279 Rain 25 1010 100 6000 3.1 130 14:21 22.02.2020
2280 Rain 25 1009 94 5000 2.1 130 13:43 22.02.2020
2281 Rain 25 1009 94 5000 2.1 130 13:20 22.02.2020
2282 Rain 26 1012 87 0 3.87 128 12:59 22.02.2020
2283 Rain 26 1012 87 0 3.87 128 12:39 22.02.2020
2284 Rain 26 1012 87 0 3.87 128 12:20 22.02.2020
2285 Rain 26 1012 87 0 3.87 128 12:20 22.02.2020
2286 Rain 26 1012 87 0 3.87 128 11:43 22.02.2020
2287 Rain 26 1012 87 0 3.87 128 11:25 22.02.2020
2288 Rain 26 1011 87 0 2.41 125 10:55 22.02.2020
2289 Rain 26 1011 87 0 2.41 125 10:36 22.02.2020
2290 Rain 26 1011 87 0 2.41 125 10:18 22.02.2020
2291 Rain 26 1011 87 0 2.41 125 10:18 22.02.2020
2292 Rain 26 1011 87 0 2.41 125 09:42 22.02.2020
2293 Rain 26 1011 87 0 2.41 125 09:22 22.02.2020
2294 Rain 26 1011 87 0 2.41 125 08:57 22.02.2020
2295 Rain 26 1011 87 0 2.41 125 08:38 22.02.2020
2296 Rain 26 1013 88 0 2.52 124 08:20 22.02.2020
2297 Rain 26 1013 89 0 2.97 108 07:39 22.02.2020
2298 Rain 26 1013 89 0 2.97 108 07:18 22.02.2020
2299 Rain 26 1013 89 0 2.97 108 06:43 22.02.2020
2300 Clear 26 1013 86 0 2.1 142 04:45 22.02.2020
2301 Clear 26 1013 86 0 2.1 142 03:52 22.02.2020
2302 Clear 27 1009 83 10000 2.6 180 02:38 22.02.2020
2303 Clouds 28 1008 83 10000 4.1 200 01:48 22.02.2020
2304 Clouds 28 1008 83 10000 4.1 200 01:29 22.02.2020
2305 Clouds 28 1008 83 10000 4.1 200 00:48 22.02.2020
2306 Clouds 28 1008 83 10000 4.1 200 00:29 22.02.2020
2307 Clouds 29 1008 79 10000 5.1 180 23:53 21.02.2020
2308 Clouds 29 1008 79 10000 5.1 180 23:26 21.02.2020
2309 Clouds 30 1009 74 10000 5.7 180 22:59 21.02.2020
2310 Clouds 30 1009 74 10000 5.7 180 22:40 21.02.2020
2311 Clouds 30 1009 74 10000 5.7 180 22:21 21.02.2020
2312 Clouds 30 1009 70 10000 4.6 190 21:43 21.02.2020
2313 Clouds 30 1009 70 10000 4.6 190 21:24 21.02.2020
2314 Clouds 29 1010 79 10000 5.1 190 20:58 21.02.2020
2315 Clouds 29 1010 79 10000 5.1 190 20:38 21.02.2020
2316 Clouds 29 1010 79 10000 5.1 190 20:19 21.02.2020
2317 Clouds 31 1011 74 10000 5.1 190 19:39 21.02.2020
2318 Clouds 31 1011 74 10000 5.1 190 19:39 21.02.2020
2319 Clouds 31 1011 74 10000 5.1 190 19:19 21.02.2020
2320 Clouds 30 1011 79 10000 5.1 190 18:42 21.02.2020
2321 Clouds 30 1011 79 10000 5.1 190 18:23 21.02.2020
2322 Clouds 30 1011 74 10000 4.6 190 17:56 21.02.2020
2323 Clouds 30 1011 74 10000 4.6 190 17:36 21.02.2020
2324 Clouds 30 1011 74 10000 4.6 190 17:18 21.02.2020
2325 Clouds 27 1011 88 10000 3.1 130 16:41 21.02.2020
2326 Clouds 27 1011 88 10000 3.1 130 16:22 21.02.2020
2327 Rain 26 1011 94 8000 2.6 130 15:57 21.02.2020
2328 Rain 26 1011 94 8000 2.6 130 15:38 21.02.2020
2329 Rain 26 1011 94 8000 2.6 130 15:18 21.02.2020
2330 Rain 26 1011 94 8000 2.6 130 15:18 21.02.2020
2331 Rain 26 1011 94 8000 2.6 130 15:18 21.02.2020
2332 Clouds 26 1009 94 10000 2.1 170 14:42 21.02.2020
2333 Clouds 26 1009 94 10000 2.1 170 14:21 21.02.2020
2334 Clouds 26 1009 88 10000 3.1 130 13:45 21.02.2020
2335 Clouds 26 1009 88 10000 3.1 130 13:24 21.02.2020
2336 Rain 26 1011 88 0 2.65 161 12:59 21.02.2020
2337 Rain 26 1011 88 0 2.65 161 12:40 21.02.2020
2338 Rain 26 1011 88 0 2.65 161 12:22 21.02.2020
2339 Rain 26 1011 88 0 2.65 161 11:43 21.02.2020
2340 Rain 26 1011 88 0 2.65 161 11:23 21.02.2020
2341 Clouds 26 1010 89 0 2.56 190 10:59 21.02.2020
2342 Clouds 26 1010 89 0 2.56 190 10:41 21.02.2020
2343 Clouds 26 1010 89 0 2.56 190 10:19 21.02.2020
2344 Clouds 26 1010 89 0 2.56 190 09:57 21.02.2020
2345 Clouds 26 1010 89 0 2.56 190 09:38 21.02.2020
2346 Clouds 26 1010 89 0 2.56 190 09:19 21.02.2020
2347 Clouds 26 1010 89 0 2.56 190 08:43 21.02.2020
2348 Clouds 26 1010 89 0 2.56 190 08:22 21.02.2020
2349 Rain 26 1012 90 0 2.31 203 07:59 21.02.2020
2350 Rain 26 1012 90 0 2.31 203 07:41 21.02.2020
2351 Rain 26 1012 90 0 2.31 203 07:19 21.02.2020
2352 Rain 26 1012 90 0 2.31 203 06:52 21.02.2020
2353 Rain 26 1012 90 0 2.31 203 06:31 21.02.2020
2354 Rain 26 1012 90 0 2.31 203 05:47 21.02.2020
2355 Rain 26 1012 90 0 1.96 193 04:38 21.02.2020
2356 Rain 26 1012 90 0 1.96 193 04:19 21.02.2020
2357 Rain 26 1012 90 0 1.96 193 03:39 21.02.2020
2358 Clouds 27 1007 88 10000 5.1 180 02:29 21.02.2020
2359 Clouds 27 1007 88 10000 5.1 180 01:24 21.02.2020
2360 Clouds 28 1006 78 10000 5.1 190 00:45 21.02.2020
2361 Clouds 28 1006 78 10000 5.1 190 00:23 21.02.2020
2362 Clouds 29 1006 79 10000 5.7 190 23:46 20.02.2020
2363 Clouds 29 1006 79 10000 5.7 190 23:46 20.02.2020
2364 Clouds 29 1006 79 10000 5.7 190 23:46 20.02.2020
2365 Clouds 29 1006 79 10000 5.7 190 23:46 20.02.2020
2366 Clouds 29 1006 79 10000 5.7 190 23:25 20.02.2020
2367 Clouds 30 1007 74 10000 6.2 170 22:57 20.02.2020
2368 Clouds 30 1007 74 10000 6.2 170 22:38 20.02.2020
2369 Clouds 30 1007 74 10000 6.2 170 22:20 20.02.2020
2370 Clouds 29 1008 79 10000 6.2 190 21:56 20.02.2020
2371 Clouds 29 1008 79 10000 6.2 190 21:37 20.02.2020
2372 Clouds 29 1008 79 10000 6.2 190 21:37 20.02.2020
2373 Clouds 29 1008 79 10000 6.2 190 21:37 20.02.2020
2374 Clouds 29 1008 79 10000 6.2 190 21:19 20.02.2020
2375 Clouds 29 1009 79 10000 6.2 180 20:54 20.02.2020
2376 Clouds 29 1009 79 10000 6.2 180 20:36 20.02.2020
2377 Clouds 29 1009 79 10000 6.2 180 20:18 20.02.2020
2378 Clouds 30 1009 74 10000 6.7 190 19:43 20.02.2020
2379 Clouds 30 1009 74 10000 6.7 190 19:25 20.02.2020
2380 Clouds 30 1010 74 10000 6.2 190 18:59 20.02.2020
2381 Clouds 30 1010 74 10000 6.2 190 18:39 20.02.2020
2382 Clouds 30 1010 74 10000 6.2 190 18:19 20.02.2020
2383 Clouds 29 1010 79 10000 6.2 170 17:41 20.02.2020
2384 Clouds 29 1010 79 10000 6.2 170 17:23 20.02.2020
2385 Clouds 28 1009 83 10000 5.1 180 16:59 20.02.2020
2386 Clouds 28 1009 83 10000 5.1 180 16:41 20.02.2020
2387 Clouds 28 1009 83 10000 5.1 180 16:21 20.02.2020
2388 Clouds 27 1008 88 10000 4.1 180 15:59 20.02.2020
2389 Clouds 27 1008 88 10000 4.1 180 15:41 20.02.2020
2390 Clouds 27 1008 88 10000 4.1 180 15:20 20.02.2020
2391 Clouds 26 1007 88 10000 4.1 180 14:55 20.02.2020
2392 Clouds 26 1007 88 10000 4.1 180 14:37 20.02.2020
2393 Clouds 26 1007 88 10000 4.1 180 14:18 20.02.2020
2394 Clouds 26 1007 88 10000 3.6 170 13:44 20.02.2020
2395 Clouds 26 1007 88 10000 3.6 170 13:20 20.02.2020
2396 Rain 25 1009 93 0 3.56 159 12:57 20.02.2020
2397 Rain 25 1009 93 0 3.56 159 12:37 20.02.2020
2398 Rain 25 1009 93 0 3.56 159 12:19 20.02.2020
2399 Rain 25 1009 93 0 3.56 159 11:43 20.02.2020
2400 Rain 25 1009 93 0 3.56 159 11:22 20.02.2020
2401 Rain 25 1009 93 0 3.56 159 11:22 20.02.2020
2402 Rain 26 1009 89 0 3.45 173 10:57 20.02.2020
2403 Rain 26 1009 89 0 3.45 173 10:39 20.02.2020
2404 Rain 26 1009 89 0 3.45 173 10:20 20.02.2020
2405 Rain 26 1009 89 0 3.45 173 09:45 20.02.2020
2406 Rain 26 1009 89 0 3.45 173 09:25 20.02.2020
2407 Rain 26 1009 89 0 3.45 173 08:57 20.02.2020
2408 Rain 26 1009 89 0 3.45 173 08:38 20.02.2020
2409 Rain 26 1010 91 0 2.72 182 08:19 20.02.2020
2410 Rain 26 1010 91 0 2.72 182 07:45 20.02.2020
2411 Rain 26 1010 91 0 2.72 182 07:21 20.02.2020
2412 Rain 26 1010 91 0 2.72 182 06:44 20.02.2020
2413 Rain 26 1010 91 0 2.72 182 06:25 20.02.2020
2414 Rain 26 1010 91 0 2.72 182 05:44 20.02.2020
2415 Clouds 26 1010 90 0 3.02 168 04:50 20.02.2020
2416 Clouds 26 1010 90 0 3.02 168 03:57 20.02.2020
2417 Clouds 26 1010 90 0 3.02 168 03:20 20.02.2020
2418 Clouds 27 1006 88 10000 6.2 170 01:52 20.02.2020
2419 Rain 26 1008 88 0 4.14 158 00:56 20.02.2020
2420 Clouds 29 1005 79 10000 6.2 170 00:26 20.02.2020
2421 Clouds 29 1005 79 10000 6.2 170 23:49 19.02.2020
2422 Clouds 29 1005 79 10000 6.2 170 23:22 19.02.2020
2423 Clouds 30 1006 74 10000 7.2 170 22:44 19.02.2020
2424 Clouds 30 1006 74 10000 7.2 170 22:26 19.02.2020
2425 Clouds 31 1006 70 10000 6.7 170 21:59 19.02.2020
2426 Clouds 31 1006 70 10000 6.7 170 21:40 19.02.2020
2427 Clouds 31 1006 70 10000 6.7 170 21:19 19.02.2020
2428 Clouds 30 1007 74 10000 6.2 190 20:58 19.02.2020
2429 Clouds 30 1007 74 10000 6.2 190 20:39 19.02.2020
2430 Clouds 30 1007 74 10000 6.2 190 20:20 19.02.2020
2431 Clouds 30 1007 74 10000 6.2 190 20:20 19.02.2020
2432 Clouds 30 1008 74 10000 6.2 180 19:58 19.02.2020
2433 Clouds 30 1008 74 10000 6.2 180 19:38 19.02.2020
2434 Clouds 30 1008 74 10000 6.2 180 19:19 19.02.2020
2435 Clouds 30 1008 74 10000 5.7 160 18:58 19.02.2020
2436 Clouds 30 1008 74 10000 5.7 160 18:39 19.02.2020
2437 Clouds 30 1008 74 10000 5.7 160 18:21 19.02.2020
2438 Clouds 30 1008 74 10000 5.1 180 17:55 19.02.2020
2439 Clouds 30 1008 74 10000 5.1 180 17:37 19.02.2020
2440 Clouds 30 1008 74 10000 5.1 180 17:18 19.02.2020
2441 Clouds 28 1008 83 10000 4.6 180 16:41 19.02.2020
2442 Clouds 28 1008 83 10000 4.6 180 16:18 19.02.2020
2443 Clouds 27 1008 88 10000 4.1 160 15:44 19.02.2020
2444 Clouds 27 1008 88 10000 4.1 160 15:26 19.02.2020
2445 Clouds 26 1007 88 10000 4.1 160 14:59 19.02.2020
2446 Clouds 26 1007 88 10000 4.1 160 14:40 19.02.2020
2447 Clouds 26 1007 88 10000 4.1 160 14:21 19.02.2020
2448 Clouds 26 1007 88 10000 3.6 150 13:42 19.02.2020
2449 Clouds 26 1007 88 10000 3.6 150 13:23 19.02.2020
2450 Rain 26 1009 90 0 4.26 158 12:57 19.02.2020
2451 Rain 26 1009 90 0 4.26 158 12:37 19.02.2020
2452 Rain 26 1009 90 0 4.26 158 12:18 19.02.2020
2453 Rain 26 1009 90 0 4.26 158 11:39 19.02.2020
2454 Clouds 26 1008 91 0 3.9 151 11:20 19.02.2020
2455 Clouds 26 1008 91 0 3.9 151 10:58 19.02.2020
2456 Clouds 26 1008 91 0 3.9 151 10:38 19.02.2020
2457 Clouds 26 1008 91 0 3.9 151 10:20 19.02.2020
2458 Clouds 26 1008 91 0 3.9 151 09:59 19.02.2020
2459 Clouds 26 1008 91 0 3.9 151 09:38 19.02.2020
2460 Clouds 26 1008 91 0 3.9 151 09:19 19.02.2020
2461 Clouds 26 1008 91 0 3.9 151 08:46 19.02.2020
2462 Clouds 26 1008 91 0 3.9 151 08:24 19.02.2020
2463 Clouds 26 1009 89 0 3.7 157 07:46 19.02.2020
2464 Clouds 26 1009 89 0 3.7 157 07:26 19.02.2020
2465 Clouds 26 1009 89 0 3.7 157 06:57 19.02.2020
2466 Clouds 26 1009 89 0 3.7 157 06:34 19.02.2020
2467 Clouds 26 1009 88 0 3.27 158 04:28 19.02.2020
2468 Clouds 26 1009 88 0 3.27 158 03:20 19.02.2020
2469 Clouds 26 1009 88 0 3.27 158 02:33 19.02.2020
2470 Clouds 27 1004 83 10000 6.2 150 01:25 19.02.2020
2471 Clouds 28 1003 78 10000 6.7 160 00:51 19.02.2020
2472 Clouds 28 1003 78 10000 6.7 160 00:32 19.02.2020
2473 Clouds 29 1003 74 10000 7.2 160 23:56 18.02.2020
2474 Clouds 29 1003 74 10000 7.2 160 23:37 18.02.2020
2475 Clouds 29 1003 74 10000 7.2 160 23:19 18.02.2020
2476 Clouds 29 1003 74 10000 7.7 170 22:43 18.02.2020
2477 Clouds 29 1003 74 10000 7.7 170 22:20 18.02.2020
2478 Clouds 30 1004 74 10000 6.7 170 21:56 18.02.2020
2479 Clouds 30 1004 74 10000 6.7 170 21:38 18.02.2020
2480 Clouds 30 1004 74 10000 6.7 170 21:19 18.02.2020
2481 Clouds 30 1005 74 10000 7.7 170 20:58 18.02.2020
2482 Clouds 30 1005 74 10000 7.7 170 20:38 18.02.2020
2483 Clouds 30 1005 74 10000 7.7 170 20:20 18.02.2020
2484 Clouds 30 1005 70 10000 7.2 160 19:43 18.02.2020
2485 Clouds 30 1005 70 10000 7.2 160 19:43 18.02.2020
2486 Clouds 30 1005 70 10000 7.2 160 19:43 18.02.2020
2487 Clouds 30 1005 70 10000 7.2 160 19:43 18.02.2020
2488 Clouds 30 1005 70 10000 7.2 160 19:20 18.02.2020
2489 Clouds 29 1006 74 10000 7.7 150 18:59 18.02.2020
2490 Clouds 29 1006 74 10000 7.7 150 18:41 18.02.2020
2491 Clouds 29 1006 74 10000 7.7 150 18:20 18.02.2020
2492 Clouds 28 1006 83 10000 7.2 160 17:56 18.02.2020
2493 Clouds 28 1006 83 10000 7.2 160 17:37 18.02.2020
2494 Clouds 28 1006 83 10000 7.2 160 17:37 18.02.2020
2495 Clouds 28 1006 83 10000 7.2 160 17:18 18.02.2020
2496 Clouds 27 1006 88 10000 6.2 150 16:39 18.02.2020
2497 Clouds 27 1006 88 10000 6.2 150 16:19 18.02.2020
2498 Clouds 26 1006 88 10000 6.7 160 15:41 18.02.2020
2499 Clouds 26 1006 88 10000 6.7 160 15:20 18.02.2020
2500 Clouds 26 1005 94 10000 6.2 150 14:57 18.02.2020
2501 Clouds 26 1005 94 10000 6.2 150 14:39 18.02.2020
2502 Clouds 26 1005 94 10000 6.2 150 14:20 18.02.2020
2503 Clouds 25 1004 94 10000 5.7 150 13:42 18.02.2020
2504 Clouds 25 1004 94 10000 5.7 150 13:23 18.02.2020
2505 Clear 26 1007 86 0 4.7 121 12:59 18.02.2020
2506 Clear 26 1007 86 0 4.7 121 12:59 18.02.2020
2507 Clear 26 1007 86 0 4.7 121 12:40 18.02.2020
2508 Clear 26 1007 86 0 4.7 121 12:22 18.02.2020
2509 Clear 26 1007 86 0 4.7 121 11:44 18.02.2020
2510 Clear 26 1007 86 0 4.7 121 11:44 18.02.2020
2511 Clear 26 1007 86 0 4.7 121 11:26 18.02.2020
2512 Clear 26 1007 86 0 3.64 134 10:57 18.02.2020
2513 Clear 26 1007 86 0 3.64 134 10:39 18.02.2020
2514 Clear 26 1007 86 0 3.64 134 10:18 18.02.2020
2515 Clear 26 1007 86 0 3.64 134 09:56 18.02.2020
2516 Clear 26 1007 86 0 3.64 134 09:37 18.02.2020
2517 Clear 26 1007 86 0 3.64 134 09:37 18.02.2020
2518 Clear 26 1007 86 0 3.64 134 09:18 18.02.2020
2519 Clear 26 1007 86 0 3.64 134 08:43 18.02.2020
2520 Clear 26 1006 86 0 3.76 128 08:21 18.02.2020
2521 Clear 26 1008 87 0 3.79 139 07:56 18.02.2020
2522 Clear 26 1008 87 0 3.79 139 07:33 18.02.2020
2523 Clear 26 1008 87 0 3.79 139 06:57 18.02.2020
2524 Clear 26 1008 87 0 3.79 139 06:39 18.02.2020
2525 Clear 26 1008 87 0 3.79 139 06:39 18.02.2020
2526 Clear 26 1008 87 0 3.79 139 06:19 18.02.2020
2527 Clear 26 1008 87 0 3.79 139 05:33 18.02.2020
2528 Clear 26 1008 84 0 3.49 146 04:26 18.02.2020
2529 Clear 26 1008 84 0 3.49 146 02:59 18.02.2020
2530 Clouds 27 1003 83 10000 5.1 160 01:59 18.02.2020
2531 Clouds 28 1003 78 10000 6.2 160 00:54 18.02.2020
2532 Clouds 28 1003 78 10000 6.2 160 00:22 18.02.2020
2533 Clouds 29 1003 74 10000 7.2 150 23:55 17.02.2020
2534 Clouds 29 1003 74 10000 7.2 150 23:37 17.02.2020
2535 Clouds 29 1003 74 10000 7.2 150 23:18 17.02.2020
2536 Clouds 30 1003 70 10000 6.7 170 22:41 17.02.2020
2537 Clouds 30 1003 70 10000 6.7 170 22:20 17.02.2020
2538 Clouds 30 1003 70 10000 7.7 170 21:56 17.02.2020
2539 Clouds 30 1003 70 10000 7.7 170 21:37 17.02.2020
2540 Clouds 30 1003 70 10000 7.7 170 21:18 17.02.2020
2541 Clouds 29 1004 74 10000 8.2 160 20:40 17.02.2020
2542 Clouds 29 1004 74 10000 8.2 160 20:21 17.02.2020
2543 Clouds 30 1005 70 10000 6.7 170 19:57 17.02.2020
2544 Clouds 30 1005 70 10000 6.7 170 19:38 17.02.2020
2545 Clouds 30 1005 70 10000 6.7 170 19:19 17.02.2020
2546 Clouds 29 1006 74 10000 6.7 160 18:37 17.02.2020
2547 Clouds 29 1006 74 10000 6.7 160 18:19 17.02.2020
2548 Clouds 29 1006 74 10000 6.7 150 17:57 17.02.2020
2549 Clouds 29 1006 74 10000 6.7 150 17:36 17.02.2020
2550 Clouds 29 1006 74 10000 6.7 150 17:18 17.02.2020
2551 Clouds 28 1005 78 10000 6.2 150 16:43 17.02.2020
2552 Clouds 28 1005 78 10000 6.2 150 16:23 17.02.2020
2553 Clouds 27 1005 83 10000 7.2 150 15:59 17.02.2020
2554 Clouds 27 1005 83 10000 7.2 150 15:41 17.02.2020
2555 Clouds 27 1005 83 10000 7.2 150 15:41 17.02.2020
2556 Clouds 27 1005 83 10000 7.2 150 15:22 17.02.2020
2557 Clouds 25 1004 94 10000 5.1 140 14:46 17.02.2020
2558 Clouds 25 1004 94 10000 5.1 140 14:27 17.02.2020
2559 Clouds 25 1004 94 10000 3.1 130 13:59 17.02.2020
2560 Clouds 25 1004 94 10000 3.1 130 13:39 17.02.2020
2561 Clouds 25 1004 94 10000 3.1 130 13:19 17.02.2020
2562 Clear 26 1007 86 0 3.69 127 12:47 17.02.2020
2563 Clear 26 1007 86 0 3.69 127 12:47 17.02.2020
2564 Clear 26 1007 86 0 3.69 127 12:26 17.02.2020
2565 Clear 26 1007 86 0 3.69 127 11:59 17.02.2020
2566 Clear 26 1007 86 0 3.69 127 11:41 17.02.2020
2567 Clear 26 1007 86 0 3.69 127 11:22 17.02.2020
2568 Clear 26 1006 87 0 4.39 127 10:56 17.02.2020
2569 Clear 26 1006 87 0 4.39 127 10:37 17.02.2020
2570 Clear 26 1006 87 0 4.39 127 10:19 17.02.2020
2571 Clear 26 1006 87 0 4.39 127 09:42 17.02.2020
2572 Clear 26 1006 87 0 4.39 127 09:23 17.02.2020
2573 Clear 26 1006 87 0 4.39 127 08:59 17.02.2020
2574 Clear 26 1006 87 0 4.39 127 08:41 17.02.2020
2575 Clouds 26 1006 87 0 4.62 129 08:21 17.02.2020
2576 Clear 26 1006 87 0 4.39 127 08:21 17.02.2020
2577 Clouds 26 1008 88 0 4.4 130 07:54 17.02.2020
2578 Clouds 26 1008 88 0 4.4 130 07:25 17.02.2020
2579 Clouds 26 1008 88 0 4.4 130 06:53 17.02.2020
2580 Clouds 26 1008 88 0 4.4 130 06:33 17.02.2020
2581 Clouds 26 1008 88 0 4.4 130 05:59 17.02.2020
2582 Clouds 26 1008 88 0 4.4 130 05:38 17.02.2020
2583 Rain 26 1008 88 0 4.66 131 03:22 17.02.2020
2584 Clouds 27 1004 83 10000 6.2 150 01:59 17.02.2020
2585 Clouds 28 1003 78 10000 7.2 150 00:51 17.02.2020
2586 Clouds 28 1003 78 10000 7.2 150 00:22 17.02.2020
2587 Clouds 30 1003 70 10000 6.7 170 23:54 16.02.2020
2588 Clouds 30 1003 70 10000 6.7 170 23:54 16.02.2020
2589 Clouds 30 1003 70 10000 6.7 170 23:32 16.02.2020
2590 Clouds 30 1004 74 10000 7.2 170 22:58 16.02.2020
2591 Clouds 30 1004 74 10000 7.2 170 22:39 16.02.2020
2592 Clouds 30 1004 74 10000 7.2 170 22:39 16.02.2020
2593 Clouds 30 1004 74 10000 7.2 170 22:21 16.02.2020
2594 Clouds 30 1005 74 10000 7.2 150 21:58 16.02.2020
2595 Clouds 30 1005 74 10000 7.2 150 21:40 16.02.2020
2596 Clouds 30 1005 74 10000 7.2 150 21:22 16.02.2020
2597 Clouds 30 1005 74 10000 7.2 130 20:57 16.02.2020
2598 Clouds 30 1005 74 10000 7.2 130 20:39 16.02.2020
2599 Clouds 30 1005 74 10000 7.2 130 20:21 16.02.2020
2600 Clouds 29 1007 79 10000 5.1 120 19:58 16.02.2020
2601 Clouds 29 1007 79 10000 5.1 120 19:38 16.02.2020
2602 Clouds 29 1007 79 10000 5.1 120 19:19 16.02.2020
2603 Clouds 29 1007 74 10000 7.2 130 18:44 16.02.2020
2604 Clouds 29 1007 74 10000 7.2 130 18:25 16.02.2020
2605 Clouds 29 1008 79 10000 6.2 140 17:57 16.02.2020
2606 Clouds 29 1008 79 10000 6.2 140 17:39 16.02.2020
2607 Clouds 29 1008 79 10000 6.2 140 17:19 16.02.2020
2608 Clouds 29 1008 79 10000 5.1 140 16:54 16.02.2020
2609 Clouds 29 1008 79 10000 5.1 140 16:36 16.02.2020
2610 Clouds 29 1008 79 10000 5.1 140 16:18 16.02.2020
2611 Clouds 28 1007 78 10000 4.1 130 15:41 16.02.2020
2612 Clouds 28 1007 78 10000 4.1 130 15:21 16.02.2020
2613 Clouds 25 1006 94 10000 4.1 140 14:44 16.02.2020
2614 Clouds 25 1006 94 10000 4.1 140 14:23 16.02.2020
2615 Clouds 25 1006 94 10000 4.1 150 13:55 16.02.2020
2616 Clouds 25 1006 94 10000 4.1 150 13:36 16.02.2020
2617 Clouds 25 1006 94 10000 4.1 150 13:18 16.02.2020
2618 Clouds 26 1008 85 0 4.37 128 12:39 16.02.2020
2619 Clouds 26 1008 85 0 4.37 128 12:19 16.02.2020
2620 Clouds 26 1008 85 0 4.37 128 11:40 16.02.2020
2621 Clouds 26 1008 87 0 5.59 132 11:19 16.02.2020
2622 Clouds 26 1008 87 0 5.59 132 10:58 16.02.2020
2623 Clouds 26 1008 87 0 5.59 132 10:40 16.02.2020
2624 Clouds 26 1008 87 0 5.59 132 10:21 16.02.2020
2625 Clouds 26 1008 87 0 5.59 132 10:21 16.02.2020
2626 Clouds 26 1008 87 0 5.59 132 09:59 16.02.2020
2627 Clouds 26 1008 87 0 5.59 132 09:59 16.02.2020
2628 Clouds 26 1008 87 0 5.59 132 09:38 16.02.2020
2629 Clouds 26 1008 87 0 5.59 132 09:20 16.02.2020
2630 Clouds 26 1008 87 0 5.59 132 08:50 16.02.2020
2631 Clouds 26 1008 87 0 5.86 138 08:22 16.02.2020
2632 Clouds 26 1010 88 0 5.23 138 07:59 16.02.2020
2633 Clouds 26 1010 88 0 5.23 138 07:39 16.02.2020
2634 Clouds 26 1010 88 0 5.23 138 06:39 16.02.2020
2635 Clouds 26 1010 88 0 5.23 138 05:37 16.02.2020
2636 Clouds 26 1011 88 0 4.16 138 04:35 16.02.2020
2637 Clouds 26 1011 88 0 4.16 138 03:18 16.02.2020
2638 Clouds 27 1005 83 10000 7.2 150 01:57 16.02.2020
2639 Clouds 27 1005 83 10000 7.2 150 01:37 16.02.2020
2640 Clouds 27 1005 83 10000 7.2 150 01:19 16.02.2020
2641 Clouds 28 1005 78 10000 8.2 150 00:41 16.02.2020
2642 Clouds 28 1005 78 10000 8.2 150 00:21 16.02.2020
2643 Clouds 28 1005 78 10000 7.2 150 23:42 15.02.2020
2644 Clouds 28 1005 78 10000 7.2 150 23:24 15.02.2020
2645 Clouds 29 1006 74 10000 8.2 160 22:56 15.02.2020
2646 Clouds 29 1006 74 10000 8.2 160 22:38 15.02.2020
2647 Clouds 29 1006 74 10000 8.2 160 22:19 15.02.2020
2648 Clouds 29 1006 79 10000 8.2 170 21:43 15.02.2020
2649 Clouds 29 1006 79 10000 8.2 170 21:24 15.02.2020
2650 Clouds 30 1007 70 10000 7.2 180 20:56 15.02.2020
2651 Clouds 30 1007 70 10000 7.2 180 20:37 15.02.2020
2652 Clouds 30 1007 70 10000 7.2 180 20:37 15.02.2020
2653 Clouds 30 1007 70 10000 7.2 180 20:19 15.02.2020
2654 Clouds 29 1008 74 10000 7.2 160 19:41 15.02.2020
2655 Clouds 29 1008 74 10000 7.2 160 19:22 15.02.2020
2656 Clouds 28 1009 78 10000 7.2 160 18:41 15.02.2020
2657 Clouds 28 1009 78 10000 7.2 160 18:21 15.02.2020
2658 Clouds 28 1009 78 10000 7.7 160 17:55 15.02.2020
2659 Clouds 28 1009 78 10000 7.7 160 17:37 15.02.2020
2660 Clouds 28 1009 78 10000 7.7 160 17:18 15.02.2020
2661 Clouds 27 1009 83 10000 6.7 160 16:41 15.02.2020
2662 Clouds 27 1009 83 10000 6.7 160 16:21 15.02.2020
2663 Clouds 27 1008 83 10000 6.2 150 15:50 15.02.2020
2664 Clouds 27 1008 83 10000 6.2 150 15:31 15.02.2020
2665 Clouds 25 1007 94 10000 5.1 160 14:57 15.02.2020
2666 Clouds 25 1007 94 10000 5.1 160 14:39 15.02.2020
2667 Clouds 25 1007 94 10000 5.1 160 14:18 15.02.2020
2668 Clouds 25 1007 94 10000 4.6 160 13:41 15.02.2020
2669 Clouds 25 1007 94 10000 4.6 160 13:22 15.02.2020
2670 Rain 26 1010 87 0 4.39 127 12:56 15.02.2020
2671 Rain 26 1010 87 0 4.39 127 12:38 15.02.2020
2672 Rain 26 1010 87 0 4.39 127 12:19 15.02.2020
2673 Rain 26 1010 87 0 4.39 127 11:45 15.02.2020
2674 Rain 26 1010 87 0 4.39 127 11:25 15.02.2020
2675 Clouds 26 1009 86 0 3.47 140 10:47 15.02.2020
2676 Clouds 26 1009 86 0 3.47 140 10:29 15.02.2020
2677 Clouds 26 1009 86 0 3.47 140 09:45 15.02.2020
2678 Clouds 26 1009 86 0 3.47 140 09:26 15.02.2020
2679 Clouds 26 1009 86 0 3.47 140 08:59 15.02.2020
2680 Clouds 26 1009 86 0 3.47 140 08:41 15.02.2020
2681 Clouds 26 1009 86 0 3.47 140 08:22 15.02.2020
2682 Clouds 26 1010 87 0 2.92 134 07:42 15.02.2020
2683 Clouds 26 1010 87 0 2.92 134 07:23 15.02.2020
2684 Clouds 26 1010 87 0 2.92 134 06:39 15.02.2020
2685 Clouds 26 1010 87 0 2.92 134 06:39 15.02.2020
2686 Clouds 26 1010 87 0 2.92 134 06:20 15.02.2020
2687 Clouds 26 1010 85 0 2.78 132 04:52 15.02.2020
2688 Clouds 26 1010 85 0 2.78 132 04:26 15.02.2020
2689 Clouds 26 1010 85 0 2.78 132 02:59 15.02.2020
2690 Clouds 27 1005 83 10000 5.1 160 02:28 15.02.2020
2691 Clouds 27 1005 83 10000 5.1 160 01:59 15.02.2020
2692 Clouds 27 1005 83 10000 5.1 160 01:36 15.02.2020
2693 Clouds 28 1005 78 10000 6.7 160 00:30 15.02.2020
2694 Clouds 29 1005 74 10000 7.7 170 23:57 14.02.2020
2695 Clouds 29 1005 74 10000 7.7 170 23:36 14.02.2020
2696 Clouds 29 1005 74 10000 7.7 170 23:18 14.02.2020
2697 Clouds 29 1005 74 10000 7.7 170 23:18 14.02.2020
2698 Clouds 29 1005 79 10000 7.2 160 22:42 14.02.2020
2699 Clouds 29 1005 79 10000 7.2 160 22:22 14.02.2020
2700 Clouds 30 1006 74 10000 7.7 180 21:49 14.02.2020
2701 Clouds 30 1006 74 10000 7.7 180 21:31 14.02.2020
2702 Clouds 30 1006 74 10000 7.2 170 20:48 14.02.2020
2703 Clouds 30 1006 74 10000 7.2 170 20:21 14.02.2020
2704 Clouds 30 1008 70 10000 6.7 170 19:59 14.02.2020
2705 Clouds 30 1008 70 10000 6.7 170 19:41 14.02.2020
2706 Clouds 30 1008 70 10000 6.7 170 19:23 14.02.2020
2707 Clouds 29 1008 74 10000 6.2 160 18:57 14.02.2020
2708 Clouds 29 1008 74 10000 6.2 160 18:39 14.02.2020
2709 Clouds 29 1008 74 10000 6.2 160 18:20 14.02.2020
2710 Clouds 29 1009 74 10000 5.1 160 17:44 14.02.2020
2711 Clouds 29 1009 74 10000 5.1 160 17:22 14.02.2020
2712 Clouds 28 1009 78 10000 4.1 140 16:59 14.02.2020
2713 Clouds 28 1009 78 10000 4.1 140 16:40 14.02.2020
2714 Clouds 28 1009 78 10000 4.1 140 16:22 14.02.2020
2715 Clouds 27 1008 83 10000 3.1 140 15:56 14.02.2020
2716 Clouds 27 1008 83 10000 3.1 140 15:37 14.02.2020
2717 Clouds 27 1008 83 10000 3.1 140 15:37 14.02.2020
2718 Clouds 27 1008 83 10000 3.1 140 15:19 14.02.2020
2719 Clouds 25 1007 88 10000 2.6 150 14:58 14.02.2020
2720 Clouds 25 1007 88 10000 2.6 150 14:39 14.02.2020
2721 Clouds 25 1007 88 10000 2.6 150 14:21 14.02.2020
2722 Clouds 24 1007 94 10000 3.1 150 13:40 14.02.2020
2723 Clouds 24 1007 94 10000 3.1 150 13:21 14.02.2020
2724 Clouds 25 1010 85 0 1.34 148 12:58 14.02.2020
2725 Clouds 25 1010 85 0 1.34 148 12:40 14.02.2020
2726 Clouds 25 1010 85 0 1.34 148 12:21 14.02.2020
2727 Clouds 25 1010 85 0 1.34 148 11:58 14.02.2020
2728 Clouds 25 1010 85 0 1.34 148 11:40 14.02.2020
2729 Clear 25 1009 85 0 2.19 148 11:20 14.02.2020
2730 Clear 25 1009 85 0 2.19 148 11:20 14.02.2020
2731 Clear 25 1009 85 0 2.19 148 10:55 14.02.2020
2732 Clear 25 1009 85 0 2.19 148 10:36 14.02.2020
2733 Clear 25 1009 85 0 2.19 148 10:18 14.02.2020
2734 Clear 25 1009 85 0 2.19 148 09:39 14.02.2020
2735 Clear 25 1009 85 0 2.19 148 09:19 14.02.2020
2736 Clear 25 1009 85 0 2.19 148 08:43 14.02.2020
2737 Clear 25 1009 85 0 2.19 148 08:24 14.02.2020
2738 Clear 26 1010 85 0 2.2 146 07:51 14.02.2020
2739 Clear 26 1010 85 0 2.2 146 07:33 14.02.2020
2740 Clear 26 1010 85 0 2.2 146 06:56 14.02.2020
2741 Clear 26 1010 85 0 2.2 146 06:23 14.02.2020
2742 Clear 26 1010 85 0 2.2 146 05:44 14.02.2020
2743 Clear 26 1010 84 0 2.7 160 04:22 14.02.2020
2744 Clear 26 1010 84 0 2.7 160 03:28 14.02.2020
2745 Clouds 27 1006 83 10000 5.7 150 02:20 14.02.2020
2746 Clouds 27 1006 83 10000 5.7 150 01:22 14.02.2020
2747 Clouds 28 1005 78 10000 6.2 150 00:42 14.02.2020
2748 Clouds 28 1005 78 10000 6.2 150 00:42 14.02.2020
2749 Clouds 28 1005 78 10000 6.2 150 00:42 14.02.2020
2750 Clouds 28 1005 78 10000 6.2 150 00:21 14.02.2020
2751 Clouds 29 1005 74 10000 5.1 180 23:42 13.02.2020
2752 Clouds 29 1005 74 10000 5.1 180 23:19 13.02.2020
2753 Clouds 29 1006 74 10000 6.2 180 22:42 13.02.2020
2754 Clouds 29 1006 74 10000 6.2 180 22:20 13.02.2020
2755 Clouds 29 1006 74 10000 6.2 180 21:59 13.02.2020
2756 Clouds 29 1006 74 10000 6.2 180 21:40 13.02.2020
2757 Clouds 29 1006 74 10000 6.2 180 21:21 13.02.2020
2758 Clouds 30 1007 70 10000 7.2 180 20:43 13.02.2020
2759 Clouds 30 1007 70 10000 7.2 180 20:23 13.02.2020
2760 Clouds 29 1008 74 10000 6.7 170 19:59 13.02.2020
2761 Clouds 29 1008 74 10000 6.7 170 19:40 13.02.2020
2762 Clouds 29 1008 74 10000 6.7 170 19:22 13.02.2020
2763 Clouds 29 1009 79 10000 6.7 170 18:59 13.02.2020
2764 Clouds 29 1009 79 10000 6.7 170 18:41 13.02.2020
2765 Clouds 29 1009 79 10000 6.7 170 18:22 13.02.2020
2766 Clouds 28 1009 78 10000 6.2 150 17:58 13.02.2020
2767 Clouds 28 1009 78 10000 6.2 150 17:37 13.02.2020
2768 Clouds 28 1009 78 10000 6.2 150 17:19 13.02.2020
2769 Clouds 27 1008 83 10000 7.2 160 16:56 13.02.2020
2770 Clouds 27 1008 83 10000 7.2 160 16:55 13.02.2020
2771 Clouds 27 1008 83 10000 7.2 160 16:36 13.02.2020
2772 Clouds 27 1008 83 10000 7.2 160 16:36 13.02.2020
2773 Clouds 27 1008 83 10000 7.2 160 16:18 13.02.2020
2774 -273 0 0 0 0 0 15:54 13.02.2020
2775 Rain 25 1008 94 10000 5.1 170 15:36 13.02.2020
2776 Rain 25 1008 94 10000 5.1 170 15:18 13.02.2020
2777 Clouds 25 1007 94 10000 3.6 150 14:54 13.02.2020
2778 -273 0 0 0 0 0 14:36 13.02.2020
2779 Clouds 25 1007 94 10000 3.6 150 14:18 13.02.2020
2780 Clouds 25 1007 94 10000 4.1 150 13:41 13.02.2020
2781 Clouds 25 1007 94 10000 4.1 150 13:18 13.02.2020
2782 Clouds 25 1009 86 0 6.26 151 12:48 13.02.2020
2783 Clouds 25 1009 86 0 6.26 151 12:30 13.02.2020
2784 Clouds 25 1009 86 0 6.26 151 11:58 13.02.2020
2785 Clouds 25 1009 86 0 6.26 151 11:40 13.02.2020
2786 Clouds 25 1008 87 0 4.91 152 11:19 13.02.2020
2787 Clouds 25 1008 87 0 4.91 152 10:43 13.02.2020
2788 Clouds 25 1008 87 0 4.91 152 10:25 13.02.2020
2789 Clouds 25 1008 87 0 4.91 152 09:50 13.02.2020
2790 Clouds 25 1008 87 0 4.91 152 09:24 13.02.2020
2791 Clouds 25 1008 87 0 4.91 152 08:48 13.02.2020
2792 Clear 25 1010 89 0 4.48 149 08:20 13.02.2020
2793 Clouds 25 1010 88 0 4.79 154 07:46 13.02.2020
2794 Clouds 25 1010 88 0 4.79 154 07:25 13.02.2020
2795 Clouds 25 1010 88 0 4.79 154 06:59 13.02.2020
2796 Clouds 25 1010 88 0 4.79 154 06:41 13.02.2020
2797 Clouds 25 1010 88 0 4.79 154 05:57 13.02.2020
2798 Clouds 26 1010 89 0 4.43 158 05:20 13.02.2020
2799 Clouds 26 1010 89 0 4.43 158 04:24 13.02.2020
2800 Clouds 26 1010 89 0 4.43 158 03:45 13.02.2020
2801 Clouds 26 1010 89 0 4.43 158 02:59 13.02.2020
2802 Clouds 26 1010 89 0 4.43 158 02:37 13.02.2020
2803 Clouds 27 1006 83 10000 6.2 150 02:18 13.02.2020
2804 Clouds 27 1006 83 10000 6.2 150 01:25 13.02.2020
2805 Clouds 28 1005 78 10000 7.2 150 00:32 13.02.2020
2806 Clouds 29 1005 74 10000 6.7 160 23:57 12.02.2020
2807 Clouds 29 1005 74 10000 6.7 160 23:37 12.02.2020
2808 Clouds 29 1005 74 10000 6.7 160 23:18 12.02.2020
2809 Clouds 29 1006 74 10000 7.2 170 22:41 12.02.2020
2810 Clouds 29 1006 74 10000 7.2 170 22:23 12.02.2020
2811 Clouds 29 1007 74 10000 7.7 170 21:55 12.02.2020
2812 Clouds 29 1007 74 10000 7.7 170 21:37 12.02.2020
2813 Clouds 29 1007 74 10000 7.7 170 21:18 12.02.2020
2814 Clouds 29 1007 74 10000 8.2 150 20:43 12.02.2020
2815 Clouds 29 1007 74 10000 8.2 150 20:25 12.02.2020
2816 Clouds 29 1008 74 10000 7.2 170 20:00 12.02.2020
2817 Clouds 29 1008 74 10000 7.2 170 19:41 12.02.2020
2818 Clouds 29 1008 74 10000 7.2 170 19:22 12.02.2020
2819 Clouds 29 1008 79 10000 7.7 170 18:50 12.02.2020
2820 Clouds 29 1008 79 10000 7.7 170 18:20 12.02.2020
2821 Clouds 29 1008 79 10000 7.7 170 18:20 12.02.2020
2822 Clouds 29 1008 79 10000 7.7 170 18:20 12.02.2020
2823 Clouds 29 1009 79 10000 8.2 160 17:59 12.02.2020
2824 Clouds 29 1009 79 10000 8.2 160 17:40 12.02.2020
2825 Clouds 29 1009 79 10000 8.2 160 17:19 12.02.2020
2826 Clouds 28 1009 78 10000 6.2 150 16:57 12.02.2020
2827 Clouds 28 1009 78 10000 6.2 150 16:36 12.02.2020
2828 Clouds 28 1009 78 10000 6.2 150 16:18 12.02.2020
2829 Clouds 27 1008 88 10000 5.7 150 15:38 12.02.2020
2830 Clouds 27 1008 88 10000 5.7 150 15:19 12.02.2020
2831 Clouds 25 1007 94 10000 5.7 150 14:43 12.02.2020
2832 Clouds 25 1007 94 10000 5.7 150 14:43 12.02.2020
2833 Clouds 25 1007 94 10000 5.7 150 14:21 12.02.2020
2834 Clouds 25 1007 94 10000 5.1 170 13:59 12.02.2020
2835 Clouds 25 1007 94 10000 5.1 170 13:40 12.02.2020
2836 Clouds 25 1007 94 10000 5.1 170 13:22 12.02.2020
2837 Clouds 26 1010 86 0 3.51 147 12:58 12.02.2020
2838 Clouds 26 1010 86 0 3.51 147 12:39 12.02.2020
2839 Clouds 26 1010 86 0 3.51 147 12:19 12.02.2020
2840 Clouds 26 1010 86 0 3.51 147 11:59 12.02.2020
2841 Clouds 26 1010 86 0 3.51 147 11:40 12.02.2020
2842 Clouds 26 1009 87 0 3.64 155 11:20 12.02.2020
2843 Clouds 26 1009 87 0 3.64 155 10:58 12.02.2020
2844 Clouds 26 1009 87 0 3.64 155 10:39 12.02.2020
2845 Clouds 26 1009 87 0 3.64 155 10:20 12.02.2020
2846 Clouds 26 1009 87 0 3.64 155 09:42 12.02.2020
2847 Clouds 26 1009 87 0 3.64 155 09:42 12.02.2020
2848 Clouds 26 1009 87 0 3.64 155 09:24 12.02.2020
2849 Clouds 26 1009 87 0 3.64 155 09:24 12.02.2020
2850 Clouds 26 1009 87 0 3.64 155 08:58 12.02.2020
2851 Clouds 26 1009 87 0 3.64 155 08:38 12.02.2020
2852 Clouds 26 1011 87 0 3.39 146 08:20 12.02.2020
2853 Clouds 26 1011 87 0 3.39 146 07:47 12.02.2020
2854 Clouds 26 1011 87 0 3.39 146 07:24 12.02.2020
2855 Clouds 26 1011 87 0 3.39 146 06:59 12.02.2020
2856 Clouds 26 1011 87 0 3.39 146 06:24 12.02.2020
2857 Clouds 26 1011 87 0 3.39 146 05:44 12.02.2020
2858 Clouds 26 1011 87 0 3.01 140 05:21 12.02.2020
2859 Clouds 26 1011 87 0 3.01 140 04:41 12.02.2020
2860 Clouds 26 1011 87 0 3.01 140 03:43 12.02.2020
2861 Clouds 26 1011 87 0 3.01 140 03:43 12.02.2020
2862 Clouds 26 1011 87 0 3.01 140 03:24 12.02.2020
2863 Clouds 26 1011 87 0 3.01 140 02:32 12.02.2020
2864 Clouds 27 1006 83 10000 6.7 160 01:59 12.02.2020
2865 Clouds 27 1006 83 10000 6.7 160 01:27 12.02.2020
2866 Clouds 28 1006 78 10000 6.2 150 00:39 12.02.2020
2867 Clouds 28 1006 78 10000 6.2 150 00:21 12.02.2020
2868 Clouds 28 1006 78 10000 6.7 160 23:45 11.02.2020
2869 Clouds 28 1006 78 10000 6.7 160 23:27 11.02.2020
2870 Clouds 29 1007 79 10000 7.2 160 22:56 11.02.2020
2871 Clouds 29 1007 79 10000 7.2 160 22:38 11.02.2020
2872 Clouds 29 1007 79 10000 7.2 160 22:19 11.02.2020
2873 Clouds 30 1007 70 10000 7.7 170 21:56 11.02.2020
2874 Clouds 30 1007 70 10000 7.7 170 21:56 11.02.2020
2875 Clouds 30 1007 70 10000 7.7 170 21:37 11.02.2020
2876 Clouds 30 1007 70 10000 7.7 170 21:18 11.02.2020
2877 Clouds 30 1007 70 10000 7.7 170 21:18 11.02.2020
2878 Clouds 30 1007 70 10000 7.7 170 21:18 11.02.2020
2879 Clouds 30 1007 70 10000 7.7 170 21:18 11.02.2020
2880 Clouds 30 1008 74 10000 7.2 160 20:55 11.02.2020
2881 Clouds 30 1008 74 10000 7.2 160 20:37 11.02.2020
2882 Clouds 30 1008 74 10000 7.2 160 20:18 11.02.2020
2883 Clouds 29 1009 79 10000 7.7 150 19:42 11.02.2020
2884 Clouds 29 1009 79 10000 7.7 150 19:24 11.02.2020
2885 Clouds 29 1009 79 10000 7.7 150 19:24 11.02.2020
2886 Clouds 30 1009 74 10000 6.2 160 18:57 11.02.2020
2887 Clouds 30 1009 74 10000 6.2 160 18:57 11.02.2020
2888 Clouds 30 1009 74 10000 6.2 160 18:39 11.02.2020
2889 Clouds 30 1009 74 10000 6.2 160 18:20 11.02.2020
2890 Clouds 29 1009 79 10000 7.2 150 17:55 11.02.2020
2891 Clouds 29 1009 79 10000 7.2 150 17:36 11.02.2020
2892 Clouds 29 1009 79 10000 7.2 150 17:18 11.02.2020
2893 Clouds 28 1009 78 10000 5.1 160 16:56 11.02.2020
2894 Clouds 28 1009 78 10000 5.1 160 16:37 11.02.2020
2895 Clouds 28 1009 78 10000 5.1 160 16:19 11.02.2020
2896 Clouds 27 1009 83 10000 6.2 160 15:44 11.02.2020
2897 Clouds 27 1009 83 10000 6.2 160 15:26 11.02.2020
2898 Clouds 25 1008 94 10000 6.2 160 14:55 11.02.2020
2899 Clouds 25 1008 94 10000 6.2 160 14:36 11.02.2020
2900 Clouds 25 1008 94 10000 6.2 160 14:36 11.02.2020
2901 Clouds 25 1008 94 10000 6.2 160 14:18 11.02.2020
2902 Clouds 25 1008 94 10000 5.1 160 13:41 11.02.2020
2903 Clouds 25 1008 94 10000 5.1 160 13:21 11.02.2020
2904 Clouds 25 1008 94 10000 5.1 160 13:21 11.02.2020
2905 Clouds 26 1010 80 0 4.54 114 12:58 11.02.2020
2906 Clouds 26 1010 80 0 4.54 114 12:40 11.02.2020
2907 Clouds 26 1010 80 0 4.54 114 12:20 11.02.2020
2908 Clouds 26 1010 80 0 4.54 114 11:42 11.02.2020
2909 Rain 26 1009 82 0 4.55 124 11:21 11.02.2020
2910 Rain 26 1009 82 0 4.55 124 10:58 11.02.2020
2911 Rain 26 1009 82 0 4.55 124 10:39 11.02.2020
2912 Rain 26 1009 82 0 4.55 124 10:20 11.02.2020
2913 Rain 26 1009 82 0 4.55 124 09:56 11.02.2020
2914 Rain 26 1009 82 0 4.55 124 09:38 11.02.2020
2915 Rain 26 1009 82 0 4.55 124 09:19 11.02.2020
2916 Rain 26 1009 82 0 4.55 124 08:44 11.02.2020
2917 Rain 26 1009 82 0 4.55 124 08:23 11.02.2020
2918 Rain 26 1010 85 0 4.63 137 07:48 11.02.2020
2919 Rain 26 1010 85 0 4.63 137 07:26 11.02.2020
2920 Rain 26 1010 85 0 4.63 137 06:44 11.02.2020
2921 Rain 26 1010 85 0 4.63 137 06:22 11.02.2020
2922 Rain 26 1010 85 0 4.63 137 05:56 11.02.2020
2923 Rain 26 1010 85 0 4.63 137 05:24 11.02.2020
2924 Clouds 26 1011 87 0 4.5 127 04:40 11.02.2020
2925 Clouds 26 1011 87 0 4.5 127 03:20 11.02.2020
2926 Clouds 26 1011 87 0 4.5 127 02:32 11.02.2020
2927 Clouds 27 1006 83 10000 7.7 160 01:38 11.02.2020
2928 Clouds 27 1005 83 10000 7.7 160 00:40 11.02.2020
2929 Clouds 28 1005 78 10000 9.3 150 23:57 10.02.2020
2930 Clouds 28 1005 78 10000 9.3 150 23:38 10.02.2020
2931 Clouds 28 1005 78 10000 9.3 150 23:20 10.02.2020
2932 Clouds 29 1006 79 10000 8.7 160 22:40 10.02.2020
2933 Clouds 29 1006 79 10000 8.7 160 22:20 10.02.2020
2934 Clouds 29 1007 79 10000 9.3 160 21:45 10.02.2020
2935 Clouds 29 1007 79 10000 9.3 160 21:25 10.02.2020
2936 Clouds 29 1007 79 10000 9.3 160 20:58 10.02.2020
2937 Clouds 29 1007 79 10000 9.3 160 20:58 10.02.2020
2938 Clouds 29 1007 79 10000 9.3 160 20:39 10.02.2020
2939 Clouds 29 1007 79 10000 9.3 160 20:20 10.02.2020
2940 Clouds 28 1008 83 10000 5.1 150 19:58 10.02.2020
2941 Clouds 28 1008 83 10000 5.1 150 19:38 10.02.2020
2942 Clouds 28 1008 83 10000 5.1 150 19:19 10.02.2020
2943 Clouds 27 1009 88 10000 5.7 170 18:59 10.02.2020
2944 Clouds 27 1009 88 10000 5.7 170 18:40 10.02.2020
2945 Clouds 27 1009 88 10000 5.7 170 18:20 10.02.2020
2946 Drizzle 25 1009 94 8000 4.1 160 17:57 10.02.2020
2947 Drizzle 25 1009 94 8000 4.1 160 17:57 10.02.2020
2948 Drizzle 25 1009 94 8000 4.1 160 17:37 10.02.2020
2949 Drizzle 25 1009 94 8000 4.1 160 17:37 10.02.2020
2950 Drizzle 25 1009 94 8000 4.1 160 17:19 10.02.2020
2951 Drizzle 25 1009 94 8000 4.1 160 17:19 10.02.2020
2952 Rain 26 1012 87 0 6.77 131 16:58 10.02.2020
2953 Drizzle 25 1009 94 5000 4.6 130 16:38 10.02.2020
2954 Drizzle 25 1009 94 5000 4.6 130 16:19 10.02.2020
2955 Rain 26 1012 87 0 6.77 131 15:55 10.02.2020
2956 Rain 26 1008 94 10000 5.1 150 15:37 10.02.2020
2957 Rain 26 1008 94 10000 5.1 150 15:18 10.02.2020
2958 Drizzle 25 1008 100 10000 5.1 150 14:41 10.02.2020
2959 Drizzle 25 1008 100 10000 5.1 150 14:20 10.02.2020
2960 Drizzle 25 1008 100 10000 5.1 150 14:20 10.02.2020
2961 Rain 26 1009 86 0 5.53 140 13:57 10.02.2020
2962 Rain 25 1007 94 10000 6.2 160 13:38 10.02.2020
2963 Rain 25 1007 94 10000 6.2 160 13:18 10.02.2020
2964 Rain 25 1007 94 10000 6.2 160 13:18 10.02.2020
2965 Clouds 26 1010 87 0 5.55 130 12:44 10.02.2020
2966 Clouds 26 1010 87 0 5.55 130 12:25 10.02.2020
2967 Clouds 26 1010 87 0 5.55 130 11:55 10.02.2020
2968 Clouds 26 1010 87 0 5.55 130 11:37 10.02.2020
2969 Clouds 26 1009 87 0 5.27 125 11:19 10.02.2020
2970 Clouds 26 1009 87 0 5.27 125 10:45 10.02.2020
2971 Clouds 26 1009 87 0 5.27 125 10:26 10.02.2020
2972 Clouds 26 1009 87 0 5.27 125 09:45 10.02.2020
2973 Clouds 26 1009 87 0 5.27 125 09:25 10.02.2020
2974 Clouds 26 1009 87 0 5.27 125 08:45 10.02.2020
2975 Clouds 26 1009 87 0 5.02 125 08:22 10.02.2020
2976 Clouds 26 1011 87 0 4.79 111 07:59 10.02.2020
2977 Clouds 26 1011 87 0 4.79 111 07:38 10.02.2020
2978 Clouds 26 1011 87 0 4.79 111 06:59 10.02.2020
2979 Clouds 26 1011 87 0 4.79 111 05:42 10.02.2020
2980 Clouds 26 1012 87 0 4.25 125 04:26 10.02.2020
2981 Clouds 26 1012 87 0 4.25 125 03:31 10.02.2020
2982 Clouds 26 1012 87 0 4.25 125 02:53 10.02.2020
2983 Clouds 27 1007 83 10000 5.1 140 01:36 10.02.2020
2984 Clouds 27 1007 83 10000 6.7 150 00:48 10.02.2020
2985 Clouds 27 1007 83 10000 6.7 150 00:28 10.02.2020
2986 Clouds 28 1007 78 10000 7.2 160 23:44 09.02.2020
2987 Clouds 28 1007 78 10000 7.2 160 23:26 09.02.2020
2988 Clouds 28 1007 78 10000 5.1 170 22:57 09.02.2020
2989 Clouds 28 1007 78 10000 5.1 170 22:37 09.02.2020
2990 Clouds 28 1007 78 10000 5.1 170 22:19 09.02.2020
2991 Rain 28 1008 78 10000 5.1 160 21:41 09.02.2020
2992 Rain 28 1008 78 10000 5.1 160 21:22 09.02.2020
2993 Rain 28 1008 78 10000 5.1 160 21:22 09.02.2020
2994 Clouds 29 1009 74 10000 7.2 170 20:46 09.02.2020
2995 Clouds 29 1009 74 10000 7.2 170 20:22 09.02.2020
2996 Clouds 29 1010 74 10000 6.7 180 19:57 09.02.2020
2997 Clouds 29 1010 74 10000 6.7 180 19:38 09.02.2020
2998 Clouds 29 1010 74 10000 6.7 180 19:38 09.02.2020
2999 Clouds 29 1010 74 10000 6.7 180 19:38 09.02.2020
3000 Clouds 29 1010 74 10000 6.7 180 19:18 09.02.2020
3001 Clouds 28 1011 83 10000 5.1 160 18:42 09.02.2020
3002 Clouds 28 1011 83 10000 5.1 160 18:23 09.02.2020
3003 Clouds 28 1011 83 10000 5.7 150 17:59 09.02.2020
3004 Clouds 28 1011 83 10000 5.7 150 17:39 09.02.2020
3005 Clouds 28 1011 83 10000 5.7 150 17:20 09.02.2020
3006 Clouds 28 1011 83 10000 6.2 130 16:41 09.02.2020
3007 Clouds 28 1011 83 10000 6.2 130 16:22 09.02.2020
3008 Clouds 26 1011 94 10000 3.1 100 15:58 09.02.2020
3009 Clouds 26 1011 94 10000 3.1 100 15:40 09.02.2020
3010 Clouds 26 1011 94 10000 3.1 100 15:21 09.02.2020
3011 Clouds 25 1010 94 10000 2.1 100 14:56 09.02.2020
3012 Clouds 25 1010 94 10000 2.1 100 14:37 09.02.2020
3013 Clouds 25 1010 94 10000 2.1 100 14:19 09.02.2020
3014 Clouds 24 1009 94 10000 3.1 120 13:42 09.02.2020
3015 Clouds 24 1009 94 10000 3.1 120 13:24 09.02.2020
3016 Clouds 26 1011 85 0 3.67 91 12:54 09.02.2020
3017 Clouds 26 1011 85 0 3.67 91 12:36 09.02.2020
3018 Clouds 26 1011 85 0 3.67 91 12:18 09.02.2020
3019 Clouds 26 1011 85 0 3.67 91 11:39 09.02.2020
3020 Clouds 26 1010 87 0 4.57 89 11:19 09.02.2020
3021 Clouds 26 1010 87 0 4.57 89 10:44 09.02.2020
3022 Clouds 26 1010 87 0 4.57 89 10:25 09.02.2020
3023 Clouds 26 1010 87 0 4.57 89 09:58 09.02.2020
3024 Clouds 26 1010 87 0 4.57 89 09:39 09.02.2020
3025 Clouds 26 1010 87 0 4.57 89 09:20 09.02.2020
3026 Clouds 26 1010 87 0 4.57 89 08:41 09.02.2020
3027 Clouds 26 1010 87 0 5.1 88 08:23 09.02.2020
3028 Clouds 26 1012 87 0 3.74 89 07:52 09.02.2020
3029 Clouds 26 1012 87 0 3.74 89 07:26 09.02.2020
3030 Clouds 26 1012 87 0 3.74 89 06:37 09.02.2020
3031 Clouds 26 1012 87 0 3.74 89 05:55 09.02.2020
3032 Clouds 26 1012 87 0 3.74 89 05:33 09.02.2020
3033 Clouds 26 1012 86 0 3.71 83 04:48 09.02.2020
3034 Clouds 26 1012 86 0 3.71 83 02:58 09.02.2020
3035 Clouds 26 1012 86 0 3.71 83 02:36 09.02.2020
3036 Clouds 26 1009 94 10000 2.1 160 01:39 09.02.2020
3037 Rain 26 1008 94 10000 2.1 130 00:57 09.02.2020
3038 Rain 26 1008 94 10000 2.1 130 00:30 09.02.2020
3039 Rain 26 1009 94 8000 2.6 100 23:50 08.02.2020
3040 Rain 26 1009 94 8000 2.6 100 23:25 08.02.2020
3041 Drizzle 26 1009 94 5000 3.1 60 22:58 08.02.2020
3042 Drizzle 26 1009 94 5000 3.1 60 22:40 08.02.2020
3043 Drizzle 26 1009 94 5000 3.1 60 22:20 08.02.2020
3044 Rain 26 1010 83 0 4.19 108 21:46 08.02.2020
3045 Rain 28 1009 78 10000 5.7 170 21:27 08.02.2020
3046 Rain 28 1010 78 10000 3.6 160 20:59 08.02.2020
3047 Rain 28 1010 78 10000 3.6 160 20:40 08.02.2020
3048 Rain 28 1010 78 10000 3.6 160 20:19 08.02.2020
3049 Rain 28 1011 78 10000 2.6 300 19:56 08.02.2020
3050 Rain 28 1011 78 10000 2.6 300 19:38 08.02.2020
3051 Rain 28 1011 78 10000 2.6 300 19:19 08.02.2020
3052 Rain 28 1011 78 10000 2.6 300 19:19 08.02.2020
3053 Clouds 30 1011 74 10000 4.6 120 18:45 08.02.2020
3054 Clouds 30 1011 74 10000 4.6 120 18:26 08.02.2020
3055 Clouds 28 1012 83 10000 3.6 120 17:59 08.02.2020
3056 Clouds 28 1012 83 10000 3.6 120 17:41 08.02.2020
3057 Clouds 28 1012 83 10000 3.6 120 17:19 08.02.2020
3058 Rain 28 1012 83 10000 4.1 120 16:41 08.02.2020
3059 Rain 28 1012 83 10000 4.1 120 16:22 08.02.2020
3060 Drizzle 26 1012 88 10000 2.6 120 15:57 08.02.2020
3061 Drizzle 26 1012 88 10000 2.6 120 15:39 08.02.2020
3062 Drizzle 26 1012 88 10000 2.6 120 15:18 08.02.2020
3063 Rain 25 1010 94 10000 2.1 100 14:44 08.02.2020
3064 Rain 25 1010 94 10000 2.1 100 14:20 08.02.2020
3065 Clouds 25 1009 94 10000 3.1 160 13:56 08.02.2020
3066 Clouds 25 1009 94 10000 3.1 160 13:38 08.02.2020
3067 Clouds 25 1009 94 10000 3.1 160 13:19 08.02.2020
3068 Clouds 26 1012 84 0 1.53 150 12:39 08.02.2020
3069 Clouds 26 1012 84 0 1.53 150 12:20 08.02.2020
3070 Clouds 26 1012 84 0 1.53 150 11:48 08.02.2020
3071 Clouds 26 1012 84 0 1.53 150 11:22 08.02.2020
3072 Rain 26 1011 85 0 1.4 157 10:59 08.02.2020
3073 Rain 26 1011 85 0 1.4 157 10:40 08.02.2020
3074 Rain 26 1011 85 0 1.4 157 10:20 08.02.2020
3075 Rain 26 1011 85 0 1.4 157 09:51 08.02.2020
3076 Rain 26 1011 85 0 1.4 157 09:26 08.02.2020
3077 Rain 26 1011 85 0 1.4 157 08:49 08.02.2020
3078 Rain 26 1011 85 0 1.4 157 08:29 08.02.2020
3079 Clear 26 1012 86 0 2.5 135 07:59 08.02.2020
3080 Clear 26 1012 86 0 2.5 135 07:39 08.02.2020
3081 Clear 26 1012 86 0 2.5 135 06:56 08.02.2020
3082 Clear 26 1012 86 0 2.5 135 06:23 08.02.2020
3083 Clear 26 1012 86 0 2.5 135 05:40 08.02.2020
3084 Clear 26 1012 86 0 2.89 156 05:21 08.02.2020
3085 Clear 26 1012 86 0 2.89 156 04:31 08.02.2020
3086 Clear 26 1012 86 0 2.89 156 03:39 08.02.2020
3087 Clear 26 1012 86 0 2.89 156 02:43 08.02.2020
3088 Clouds 27 1008 83 10000 4.1 190 01:35 08.02.2020
3089 Clouds 28 1008 78 10000 6.2 180 00:57 08.02.2020
3090 Clouds 28 1008 78 10000 6.2 180 00:25 08.02.2020
3091 Clouds 28 1008 83 10000 5.1 190 23:58 07.02.2020
3092 Clouds 28 1008 83 10000 5.1 190 23:39 07.02.2020
3093 Clouds 28 1008 83 10000 5.1 190 23:20 07.02.2020
3094 Clouds 29 1008 74 10000 7.7 160 22:42 07.02.2020
3095 Clouds 29 1008 74 10000 7.7 160 22:20 07.02.2020
3096 Clouds 29 1008 74 10000 6.7 150 21:59 07.02.2020
3097 Clouds 29 1008 74 10000 6.7 150 21:40 07.02.2020
3098 Clouds 29 1008 74 10000 6.7 150 21:20 07.02.2020
3099 Clouds 29 1010 79 10000 6.2 170 20:40 07.02.2020
3100 Clouds 29 1010 79 10000 6.2 170 20:21 07.02.2020
3101 Clouds 29 1010 79 10000 7.2 180 19:55 07.02.2020
3102 Clouds 29 1010 79 10000 7.2 180 19:37 07.02.2020
3103 Clouds 29 1010 79 10000 7.2 180 19:18 07.02.2020
3104 Clouds 29 1011 79 10000 5.1 150 18:44 07.02.2020
3105 Clouds 29 1011 79 10000 5.1 150 18:44 07.02.2020
3106 Clouds 29 1011 79 10000 5.1 150 18:44 07.02.2020
3107 Clouds 29 1011 79 10000 5.1 150 18:25 07.02.2020
3108 Clouds 28 1011 83 10000 4.6 140 17:55 07.02.2020
3109 Clouds 28 1011 83 10000 4.6 140 17:37 07.02.2020
3110 Clouds 28 1011 83 10000 4.6 140 17:19 07.02.2020
3111 Clouds 27 1011 83 10000 5.1 160 16:43 07.02.2020
3112 Clouds 27 1011 83 10000 5.1 160 16:23 07.02.2020
3113 Clouds 26 1010 88 10000 4.1 170 15:54 07.02.2020
3114 Clouds 26 1010 88 10000 4.1 170 15:28 07.02.2020
3115 Clouds 26 1010 88 10000 4.1 170 15:28 07.02.2020
3116 Clouds 26 1009 88 10000 4.6 170 14:55 07.02.2020
3117 Clouds 26 1009 88 10000 4.6 170 14:37 07.02.2020
3118 Clouds 26 1009 88 10000 4.6 170 14:19 07.02.2020
3119 Clouds 25 1009 94 10000 5.1 160 13:56 07.02.2020
3120 Clouds 25 1009 94 10000 5.1 160 13:38 07.02.2020
3121 Clouds 25 1009 94 10000 5.1 160 13:18 07.02.2020
3122 Rain 26 1011 85 0 6.83 159 12:41 07.02.2020
3123 Rain 26 1011 85 0 6.83 159 12:23 07.02.2020
3124 Rain 26 1011 85 0 6.83 159 11:45 07.02.2020
3125 Rain 26 1011 85 0 6.83 159 11:22 07.02.2020
3126 Rain 26 1010 85 0 5.94 162 10:58 07.02.2020
3127 Rain 26 1010 85 0 5.94 162 10:38 07.02.2020
3128 Rain 26 1010 85 0 5.94 162 10:19 07.02.2020
3129 Rain 26 1010 85 0 5.94 162 09:41 07.02.2020
3130 Rain 26 1010 85 0 5.94 162 09:22 07.02.2020
3131 Rain 26 1010 85 0 5.94 162 08:45 07.02.2020
3132 Rain 26 1009 84 0 5.95 163 08:21 07.02.2020
3133 Rain 26 1009 84 0 5.95 163 08:21 07.02.2020
3134 Clouds 26 1011 85 0 5.95 166 07:53 07.02.2020
3135 Clouds 26 1011 85 0 5.95 166 07:32 07.02.2020
3136 Clouds 26 1011 85 0 5.95 166 06:57 07.02.2020
3137 Clouds 26 1011 85 0 5.95 166 06:38 07.02.2020
3138 Clouds 26 1011 85 0 5.95 166 06:18 07.02.2020
3139 Clouds 26 1011 85 0 5.95 166 05:37 07.02.2020
3140 Clouds 26 1011 85 0 5.28 163 03:43 07.02.2020
3141 Rain 26 1007 94 10000 4.6 190 01:53 07.02.2020
3142 Rain 26 1006 94 10000 3.6 180 00:59 07.02.2020
3143 Rain 26 1006 94 10000 3.6 180 00:26 07.02.2020
3144 Rain 26 1009 85 0 6.44 159 23:38 06.02.2020
3145 Clouds 26 1009 86 0 6.07 160 23:19 06.02.2020
3146 Clouds 28 1007 83 10000 5.1 160 22:46 06.02.2020
3147 Clouds 28 1007 83 10000 5.1 160 22:26 06.02.2020
3148 Clouds 29 1008 79 10000 5.1 180 21:57 06.02.2020
3149 Clouds 29 1008 79 10000 5.1 180 21:36 06.02.2020
3150 Clouds 29 1008 79 10000 5.1 180 21:18 06.02.2020
3151 Clouds 29 1008 79 10000 5.1 170 20:54 06.02.2020
3152 Clouds 29 1008 79 10000 5.1 170 20:36 06.02.2020
3153 Clouds 29 1008 79 10000 5.1 170 20:18 06.02.2020
3154 Clouds 29 1009 79 10000 5.1 180 19:42 06.02.2020
3155 Clouds 29 1009 79 10000 5.1 180 19:23 06.02.2020
3156 Clouds 28 1010 83 10000 5.7 150 18:59 06.02.2020
3157 Clouds 28 1010 83 10000 5.7 150 18:40 06.02.2020
3158 Clouds 28 1010 83 10000 5.7 150 18:21 06.02.2020
3159 Rain 27 1010 88 10000 4.6 180 17:45 06.02.2020
3160 Rain 27 1010 88 10000 4.6 180 17:21 06.02.2020
3161 Rain 27 1010 88 10000 4.6 180 17:21 06.02.2020
3162 Rain 26 1010 94 10000 4.1 170 16:59 06.02.2020
3163 Rain 26 1010 94 10000 4.1 170 16:40 06.02.2020
3164 Rain 26 1010 94 10000 4.1 170 16:22 06.02.2020
3165 Rain 26 1009 88 10000 4.1 180 15:42 06.02.2020
3166 Rain 26 1009 88 10000 4.1 180 15:42 06.02.2020
3167 Rain 26 1009 88 10000 4.1 180 15:22 06.02.2020
3168 Drizzle 25 1009 94 8000 4.6 170 14:50 06.02.2020
3169 Drizzle 25 1009 94 8000 4.6 170 14:28 06.02.2020
3170 Drizzle 25 1008 94 8000 6.2 170 13:58 06.02.2020
3171 Drizzle 25 1008 94 8000 6.2 170 13:40 06.02.2020
3172 Drizzle 25 1008 94 8000 6.2 170 13:19 06.02.2020
3173 Rain 26 1010 85 0 5.19 167 12:44 06.02.2020
3174 Rain 26 1010 85 0 5.19 167 12:19 06.02.2020
3175 Rain 26 1010 85 0 5.19 167 11:57 06.02.2020
3176 Rain 26 1010 85 0 5.19 167 11:39 06.02.2020
3177 Clouds 26 1009 84 0 5.28 164 11:19 06.02.2020
3178 Clouds 26 1009 84 0 5.28 164 10:56 06.02.2020
3179 Clouds 26 1009 84 0 5.28 164 10:38 06.02.2020
3180 Clouds 26 1009 84 0 5.28 164 10:18 06.02.2020
3181 Clouds 26 1009 84 0 5.28 164 09:44 06.02.2020
3182 Clouds 26 1009 84 0 5.28 164 09:21 06.02.2020
3183 Clouds 26 1009 84 0 5.28 164 08:47 06.02.2020
3184 Clouds 26 1009 84 0 5.28 164 08:25 06.02.2020
3185 Clouds 26 1011 84 0 4.76 151 07:59 06.02.2020
3186 Clouds 26 1011 84 0 4.76 151 07:35 06.02.2020
3187 Clouds 26 1011 84 0 4.76 151 06:59 06.02.2020
3188 Clouds 26 1011 84 0 4.76 151 06:21 06.02.2020
3189 Clouds 26 1011 84 0 4.76 151 05:44 06.02.2020
3190 Clouds 26 1011 84 0 4.96 136 04:18 06.02.2020
3191 Clouds 26 1011 84 0 4.96 136 03:18 06.02.2020
3192 Clouds 27 1006 83 10000 5.1 170 02:20 06.02.2020
3193 Clouds 27 1006 83 10000 5.1 170 01:24 06.02.2020
3194 Clouds 28 1006 83 10000 5.7 160 00:41 06.02.2020
3195 Clouds 28 1006 83 10000 5.7 160 00:19 06.02.2020
3196 Clouds 29 1006 79 10000 6.7 160 23:42 05.02.2020
3197 Clouds 29 1006 79 10000 6.7 160 23:23 05.02.2020
3198 Clouds 29 1006 74 10000 6.7 160 22:54 05.02.2020
3199 Clouds 29 1006 74 10000 6.7 160 22:54 05.02.2020
3200 Clouds 29 1006 74 10000 6.7 160 22:36 05.02.2020
3201 Clouds 29 1006 74 10000 6.7 160 22:36 05.02.2020
3202 Clouds 29 1006 74 10000 6.7 160 22:18 05.02.2020
3203 Clouds 29 1007 74 10000 6.2 160 21:40 05.02.2020
3204 Clouds 29 1007 74 10000 6.2 160 21:22 05.02.2020
3205 Clouds 29 1008 74 10000 5.1 150 20:54 05.02.2020
3206 Clouds 29 1008 74 10000 5.1 150 20:36 05.02.2020
3207 Clouds 29 1008 74 10000 5.1 150 20:18 05.02.2020
3208 Clouds 29 1009 74 10000 6.2 180 19:54 05.02.2020
3209 Clouds 29 1009 74 10000 6.2 180 19:36 05.02.2020
3210 Clouds 29 1009 74 10000 6.2 180 19:18 05.02.2020
3211 Clouds 29 1010 74 10000 5.7 170 18:42 05.02.2020
3212 Clouds 29 1010 74 10000 5.7 170 18:20 05.02.2020
3213 Clouds 29 1010 79 10000 6.2 140 17:41 05.02.2020
3214 Clouds 29 1010 79 10000 6.2 140 17:20 05.02.2020
3215 Clouds 27 1010 88 10000 5.1 160 16:59 05.02.2020
3216 Clouds 27 1010 88 10000 5.1 160 16:41 05.02.2020
3217 Clouds 27 1010 88 10000 5.1 160 16:23 05.02.2020
3218 Clouds 26 1010 88 10000 4.6 150 15:56 05.02.2020
3219 Clouds 26 1010 88 10000 4.6 150 15:38 05.02.2020
3220 Clouds 26 1010 88 10000 4.6 150 15:18 05.02.2020
3221 Clouds 25 1009 94 10000 4.1 140 14:42 05.02.2020
3222 Clouds 25 1009 94 10000 4.1 140 14:23 05.02.2020
3223 Rain 24 1008 94 10000 4.6 150 13:57 05.02.2020
3224 Rain 24 1008 94 10000 4.6 150 13:38 05.02.2020
3225 Rain 24 1008 94 10000 4.6 150 13:19 05.02.2020
3226 Clouds 26 1011 86 0 3.74 135 12:39 05.02.2020
3227 Clouds 26 1011 86 0 3.74 135 12:21 05.02.2020
3228 Clouds 26 1011 86 0 3.74 135 11:41 05.02.2020
3229 Clouds 26 1011 86 0 3.74 135 11:23 05.02.2020
3230 Clouds 26 1010 88 0 4.08 116 10:59 05.02.2020
3231 Clouds 26 1010 88 0 4.08 116 10:39 05.02.2020
3232 Clouds 26 1010 88 0 4.08 116 10:19 05.02.2020
3233 Clouds 26 1010 88 0 4.08 116 09:43 05.02.2020
3234 Clouds 26 1010 88 0 4.08 116 09:22 05.02.2020
3235 Clouds 26 1010 88 0 4.08 116 08:57 05.02.2020
3236 Clouds 26 1010 88 0 4.08 116 08:39 05.02.2020
3237 Clouds 26 1012 88 0 4.41 115 08:21 05.02.2020
3238 Clouds 26 1012 88 0 4.41 115 07:43 05.02.2020
3239 Clouds 26 1012 88 0 4.41 115 07:19 05.02.2020
3240 Clouds 26 1012 88 0 4.41 115 06:40 05.02.2020
3241 Clouds 26 1012 88 0 4.41 115 06:21 05.02.2020
3242 Clouds 26 1012 88 0 4.41 115 05:47 05.02.2020
3243 Clouds 26 1012 88 0 4.11 118 05:18 05.02.2020
3244 Clouds 26 1012 88 0 4.11 118 04:27 05.02.2020
3245 Clouds 26 1012 88 0 4.11 118 02:53 05.02.2020
3246 Clouds 28 1008 78 10000 4.6 150 02:22 05.02.2020
3247 Clouds 28 1008 78 10000 4.6 150 01:29 05.02.2020
3248 Clouds 28 1008 78 10000 4.6 150 00:24 05.02.2020
3249 Clouds 29 1008 79 10000 6.7 150 23:40 04.02.2020
3250 Clouds 29 1008 79 10000 6.7 150 23:21 04.02.2020
3251 Clouds 30 1007 74 10000 6.7 160 22:57 04.02.2020
3252 Clouds 30 1007 74 10000 6.7 160 22:57 04.02.2020
3253 Clouds 30 1007 74 10000 6.7 160 22:39 04.02.2020
3254 Clouds 30 1007 74 10000 6.7 160 22:20 04.02.2020
3255 Clouds 30 1008 70 10000 5.1 150 21:55 04.02.2020
3256 Clouds 30 1008 70 10000 5.1 150 21:55 04.02.2020
3257 Clouds 30 1008 70 10000 5.1 150 21:37 04.02.2020
3258 Clouds 30 1008 70 10000 5.1 150 21:18 04.02.2020
3259 Clouds 30 1009 70 10000 7.2 170 20:44 04.02.2020
3260 Clouds 30 1009 70 10000 7.2 170 20:44 04.02.2020
3261 Clouds 30 1009 70 10000 7.2 170 20:22 04.02.2020
3262 Clouds 29 1011 74 10000 6.7 180 19:59 04.02.2020
3263 Clouds 29 1011 74 10000 6.7 180 19:41 04.02.2020
3264 Clouds 29 1011 74 10000 6.7 180 19:22 04.02.2020
3265 Clouds 28 1011 78 10000 5.1 130 18:57 04.02.2020
3266 Clouds 28 1011 78 10000 5.1 130 18:38 04.02.2020
3267 Clouds 28 1011 78 10000 5.1 130 18:19 04.02.2020
3268 Clouds 28 1011 78 10000 5.1 130 18:19 04.02.2020
3269 Clouds 28 1011 78 10000 5.7 150 17:43 04.02.2020
3270 Clouds 28 1011 78 10000 5.7 150 17:22 04.02.2020
3271 Clouds 28 1011 83 10000 5.7 150 16:59 04.02.2020
3272 Clouds 28 1011 83 10000 5.7 150 16:38 04.02.2020
3273 Clouds 28 1011 83 10000 5.7 150 16:20 04.02.2020
3274 Clouds 27 1011 83 10000 3.6 160 15:56 04.02.2020
3275 Clouds 27 1011 83 10000 3.6 160 15:38 04.02.2020
3276 Clouds 27 1011 83 10000 3.6 160 15:19 04.02.2020
3277 Clouds 26 1010 88 10000 3.6 160 14:44 04.02.2020
3278 Clouds 26 1010 88 10000 3.6 160 14:23 04.02.2020
3279 Clouds 25 1009 94 10000 3.1 160 13:58 04.02.2020
3280 Clouds 25 1009 94 10000 3.1 160 13:39 04.02.2020
3281 Clouds 25 1009 94 10000 3.1 160 13:20 04.02.2020
3282 Clouds 26 1012 86 0 3.94 152 12:44 04.02.2020
3283 Clouds 26 1012 86 0 3.94 152 12:26 04.02.2020
3284 Clouds 26 1012 86 0 3.94 152 11:58 04.02.2020
3285 Clouds 26 1012 86 0 3.94 152 11:39 04.02.2020
3286 Clear 26 1011 85 0 3.47 149 11:21 04.02.2020
3287 Clear 26 1011 85 0 3.47 149 10:55 04.02.2020
3288 Clear 26 1011 85 0 3.47 149 10:36 04.02.2020
3289 Clear 26 1011 85 0 3.47 149 10:36 04.02.2020
3290 Clear 26 1011 85 0 3.47 149 10:18 04.02.2020
3291 Clear 26 1011 85 0 3.47 149 09:40 04.02.2020
3292 Clear 26 1011 85 0 3.47 149 09:40 04.02.2020
3293 Clear 26 1011 85 0 3.47 149 09:22 04.02.2020
3294 Clear 26 1011 85 0 3.47 149 08:50 04.02.2020
3295 Clouds 26 1011 85 0 3.77 154 08:28 04.02.2020
3296 Clouds 26 1011 85 0 3.77 154 08:28 04.02.2020
3297 Clouds 26 1013 85 0 3.66 149 07:58 04.02.2020
3298 Clouds 26 1013 85 0 3.66 149 07:39 04.02.2020
3299 Clouds 26 1013 85 0 3.66 149 07:39 04.02.2020
3300 Clouds 26 1013 85 0 3.66 149 07:21 04.02.2020
3301 Clouds 26 1013 85 0 3.66 149 06:42 04.02.2020
3302 Clouds 26 1013 85 0 3.66 149 05:37 04.02.2020
3303 Clouds 26 1013 84 0 2.72 144 04:51 04.02.2020
3304 Clouds 26 1013 84 0 2.72 144 03:49 04.02.2020
3305 Clouds 26 1013 84 0 2.72 144 03:30 04.02.2020
3306 Clouds 26 1013 84 0 2.72 144 02:49 04.02.2020
3307 Clouds 27 1008 83 10000 5.1 180 02:28 04.02.2020
3308 Clouds 27 1008 83 10000 5.1 180 01:47 04.02.2020
3309 Clouds 27 1008 83 10000 5.1 180 01:19 04.02.2020
3310 Clouds 28 1008 78 10000 4.6 170 00:25 04.02.2020
3311 Clouds 28 1008 78 10000 6.2 170 23:55 03.02.2020
3312 Clouds 28 1008 78 10000 6.2 170 23:37 03.02.2020
3313 Clouds 28 1008 78 10000 6.2 170 23:18 03.02.2020
3314 Clouds 29 1008 74 10000 7.7 170 22:38 03.02.2020
3315 Clouds 29 1008 74 10000 7.7 170 22:19 03.02.2020
3316 Clouds 29 1010 74 10000 5.1 140 21:42 03.02.2020
3317 Clouds 29 1010 74 10000 5.1 140 21:20 03.02.2020
3318 Clouds 28 1011 78 10000 5.7 150 20:56 03.02.2020
3319 Clouds 28 1011 78 10000 5.7 150 20:38 03.02.2020
3320 Clouds 28 1011 78 10000 5.7 150 20:38 03.02.2020
3321 Clouds 28 1011 78 10000 5.7 150 20:18 03.02.2020
3322 Clouds 28 1012 78 10000 5.7 150 19:42 03.02.2020
3323 Clouds 28 1012 78 10000 5.7 150 19:23 03.02.2020
3324 Clouds 28 1012 78 10000 6.2 150 18:58 03.02.2020
3325 Clouds 28 1012 78 10000 6.2 150 18:39 03.02.2020
3326 Clouds 28 1012 78 10000 6.2 150 18:21 03.02.2020
3327 Clouds 28 1011 83 10000 4.6 150 17:57 03.02.2020
3328 Clouds 28 1011 83 10000 4.6 150 17:38 03.02.2020
3329 Clouds 28 1011 83 10000 4.6 150 17:19 03.02.2020
3330 Clouds 27 1012 83 10000 5.7 130 16:40 03.02.2020
3331 Clouds 27 1012 83 10000 5.7 130 16:21 03.02.2020
3332 Clouds 26 1011 88 10000 5.1 140 15:56 03.02.2020
3333 Clouds 26 1011 88 10000 5.1 140 15:56 03.02.2020
3334 Clouds 26 1011 88 10000 5.1 140 15:38 03.02.2020
3335 Clouds 26 1011 88 10000 5.1 140 15:19 03.02.2020
3336 Clouds 25 1010 94 10000 4.6 160 14:45 03.02.2020
3337 Clouds 25 1010 94 10000 4.6 160 14:45 03.02.2020
3338 Clouds 25 1010 94 10000 4.6 160 14:27 03.02.2020
3339 Clouds 25 1009 94 10000 3.1 150 13:59 03.02.2020
3340 Clouds 25 1009 94 10000 3.1 150 13:41 03.02.2020
3341 Clouds 25 1009 94 10000 3.1 150 13:20 03.02.2020
3342 Clouds 26 1012 81 0 4.72 143 12:56 03.02.2020
3343 Clouds 26 1012 81 0 4.72 143 12:37 03.02.2020
3344 Clouds 26 1012 81 0 4.72 143 12:19 03.02.2020
3345 Clouds 26 1012 81 0 4.72 143 11:40 03.02.2020
3346 Clouds 26 1011 81 0 4.47 149 11:20 03.02.2020
3347 Clouds 26 1011 81 0 4.47 149 11:20 03.02.2020
3348 Clouds 26 1011 81 0 4.47 149 11:20 03.02.2020
3349 Clouds 26 1011 81 0 4.47 149 10:58 03.02.2020
3350 Clouds 26 1011 81 0 4.47 149 10:39 03.02.2020
3351 Clouds 26 1011 81 0 4.47 149 10:20 03.02.2020
3352 Clouds 26 1011 81 0 4.47 149 09:41 03.02.2020
3353 Clouds 26 1011 81 0 4.47 149 09:20 03.02.2020
3354 Clouds 26 1011 81 0 4.47 149 08:41 03.02.2020
3355 Clouds 26 1010 80 0 4.79 147 08:23 03.02.2020
3356 Clouds 26 1012 82 0 4.82 150 07:57 03.02.2020
3357 Clouds 26 1012 82 0 4.82 150 07:39 03.02.2020
3358 Clouds 26 1012 82 0 4.82 150 07:20 03.02.2020
3359 Clouds 26 1012 82 0 4.82 150 06:42 03.02.2020
3360 Clouds 26 1012 82 0 4.82 150 06:24 03.02.2020
3361 Clouds 26 1012 82 0 4.82 150 05:35 03.02.2020
3362 Clouds 26 1012 82 0 3.89 153 04:50 03.02.2020
3363 Clouds 26 1012 82 0 3.89 153 02:58 03.02.2020
3364 Clouds 26 1012 82 0 3.89 153 02:32 03.02.2020
3365 Clouds 26 1008 88 10000 3.1 160 00:55 03.02.2020
3366 Clouds 26 1008 88 10000 3.1 160 00:36 03.02.2020
3367 Clouds 26 1008 88 10000 3.1 160 00:18 03.02.2020
3368 Rain 26 1008 88 10000 2.1 100 23:37 02.02.2020
3369 Rain 26 1008 88 10000 2.1 100 23:18 02.02.2020
3370 Drizzle 25 1008 100 5000 2.6 100 22:40 02.02.2020
3371 Drizzle 25 1008 100 5000 2.6 100 22:22 02.02.2020
3372 Clouds 26 1010 81 0 5.24 159 21:58 02.02.2020
3373 Drizzle 26 1009 94 4000 4.1 160 21:39 02.02.2020
3374 Drizzle 26 1009 94 4000 4.1 160 21:20 02.02.2020
3375 Clouds 26 1010 81 0 5.24 159 20:57 02.02.2020
3376 Rain 28 1010 78 10000 5.1 170 20:39 02.02.2020
3377 Rain 28 1010 78 10000 5.1 170 20:20 02.02.2020
3378 Clouds 30 1010 70 10000 6.7 160 19:57 02.02.2020
3379 Clouds 30 1010 70 10000 6.7 160 19:39 02.02.2020
3380 Clouds 30 1010 70 10000 6.7 160 19:21 02.02.2020
3381 Clouds 29 1011 74 10000 3.6 160 18:56 02.02.2020
3382 Clouds 29 1011 74 10000 3.6 160 18:37 02.02.2020
3383 Clouds 29 1011 74 10000 3.6 160 18:19 02.02.2020
3384 Clouds 27 1011 83 10000 2.6 300 17:57 02.02.2020
3385 Clouds 27 1011 83 10000 2.6 300 17:37 02.02.2020
3386 Clouds 27 1011 83 10000 2.6 300 17:18 02.02.2020
3387 Clouds 27 1011 83 10000 2.1 330 16:56 02.02.2020
3388 Clouds 27 1011 83 10000 2.1 330 16:37 02.02.2020
3389 Clouds 27 1011 83 10000 2.1 330 16:18 02.02.2020
3390 Clouds 27 1011 83 10000 2.1 140 15:54 02.02.2020
3391 Clouds 27 1011 83 10000 2.1 140 15:36 02.02.2020
3392 Clouds 27 1011 83 10000 2.1 140 15:18 02.02.2020
3393 Clouds 25 1010 88 10000 3.1 100 14:41 02.02.2020
3394 Clouds 25 1010 88 10000 3.1 100 14:19 02.02.2020
3395 Clouds 25 1012 85 0 3.93 132 13:58 02.02.2020
3396 Clouds 25 1012 85 0 3.93 132 13:39 02.02.2020
3397 Clear 25 1012 84 0 3.53 126 13:20 02.02.2020
3398 Clear 25 1012 84 0 3.53 126 12:55 02.02.2020
3399 Clear 25 1012 84 0 3.53 126 12:36 02.02.2020
3400 Clear 25 1012 84 0 3.53 126 12:18 02.02.2020
3401 Clear 25 1012 84 0 3.53 126 11:41 02.02.2020
3402 Clear 25 1011 84 0 3.68 130 11:19 02.02.2020
3403 Clear 25 1011 84 0 3.68 130 10:56 02.02.2020
3404 Clear 25 1011 84 0 3.68 126 10:37 02.02.2020
3405 Clear 25 1011 84 0 3.68 126 10:19 02.02.2020
3406 Clear 25 1011 84 0 3.68 126 09:55 02.02.2020
3407 Clear 25 1011 84 0 3.68 130 09:37 02.02.2020
3408 Clear 25 1011 84 0 3.68 130 09:19 02.02.2020
3409 Clear 25 1011 84 0 3.68 130 08:43 02.02.2020
3410 Clear 25 1011 84 0 3.68 126 08:24 02.02.2020
3411 Clear 25 1011 84 0 3.68 130 08:24 02.02.2020
3412 Clear 25 1011 84 0 3.68 126 08:24 02.02.2020
3413 Clear 25 1013 83 0 3.72 122 07:46 02.02.2020
3414 Clear 25 1013 83 0 3.72 122 07:28 02.02.2020
3415 Clear 25 1013 83 0 3.72 122 06:43 02.02.2020
3416 Clear 25 1013 83 0 3.72 122 06:25 02.02.2020
3417 Clear 25 1013 83 0 3.72 122 05:47 02.02.2020
3418 Clear 25 1013 83 0 3.72 122 05:47 02.02.2020
3419 Clear 26 1013 82 0 3.68 126 04:47 02.02.2020
3420 Clear 26 1013 82 0 3.68 126 03:26 02.02.2020
3421 Clouds 28 1009 74 10000 4.6 120 02:31 02.02.2020
3422 Clouds 28 1009 74 10000 4.6 120 01:54 02.02.2020
3423 Clouds 28 1009 74 10000 4.6 120 01:22 02.02.2020
3424 Clouds 29 1008 70 10000 5.7 150 00:43 02.02.2020
3425 Clouds 29 1008 70 10000 5.7 150 00:22 02.02.2020
3426 Clouds 29 1008 70 10000 6.7 140 23:46 01.02.2020
3427 Clouds 29 1008 70 10000 6.7 140 23:21 01.02.2020
3428 Clouds 30 1008 66 10000 6.7 140 22:50 01.02.2020
3429 Clouds 30 1008 66 10000 6.7 140 22:19 01.02.2020
3430 Clouds 30 1009 66 10000 6.2 160 21:45 01.02.2020
3431 Clouds 30 1009 66 10000 6.2 160 21:20 01.02.2020
3432 Clouds 30 1009 66 10000 6.2 160 21:20 01.02.2020
3433 Clouds 30 1010 66 10000 6.7 170 20:58 01.02.2020
3434 Clouds 30 1010 66 10000 6.7 170 20:40 01.02.2020
3435 Clouds 30 1010 66 10000 6.7 170 20:20 01.02.2020
3436 Clouds 29 1011 70 10000 7.2 150 19:56 01.02.2020
3437 Clouds 29 1011 70 10000 7.2 150 19:38 01.02.2020
3438 Clouds 29 1011 70 10000 7.2 150 19:19 01.02.2020
3439 Clouds 29 1012 74 10000 4.6 160 18:57 01.02.2020
3440 Clouds 29 1012 74 10000 4.6 160 18:57 01.02.2020
3441 Clouds 29 1012 74 10000 4.6 160 18:38 01.02.2020
3442 Clouds 29 1012 74 10000 4.6 160 18:19 01.02.2020
3443 Clouds 29 1012 74 10000 5.1 160 17:55 01.02.2020
3444 Clouds 29 1012 74 10000 5.1 160 17:37 01.02.2020
3445 Clouds 29 1012 74 10000 5.1 160 17:19 01.02.2020
3446 Clouds 28 1012 78 10000 6.7 150 16:42 01.02.2020
3447 Clouds 28 1012 78 10000 6.7 150 16:23 01.02.2020
3448 Clouds 26 1011 88 10000 5.7 130 15:55 01.02.2020
3449 Clouds 26 1011 88 10000 5.7 130 15:37 01.02.2020
3450 Clouds 26 1011 88 10000 5.7 130 15:18 01.02.2020
3451 Clouds 25 1010 88 10000 3.6 140 14:40 01.02.2020
3452 Clouds 25 1010 88 10000 3.6 140 14:20 01.02.2020
3453 Clouds 24 1010 94 10000 2.6 140 13:45 01.02.2020
3454 Clouds 24 1010 94 10000 2.6 140 13:24 01.02.2020
3455 Clouds 24 1010 94 10000 2.6 140 13:24 01.02.2020
3456 Rain 25 1012 85 0 5.95 146 12:56 01.02.2020
3457 Rain 25 1012 85 0 5.95 146 12:38 01.02.2020
3458 Rain 25 1012 85 0 5.95 146 12:20 01.02.2020
3459 Rain 25 1012 85 0 5.95 146 11:39 01.02.2020
3460 Clouds 25 1011 86 0 4.71 146 11:20 01.02.2020
3461 Clouds 25 1011 86 0 4.71 146 11:20 01.02.2020
3462 Clouds 25 1011 86 0 4.71 146 10:57 01.02.2020
3463 Clouds 25 1011 86 0 4.71 146 10:38 01.02.2020
3464 Clouds 25 1011 86 0 4.71 146 10:20 01.02.2020
3465 Clouds 25 1011 86 0 4.71 146 09:58 01.02.2020
3466 Clouds 25 1011 86 0 4.71 146 09:39 01.02.2020
3467 Clouds 25 1011 86 0 4.71 146 09:20 01.02.2020
3468 Clouds 25 1011 86 0 4.71 146 08:45 01.02.2020
3469 Clouds 25 1013 87 0 5.07 147 07:49 01.02.2020
3470 Clouds 25 1013 87 0 5.07 147 07:26 01.02.2020
3471 Clouds 25 1013 87 0 5.07 147 06:55 01.02.2020
3472 Clouds 25 1013 87 0 5.07 147 06:55 01.02.2020
3473 Clouds 25 1013 87 0 5.07 147 06:32 01.02.2020
3474 Clouds 25 1013 87 0 5.07 147 05:51 01.02.2020
3475 Clouds 25 1013 87 0 3.85 141 03:48 01.02.2020
3476 Clouds 25 1013 87 0 3.85 141 03:21 01.02.2020
3477 Clouds 25 1013 87 0 3.85 141 02:44 01.02.2020
3478 Clouds 27 1009 78 10000 3.1 40 02:25 01.02.2020
3479 Clouds 27 1009 78 10000 3.1 40 01:50 01.02.2020
3480 Clouds 27 1009 78 10000 3.1 40 01:30 01.02.2020
3481 Clouds 28 1008 74 10000 5.1 160 00:29 01.02.2020
3482 Clouds 28 1008 74 10000 6.2 170 23:43 31.01.2020
3483 Clouds 28 1008 74 10000 6.2 170 23:20 31.01.2020
3484 Clouds 30 1008 66 10000 6.7 160 22:59 31.01.2020
3485 Clouds 30 1008 66 10000 6.7 160 22:40 31.01.2020
3486 Clouds 30 1008 66 10000 6.7 160 22:21 31.01.2020
3487 Clouds 30 1009 66 10000 6.7 170 21:56 31.01.2020
3488 Clouds 30 1009 66 10000 6.7 170 21:37 31.01.2020
3489 Clouds 30 1009 66 10000 6.7 170 21:37 31.01.2020
3490 Clouds 30 1009 66 10000 6.7 170 21:19 31.01.2020
3491 Clouds 29 1009 74 10000 5.7 140 20:56 31.01.2020
3492 Clouds 29 1009 74 10000 5.7 140 20:37 31.01.2020
3493 Clouds 28 1011 78 10000 6.2 160 20:18 31.01.2020
3494 Clouds 28 1011 78 10000 6.2 160 19:55 31.01.2020
3495 Clouds 28 1011 78 10000 6.2 160 19:36 31.01.2020
3496 Clouds 28 1011 78 10000 6.2 160 19:18 31.01.2020
3497 Clouds 28 1010 78 10000 5.1 190 18:39 31.01.2020
3498 Clouds 28 1010 78 10000 5.1 190 18:21 31.01.2020
3499 Clouds 28 1011 78 10000 4.6 190 17:46 31.01.2020
3500 Clouds 28 1011 78 10000 4.6 190 17:46 31.01.2020
3501 Clouds 28 1011 78 10000 4.6 190 17:28 31.01.2020
3502 Clouds 27 1011 83 10000 5.7 170 16:58 31.01.2020
3503 Clouds 27 1011 83 10000 5.7 170 16:38 31.01.2020
3504 Clouds 27 1011 83 10000 5.7 170 16:19 31.01.2020
3505 Clouds 26 1010 88 10000 3.1 170 15:58 31.01.2020
3506 Clouds 26 1010 88 10000 3.1 170 15:40 31.01.2020
3507 Clouds 26 1010 88 10000 3.1 170 15:20 31.01.2020
3508 Clouds 25 1009 94 10000 4.6 160 14:44 31.01.2020
3509 Clouds 25 1009 94 10000 4.6 160 14:24 31.01.2020
3510 Clouds 25 1009 94 10000 2.1 170 13:56 31.01.2020
3511 Clouds 25 1009 94 10000 2.1 170 13:37 31.01.2020
3512 Clouds 25 1009 94 10000 2.1 170 13:18 31.01.2020
3513 Rain 25 1012 88 0 2.17 200 12:43 31.01.2020
3514 Rain 25 1012 88 0 3.25 201 12:23 31.01.2020
3515 Rain 25 1012 88 0 3.25 201 11:46 31.01.2020
3516 Rain 25 1012 88 0 2.17 200 11:26 31.01.2020
3517 Rain 25 1011 88 0 2.74 211 10:59 31.01.2020
3518 Rain 25 1011 88 0 1.57 205 10:41 31.01.2020
3519 Rain 25 1011 88 0 1.57 205 10:21 31.01.2020
3520 Rain 25 1011 88 0 2.74 211 09:57 31.01.2020
3521 Rain 25 1011 88 0 2.74 211 09:38 31.01.2020
3522 Rain 25 1011 88 0 2.74 211 09:19 31.01.2020
3523 Rain 25 1011 88 0 1.57 205 08:50 31.01.2020
3524 Rain 25 1011 88 0 1.57 205 08:50 31.01.2020
3525 Rain 25 1011 88 0 1.57 205 08:50 31.01.2020
3526 Rain 25 1011 88 0 2.74 211 08:25 31.01.2020
3527 Clouds 25 1013 89 0 2.46 191 07:53 31.01.2020
3528 Clouds 25 1013 89 0 2.46 191 07:24 31.01.2020
3529 Clouds 25 1013 89 0 2.46 191 06:43 31.01.2020
3530 Clouds 25 1013 89 0 2.46 191 06:18 31.01.2020
3531 Clouds 25 1013 89 0 2.46 191 05:43 31.01.2020
3532 Clouds 25 1012 89 0 3.3 206 04:54 31.01.2020
3533 Clouds 25 1012 89 0 3.3 206 02:58 31.01.2020
3534 Clouds 27 1008 83 10000 4.1 160 01:33 31.01.2020
3535 Clouds 28 1008 78 10000 4.6 160 00:44 31.01.2020
3536 Clouds 28 1008 78 10000 4.6 160 00:25 31.01.2020
3537 Clouds 28 1008 78 10000 6.2 160 23:53 30.01.2020
3538 Clouds 28 1008 78 10000 6.2 160 23:24 30.01.2020
3539 Clouds 29 1008 74 10000 5.1 160 22:56 30.01.2020
3540 Clouds 29 1008 74 10000 5.1 160 22:36 30.01.2020
3541 Clouds 29 1008 74 10000 5.1 160 22:18 30.01.2020
3542 Clouds 29 1008 74 10000 5.1 170 21:43 30.01.2020
3543 Clouds 29 1008 74 10000 5.1 170 21:20 30.01.2020
3544 Clouds 29 1009 74 10000 6.2 140 20:59 30.01.2020
3545 Clouds 29 1009 74 10000 6.2 140 20:39 30.01.2020
3546 Clouds 29 1009 74 10000 6.2 140 20:21 30.01.2020
3547 Clouds 29 1011 74 10000 4.6 170 19:55 30.01.2020
3548 Clouds 29 1011 74 10000 4.6 170 19:36 30.01.2020
3549 Clouds 29 1011 74 10000 4.6 170 19:18 30.01.2020
3550 Clouds 29 1011 74 10000 4.6 170 19:18 30.01.2020
3551 Clouds 28 1011 78 10000 4.1 210 18:39 30.01.2020
3552 Clouds 28 1011 78 10000 4.1 210 18:19 30.01.2020
3553 Clouds 28 1012 78 10000 6.2 270 17:55 30.01.2020
3554 Clouds 28 1012 78 10000 6.2 270 17:36 30.01.2020
3555 Clouds 28 1012 78 10000 6.2 270 17:18 30.01.2020
3556 Clouds 27 1011 83 10000 4.1 210 16:41 30.01.2020
3557 Clouds 27 1011 83 10000 4.1 210 16:21 30.01.2020
3558 Clouds 26 1011 88 10000 4.6 200 15:58 30.01.2020
3559 Clouds 26 1011 88 10000 4.6 200 15:40 30.01.2020
3560 Clouds 26 1011 88 10000 4.6 200 15:19 30.01.2020
3561 Clouds 25 1010 94 10000 2.1 180 14:43 30.01.2020
3562 Clouds 25 1010 94 10000 2.1 180 14:25 30.01.2020
3563 Rain 24 1010 100 10000 2.6 190 13:43 30.01.2020
3564 Rain 24 1010 100 10000 2.6 190 13:24 30.01.2020
3565 Rain 25 1012 88 0 3.64 178 12:57 30.01.2020
3566 Rain 25 1012 88 0 3.64 178 12:38 30.01.2020
3567 Rain 25 1012 88 0 3.64 178 12:38 30.01.2020
3568 Rain 25 1012 88 0 3.64 178 12:20 30.01.2020
3569 Rain 25 1012 88 0 3.64 178 11:41 30.01.2020
3570 Rain 25 1012 88 0 3.64 178 11:23 30.01.2020
3571 Clear 25 1010 88 0 4.06 166 10:59 30.01.2020
3572 Clear 25 1010 88 0 4.06 166 10:40 30.01.2020
3573 Clear 25 1010 88 0 4.06 166 10:21 30.01.2020
3574 Clear 25 1010 88 0 4.06 166 09:46 30.01.2020
3575 Clear 25 1010 88 0 4.06 166 09:27 30.01.2020
3576 Clear 25 1010 88 0 4.06 166 08:55 30.01.2020
3577 Clear 25 1010 88 0 4.06 166 08:36 30.01.2020
3578 Rain 25 1013 89 0 2.9 164 08:18 30.01.2020
3579 Rain 25 1013 89 0 2.9 164 07:44 30.01.2020
3580 Rain 25 1013 89 0 2.9 164 07:19 30.01.2020
3581 Rain 25 1013 89 0 2.9 164 06:45 30.01.2020
3582 Rain 25 1013 89 0 2.9 164 06:26 30.01.2020
3583 Rain 25 1013 89 0 2.9 164 05:39 30.01.2020
3584 Rain 25 1012 87 0 3.65 170 05:19 30.01.2020
3585 Rain 25 1012 87 0 3.65 170 03:48 30.01.2020
3586 Rain 25 1012 87 0 3.65 170 03:24 30.01.2020
3587 Clouds 26 1008 83 10000 5.1 180 01:35 30.01.2020
3588 Clouds 27 1008 83 10000 4.1 200 00:37 30.01.2020
3589 Clouds 27 1008 83 10000 4.1 200 00:18 30.01.2020
3590 Clouds 28 1008 78 10000 4.6 190 23:43 29.01.2020
3591 Clouds 28 1008 78 10000 4.6 190 23:20 29.01.2020
3592 Clouds 28 1008 78 10000 6.2 190 22:56 29.01.2020
3593 Clouds 28 1008 78 10000 6.2 190 22:56 29.01.2020
3594 Clouds 28 1008 78 10000 6.2 190 22:37 29.01.2020
3595 Clouds 28 1008 78 10000 6.2 190 22:18 29.01.2020
3596 Clouds 29 1009 74 10000 5.7 190 21:55 29.01.2020
3597 Clouds 29 1009 74 10000 5.7 190 21:36 29.01.2020
3598 Clouds 29 1009 74 10000 5.7 190 21:18 29.01.2020
3599 Clouds 29 1009 74 10000 5.7 190 21:18 29.01.2020
3600 Clouds 29 1010 74 10000 5.1 180 20:41 29.01.2020
3601 Clouds 29 1010 74 10000 5.1 180 20:22 29.01.2020
3602 Clouds 29 1010 74 10000 5.1 180 20:22 29.01.2020
3603 Clouds 29 1011 74 10000 4.6 190 19:58 29.01.2020
3604 Clouds 29 1011 74 10000 4.6 190 19:38 29.01.2020
3605 Clouds 29 1011 74 10000 4.6 190 19:20 29.01.2020
3606 Clouds 28 1012 78 10000 4.1 200 18:58 29.01.2020
3607 Clouds 28 1012 78 10000 4.1 200 18:38 29.01.2020
3608 Clouds 28 1012 78 10000 4.1 200 18:18 29.01.2020
3609 Clouds 27 1012 83 10000 5.1 190 17:41 29.01.2020
3610 Clouds 27 1012 83 10000 5.1 190 17:22 29.01.2020
3611 Clouds 26 1013 88 10000 4.1 160 16:54 29.01.2020
3612 Clouds 26 1013 88 10000 4.1 160 16:36 29.01.2020
3613 Clouds 26 1013 88 10000 4.1 160 16:18 29.01.2020
3614 Clouds 26 1012 88 10000 3.6 170 15:39 29.01.2020
3615 Clouds 26 1012 88 10000 3.6 170 15:20 29.01.2020
3616 Clouds 25 1012 94 10000 3.1 180 14:46 29.01.2020
3617 Clouds 25 1012 94 10000 3.1 180 14:23 29.01.2020
3618 Rain 25 1011 94 10000 2.6 180 13:57 29.01.2020
3619 Rain 25 1011 94 10000 2.6 180 13:39 29.01.2020
3620 Rain 25 1011 94 10000 2.6 180 13:20 29.01.2020
3621 Rain 25 1013 87 0 5.6 181 12:56 29.01.2020
3622 Rain 25 1013 87 0 5.6 181 12:37 29.01.2020
3623 Rain 25 1013 87 0 5.6 181 12:19 29.01.2020
3624 Rain 25 1013 87 0 5.6 181 11:45 29.01.2020
3625 Rain 25 1013 87 0 5.6 181 11:22 29.01.2020
3626 Rain 25 1011 87 0 5.12 203 10:47 29.01.2020
3627 Rain 25 1011 87 0 5.12 203 10:28 29.01.2020
3628 Rain 25 1011 87 0 5.12 203 09:59 29.01.2020
3629 Rain 25 1011 87 0 5.12 203 09:40 29.01.2020
3630 Rain 25 1011 87 0 5.12 203 09:20 29.01.2020
3631 Rain 25 1011 87 0 5.12 203 08:56 29.01.2020
3632 Rain 25 1011 87 0 5.12 203 08:38 29.01.2020
3633 Clouds 25 1013 87 0 4.8 207 08:18 29.01.2020
3634 Clouds 25 1013 87 0 4.8 207 07:43 29.01.2020
3635 Clouds 25 1013 87 0 4.8 207 07:23 29.01.2020
3636 Clouds 25 1013 87 0 4.8 207 07:23 29.01.2020
3637 Clouds 25 1013 87 0 4.8 207 06:38 29.01.2020
3638 Clouds 25 1013 87 0 4.8 207 06:20 29.01.2020
3639 Clouds 25 1013 87 0 4.8 207 05:54 29.01.2020
3640 Clouds 25 1013 87 0 4.8 207 05:35 29.01.2020
3641 Clouds 25 1013 87 0 4.33 207 04:39 29.01.2020
3642 Clouds 25 1013 87 0 4.33 207 03:59 29.01.2020
3643 Clouds 25 1013 87 0 4.33 207 02:39 29.01.2020
3644 Clouds 26 1009 83 10000 4.6 150 01:34 29.01.2020
3645 Clouds 27 1009 78 10000 5.1 160 00:39 29.01.2020
3646 Clouds 27 1009 78 10000 5.1 160 00:21 29.01.2020
3647 Clouds 28 1009 74 10000 6.2 150 23:41 28.01.2020
3648 Clouds 28 1009 74 10000 6.2 150 23:20 28.01.2020
3649 Clouds 28 1009 74 10000 4.1 180 22:56 28.01.2020
3650 Clouds 28 1009 74 10000 4.1 180 22:56 28.01.2020
3651 Clouds 28 1009 74 10000 4.1 180 22:36 28.01.2020
3652 Clouds 28 1009 74 10000 4.1 180 22:18 28.01.2020
3653 Clouds 28 1009 74 10000 4.1 180 22:18 28.01.2020
3654 Clouds 29 1010 74 10000 4.6 180 21:39 28.01.2020
3655 Clouds 29 1010 74 10000 4.6 180 21:20 28.01.2020
3656 Clouds 29 1011 74 10000 4.6 170 20:46 28.01.2020
3657 Clouds 29 1011 74 10000 4.6 170 20:27 28.01.2020
3658 Clouds 28 1012 78 10000 4.1 180 19:58 28.01.2020
3659 Clouds 28 1012 78 10000 4.1 180 19:38 28.01.2020
3660 Clouds 28 1012 78 10000 4.1 180 19:19 28.01.2020
3661 Clouds 27 1013 78 10000 3.6 190 18:54 28.01.2020
3662 Clouds 27 1013 78 10000 3.6 190 18:36 28.01.2020
3663 Clouds 27 1013 78 10000 3.6 190 18:18 28.01.2020
3664 Clouds 27 1013 78 10000 4.1 190 17:54 28.01.2020
3665 Clouds 27 1013 78 10000 4.1 190 17:36 28.01.2020
3666 Clouds 27 1013 78 10000 4.1 190 17:18 28.01.2020
3667 Clouds 27 1013 78 10000 3.1 240 16:41 28.01.2020
3668 Clouds 27 1013 78 10000 3.1 240 16:22 28.01.2020
3669 Clouds 26 1012 83 10000 3.6 180 15:55 28.01.2020
3670 Clouds 26 1012 83 10000 3.6 180 15:37 28.01.2020
3671 Clouds 26 1012 83 10000 3.6 180 15:18 28.01.2020
3672 Clouds 25 1012 88 10000 3.1 190 14:43 28.01.2020
3673 Clouds 25 1012 88 10000 3.1 190 14:19 28.01.2020
3674 Clouds 24 1011 88 10000 3.1 190 13:42 28.01.2020
3675 Clouds 24 1011 88 10000 3.1 190 13:24 28.01.2020
3676 Rain 24 1013 86 0 3.2 222 12:45 28.01.2020
3677 Rain 24 1013 86 0 3.2 222 12:25 28.01.2020
3678 Rain 24 1013 86 0 3.2 222 11:59 28.01.2020
3679 Rain 24 1013 86 0 3.2 222 11:40 28.01.2020
3680 Rain 25 1012 86 0 3.29 225 11:21 28.01.2020
3681 Rain 25 1012 86 0 3.29 225 10:43 28.01.2020
3682 Rain 25 1012 86 0 3.29 225 10:24 28.01.2020
3683 Rain 25 1012 86 0 3.29 225 09:59 28.01.2020
3684 Rain 25 1012 86 0 3.29 225 09:39 28.01.2020
3685 Rain 25 1012 86 0 3.29 225 09:20 28.01.2020
3686 Rain 25 1012 86 0 3.29 225 08:44 28.01.2020
3687 Rain 25 1012 86 0 3.29 225 08:25 28.01.2020
3688 Clouds 25 1014 86 0 3.72 240 07:43 28.01.2020
3689 Clouds 25 1014 86 0 3.72 240 07:23 28.01.2020
3690 Clouds 25 1014 86 0 3.72 240 06:44 28.01.2020
3691 Clouds 25 1014 86 0 3.72 240 06:23 28.01.2020
3692 Clouds 25 1014 86 0 3.72 240 05:35 28.01.2020
3693 Rain 25 1015 86 0 3.12 230 04:41 28.01.2020
3694 Rain 25 1015 86 0 3.12 230 03:41 28.01.2020
3695 Rain 25 1015 86 0 3.12 230 02:43 28.01.2020
3696 Clouds 26 1011 88 10000 4.1 220 02:24 28.01.2020
3697 Clouds 26 1011 88 10000 4.1 220 01:50 28.01.2020
3698 Clouds 27 1011 83 10000 4.6 240 00:51 28.01.2020
3699 Clouds 27 1011 83 10000 4.6 240 00:30 28.01.2020
3700 Clouds 28 1011 78 10000 5.1 240 23:59 27.01.2020
3701 Clouds 28 1011 78 10000 5.1 240 23:41 27.01.2020
3702 Clouds 28 1011 78 10000 5.1 240 23:18 27.01.2020
3703 Clouds 28 1011 78 10000 4.1 220 22:44 27.01.2020
3704 Clouds 28 1011 78 10000 4.1 220 22:20 27.01.2020
3705 Clouds 28 1012 78 10000 5.1 220 21:57 27.01.2020
3706 Clouds 28 1012 78 10000 5.1 220 21:38 27.01.2020
3707 Clouds 28 1012 78 10000 5.1 220 21:18 27.01.2020
3708 Clouds 28 1012 78 10000 4.1 240 20:55 27.01.2020
3709 Clouds 28 1012 78 10000 4.1 240 20:37 27.01.2020
3710 Clouds 28 1012 78 10000 4.1 240 20:18 27.01.2020
3711 Clouds 28 1013 78 10000 4.1 220 19:41 27.01.2020
3712 Clouds 28 1013 78 10000 4.1 220 19:23 27.01.2020
3713 Clouds 28 1013 78 10000 4.6 210 18:56 27.01.2020
3714 Clouds 28 1013 78 10000 4.6 210 18:38 27.01.2020
3715 Clouds 28 1013 78 10000 4.6 210 18:20 27.01.2020
3716 Clouds 25 1015 79 0 2.87 226 17:40 27.01.2020
3717 Clouds 27 1014 83 10000 3.6 200 17:21 27.01.2020
3718 Clouds 27 1014 83 10000 3.6 200 16:59 27.01.2020
3719 Clouds 27 1014 83 10000 3.6 200 16:41 27.01.2020
3720 Clouds 27 1014 83 10000 3.6 200 16:23 27.01.2020
3721 Clouds 25 1013 94 10000 3.1 200 15:55 27.01.2020
3722 Clouds 25 1013 94 10000 3.1 200 15:37 27.01.2020
3723 Clouds 25 1013 94 10000 3.1 200 15:37 27.01.2020
3724 Clouds 25 1013 94 10000 3.1 200 15:18 27.01.2020
3725 Clouds 25 1012 94 10000 2.6 210 14:42 27.01.2020
3726 Clouds 25 1012 94 10000 2.6 210 14:22 27.01.2020
3727 Rain 24 1011 100 10000 3.1 170 13:58 27.01.2020
3728 Rain 24 1011 100 10000 3.1 170 13:39 27.01.2020
3729 Rain 24 1011 100 10000 3.1 170 13:19 27.01.2020
3730 Clouds 25 1013 81 0 3.62 239 12:45 27.01.2020
3731 Clouds 25 1013 81 0 3.62 239 12:23 27.01.2020
3732 Clouds 25 1013 81 0 3.62 239 11:58 27.01.2020
3733 Clouds 25 1013 81 0 3.62 239 11:40 27.01.2020
3734 Rain 24 1013 84 0 4.09 235 11:20 27.01.2020
3735 Rain 24 1013 84 0 4.09 235 10:43 27.01.2020
3736 Rain 24 1013 84 0 4.09 235 10:24 27.01.2020
3737 Rain 24 1013 84 0 4.09 235 09:54 27.01.2020
3738 Rain 24 1013 84 0 4.09 235 09:36 27.01.2020
3739 Rain 24 1013 84 0 4.09 235 09:18 27.01.2020
3740 Rain 24 1013 84 0 4.09 235 08:42 27.01.2020
3741 Rain 24 1015 88 0 5.28 245 08:20 27.01.2020
3742 Rain 25 1015 85 0 4.67 247 07:53 27.01.2020
3743 Rain 25 1015 85 0 4.67 247 07:33 27.01.2020
3744 Rain 25 1015 85 0 4.67 247 06:52 27.01.2020
3745 Rain 25 1015 85 0 4.67 247 06:24 27.01.2020
3746 Rain 25 1015 85 0 4.67 247 05:22 27.01.2020
3747 Rain 25 1016 86 0 5.59 221 03:43 27.01.2020
3748 Rain 25 1016 86 0 5.59 221 02:32 27.01.2020
3749 Clouds 25 1011 94 10000 3.6 220 01:29 27.01.2020
3750 Clouds 25 1011 94 10000 4.1 210 00:43 27.01.2020
3751 Clouds 25 1011 94 10000 4.1 210 00:22 27.01.2020
3752 Rain 26 1011 88 10000 4.6 220 23:59 26.01.2020
3753 Rain 26 1011 88 10000 4.6 220 23:40 26.01.2020
3754 Rain 26 1011 88 10000 4.6 220 23:18 26.01.2020
3755 Rain 26 1011 88 10000 5.1 220 22:39 26.01.2020
3756 Rain 26 1011 88 10000 5.1 220 22:20 26.01.2020
3757 Drizzle 24 1012 100 5000 4.6 180 21:59 26.01.2020
3758 Drizzle 24 1012 100 5000 4.6 180 21:40 26.01.2020
3759 -273 0 0 0 0 0 21:22 26.01.2020
3760 Clouds 24 1013 89 0 6.14 198 20:58 26.01.2020
3761 Drizzle 25 1013 94 6000 4.6 170 20:39 26.01.2020
3762 Drizzle 25 1013 94 6000 4.6 170 20:19 26.01.2020
3763 Drizzle 25 1014 94 3000 4.6 180 19:59 26.01.2020
3764 Drizzle 25 1014 94 3000 4.6 180 19:59 26.01.2020
3765 Drizzle 25 1014 94 3000 4.6 180 19:59 26.01.2020
3766 Drizzle 25 1014 94 3000 4.6 180 19:39 26.01.2020
3767 Drizzle 25 1014 94 3000 4.6 180 19:21 26.01.2020
3768 Drizzle 25 1014 94 3000 5.1 190 18:56 26.01.2020
3769 Drizzle 25 1014 94 3000 5.1 190 18:38 26.01.2020
3770 Drizzle 25 1014 94 3000 5.1 190 18:20 26.01.2020
3771 Drizzle 25 1014 94 5000 6.7 220 17:55 26.01.2020
3772 Drizzle 25 1014 94 5000 6.7 220 17:37 26.01.2020
3773 Drizzle 25 1014 94 5000 6.7 220 17:18 26.01.2020
3774 Drizzle 26 1014 88 10000 3.6 190 16:56 26.01.2020
3775 Drizzle 26 1014 88 10000 3.6 190 16:38 26.01.2020
3776 Drizzle 26 1014 88 10000 3.6 190 16:18 26.01.2020
3777 Rain 24 1016 90 0 7.86 190 15:43 26.01.2020
3778 Rain 24 1016 90 0 7.86 190 15:21 26.01.2020
3779 Rain 24 1016 90 0 7.86 190 14:56 26.01.2020
3780 Rain 24 1016 90 0 7.86 190 14:38 26.01.2020
3781 Rain 24 1014 87 0 6.84 187 14:19 26.01.2020
3782 Rain 24 1014 87 0 6.84 187 13:39 26.01.2020
3783 Rain 25 1014 86 0 7.3 193 13:18 26.01.2020
3784 Rain 25 1014 86 0 7.3 193 12:54 26.01.2020
3785 Rain 25 1014 86 0 7.3 193 12:36 26.01.2020
3786 Rain 25 1014 86 0 7.3 193 12:18 26.01.2020
3787 Rain 25 1014 86 0 7.3 193 11:56 26.01.2020
3788 Rain 25 1014 86 0 7.3 193 11:36 26.01.2020
3789 Rain 25 1013 86 0 7.63 189 11:18 26.01.2020
3790 Rain 25 1013 86 0 7.63 189 10:39 26.01.2020
3791 Rain 25 1013 86 0 7.63 189 10:21 26.01.2020
3792 Rain 25 1013 86 0 7.63 189 09:59 26.01.2020
3793 Rain 25 1013 86 0 7.63 189 09:41 26.01.2020
3794 Rain 25 1013 86 0 7.63 189 09:22 26.01.2020
3795 Rain 25 1013 86 0 7.63 189 08:55 26.01.2020
3796 Rain 25 1013 86 0 7.63 189 08:37 26.01.2020
3797 Clouds 25 1015 85 0 5.94 185 08:18 26.01.2020
3798 Clouds 25 1015 85 0 5.94 185 07:45 26.01.2020
3799 Clouds 25 1015 85 0 5.94 185 07:22 26.01.2020
3800 Clouds 25 1015 85 0 5.94 185 06:32 26.01.2020
3801 Clouds 25 1015 85 0 5.94 185 05:37 26.01.2020
3802 Clouds 25 1015 85 0 6.03 192 04:58 26.01.2020
3803 Clouds 25 1015 85 0 6.03 192 02:59 26.01.2020
3804 Clouds 25 1015 85 0 6.03 192 02:59 26.01.2020
3805 Rain 25 1011 94 10000 5.1 190 01:59 26.01.2020
3806 Rain 25 1011 94 10000 5.1 190 01:38 26.01.2020
3807 Rain 25 1011 94 10000 5.1 190 01:19 26.01.2020
3808 Rain 25 1012 86 0 6.45 198 00:39 26.01.2020
3809 Rain 25 1012 86 0 6.45 198 00:20 26.01.2020
3810 Rain 25 1012 86 0 6.45 198 00:20 26.01.2020
3811 Rain 25 1012 86 0 6.45 198 23:37 25.01.2020
3812 Clouds 25 1012 86 0 6.45 196 23:18 25.01.2020
3813 Clouds 25 1012 86 0 6.45 196 23:18 25.01.2020
3814 Clouds 25 1012 86 0 6.45 196 22:41 25.01.2020
3815 Clouds 25 1012 86 0 6.45 196 22:20 25.01.2020
3816 Clouds 25 1012 86 0 6.45 196 21:57 25.01.2020
3817 Clouds 25 1012 86 0 6.45 196 21:39 25.01.2020
3818 Clouds 25 1012 86 0 6.45 196 21:20 25.01.2020
3819 Clouds 25 1012 86 0 6.45 196 20:44 25.01.2020
3820 Clouds 25 1012 86 0 6.45 196 20:25 25.01.2020
3821 Clouds 25 1015 85 0 6.6 195 19:56 25.01.2020
3822 Clouds 25 1015 84 0 6.67 188 19:37 25.01.2020
3823 Clouds 25 1015 85 0 6.6 195 19:18 25.01.2020
3824 Clouds 25 1015 84 0 6.67 188 18:43 25.01.2020
3825 Clouds 25 1015 84 0 6.67 188 18:22 25.01.2020
3826 Clouds 25 1015 84 0 6.67 188 17:58 25.01.2020
3827 Clouds 25 1015 84 0 6.67 188 17:38 25.01.2020
3828 Clouds 25 1016 84 0 6.7 187 17:19 25.01.2020
3829 Clouds 25 1016 84 0 6.7 187 16:43 25.01.2020
3830 Clouds 25 1016 84 0 6.7 187 16:23 25.01.2020
3831 Clouds 25 1016 84 0 6.7 187 15:58 25.01.2020
3832 Clouds 25 1016 84 0 6.7 187 15:58 25.01.2020
3833 Clouds 25 1016 84 0 6.7 187 15:39 25.01.2020
3834 Clouds 25 1016 84 0 6.7 187 15:21 25.01.2020
3835 Clouds 25 1016 84 0 6.7 187 14:43 25.01.2020
3836 Clouds 24 1013 85 0 6.33 186 14:19 25.01.2020
3837 Clouds 24 1013 85 0 6.33 186 13:45 25.01.2020
3838 Clouds 24 1013 85 0 6.33 186 13:27 25.01.2020
3839 Clouds 25 1013 84 0 6.15 187 12:58 25.01.2020
3840 Clouds 25 1013 84 0 6.15 187 12:39 25.01.2020
3841 Clouds 25 1013 84 0 6.15 187 12:20 25.01.2020
3842 Clouds 25 1013 84 0 6.15 187 11:40 25.01.2020
3843 Clouds 25 1012 83 0 5.15 193 11:20 25.01.2020
3844 Clouds 25 1012 83 0 5.15 193 10:55 25.01.2020
3845 Clouds 25 1012 83 0 5.15 193 10:37 25.01.2020
3846 Clouds 25 1012 83 0 5.15 193 10:18 25.01.2020
3847 Clouds 25 1012 83 0 5.15 193 09:40 25.01.2020
3848 Clouds 25 1012 83 0 5.15 193 09:19 25.01.2020
3849 Clouds 25 1012 83 0 5.15 193 08:42 25.01.2020
3850 Clouds 25 1012 83 0 5.15 193 08:42 25.01.2020
3851 Clouds 25 1014 83 0 4.25 183 07:57 25.01.2020
3852 Clouds 25 1014 83 0 4.25 183 07:28 25.01.2020
3853 Clouds 25 1014 83 0 4.25 183 06:31 25.01.2020
3854 Clouds 25 1014 83 0 4.25 183 05:52 25.01.2020
3855 Clouds 25 1014 83 0 4.25 183 05:32 25.01.2020
3856 Clouds 25 1014 83 0 3.95 193 03:56 25.01.2020
3857 Clouds 25 1014 83 0 3.95 193 03:37 25.01.2020
3858 Clouds 25 1014 83 0 3.95 193 02:35 25.01.2020
3859 Clouds 26 1009 83 10000 4.6 170 01:56 25.01.2020
3860 Clouds 27 1008 78 10000 5.1 160 00:59 25.01.2020
3861 Clouds 27 1008 78 10000 5.1 160 00:37 25.01.2020
3862 Clouds 27 1008 78 10000 5.1 160 00:18 25.01.2020
3863 Clouds 27 1008 78 10000 5.1 160 00:18 25.01.2020
3864 Clouds 28 1008 74 10000 4.6 180 23:41 24.01.2020
3865 Clouds 28 1008 74 10000 4.6 180 23:41 24.01.2020
3866 Clouds 28 1008 74 10000 4.6 180 23:23 24.01.2020
3867 Clouds 28 1008 74 10000 4.6 180 23:23 24.01.2020
3868 Clouds 28 1008 74 10000 6.2 190 22:46 24.01.2020
3869 Clouds 28 1008 74 10000 6.2 190 22:26 24.01.2020
3870 Clouds 27 1009 78 10000 6.2 150 21:57 24.01.2020
3871 Clouds 27 1009 78 10000 6.2 150 21:39 24.01.2020
3872 Clouds 27 1009 78 10000 6.2 150 21:18 24.01.2020
3873 Clouds 28 1011 74 10000 7.2 190 20:43 24.01.2020
3874 Clouds 28 1011 74 10000 7.2 190 20:21 24.01.2020
3875 Clouds 28 1012 74 10000 6.7 160 19:58 24.01.2020
3876 Clouds 28 1012 74 10000 6.7 160 19:39 24.01.2020
3877 Clouds 28 1012 74 10000 6.7 160 19:21 24.01.2020
3878 Clouds 28 1012 74 10000 6.7 150 18:43 24.01.2020
3879 Clouds 28 1012 74 10000 6.7 150 18:24 24.01.2020
3880 Clouds 27 1012 78 10000 5.1 140 17:56 24.01.2020
3881 Clouds 27 1012 78 10000 5.1 140 17:38 24.01.2020
3882 Clouds 27 1012 78 10000 5.1 140 17:18 24.01.2020
3883 Clouds 26 1015 83 10000 6.2 150 16:39 24.01.2020
3884 Clouds 26 1015 83 10000 6.2 150 16:39 24.01.2020
3885 Clouds 26 1015 83 10000 6.2 150 16:21 24.01.2020
3886 Clouds 26 1015 83 10000 6.2 150 16:21 24.01.2020
3887 Clouds 25 1012 88 10000 5.1 160 15:43 24.01.2020
3888 Clouds 25 1012 88 10000 5.1 160 15:23 24.01.2020
3889 Clouds 25 1011 88 10000 4.1 150 14:59 24.01.2020
3890 Clouds 25 1011 88 10000 4.1 150 14:40 24.01.2020
3891 Clouds 25 1011 88 10000 4.1 150 14:21 24.01.2020
3892 Clouds 25 1010 88 10000 3.1 170 13:43 24.01.2020
3893 Clouds 25 1010 88 10000 3.1 170 13:23 24.01.2020
3894 Clouds 24 1012 85 0 3.38 164 12:44 24.01.2020
3895 Clouds 24 1012 85 0 3.38 164 12:23 24.01.2020
3896 Clouds 24 1012 85 0 3.38 164 11:57 24.01.2020
3897 Clouds 24 1012 85 0 3.38 164 11:38 24.01.2020
3898 Clouds 24 1011 87 0 4.12 190 11:18 24.01.2020
3899 Clouds 24 1011 87 0 4.12 190 11:18 24.01.2020
3900 Clouds 24 1011 87 0 4.12 190 10:41 24.01.2020
3901 Clouds 24 1011 87 0 4.12 190 10:20 24.01.2020
3902 Clouds 24 1011 87 0 4.12 190 09:42 24.01.2020
3903 Clouds 24 1011 87 0 4.12 190 09:42 24.01.2020
3904 Clouds 24 1011 87 0 4.12 190 09:24 24.01.2020
3905 Clouds 24 1011 87 0 4.12 190 08:59 24.01.2020
3906 Clouds 24 1011 87 0 4.12 190 08:38 24.01.2020
3907 Clouds 24 1013 87 0 3.49 188 08:18 24.01.2020
3908 Clouds 24 1013 87 0 3.49 188 07:43 24.01.2020
3909 Clouds 24 1013 87 0 3.49 188 07:21 24.01.2020
3910 Clouds 24 1013 87 0 3.49 188 06:43 24.01.2020
3911 Clouds 24 1013 87 0 3.49 188 06:43 24.01.2020
3912 Clouds 24 1013 87 0 3.49 188 06:23 24.01.2020
3913 Clouds 24 1013 86 0 4.33 187 05:21 24.01.2020
3914 Clouds 24 1013 86 0 4.33 187 03:29 24.01.2020
3915 Clouds 24 1013 86 0 4.33 187 02:39 24.01.2020
3916 Clouds 26 1009 83 10000 4.1 210 02:19 24.01.2020
3917 Clouds 26 1009 83 10000 4.1 210 01:38 24.01.2020
3918 Clouds 26 1008 83 10000 4.6 190 00:40 24.01.2020
3919 Clouds 26 1008 83 10000 4.6 190 00:18 24.01.2020
3920 Clouds 27 1008 78 10000 5.1 210 23:41 23.01.2020
3921 Clouds 27 1008 78 10000 5.1 210 23:21 23.01.2020
3922 Clouds 28 1008 74 10000 5.7 190 22:58 23.01.2020
3923 Clouds 28 1008 74 10000 5.7 190 22:36 23.01.2020
3924 Clouds 28 1008 74 10000 5.7 190 22:18 23.01.2020
3925 Clouds 28 1009 74 10000 5.1 180 21:55 23.01.2020
3926 Clouds 28 1009 74 10000 5.1 180 21:37 23.01.2020
3927 Clouds 28 1009 74 10000 5.1 180 21:18 23.01.2020
3928 Clouds 28 1010 74 10000 5.7 200 20:40 23.01.2020
3929 Clouds 28 1010 74 10000 5.7 200 20:22 23.01.2020
3930 Clouds 28 1011 78 10000 6.7 210 19:57 23.01.2020
3931 Clouds 28 1011 78 10000 6.7 210 19:38 23.01.2020
3932 Clouds 28 1011 78 10000 6.7 210 19:38 23.01.2020
3933 Clouds 28 1011 78 10000 6.7 210 19:20 23.01.2020
3934 Clouds 27 1012 78 10000 4.6 190 18:56 23.01.2020
3935 Clouds 27 1012 78 10000 4.6 190 18:56 23.01.2020
3936 Clouds 27 1012 78 10000 4.6 190 18:37 23.01.2020
3937 Clouds 27 1012 78 10000 4.6 190 18:19 23.01.2020
3938 Clouds 26 1013 83 10000 4.1 200 17:43 23.01.2020
3939 Clouds 26 1013 83 10000 4.1 200 17:21 23.01.2020
3940 Clouds 25 1012 88 10000 5.1 210 16:58 23.01.2020
3941 Clouds 25 1012 88 10000 5.1 210 16:38 23.01.2020
3942 Clouds 25 1012 88 10000 5.1 210 16:19 23.01.2020
3943 Clouds 24 1012 94 10000 3.6 190 15:57 23.01.2020
3944 Clouds 24 1012 94 10000 3.6 190 15:38 23.01.2020
3945 Clouds 24 1012 94 10000 3.6 190 15:18 23.01.2020
3946 Clouds 24 1012 94 10000 3.6 190 15:18 23.01.2020
3947 Clouds 24 1011 94 10000 4.1 200 14:56 23.01.2020
3948 Clouds 24 1011 94 10000 4.1 200 14:56 23.01.2020
3949 Clouds 24 1011 94 10000 4.1 200 14:38 23.01.2020
3950 Clouds 24 1011 94 10000 4.1 200 14:20 23.01.2020
3951 Clouds 24 1010 94 0 4.1 190 13:45 23.01.2020
3952 Clouds 24 1010 94 0 4.1 190 13:21 23.01.2020
3953 Clouds 24 1013 85 0 5.61 189 12:55 23.01.2020
3954 Clouds 24 1013 86 0 5.1 181 12:36 23.01.2020
3955 Clouds 24 1013 85 0 5.61 189 12:18 23.01.2020
3956 Clouds 24 1013 85 0 5.61 189 11:43 23.01.2020
3957 Clouds 24 1013 85 0 5.61 189 11:24 23.01.2020
3958 Clouds 24 1012 85 0 5.15 199 10:56 23.01.2020
3959 Clouds 24 1012 85 0 5.15 199 10:38 23.01.2020
3960 Clouds 24 1012 85 0 4.52 197 10:18 23.01.2020
3961 Clouds 24 1012 85 0 5.15 199 09:40 23.01.2020
3962 Clouds 24 1012 85 0 5.15 199 09:21 23.01.2020
3963 Clouds 24 1012 85 0 5.15 199 08:43 23.01.2020
3964 Clouds 24 1012 85 0 4.52 197 08:25 23.01.2020
3965 Clouds 24 1014 85 0 4.43 196 07:51 23.01.2020
3966 Clouds 24 1014 85 0 4.43 196 07:27 23.01.2020
3967 Clouds 24 1014 85 0 4.43 196 06:55 23.01.2020
3968 Clouds 24 1014 85 0 4.43 196 06:25 23.01.2020
3969 Clouds 24 1014 85 0 4.43 196 05:59 23.01.2020
3970 Clear 24 1014 85 0 4.81 201 04:25 23.01.2020
3971 Clear 24 1014 85 0 4.81 201 02:48 23.01.2020
3972 Clouds 26 1008 83 10000 4.6 210 01:50 23.01.2020
3973 Clouds 26 1008 83 10000 5.7 200 00:29 23.01.2020
3974 Clouds 27 1008 78 10000 5.1 190 23:57 22.01.2020
3975 Clouds 27 1008 78 10000 5.1 190 23:39 22.01.2020
3976 Clouds 27 1008 78 10000 5.1 190 23:20 22.01.2020
3977 Clouds 28 1008 74 10000 6.2 190 22:42 22.01.2020
3978 Clouds 28 1008 74 10000 6.2 190 22:23 22.01.2020
3979 Clouds 29 1009 70 10000 6.2 200 21:56 22.01.2020
3980 Clouds 29 1009 70 10000 6.2 200 21:36 22.01.2020
3981 Clouds 29 1009 70 10000 6.2 200 21:18 22.01.2020
3982 Clouds 28 1010 74 10000 6.7 190 20:41 22.01.2020
3983 Clouds 28 1010 74 10000 6.7 190 20:23 22.01.2020
3984 Clouds 28 1011 74 10000 4.6 190 19:58 22.01.2020
3985 Clouds 28 1011 74 10000 4.6 190 19:39 22.01.2020
3986 Clouds 28 1011 74 10000 4.6 190 19:19 22.01.2020
3987 Clouds 28 1012 78 10000 5.7 220 18:57 22.01.2020
3988 Clouds 28 1012 78 10000 5.7 220 18:38 22.01.2020
3989 Clouds 28 1012 78 10000 5.7 220 18:20 22.01.2020
3990 Clouds 27 1013 78 0 4.6 170 17:55 22.01.2020
3991 Clouds 27 1013 78 0 4.6 170 17:55 22.01.2020
3992 Clouds 27 1013 78 0 4.6 170 17:37 22.01.2020
3993 Clouds 27 1013 78 0 4.6 170 17:19 22.01.2020
3994 Clouds 27 1012 83 0 4.1 180 16:43 22.01.2020
3995 Clouds 27 1012 83 0 4.1 180 16:23 22.01.2020
3996 Clouds 25 1012 88 0 4.1 190 15:59 22.01.2020
3997 Clouds 25 1012 88 0 4.1 190 15:40 22.01.2020
3998 Clouds 25 1012 88 0 4.1 190 15:22 22.01.2020
3999 Clouds 24 1011 88 10000 3.1 190 14:57 22.01.2020
4000 Clouds 24 1011 88 10000 3.1 190 14:37 22.01.2020
4001 Clouds 24 1011 88 10000 3.1 190 14:18 22.01.2020
4002 Rain 24 1013 87 0 5.77 189 13:54 22.01.2020
4003 Rain 24 1013 87 0 5.77 189 13:36 22.01.2020
4004 Clouds 24 1013 84 0 6.18 196 13:18 22.01.2020
4005 Clouds 24 1013 84 0 6.18 196 12:54 22.01.2020
4006 Clouds 24 1013 84 0 6.18 196 12:36 22.01.2020
4007 Clouds 24 1013 84 0 6.18 196 12:18 22.01.2020
4008 Clouds 24 1013 84 0 6.18 196 12:18 22.01.2020
4009 Clouds 24 1013 84 0 6.18 196 11:55 22.01.2020
4010 Clouds 24 1013 84 0 6.18 196 11:36 22.01.2020
4011 Clouds 24 1012 84 0 4.6 201 11:18 22.01.2020
4012 Clouds 24 1012 84 0 4.6 201 10:42 22.01.2020
4013 Clouds 24 1012 84 0 4.6 201 10:19 22.01.2020
4014 Clouds 24 1012 84 0 4.6 201 09:43 22.01.2020
4015 Clouds 24 1012 84 0 4.6 201 09:24 22.01.2020
4016 Clouds 24 1012 84 0 4.6 201 08:57 22.01.2020
4017 Clouds 24 1012 84 0 4.6 201 08:39 22.01.2020
4018 Clouds 24 1014 86 0 3.84 212 08:20 22.01.2020
4019 Clouds 24 1014 86 0 3.84 212 07:46 22.01.2020
4020 Clouds 24 1014 86 0 3.84 212 07:28 22.01.2020
4021 Clouds 24 1014 86 0 3.84 212 06:38 22.01.2020
4022 Clouds 24 1014 86 0 3.84 212 06:20 22.01.2020
4023 Clouds 25 1014 87 0 4.35 203 05:21 22.01.2020
4024 Clouds 25 1014 87 0 4.35 203 03:30 22.01.2020
4025 Clouds 25 1014 87 0 4.35 203 02:50 22.01.2020
4026 Clouds 27 1009 78 10000 3.6 190 01:42 22.01.2020
4027 Clouds 27 1009 78 10000 4.1 210 00:44 22.01.2020
4028 Clouds 27 1009 78 10000 4.1 210 00:25 22.01.2020
4029 Clouds 28 1009 74 10000 4.6 190 23:38 21.01.2020
4030 Clouds 28 1009 74 10000 4.6 190 23:38 21.01.2020
4031 Clouds 28 1009 74 10000 4.6 190 23:20 21.01.2020
4032 Clouds 28 1010 74 10000 3.6 240 22:42 21.01.2020
4033 Clouds 28 1010 74 10000 3.6 240 22:24 21.01.2020
4034 Clouds 28 1010 74 10000 4.1 210 21:59 21.01.2020
4035 Clouds 28 1010 74 10000 4.1 210 21:40 21.01.2020
4036 Clouds 28 1010 74 10000 4.1 210 21:21 21.01.2020
4037 Clouds 29 1012 74 10000 4.6 200 20:59 21.01.2020
4038 Clouds 29 1012 74 10000 4.6 200 20:39 21.01.2020
4039 Clouds 29 1012 74 10000 4.6 200 20:20 21.01.2020
4040 Clouds 28 1012 78 10000 5.7 210 19:58 21.01.2020
4041 Clouds 28 1012 78 10000 5.7 210 19:39 21.01.2020
4042 Clouds 28 1012 78 10000 5.7 210 19:21 21.01.2020
4043 Clouds 28 1013 78 10000 4.1 210 18:57 21.01.2020
4044 Clouds 28 1013 78 10000 4.1 210 18:39 21.01.2020
4045 Clouds 28 1013 78 10000 4.1 210 18:39 21.01.2020
4046 Clouds 28 1013 78 10000 4.1 210 18:20 21.01.2020
4047 Clouds 27 1013 83 10000 5.1 170 17:56 21.01.2020
4048 Clouds 27 1013 83 10000 5.1 170 17:37 21.01.2020
4049 Clouds 27 1013 83 10000 5.1 170 17:18 21.01.2020
4050 Clouds 26 1013 88 10000 4.1 170 16:37 21.01.2020
4051 Clouds 26 1013 88 10000 4.1 170 16:19 21.01.2020
4052 Clouds 25 1013 94 10000 3.1 200 15:57 21.01.2020
4053 Clouds 25 1013 94 10000 3.1 200 15:37 21.01.2020
4054 Clouds 25 1013 94 10000 3.1 200 15:19 21.01.2020
4055 Clouds 25 1012 94 10000 3.1 180 14:39 21.01.2020
4056 Clouds 25 1012 94 10000 3.1 180 14:20 21.01.2020
4057 Clouds 25 1011 94 10000 3.6 180 13:43 21.01.2020
4058 Clouds 25 1011 94 10000 3.6 180 13:43 21.01.2020
4059 Clouds 25 1011 94 10000 3.6 180 13:20 21.01.2020
4060 Rain 24 1013 89 0 4.69 196 12:57 21.01.2020
4061 Rain 24 1013 89 0 4.69 196 12:39 21.01.2020
4062 Rain 24 1013 89 0 4.69 196 12:20 21.01.2020
4063 Rain 24 1013 89 0 4.69 196 11:41 21.01.2020
4064 Clouds 24 1012 89 0 4.74 198 11:22 21.01.2020
4065 Clouds 24 1012 89 0 4.74 198 10:59 21.01.2020
4066 Clouds 24 1012 89 0 4.74 198 10:40 21.01.2020
4067 Clouds 24 1012 89 0 4.74 198 10:21 21.01.2020
4068 Clouds 24 1012 89 0 4.74 198 09:42 21.01.2020
4069 Clouds 24 1012 89 0 4.74 198 09:23 21.01.2020
4070 Clouds 24 1012 89 0 4.74 198 08:55 21.01.2020
4071 Clouds 24 1012 89 0 4.74 198 08:36 21.01.2020
4072 Clouds 24 1012 89 0 4.74 198 08:36 21.01.2020
4073 Clouds 25 1014 89 0 3.97 209 08:18 21.01.2020
4074 Clouds 25 1014 89 0 3.7 213 07:41 21.01.2020
4075 Clouds 25 1014 89 0 3.7 213 07:22 21.01.2020
4076 Clouds 25 1014 89 0 3.7 213 06:49 21.01.2020
4077 Clouds 25 1014 89 0 3.7 213 06:29 21.01.2020
4078 Clouds 25 1014 89 0 3.7 213 05:42 21.01.2020
4079 Clouds 25 1014 89 0 4.06 208 04:40 21.01.2020
4080 Clouds 25 1014 89 0 4.06 208 02:57 21.01.2020
4081 Clouds 26 1009 88 10000 3.1 190 01:55 21.01.2020
4082 Clouds 26 1009 88 10000 3.1 190 01:18 21.01.2020
4083 Clouds 27 1008 83 10000 3.6 180 00:37 21.01.2020
4084 Clouds 27 1008 83 10000 4.1 200 23:59 20.01.2020
4085 Clouds 27 1008 83 10000 4.1 200 23:38 20.01.2020
4086 Clouds 27 1008 83 10000 4.1 200 23:19 20.01.2020
4087 Clouds 28 1008 78 10000 5.1 210 22:56 20.01.2020
4088 Clouds 28 1008 78 10000 5.1 210 22:37 20.01.2020
4089 Clouds 28 1008 78 10000 5.1 210 22:37 20.01.2020
4090 Clouds 28 1008 78 10000 5.1 210 22:19 20.01.2020
4091 Clouds 28 1009 78 10000 5.7 200 21:57 20.01.2020
4092 Clouds 28 1009 78 10000 5.7 200 21:37 20.01.2020
4093 Clouds 28 1009 78 10000 5.7 200 21:37 20.01.2020
4094 Clouds 28 1009 78 10000 5.7 200 21:18 20.01.2020
4095 Clouds 29 1010 70 10000 4.1 200 20:55 20.01.2020
4096 Clouds 29 1010 70 10000 4.1 200 20:36 20.01.2020
4097 Clouds 29 1010 70 10000 4.1 200 20:18 20.01.2020
4098 Clouds 29 1010 70 10000 4.1 200 20:18 20.01.2020
4099 Clouds 28 1011 78 10000 6.2 180 19:56 20.01.2020
4100 Clouds 28 1011 78 10000 6.2 180 19:37 20.01.2020
4101 Clouds 28 1011 78 10000 6.2 180 19:18 20.01.2020
4102 Clouds 28 1011 78 10000 5.7 190 18:42 20.01.2020
4103 Clouds 28 1011 78 10000 5.7 190 18:21 20.01.2020
4104 Clouds 27 1011 83 10000 6.2 160 17:40 20.01.2020
4105 Clouds 27 1011 83 10000 6.2 160 17:19 20.01.2020
4106 Clouds 27 1010 78 10000 7.7 160 16:58 20.01.2020
4107 Clouds 27 1010 78 10000 7.7 160 16:37 20.01.2020
4108 Clouds 27 1010 78 10000 7.7 160 16:18 20.01.2020
4109 Clouds 27 1010 78 10000 7.7 160 16:18 20.01.2020
4110 Clouds 26 1010 88 10000 7.7 160 15:41 20.01.2020
4111 Clouds 26 1010 88 10000 7.7 160 15:22 20.01.2020
4112 Clouds 25 1009 88 10000 4.6 170 15:00 20.01.2020
4113 Clouds 25 1009 88 10000 4.6 170 14:41 20.01.2020
4114 Clouds 25 1009 88 10000 4.6 170 14:21 20.01.2020
4115 Clouds 25 1008 88 10000 4.1 160 13:57 20.01.2020
4116 Clouds 25 1008 88 10000 4.1 160 13:38 20.01.2020
4117 Clouds 25 1008 88 10000 4.1 160 13:20 20.01.2020
4118 Rain 25 1012 91 0 5.44 171 12:44 20.01.2020
4119 Rain 25 1012 91 0 5.44 171 12:25 20.01.2020
4120 Rain 25 1012 91 0 5.44 171 12:25 20.01.2020
4121 Rain 25 1012 91 0 5.44 171 11:56 20.01.2020
4122 Rain 25 1012 91 0 5.44 171 11:37 20.01.2020
4123 Rain 24 1011 91 0 2.82 195 11:18 20.01.2020
4124 Rain 24 1011 91 0 2.82 195 10:46 20.01.2020
4125 Rain 24 1011 91 0 2.82 195 10:21 20.01.2020
4126 Rain 24 1011 91 0 2.82 195 09:42 20.01.2020
4127 Rain 24 1011 91 0 2.82 195 09:24 20.01.2020
4128 Rain 24 1011 91 0 2.82 195 08:56 20.01.2020
4129 Rain 24 1011 91 0 2.82 195 08:35 20.01.2020
4130 Rain 25 1012 92 0 4.56 188 07:59 20.01.2020
4131 Rain 25 1012 92 0 4.56 188 07:41 20.01.2020
4132 Rain 25 1012 92 0 4.56 188 07:21 20.01.2020
4133 Rain 25 1012 92 0 4.56 188 06:44 20.01.2020
4134 Rain 25 1012 92 0 4.56 188 06:22 20.01.2020
4135 Rain 25 1012 92 0 4.56 188 05:38 20.01.2020
4136 Rain 25 1012 91 0 5.31 186 05:19 20.01.2020
4137 Rain 25 1012 91 0 5.31 186 04:23 20.01.2020
4138 Rain 25 1007 94 10000 5.1 170 01:58 20.01.2020
4139 Rain 25 1007 94 10000 5.1 170 01:39 20.01.2020
4140 Clouds 26 1006 83 10000 6.2 160 00:56 20.01.2020
4141 Clouds 26 1006 83 10000 6.2 160 00:38 20.01.2020
4142 Clouds 26 1006 83 10000 6.2 160 00:38 20.01.2020
4143 Clouds 26 1006 83 10000 6.2 160 00:20 20.01.2020
4144 Clouds 27 1006 83 10000 7.2 170 23:38 19.01.2020
4145 Clouds 27 1006 83 10000 7.2 170 23:18 19.01.2020
4146 Rain 24 1009 93 0 4.66 175 22:55 19.01.2020
4147 Rain 24 1009 93 0 4.66 175 22:37 19.01.2020
4148 Clouds 27 1007 83 10000 7.2 160 22:19 19.01.2020
4149 Clouds 27 1007 83 10000 7.2 160 21:56 19.01.2020
4150 Clouds 27 1007 83 10000 7.2 160 21:37 19.01.2020
4151 Clouds 27 1007 83 10000 7.2 160 21:19 19.01.2020
4152 Clouds 28 1007 78 10000 7.7 180 20:56 19.01.2020
4153 Clouds 28 1007 78 10000 7.7 180 20:37 19.01.2020
4154 Clouds 28 1007 78 10000 7.7 180 20:19 19.01.2020
4155 Clouds 27 1008 83 10000 6.7 170 19:55 19.01.2020
4156 Clouds 27 1008 83 10000 6.7 170 19:37 19.01.2020
4157 Clouds 27 1008 83 10000 6.7 170 19:19 19.01.2020
4158 Clouds 27 1009 83 10000 6.2 180 18:55 19.01.2020
4159 Clouds 27 1009 83 10000 6.2 180 18:55 19.01.2020
4160 Clouds 27 1009 83 10000 6.2 180 18:36 19.01.2020
4161 Clouds 27 1009 83 10000 6.2 180 18:18 19.01.2020
4162 Rain 26 1009 88 10000 6.2 160 17:56 19.01.2020
4163 Rain 26 1009 88 10000 6.2 160 17:38 19.01.2020
4164 Rain 26 1009 88 10000 6.2 160 17:18 19.01.2020
4165 Rain 25 1009 94 8000 5.1 170 16:55 19.01.2020
4166 Rain 25 1009 94 8000 5.1 170 16:36 19.01.2020
4167 Rain 25 1009 94 8000 5.1 170 16:18 19.01.2020
4168 Rain 24 1009 100 6000 5.1 180 15:41 19.01.2020
4169 Rain 24 1009 100 6000 5.1 180 15:22 19.01.2020
4170 Rain 24 1008 100 5000 4.1 170 14:59 19.01.2020
4171 Rain 24 1008 100 5000 4.1 170 14:40 19.01.2020
4172 Rain 24 1008 100 5000 4.1 170 14:20 19.01.2020
4173 Rain 24 1007 100 5000 6.2 170 13:58 19.01.2020
4174 Rain 24 1007 100 5000 6.2 170 13:39 19.01.2020
4175 Rain 24 1007 100 5000 6.2 170 13:21 19.01.2020
4176 Rain 24 1010 92 0 5.18 183 12:58 19.01.2020
4177 Rain 24 1010 92 0 5.18 183 12:58 19.01.2020
4178 Rain 24 1010 92 0 5.18 183 12:40 19.01.2020
4179 Rain 24 1010 92 0 5.18 183 12:40 19.01.2020
4180 Rain 24 1010 92 0 5.18 183 12:21 19.01.2020
4181 Rain 24 1010 92 0 5.18 183 11:56 19.01.2020
4182 Rain 24 1010 92 0 5.18 183 11:37 19.01.2020
4183 Rain 24 1009 93 0 4.61 180 11:18 19.01.2020
4184 Rain 24 1009 93 0 4.61 180 10:39 19.01.2020
4185 Rain 24 1009 93 0 4.61 180 10:39 19.01.2020
4186 Rain 24 1009 93 0 4.61 180 10:20 19.01.2020
4187 Rain 24 1009 93 0 4.61 180 09:57 19.01.2020
4188 Rain 24 1009 93 0 4.61 180 09:57 19.01.2020
4189 Rain 24 1009 93 0 4.61 180 09:38 19.01.2020
4190 Rain 24 1009 93 0 4.61 180 09:19 19.01.2020
4191 Rain 24 1009 93 0 4.61 180 08:55 19.01.2020
4192 Rain 24 1009 93 0 4.61 180 08:32 19.01.2020
4193 Clouds 24 1010 92 0 4.07 167 07:54 19.01.2020
4194 Clouds 24 1010 92 0 4.07 167 07:28 19.01.2020
4195 Clouds 24 1010 92 0 4.07 167 06:55 19.01.2020
4196 Clouds 24 1010 92 0 4.07 167 06:21 19.01.2020
4197 Clouds 25 1010 91 0 3.96 166 03:52 19.01.2020
4198 Rain 25 1005 94 6000 5.1 170 02:32 19.01.2020
4199 Rain 25 1005 94 6000 5.1 170 01:39 19.01.2020
4200 Rain 25 1005 94 6000 5.1 170 01:18 19.01.2020
4201 Rain 25 1008 89 0 4.16 154 00:41 19.01.2020
4202 Rain 25 1008 89 0 4.16 154 00:41 19.01.2020
4203 Rain 26 1005 88 10000 6.7 170 00:19 19.01.2020
4204 Rain 26 1005 88 10000 6.7 170 23:42 18.01.2020
4205 Rain 26 1005 88 10000 6.7 170 23:24 18.01.2020
4206 Clouds 27 1005 83 10000 6.7 160 22:56 18.01.2020
4207 Clouds 27 1005 83 10000 6.7 160 22:38 18.01.2020
4208 Clouds 27 1005 83 10000 6.7 160 22:20 18.01.2020
4209 Clouds 28 1006 78 10000 6.2 190 21:57 18.01.2020
4210 Clouds 28 1006 78 10000 6.2 190 21:38 18.01.2020
4211 Clouds 28 1006 78 10000 6.2 190 21:20 18.01.2020
4212 Clouds 28 1006 78 10000 6.7 190 20:44 18.01.2020
4213 Clouds 28 1006 78 10000 6.7 190 20:21 18.01.2020
4214 Clouds 28 1007 78 10000 6.2 190 19:59 18.01.2020
4215 Clouds 28 1007 78 10000 6.2 190 19:59 18.01.2020
4216 Clouds 28 1007 78 10000 6.2 190 19:41 18.01.2020
4217 Clouds 28 1007 78 10000 6.2 190 19:22 18.01.2020
4218 Clouds 28 1008 78 10000 6.2 180 18:42 18.01.2020
4219 Clouds 28 1008 78 10000 6.2 180 18:22 18.01.2020
4220 Clouds 27 1009 83 10000 6.2 160 17:56 18.01.2020
4221 Clouds 27 1009 83 10000 6.2 160 17:37 18.01.2020
4222 Clouds 27 1009 83 10000 6.2 160 17:19 18.01.2020
4223 Clouds 27 1009 78 10000 5.1 170 16:55 18.01.2020
4224 Clouds 27 1009 78 10000 5.1 170 16:36 18.01.2020
4225 Clouds 27 1009 78 10000 5.1 170 16:18 18.01.2020
4226 Clouds 25 1008 88 10000 4.1 170 15:41 18.01.2020
4227 -273 0 0 0 0 0 15:23 18.01.2020
4228 Clouds 25 1007 88 10000 4.1 150 14:55 18.01.2020
4229 Clouds 25 1007 88 10000 4.1 150 14:37 18.01.2020
4230 Clouds 25 1007 88 10000 4.1 150 14:18 18.01.2020
4231 Clouds 25 1007 88 10000 4.6 170 13:43 18.01.2020
4232 Clouds 25 1007 88 10000 4.6 170 13:24 18.01.2020
4233 Clouds 24 1010 90 0 3.06 163 12:56 18.01.2020
4234 Clouds 24 1010 90 0 3.06 163 12:38 18.01.2020
4235 Clouds 24 1010 90 0 3.06 163 12:19 18.01.2020
4236 Clouds 24 1010 90 0 3.06 163 11:44 18.01.2020
4237 Clouds 24 1009 92 0 2.79 160 11:21 18.01.2020
4238 Clouds 24 1009 92 0 2.79 160 10:54 18.01.2020
4239 Clouds 24 1009 92 0 2.79 160 10:36 18.01.2020
4240 Clouds 24 1009 92 0 2.79 160 10:18 18.01.2020
4241 Clouds 24 1009 92 0 2.79 160 09:42 18.01.2020
4242 Clouds 24 1009 92 0 2.79 160 09:20 18.01.2020
4243 Clouds 24 1009 92 0 2.79 160 08:55 18.01.2020
4244 Clouds 24 1009 92 0 2.79 160 08:36 18.01.2020
4245 Clouds 24 1010 93 0 2.91 159 08:18 18.01.2020
4246 Clouds 24 1010 93 0 2.91 159 07:40 18.01.2020
4247 Clouds 24 1010 93 0 2.91 159 07:20 18.01.2020
4248 Clouds 24 1010 93 0 2.91 159 06:45 18.01.2020
4249 Clouds 24 1010 93 0 2.91 159 05:52 18.01.2020
4250 Clouds 24 1010 91 0 2.51 175 04:25 18.01.2020
4251 Clouds 24 1010 91 0 2.51 175 02:49 18.01.2020
4252 Clouds 26 1004 83 10000 6.2 170 01:40 18.01.2020
4253 Clouds 27 1004 83 10000 7.2 170 00:39 18.01.2020
4254 Clouds 27 1004 83 10000 7.2 170 00:20 18.01.2020
4255 Clouds 27 1004 83 10000 6.7 190 23:58 17.01.2020
4256 Clouds 27 1004 83 10000 6.7 190 23:39 17.01.2020
4257 Clouds 27 1004 83 10000 6.7 190 23:18 17.01.2020
4258 Clouds 27 1005 83 10000 6.7 170 22:41 17.01.2020
4259 Clouds 27 1005 83 10000 6.7 170 22:20 17.01.2020
4260 Rain 26 1005 88 10000 6.2 170 21:56 17.01.2020
4261 Rain 26 1005 88 10000 6.2 170 21:37 17.01.2020
4262 Rain 26 1005 88 10000 6.2 170 21:19 17.01.2020
4263 Clouds 27 1006 78 10000 7.2 170 20:43 17.01.2020
4264 Clouds 27 1006 78 10000 7.2 170 20:21 17.01.2020
4265 Clouds 28 1007 74 10000 7.7 160 19:58 17.01.2020
4266 Clouds 28 1007 74 10000 7.7 160 19:38 17.01.2020
4267 Clouds 28 1007 74 10000 7.7 160 19:20 17.01.2020
4268 Clouds 25 1009 88 0 5.2 138 18:58 17.01.2020
4269 Clouds 25 1009 88 0 5.2 138 18:58 17.01.2020
4270 Clouds 25 1009 88 0 5.2 138 18:38 17.01.2020
4271 Clouds 27 1008 83 10000 7.2 170 18:20 17.01.2020
4272 Clouds 27 1008 83 10000 7.2 170 17:40 17.01.2020
4273 Clouds 27 1008 83 10000 7.2 170 17:21 17.01.2020
4274 Clouds 25 1008 88 10000 7.2 150 16:57 17.01.2020
4275 Clouds 25 1008 88 10000 7.2 150 16:57 17.01.2020
4276 Clouds 25 1008 88 10000 7.2 150 16:38 17.01.2020
4277 Clouds 25 1008 88 10000 7.2 150 16:18 17.01.2020
4278 Rain 25 1007 88 8000 5.1 130 15:44 17.01.2020
4279 Rain 25 1007 88 8000 5.1 130 15:26 17.01.2020
4280 Rain 24 1007 100 8000 4.6 150 14:44 17.01.2020
4281 Rain 24 1007 100 8000 4.6 150 14:26 17.01.2020
4282 Rain 24 1006 100 3000 4.1 130 13:58 17.01.2020
4283 Rain 24 1006 100 3000 4.1 130 13:37 17.01.2020
4284 Rain 24 1006 100 3000 4.1 130 13:18 17.01.2020
4285 Rain 24 1006 100 3000 4.1 130 13:18 17.01.2020
4286 Rain 25 1009 88 0 4.75 125 12:42 17.01.2020
4287 Rain 25 1009 88 0 4.75 125 12:42 17.01.2020
4288 Rain 25 1009 88 0 4.75 125 12:21 17.01.2020
4289 Rain 25 1009 88 0 4.75 125 11:38 17.01.2020
4290 Clouds 24 1008 89 0 4.2 134 11:18 17.01.2020
4291 Clouds 24 1008 89 0 4.2 134 10:43 17.01.2020
4292 Clouds 24 1008 89 0 4.2 134 10:23 17.01.2020
4293 Clouds 24 1008 89 0 4.2 134 09:58 17.01.2020
4294 Clouds 24 1008 89 0 4.2 134 09:38 17.01.2020
4295 Clouds 24 1008 89 0 4.2 134 09:19 17.01.2020
4296 Clouds 24 1008 89 0 4.2 134 08:43 17.01.2020
4297 Clouds 24 1008 89 0 4.2 134 08:24 17.01.2020
4298 Clouds 24 1010 90 0 4.36 143 07:53 17.01.2020
4299 Clouds 24 1010 90 0 4.36 143 07:31 17.01.2020
4300 Clouds 24 1010 90 0 4.36 143 06:57 17.01.2020
4301 Clouds 24 1010 90 0 4.36 143 06:38 17.01.2020
4302 Clouds 24 1010 90 0 4.36 143 05:28 17.01.2020
4303 Clouds 25 1010 90 0 4.82 147 03:39 17.01.2020
4304 Clouds 25 1010 90 0 4.82 147 02:45 17.01.2020
4305 Clouds 25 1007 88 0 4.62 148 01:46 17.01.2020
4306 Clouds 25 1007 88 0 4.62 148 01:27 17.01.2020
4307 Clouds 24 1008 89 0 4.3 152 00:44 17.01.2020
4308 Clouds 27 1004 78 10000 7.7 160 00:20 17.01.2020
4309 Clouds 27 1004 78 10000 7.7 160 23:42 16.01.2020
4310 Clouds 27 1004 78 10000 7.7 160 23:24 16.01.2020
4311 Clouds 27 1005 78 10000 6.7 160 22:43 16.01.2020
4312 Clouds 27 1005 78 10000 6.7 160 22:22 16.01.2020
4313 Clouds 27 1006 78 10000 7.7 140 21:57 16.01.2020
4314 Clouds 27 1006 78 10000 7.7 140 21:39 16.01.2020
4315 Clouds 27 1006 78 10000 7.7 140 21:19 16.01.2020
4316 Clouds 27 1007 83 10000 7.7 160 20:59 16.01.2020
4317 Clouds 27 1007 83 10000 7.7 160 20:39 16.01.2020
4318 Clouds 27 1007 83 10000 7.7 160 20:20 16.01.2020
4319 Clouds 27 1007 83 10000 7.7 150 19:56 16.01.2020
4320 Clouds 27 1007 83 10000 7.7 150 19:38 16.01.2020
4321 Clouds 27 1007 83 10000 7.7 150 19:38 16.01.2020
4322 Clouds 27 1007 83 10000 7.7 150 19:19 16.01.2020
4323 Clouds 27 1008 83 10000 8.2 160 18:55 16.01.2020
4324 Clouds 27 1008 83 10000 8.2 160 18:37 16.01.2020
4325 Clouds 27 1008 83 10000 8.2 160 18:37 16.01.2020
4326 Clouds 27 1008 83 10000 8.2 160 18:18 16.01.2020
4327 Clouds 25 1008 88 10000 7.7 160 17:42 16.01.2020
4328 Clouds 25 1008 88 10000 7.7 160 17:23 16.01.2020
4329 Rain 25 1008 94 8000 7.2 150 16:57 16.01.2020
4330 Rain 25 1008 94 8000 7.2 150 16:39 16.01.2020
4331 Rain 25 1008 94 8000 7.2 150 16:19 16.01.2020
4332 Rain 25 1007 94 8000 6.7 150 15:44 16.01.2020
4333 Rain 25 1007 94 8000 6.7 150 15:23 16.01.2020
4334 Rain 25 1011 88 0 4.87 153 14:57 16.01.2020
4335 Rain 25 1011 88 0 4.87 153 14:57 16.01.2020
4336 Rain 25 1011 88 0 4.87 153 14:39 16.01.2020
4337 Clouds 24 1008 89 0 6.82 157 14:20 16.01.2020
4338 Clouds 24 1006 94 10000 6.7 150 13:45 16.01.2020
4339 Clouds 24 1006 94 10000 6.7 150 13:26 16.01.2020
4340 Rain 25 1009 89 0 6.25 152 12:47 16.01.2020
4341 Rain 25 1009 89 0 6.25 152 12:29 16.01.2020
4342 Rain 25 1009 89 0 6.25 152 12:29 16.01.2020
4343 Rain 25 1009 89 0 6.25 152 11:59 16.01.2020
4344 Rain 25 1009 89 0 6.25 152 11:41 16.01.2020
4345 Rain 25 1009 89 0 6.25 152 11:23 16.01.2020
4346 Rain 25 1008 89 0 5.98 148 10:55 16.01.2020
4347 Rain 25 1008 89 0 5.98 148 10:36 16.01.2020
4348 Rain 25 1008 89 0 5.98 148 10:18 16.01.2020
4349 Rain 25 1008 89 0 5.98 148 09:41 16.01.2020
4350 Rain 25 1008 89 0 5.98 148 09:23 16.01.2020
4351 Rain 25 1008 89 0 5.98 148 08:55 16.01.2020
4352 Rain 25 1008 89 0 5.98 148 08:36 16.01.2020
4353 Rain 25 1009 90 0 5.65 140 07:59 16.01.2020
4354 Rain 25 1009 90 0 5.65 140 07:41 16.01.2020
4355 Rain 25 1009 90 0 5.65 140 07:23 16.01.2020
4356 Rain 25 1009 90 0 5.65 140 06:45 16.01.2020
4357 Rain 25 1009 90 0 5.65 140 06:22 16.01.2020
4358 Rain 25 1009 90 0 5.65 140 05:46 16.01.2020
4359 Clouds 25 1010 91 0 4.23 152 04:46 16.01.2020
4360 Clouds 25 1010 91 0 4.23 152 03:28 16.01.2020
4361 Clouds 25 1010 91 0 4.23 152 02:43 16.01.2020
4362 Clouds 25 1005 83 10000 6.2 160 01:24 16.01.2020
4363 Clouds 26 1005 88 10000 6.2 180 00:25 16.01.2020
4364 Rain 26 1005 88 8000 6.7 160 23:56 15.01.2020
4365 Rain 26 1005 88 8000 6.7 160 23:38 15.01.2020
4366 Rain 26 1005 88 8000 6.7 160 23:18 15.01.2020
4367 Clouds 27 1005 83 10000 6.7 160 22:42 15.01.2020
4368 Clouds 27 1005 83 10000 6.7 160 22:20 15.01.2020
4369 Clouds 27 1006 83 10000 6.2 150 21:59 15.01.2020
4370 Clouds 27 1006 83 10000 6.2 150 21:40 15.01.2020
4371 Clouds 27 1006 83 10000 6.2 150 21:22 15.01.2020
4372 Clouds 25 1007 88 0 5.38 153 20:58 15.01.2020
4373 Clouds 25 1007 88 0 5.38 153 20:40 15.01.2020
4374 Clouds 28 1008 78 10000 7.2 150 20:22 15.01.2020
4375 Clouds 28 1008 78 10000 7.2 150 19:57 15.01.2020
4376 Clouds 28 1008 78 10000 7.2 150 19:38 15.01.2020
4377 Clouds 28 1008 78 10000 7.2 150 19:20 15.01.2020
4378 Clouds 28 1008 78 10000 7.2 150 19:20 15.01.2020
4379 Clouds 28 1008 78 10000 7.7 160 18:57 15.01.2020
4380 Clouds 28 1008 78 10000 7.7 160 18:57 15.01.2020
4381 Clouds 28 1008 78 10000 7.7 160 18:38 15.01.2020
4382 Clouds 28 1008 78 10000 7.7 160 18:20 15.01.2020
4383 Clouds 26 1008 88 10000 6.2 160 17:58 15.01.2020
4384 Clouds 26 1008 88 10000 6.2 160 17:40 15.01.2020
4385 Clouds 26 1008 88 10000 6.2 160 17:21 15.01.2020
4386 Rain 25 1008 94 8000 6.2 160 16:55 15.01.2020
4387 Rain 25 1008 94 8000 6.2 160 16:55 15.01.2020
4388 Rain 25 1008 94 8000 6.2 160 16:36 15.01.2020
4389 Rain 25 1008 94 8000 6.2 160 16:18 15.01.2020
4390 Rain 25 1008 88 8000 6.7 150 15:42 15.01.2020
4391 Rain 25 1008 88 8000 6.7 150 15:20 15.01.2020
4392 Clouds 25 1007 88 10000 6.2 160 14:45 15.01.2020
4393 Clouds 25 1007 88 10000 6.2 160 14:23 15.01.2020
4394 Clouds 24 1006 94 10000 5.7 160 13:58 15.01.2020
4395 Clouds 24 1006 94 10000 5.7 160 13:40 15.01.2020
4396 Clouds 24 1006 94 10000 5.7 160 13:40 15.01.2020
4397 Clouds 24 1006 94 10000 5.7 160 13:22 15.01.2020
4398 Clouds 25 1008 88 0 6.21 165 12:55 15.01.2020
4399 Clouds 25 1008 88 0 6.21 165 12:36 15.01.2020
4400 Clouds 25 1008 88 0 6.21 165 12:18 15.01.2020
4401 Clouds 25 1008 88 0 6.21 165 11:38 15.01.2020
4402 Clouds 25 1008 87 0 5.28 162 11:20 15.01.2020
4403 Clouds 25 1008 87 0 5.28 162 10:47 15.01.2020
4404 Clouds 25 1008 87 0 5.28 162 10:28 15.01.2020
4405 Clouds 25 1008 87 0 5.28 162 09:57 15.01.2020
4406 Clouds 25 1008 87 0 5.28 162 09:57 15.01.2020
4407 Clouds 25 1008 87 0 5.28 162 09:38 15.01.2020
4408 Clouds 25 1008 87 0 5.28 162 09:19 15.01.2020
4409 Clouds 25 1008 87 0 5.28 162 08:44 15.01.2020
4410 Clouds 25 1008 87 0 5.28 162 08:23 15.01.2020
4411 Clouds 25 1010 88 0 5.57 151 07:54 15.01.2020
4412 Clouds 25 1010 88 0 5.57 151 07:32 15.01.2020
4413 Clouds 25 1010 88 0 5.57 151 06:48 15.01.2020
4414 Clouds 25 1010 88 0 5.57 151 06:23 15.01.2020
4415 Clouds 25 1010 89 0 4.76 155 04:45 15.01.2020
4416 Clouds 25 1010 89 0 4.76 155 02:39 15.01.2020
4417 Clouds 25 1005 88 10000 5.7 160 01:28 15.01.2020
4418 Clouds 25 1005 88 10000 5.7 160 01:28 15.01.2020
4419 Rain 25 1004 94 10000 5.7 160 00:59 15.01.2020
4420 Rain 25 1004 94 10000 5.7 160 00:59 15.01.2020
4421 Rain 25 1004 94 10000 5.7 160 00:36 15.01.2020
4422 Rain 25 1004 94 10000 5.7 160 00:18 15.01.2020
4423 Clouds 26 1004 83 10000 6.7 170 23:45 14.01.2020
4424 Clouds 26 1004 83 10000 6.7 170 23:24 14.01.2020
4425 Clouds 25 1007 87 0 6.24 160 22:41 14.01.2020
4426 Clouds 28 1005 78 10000 7.2 180 22:20 14.01.2020
4427 Clouds 28 1005 78 10000 7.2 180 21:59 14.01.2020
4428 Clouds 28 1005 78 10000 7.2 180 21:41 14.01.2020
4429 Clouds 28 1005 78 10000 7.2 180 21:22 14.01.2020
4430 Clouds 28 1005 78 10000 7.2 170 20:59 14.01.2020
4431 Clouds 25 1007 87 0 6.24 160 20:40 14.01.2020
4432 Clouds 28 1007 78 10000 6.7 170 20:20 14.01.2020
4433 Clouds 28 1007 78 10000 6.7 170 19:56 14.01.2020
4434 Clouds 28 1007 78 10000 6.7 170 19:38 14.01.2020
4435 Clouds 28 1007 78 10000 6.7 170 19:19 14.01.2020
4436 Clouds 27 1007 83 10000 6.7 150 18:56 14.01.2020
4437 Rain 25 1009 88 0 6.8 147 18:37 14.01.2020
4438 Clouds 27 1008 83 10000 7.2 160 18:18 14.01.2020
4439 Clouds 27 1008 83 10000 7.2 160 17:38 14.01.2020
4440 Clouds 27 1008 83 10000 7.2 160 17:19 14.01.2020
4441 Clouds 26 1008 88 10000 6.2 150 16:55 14.01.2020
4442 Clouds 26 1008 88 10000 6.2 150 16:37 14.01.2020
4443 Clouds 26 1008 88 10000 6.2 150 16:19 14.01.2020
4444 Clouds 25 1007 88 10000 6.2 160 15:43 14.01.2020
4445 Clouds 25 1007 88 10000 6.2 160 15:19 14.01.2020
4446 Rain 24 1006 94 8000 5.1 160 14:47 14.01.2020
4447 Rain 24 1006 94 8000 5.1 160 14:23 14.01.2020
4448 Rain 25 1008 87 0 4.6 154 13:59 14.01.2020
4449 Rain 23 1006 100 5000 4.6 170 13:40 14.01.2020
4450 Rain 23 1006 100 5000 4.6 170 13:19 14.01.2020
4451 Rain 25 1009 86 0 4.43 149 12:42 14.01.2020
4452 Rain 25 1009 86 0 4.43 149 12:23 14.01.2020
4453 Rain 25 1009 86 0 4.43 149 11:57 14.01.2020
4454 Rain 25 1009 86 0 4.43 149 11:38 14.01.2020
4455 Rain 25 1008 87 0 3.73 158 11:20 14.01.2020
4456 Rain 25 1008 87 0 3.73 158 10:55 14.01.2020
4457 Rain 25 1008 87 0 3.73 158 10:36 14.01.2020
4458 Rain 25 1008 87 0 3.73 158 10:18 14.01.2020
4459 Rain 25 1008 87 0 3.73 158 10:18 14.01.2020
4460 Rain 25 1008 87 0 3.73 158 09:42 14.01.2020
4461 Rain 25 1008 87 0 3.73 158 09:22 14.01.2020
4462 Rain 25 1008 87 0 3.73 158 08:57 14.01.2020
4463 Rain 25 1008 87 0 3.73 158 08:39 14.01.2020
4464 Clear 25 1011 86 0 4.41 177 08:20 14.01.2020
4465 Clear 25 1011 86 0 4.41 177 07:38 14.01.2020
4466 Clear 25 1011 86 0 4.41 177 06:59 14.01.2020
4467 Clear 25 1011 86 0 4.41 177 06:40 14.01.2020
4468 Clear 25 1011 86 0 4.41 177 05:33 14.01.2020
4469 Clouds 25 1011 84 0 4.68 167 04:22 14.01.2020
4470 Clouds 25 1011 84 0 4.68 167 03:35 14.01.2020
4471 Clouds 25 1006 88 10000 5.1 160 02:26 14.01.2020
4472 Clouds 25 1006 88 10000 5.1 160 01:18 14.01.2020
4473 Clouds 26 1005 83 10000 6.2 170 00:38 14.01.2020
4474 Clouds 25 1009 82 0 4.36 165 23:59 13.01.2020
4475 Clouds 25 1009 82 0 4.36 165 23:37 13.01.2020
4476 Clouds 28 1006 74 10000 5.7 180 23:18 13.01.2020
4477 Clouds 28 1006 74 10000 5.7 180 22:43 13.01.2020
4478 Clouds 28 1006 74 10000 5.7 180 22:22 13.01.2020
4479 Clouds 28 1006 74 10000 5.7 180 22:22 13.01.2020
4480 Clouds 27 1007 78 10000 5.1 170 21:58 13.01.2020
4481 Clouds 27 1007 78 10000 5.1 170 21:58 13.01.2020
4482 Clouds 27 1007 78 10000 5.1 170 21:38 13.01.2020
4483 Clouds 27 1007 78 10000 5.1 170 21:19 13.01.2020
4484 Clouds 25 1008 81 0 4.4 153 20:59 13.01.2020
4485 Clouds 25 1008 81 0 4.4 153 20:59 13.01.2020
4486 Clouds 25 1008 81 0 4.4 153 20:59 13.01.2020
4487 Clouds 25 1008 81 0 4.4 153 20:41 13.01.2020
4488 Clouds 25 1008 81 0 4.23 152 20:22 13.01.2020
4489 Clouds 25 1008 81 0 4.23 152 20:22 13.01.2020
4490 Clouds 25 1010 82 0 4.75 148 19:59 13.01.2020
4491 Clouds 25 1010 82 0 4.75 148 19:39 13.01.2020
4492 Clouds 25 1010 82 0 4.75 148 19:20 13.01.2020
4493 Clouds 25 1010 82 0 4.75 148 19:20 13.01.2020
4494 Clouds 26 1008 83 10000 4.1 180 18:56 13.01.2020
4495 Clouds 26 1008 83 10000 4.1 180 18:37 13.01.2020
4496 Clouds 26 1008 83 10000 4.1 180 18:18 13.01.2020
4497 Clouds 26 1009 83 10000 4.1 180 17:43 13.01.2020
4498 Clouds 26 1009 83 10000 4.1 180 17:24 13.01.2020
4499 Clouds 26 1009 83 10000 4.1 180 17:24 13.01.2020
4500 Clouds 26 1009 83 10000 4.1 180 16:57 13.01.2020
4501 Clouds 25 1012 82 0 5.07 143 16:38 13.01.2020
4502 Clouds 25 1012 82 0 5.07 143 16:20 13.01.2020
4503 Clouds 25 1012 82 0 5.07 143 15:44 13.01.2020
4504 Clouds 25 1012 82 0 5.07 143 15:24 13.01.2020
4505 Clouds 25 1012 82 0 5.07 143 14:58 13.01.2020
4506 Clouds 25 1012 82 0 5.07 143 14:38 13.01.2020
4507 Clouds 24 1009 82 0 4.98 149 14:20 13.01.2020
4508 Clouds 24 1009 82 0 4.98 149 13:43 13.01.2020
4509 Clouds 24 1009 82 0 4.98 149 13:43 13.01.2020
4510 Clouds 24 1009 82 0 4.98 149 13:25 13.01.2020
4511 Clouds 24 1010 82 0 4.92 145 12:59 13.01.2020
4512 Clouds 24 1010 82 0 4.92 145 12:41 13.01.2020
4513 Clouds 24 1010 82 0 4.92 145 12:23 13.01.2020
4514 Clouds 24 1010 82 0 4.92 145 11:57 13.01.2020
4515 Clouds 24 1010 82 0 4.92 145 11:37 13.01.2020
4516 Clouds 24 1008 80 0 4.75 148 11:19 13.01.2020
4517 Clouds 24 1008 80 0 4.75 148 10:55 13.01.2020
4518 Clouds 24 1008 80 0 4.75 148 10:37 13.01.2020
4519 Clouds 24 1008 80 0 4.75 148 10:19 13.01.2020
4520 Clouds 24 1008 80 0 4.75 148 09:42 13.01.2020
4521 Clouds 24 1008 80 0 4.75 148 09:23 13.01.2020
4522 Clouds 24 1008 80 0 4.75 148 08:44 13.01.2020
4523 Clouds 24 1010 79 0 3.99 136 08:22 13.01.2020
4524 Clouds 24 1010 79 0 3.99 136 07:59 13.01.2020
4525 Clouds 24 1010 79 0 3.99 136 07:41 13.01.2020
4526 Clouds 24 1010 79 0 3.99 136 07:19 13.01.2020
4527 Clouds 24 1010 79 0 3.99 136 06:37 13.01.2020
4528 Clouds 24 1010 79 0 3.99 136 06:37 13.01.2020
4529 Clouds 24 1010 79 0 3.99 136 05:36 13.01.2020
4530 Clouds 24 1010 79 0 4.3 142 04:25 13.01.2020
4531 Clouds 24 1010 79 0 4.3 142 03:34 13.01.2020
4532 Clouds 24 1010 79 0 4.3 142 02:49 13.01.2020
4533 Clouds 26 1005 78 10000 5.7 160 02:29 13.01.2020
4534 Clouds 26 1005 78 10000 5.7 160 01:32 13.01.2020
4535 Clouds 27 1005 74 10000 6.7 160 00:42 13.01.2020
4536 Clouds 27 1005 74 10000 6.7 160 00:24 13.01.2020
4537 Clouds 27 1005 74 10000 7.2 160 23:56 12.01.2020
4538 Clouds 27 1005 74 10000 7.2 160 23:37 12.01.2020
4539 Clouds 27 1005 74 10000 7.2 160 23:19 12.01.2020
4540 Clouds 28 1005 69 10000 6.2 150 22:42 12.01.2020
4541 Clouds 28 1005 69 10000 6.2 150 22:24 12.01.2020
4542 Clouds 28 1005 69 10000 6.2 150 22:24 12.01.2020
4543 Clouds 29 1006 70 10000 7.7 170 21:57 12.01.2020
4544 Clouds 29 1006 70 10000 7.7 170 21:38 12.01.2020
4545 Clouds 29 1006 70 10000 7.7 170 21:19 12.01.2020
4546 Clouds 28 1006 69 10000 6.7 190 20:56 12.01.2020
4547 Clouds 28 1006 69 10000 6.7 190 20:38 12.01.2020
4548 Clouds 28 1006 69 10000 6.7 190 20:20 12.01.2020
4549 Clouds 28 1007 69 10000 6.2 180 19:56 12.01.2020
4550 Clouds 28 1007 69 10000 6.2 180 19:37 12.01.2020
4551 Clouds 28 1007 69 10000 6.2 180 19:18 12.01.2020
4552 Clouds 28 1008 69 10000 7.7 160 18:57 12.01.2020
4553 Clouds 28 1008 69 10000 7.7 160 18:39 12.01.2020
4554 Clouds 28 1008 69 10000 7.7 160 18:21 12.01.2020
4555 Clouds 27 1008 74 10000 7.7 160 17:43 12.01.2020
4556 Clouds 27 1008 74 10000 7.7 160 17:23 12.01.2020
4557 Clouds 27 1008 74 10000 7.7 160 17:23 12.01.2020
4558 Clouds 26 1008 83 10000 7.7 160 16:59 12.01.2020
4559 Clouds 26 1008 83 10000 7.7 160 16:39 12.01.2020
4560 Clouds 26 1008 83 10000 7.7 160 16:20 12.01.2020
4561 Clouds 25 1008 83 10000 7.2 160 15:57 12.01.2020
4562 Clouds 25 1008 83 10000 7.2 160 15:38 12.01.2020
4563 Clouds 25 1008 83 10000 7.2 160 15:20 12.01.2020
4564 Clouds 25 1007 88 10000 6.2 170 14:43 12.01.2020
4565 Clouds 25 1007 88 10000 6.2 170 14:24 12.01.2020
4566 Clouds 24 1007 94 10000 5.1 160 13:57 12.01.2020
4567 Clouds 24 1007 94 10000 5.1 160 13:57 12.01.2020
4568 Clouds 24 1007 94 10000 5.1 160 13:39 12.01.2020
4569 Clouds 24 1007 94 10000 5.1 160 13:20 12.01.2020
4570 Clouds 24 1007 94 10000 5.1 160 13:20 12.01.2020
4571 Clouds 25 1010 77 0 5.48 154 12:56 12.01.2020
4572 Clouds 25 1010 77 0 5.48 154 12:37 12.01.2020
4573 Clouds 25 1010 77 0 5.48 154 12:19 12.01.2020
4574 Clouds 25 1010 77 0 5.48 154 11:42 12.01.2020
4575 Clouds 25 1010 77 0 5.48 154 11:22 12.01.2020
4576 Clouds 25 1009 78 0 4.78 165 10:56 12.01.2020
4577 Clouds 25 1009 78 0 4.78 165 10:37 12.01.2020
4578 Clouds 25 1009 78 0 4.78 165 10:19 12.01.2020
4579 Clouds 25 1009 78 0 4.78 165 09:42 12.01.2020
4580 Clouds 25 1009 78 0 4.78 165 09:23 12.01.2020
4581 Clouds 25 1009 78 0 4.78 165 08:48 12.01.2020
4582 Rain 25 1009 78 0 4.83 165 08:24 12.01.2020
4583 Clouds 25 1011 80 0 5.85 159 07:49 12.01.2020
4584 Clouds 25 1011 80 0 5.85 159 07:30 12.01.2020
4585 Clouds 25 1011 80 0 5.85 159 06:59 12.01.2020
4586 Clouds 25 1011 80 0 5.85 159 06:59 12.01.2020
4587 Clouds 25 1011 80 0 5.85 159 06:59 12.01.2020
4588 Clouds 25 1011 80 0 5.85 159 06:36 12.01.2020
4589 Clouds 25 1011 80 0 5.85 159 05:52 12.01.2020
4590 Clouds 25 1011 80 0 6.02 150 04:56 12.01.2020
4591 Clouds 25 1011 80 0 6.02 150 03:43 12.01.2020
4592 Clouds 25 1011 80 0 6.02 150 02:46 12.01.2020
4593 Clouds 26 1005 78 10000 6.2 170 02:24 12.01.2020
4594 Clouds 26 1005 78 10000 6.2 170 01:34 12.01.2020
4595 Clouds 26 1005 78 10000 7.2 180 00:46 12.01.2020
4596 Clouds 26 1005 78 10000 7.2 180 00:22 12.01.2020
4597 Clouds 27 1005 78 10000 7.2 180 23:56 11.01.2020
4598 Clouds 27 1005 78 10000 7.2 180 23:38 11.01.2020
4599 Clouds 27 1005 78 10000 7.2 180 23:18 11.01.2020
4600 Clouds 28 1005 74 10000 7.7 150 22:56 11.01.2020
4601 Clouds 28 1005 74 10000 7.7 150 22:37 11.01.2020
4602 Clouds 28 1005 74 10000 7.7 150 22:19 11.01.2020
4603 Clouds 28 1006 74 10000 7.7 150 21:44 11.01.2020
4604 Clouds 28 1006 74 10000 7.7 150 21:19 11.01.2020
4605 Clouds 28 1006 74 10000 7.7 150 21:19 11.01.2020
4606 Clouds 28 1007 74 10000 8.2 170 20:56 11.01.2020
4607 Clouds 28 1007 74 10000 8.2 170 20:38 11.01.2020
4608 Clouds 28 1007 74 10000 8.2 170 20:19 11.01.2020
4609 Clouds 29 1008 70 10000 8.2 170 19:55 11.01.2020
4610 Clouds 29 1008 70 10000 8.2 170 19:37 11.01.2020
4611 Clouds 29 1008 70 10000 8.2 170 19:19 11.01.2020
4612 Clouds 29 1008 70 10000 8.2 170 19:19 11.01.2020
4613 Clouds 29 1008 70 10000 9.3 170 18:55 11.01.2020
4614 Clouds 29 1008 70 10000 9.3 170 18:36 11.01.2020
4615 Clouds 29 1008 70 10000 9.3 170 18:18 11.01.2020
4616 Clouds 29 1008 70 10000 9.3 170 18:18 11.01.2020
4617 Clouds 28 1008 74 10000 8.7 170 17:55 11.01.2020
4618 Clouds 28 1008 74 10000 8.7 170 17:36 11.01.2020
4619 Clouds 28 1008 74 10000 8.7 170 17:18 11.01.2020
4620 Clouds 28 1008 74 10000 8.7 170 17:18 11.01.2020
4621 Clouds 27 1008 74 10000 8.2 170 16:43 11.01.2020
4622 Clouds 27 1008 74 10000 8.2 170 16:22 11.01.2020
4623 Clouds 26 1008 83 10000 7.7 160 15:42 11.01.2020
4624 Clouds 26 1008 83 10000 7.7 160 15:24 11.01.2020
4625 Rain 25 1007 88 10000 7.7 160 14:58 11.01.2020
4626 Rain 25 1007 88 10000 7.7 160 14:40 11.01.2020
4627 Rain 25 1007 88 10000 7.7 160 14:22 11.01.2020
4628 Clouds 24 1006 88 10000 6.2 160 13:55 11.01.2020
4629 Clouds 24 1006 88 10000 6.2 160 13:55 11.01.2020
4630 Clouds 24 1006 88 10000 6.2 160 13:36 11.01.2020
4631 Clouds 24 1006 88 10000 6.2 160 13:18 11.01.2020
4632 Rain 25 1010 84 0 7.09 161 12:42 11.01.2020
4633 Rain 25 1010 84 0 7.09 161 12:24 11.01.2020
4634 Rain 25 1010 84 0 7.09 161 11:49 11.01.2020
4635 Rain 25 1010 84 0 7.09 161 11:28 11.01.2020
4636 Rain 25 1009 84 0 6.29 160 10:59 11.01.2020
4637 Rain 25 1009 84 0 6.29 160 10:40 11.01.2020
4638 Rain 25 1009 84 0 6.29 160 10:40 11.01.2020
4639 Rain 25 1009 84 0 6.29 160 10:22 11.01.2020
4640 Rain 25 1009 84 0 6.29 160 09:39 11.01.2020
4641 Rain 25 1009 84 0 6.29 160 09:21 11.01.2020
4642 Rain 25 1009 84 0 6.29 160 08:42 11.01.2020
4643 Rain 25 1009 84 0 7.26 159 08:22 11.01.2020
4644 Clouds 25 1010 84 0 7.39 155 07:44 11.01.2020
4645 Clouds 25 1010 84 0 7.39 155 07:26 11.01.2020
4646 Clouds 25 1010 84 0 7.39 155 06:52 11.01.2020
4647 Clouds 25 1010 84 0 7.39 155 06:52 11.01.2020
4648 Clouds 25 1010 84 0 7.39 155 05:50 11.01.2020
4649 Clouds 25 1011 84 0 6.59 156 04:47 11.01.2020
4650 Clouds 25 1011 84 0 6.59 156 04:29 11.01.2020
4651 Clouds 25 1011 84 0 6.59 156 02:58 11.01.2020
4652 Clouds 25 1011 84 0 6.59 156 02:38 11.01.2020
4653 Clouds 26 1004 78 10000 7.2 160 01:43 11.01.2020
4654 Clouds 26 1004 78 10000 7.2 160 01:20 11.01.2020
4655 Clouds 27 1004 74 10000 7.7 170 00:43 11.01.2020
4656 Clouds 27 1004 74 10000 7.7 170 00:18 11.01.2020
4657 Clouds 27 1004 78 10000 7.7 170 23:40 10.01.2020
4658 Clouds 27 1004 78 10000 7.7 170 23:40 10.01.2020
4659 Clouds 27 1004 78 10000 7.7 170 23:22 10.01.2020
4660 Clouds 27 1004 78 10000 8.7 170 22:58 10.01.2020
4661 Clouds 27 1004 78 10000 8.7 170 22:40 10.01.2020
4662 Clouds 27 1004 78 10000 8.7 170 22:40 10.01.2020
4663 Clouds 27 1004 78 10000 8.7 170 22:20 10.01.2020
4664 Clouds 28 1005 74 10000 8.7 160 21:57 10.01.2020
4665 Clouds 28 1005 74 10000 8.7 160 21:37 10.01.2020
4666 Clouds 28 1005 74 10000 8.7 160 21:19 10.01.2020
4667 Clouds 28 1006 74 10000 8.7 150 20:43 10.01.2020
4668 Clouds 28 1006 74 10000 8.7 150 20:24 10.01.2020
4669 Clouds 28 1006 74 10000 10.3 140 19:58 10.01.2020
4670 Clouds 28 1006 74 10000 10.3 140 19:38 10.01.2020
4671 Clouds 28 1006 74 10000 10.3 140 19:19 10.01.2020
4672 Clouds 27 1006 74 10000 9.8 150 18:43 10.01.2020
4673 Clouds 27 1006 74 10000 9.8 150 18:19 10.01.2020
4674 Clouds 26 1007 83 10000 8.7 160 17:57 10.01.2020
4675 Clouds 26 1007 83 10000 8.7 160 17:39 10.01.2020
4676 Clouds 26 1007 83 10000 8.7 160 17:20 10.01.2020
4677 Clouds 25 1007 83 10000 9.3 150 16:57 10.01.2020
4678 Clouds 25 1007 83 10000 9.3 150 16:38 10.01.2020
4679 Clouds 25 1007 83 10000 9.3 150 16:19 10.01.2020
4680 Rain 25 1007 88 10000 9.3 150 15:56 10.01.2020
4681 Rain 25 1007 88 10000 9.3 150 15:36 10.01.2020
4682 Rain 25 1007 88 10000 9.3 150 15:18 10.01.2020
4683 Rain 24 1007 94 10000 7.7 150 14:54 10.01.2020
4684 Rain 24 1007 94 10000 7.7 150 14:36 10.01.2020
4685 Rain 24 1007 94 10000 7.7 150 14:18 10.01.2020
4686 Rain 25 1009 83 0 7.1 133 13:41 10.01.2020
4687 Rain 25 1009 85 0 7.23 136 13:23 10.01.2020
4688 Rain 25 1009 85 0 7.23 136 12:58 10.01.2020
4689 Rain 25 1009 85 0 7.23 136 12:38 10.01.2020
4690 Rain 25 1009 85 0 7.23 136 12:19 10.01.2020
4691 Rain 25 1009 85 0 7.23 136 11:55 10.01.2020
4692 Rain 25 1009 85 0 7.23 136 11:37 10.01.2020
4693 Rain 25 1008 85 0 6.86 132 11:18 10.01.2020
4694 Rain 25 1008 85 0 6.86 132 10:42 10.01.2020
4695 Rain 25 1008 85 0 6.86 132 10:24 10.01.2020
4696 Rain 25 1008 85 0 6.86 132 09:56 10.01.2020
4697 Rain 25 1008 85 0 6.86 132 09:38 10.01.2020
4698 Rain 25 1008 85 0 6.86 132 09:20 10.01.2020
4699 Rain 25 1008 85 0 6.86 132 08:42 10.01.2020
4700 Rain 25 1008 85 0 6.43 135 08:23 10.01.2020
4701 Rain 25 1009 86 0 6.44 136 07:45 10.01.2020
4702 Rain 25 1009 86 0 6.44 136 07:26 10.01.2020
4703 Rain 25 1009 86 0 6.44 136 06:46 10.01.2020
4704 Rain 25 1009 86 0 6.44 136 06:26 10.01.2020
4705 Rain 25 1009 86 0 6.44 136 05:48 10.01.2020
4706 Clouds 25 1010 85 0 7.27 131 03:37 10.01.2020
4707 Clouds 25 1010 85 0 7.27 131 03:18 10.01.2020
4708 Clouds 25 1010 85 0 7.27 131 02:47 10.01.2020
4709 Rain 25 1005 88 10000 6.2 150 01:38 10.01.2020
4710 Rain 25 1005 88 10000 6.2 150 01:19 10.01.2020
4711 Rain 25 1005 94 8000 6.7 160 00:39 10.01.2020
4712 Rain 25 1005 94 8000 6.2 150 23:58 09.01.2020
4713 Rain 25 1005 94 8000 6.2 150 23:38 09.01.2020
4714 Rain 25 1005 94 8000 6.2 150 23:20 09.01.2020
4715 Rain 25 1006 94 8000 6.2 140 22:57 09.01.2020
4716 Rain 25 1006 94 8000 6.2 140 22:38 09.01.2020
4717 Rain 25 1006 94 8000 6.2 140 22:19 09.01.2020
4718 Rain 25 1007 94 5000 6.2 140 21:57 09.01.2020
4719 Rain 25 1007 94 5000 6.2 140 21:37 09.01.2020
4720 Rain 25 1007 94 5000 6.2 140 21:37 09.01.2020
4721 Rain 25 1007 94 5000 6.2 140 21:37 09.01.2020
4722 Rain 25 1007 94 5000 6.2 140 21:37 09.01.2020
4723 Rain 25 1007 94 5000 6.2 140 21:37 09.01.2020
4724 Rain 25 1007 94 5000 6.2 140 21:19 09.01.2020
4725 Rain 26 1007 94 5000 6.2 150 20:56 09.01.2020
4726 Rain 26 1007 94 5000 6.2 150 20:38 09.01.2020
4727 Rain 26 1007 94 5000 6.2 150 20:19 09.01.2020
4728 Rain 26 1007 94 5000 6.2 150 20:19 09.01.2020
4729 Rain 26 1007 94 5000 6.2 150 20:19 09.01.2020
4730 Rain 26 1008 94 8000 5.1 140 19:56 09.01.2020
4731 Rain 26 1008 94 8000 5.1 140 19:37 09.01.2020
4732 Rain 26 1008 94 8000 5.1 140 19:18 09.01.2020
4733 Rain 25 1009 94 8000 5.1 140 18:54 09.01.2020
4734 Rain 25 1009 94 8000 5.1 140 18:54 09.01.2020
4735 Rain 25 1009 94 8000 5.1 140 18:36 09.01.2020
4736 Rain 25 1009 94 8000 5.1 140 18:18 09.01.2020
4737 Rain 25 1009 94 8000 5.1 140 18:18 09.01.2020
4738 Rain 24 1009 94 5000 5.1 140 17:40 09.01.2020
4739 Rain 24 1009 94 5000 5.1 140 17:18 09.01.2020
4740 Rain 24 1010 94 5000 5.1 140 16:47 09.01.2020
4741 Rain 24 1010 94 5000 5.1 140 16:22 09.01.2020
4742 Rain 25 1012 86 0 8.08 129 15:44 09.01.2020
4743 Rain 25 1012 86 0 8.08 129 15:25 09.01.2020
4744 Rain 25 1012 86 0 8.08 129 14:59 09.01.2020
4745 Rain 25 1012 86 0 8.08 129 14:41 09.01.2020
4746 Rain 25 1011 86 0 7.71 135 14:19 09.01.2020
4747 Rain 25 1011 86 0 7.71 135 13:57 09.01.2020
4748 Rain 25 1011 86 0 7.71 135 13:38 09.01.2020
4749 Rain 25 1011 86 0 7.19 132 13:19 09.01.2020
4750 Rain 25 1011 86 0 7.19 132 12:57 09.01.2020
4751 Rain 25 1011 86 0 7.19 132 12:38 09.01.2020
4752 Rain 25 1011 86 0 7.19 132 12:18 09.01.2020
4753 Rain 25 1011 86 0 7.19 132 11:42 09.01.2020
4754 Rain 25 1011 86 0 7.19 132 11:24 09.01.2020
4755 Rain 25 1011 86 0 7.19 132 11:24 09.01.2020
4756 Rain 25 1010 87 0 6.78 136 10:58 09.01.2020
4757 Rain 25 1010 87 0 6.78 136 10:40 09.01.2020
4758 Rain 25 1010 87 0 6.78 136 10:21 09.01.2020
4759 Rain 25 1010 87 0 6.78 136 09:47 09.01.2020
4760 Rain 25 1010 87 0 6.78 136 09:25 09.01.2020
4761 Rain 25 1010 87 0 6.78 136 08:59 09.01.2020
4762 Rain 25 1010 87 0 6.78 136 08:39 09.01.2020
4763 Rain 25 1012 87 0 6.44 142 08:21 09.01.2020
4764 Rain 25 1012 87 0 6.44 142 07:48 09.01.2020
4765 Rain 25 1012 87 0 6.44 142 07:30 09.01.2020
4766 Rain 25 1012 87 0 6.44 142 06:40 09.01.2020
4767 Rain 25 1012 87 0 6.44 142 06:22 09.01.2020
4768 Rain 25 1012 87 0 6.44 142 05:51 09.01.2020
4769 Rain 25 1012 88 0 6.64 129 05:20 09.01.2020
4770 Rain 25 1012 88 0 6.64 129 04:39 09.01.2020
4771 Rain 25 1012 88 0 6.64 129 03:27 09.01.2020
4772 Rain 25 1012 88 0 6.64 129 02:46 09.01.2020
4773 Rain 24 1008 94 10000 4.6 140 01:42 09.01.2020
4774 Rain 25 1008 88 10000 3.1 120 00:57 09.01.2020
4775 Rain 25 1008 88 10000 3.1 120 00:37 09.01.2020
4776 Rain 25 1008 88 10000 3.1 120 00:19 09.01.2020
4777 Rain 24 1008 94 10000 4.1 130 23:39 08.01.2020
4778 Rain 24 1008 94 10000 4.1 130 23:20 08.01.2020
4779 Clouds 25 1010 85 0 6.32 141 22:40 08.01.2020
4780 Clouds 25 1010 85 0 6.32 141 22:22 08.01.2020
4781 Clouds 25 1010 85 0 6.32 141 21:58 08.01.2020
4782 Clouds 25 1010 85 0 6.32 141 21:40 08.01.2020
4783 Rain 24 1009 94 5000 4.1 160 21:20 08.01.2020
4784 Rain 25 1009 94 8000 5.1 160 20:59 08.01.2020
4785 Rain 25 1009 94 8000 5.1 160 20:40 08.01.2020
4786 Rain 25 1009 94 8000 5.1 160 20:20 08.01.2020
4787 Rain 25 1009 94 8000 5.1 160 20:20 08.01.2020
4788 Clouds 25 1012 84 0 6.21 137 19:57 08.01.2020
4789 Clouds 25 1012 84 0 6.21 137 19:38 08.01.2020
4790 Clouds 25 1012 84 0 6.21 137 19:19 08.01.2020
4791 Clouds 27 1011 78 10000 6.2 170 18:56 08.01.2020
4792 Clouds 27 1011 78 10000 6.2 170 18:37 08.01.2020
4793 Clouds 27 1011 78 10000 6.2 170 18:18 08.01.2020
4794 Clouds 26 1011 83 10000 6.2 160 17:56 08.01.2020
4795 Clouds 26 1011 83 10000 6.2 160 17:37 08.01.2020
4796 Clouds 26 1011 83 10000 6.2 160 17:18 08.01.2020
4797 Clouds 26 1011 83 10000 6.2 160 17:18 08.01.2020
4798 Clouds 26 1011 83 10000 5.7 160 16:54 08.01.2020
4799 Clouds 26 1011 83 10000 5.7 160 16:36 08.01.2020
4800 Clouds 26 1011 83 10000 5.7 160 16:18 08.01.2020
4801 Clouds 25 1010 88 10000 5.1 150 15:40 08.01.2020
4802 Clouds 25 1010 88 10000 5.1 150 15:20 08.01.2020
4803 Clouds 25 1009 88 10000 4.6 160 14:56 08.01.2020
4804 Clouds 25 1009 88 10000 4.6 160 14:38 08.01.2020
4805 Clouds 25 1009 88 10000 4.6 160 14:19 08.01.2020
4806 Clouds 24 1009 94 10000 4.6 160 13:40 08.01.2020
4807 Clouds 24 1009 94 10000 4.6 160 13:19 08.01.2020
4808 Clear 25 1012 83 0 4.88 124 12:42 08.01.2020
4809 Clear 25 1012 83 0 4.88 124 12:19 08.01.2020
4810 Clear 25 1012 83 0 4.88 124 11:55 08.01.2020
4811 Clear 25 1012 83 0 4.88 124 11:55 08.01.2020
4812 Clear 25 1012 83 0 4.88 124 11:37 08.01.2020
4813 Clear 25 1011 83 0 4.85 117 11:19 08.01.2020
4814 Clear 25 1011 83 0 4.85 117 10:55 08.01.2020
4815 Clear 25 1011 83 0 4.85 117 10:37 08.01.2020
4816 Clear 25 1011 83 0 4.85 117 10:18 08.01.2020
4817 Clear 25 1011 83 0 4.85 117 09:41 08.01.2020
4818 Clear 25 1011 83 0 4.85 117 09:19 08.01.2020
4819 Clear 25 1011 83 0 4.85 117 08:56 08.01.2020
4820 Clear 25 1011 83 0 4.85 117 08:37 08.01.2020
4821 Clouds 25 1013 85 0 4.85 121 08:18 08.01.2020
4822 Clouds 25 1013 85 0 4.85 121 07:48 08.01.2020
4823 Clouds 25 1013 85 0 4.85 121 07:29 08.01.2020
4824 Clouds 25 1013 85 0 4.85 121 07:29 08.01.2020
4825 Clouds 25 1013 85 0 4.85 121 06:44 08.01.2020
4826 Clouds 25 1013 85 0 4.85 121 05:59 08.01.2020
4827 Clouds 25 1013 85 0 4.85 121 05:38 08.01.2020
4828 Clouds 25 1013 84 0 3.84 140 04:54 08.01.2020
4829 Clouds 25 1013 84 0 3.84 140 04:24 08.01.2020
4830 Clouds 25 1013 84 0 3.84 140 02:45 08.01.2020
4831 Rain 24 1009 94 10000 2.6 210 02:19 08.01.2020
4832 Rain 24 1009 94 10000 2.6 210 01:40 08.01.2020
4833 Rain 26 1011 81 0 4.52 146 00:54 08.01.2020
4834 Rain 24 1008 94 5000 2.6 220 00:26 08.01.2020
4835 Rain 24 1008 94 5000 2.6 180 23:47 07.01.2020
4836 Rain 24 1008 94 5000 2.6 180 23:22 07.01.2020
4837 Rain 25 1008 94 5000 3.1 160 22:58 07.01.2020
4838 Rain 25 1008 94 5000 3.1 160 22:39 07.01.2020
4839 Rain 25 1008 94 5000 3.1 160 22:19 07.01.2020
4840 Rain 26 1009 94 8000 3.1 210 21:43 07.01.2020
4841 Rain 26 1009 94 8000 3.1 210 21:23 07.01.2020
4842 Rain 25 1010 80 0 5.23 148 20:59 07.01.2020
4843 Rain 25 1010 80 0 5.23 148 20:41 07.01.2020
4844 Rain 25 1010 80 0 5.23 148 20:41 07.01.2020
4845 Rain 25 1010 80 0 5.23 148 20:22 07.01.2020
4846 Rain 26 1011 88 10000 4.1 190 19:58 07.01.2020
4847 Rain 26 1011 88 10000 4.1 190 19:38 07.01.2020
4848 Rain 26 1011 88 10000 4.1 190 19:19 07.01.2020
4849 Rain 26 1011 88 10000 5.1 180 18:56 07.01.2020
4850 Rain 26 1011 88 10000 5.1 180 18:38 07.01.2020
4851 Rain 26 1011 88 10000 5.1 180 18:18 07.01.2020
4852 Rain 26 1011 88 10000 5.1 180 18:18 07.01.2020
4853 Clouds 28 1011 74 10000 5.1 180 17:55 07.01.2020
4854 Clouds 28 1011 74 10000 5.1 180 17:36 07.01.2020
4855 Clouds 28 1011 74 10000 5.1 180 17:18 07.01.2020
4856 Clouds 27 1011 78 10000 5.1 160 16:55 07.01.2020
4857 Clouds 27 1011 78 10000 5.1 160 16:36 07.01.2020
4858 Clouds 27 1011 78 10000 5.1 160 16:18 07.01.2020
4859 Clouds 26 1011 83 10000 4.1 160 15:42 07.01.2020
4860 Clouds 26 1011 83 10000 4.1 160 15:24 07.01.2020
4861 Clouds 24 1010 88 10000 3.6 150 14:58 07.01.2020
4862 Clouds 24 1010 88 10000 3.6 150 14:38 07.01.2020
4863 Clouds 24 1010 88 10000 3.6 150 14:19 07.01.2020
4864 Clouds 24 1010 88 10000 3.6 150 14:19 07.01.2020
4865 Clouds 24 1009 88 10000 4.1 150 13:44 07.01.2020
4866 Clouds 24 1009 88 10000 4.1 150 13:20 07.01.2020
4867 Rain 25 1011 82 0 2.24 141 12:55 07.01.2020
4868 Rain 25 1011 82 0 2.24 141 12:36 07.01.2020
4869 Rain 25 1011 82 0 2.24 141 12:18 07.01.2020
4870 Rain 25 1011 82 0 2.24 141 11:41 07.01.2020
4871 Clear 25 1011 82 0 2.6 157 11:22 07.01.2020
4872 Clear 25 1011 82 0 2.6 157 10:55 07.01.2020
4873 Clear 25 1011 82 0 2.6 157 10:37 07.01.2020
4874 Clear 25 1011 82 0 2.6 157 10:19 07.01.2020
4875 Clear 25 1011 82 0 2.6 157 09:38 07.01.2020
4876 Clear 25 1011 82 0 2.6 157 09:20 07.01.2020
4877 Clear 25 1011 82 0 2.6 157 08:47 07.01.2020
4878 Clear 25 1011 82 0 2.6 157 08:28 07.01.2020
4879 Rain 25 1012 83 0 3.87 133 07:55 07.01.2020
4880 Rain 25 1012 83 0 3.87 133 07:35 07.01.2020
4881 Rain 25 1012 83 0 3.87 133 06:54 07.01.2020
4882 Rain 25 1012 83 0 3.87 133 06:35 07.01.2020
4883 Rain 25 1012 83 0 3.87 133 05:57 07.01.2020
4884 Rain 25 1012 83 0 3.87 133 05:38 07.01.2020
4885 Rain 25 1013 85 0 3.35 128 03:29 07.01.2020
4886 Clouds 26 1009 83 10000 5.7 160 02:24 07.01.2020
4887 Clouds 26 1009 83 10000 5.7 160 01:57 07.01.2020
4888 Clouds 26 1009 83 10000 5.7 160 01:32 07.01.2020
4889 Clouds 26 1008 83 10000 5.7 170 00:37 07.01.2020
4890 Clouds 26 1008 83 10000 5.7 170 00:19 07.01.2020
4891 Clouds 26 1008 88 10000 5.1 170 23:55 06.01.2020
4892 Clouds 26 1008 88 10000 5.1 170 23:36 06.01.2020
4893 Clouds 26 1008 88 10000 5.1 170 23:36 06.01.2020
4894 Clouds 26 1008 88 10000 5.1 170 23:18 06.01.2020
4895 Clouds 28 1009 74 10000 6.2 180 22:42 06.01.2020
4896 Clouds 28 1009 74 10000 6.2 180 22:22 06.01.2020
4897 Clouds 28 1009 74 10000 6.7 180 21:56 06.01.2020
4898 Clouds 28 1009 74 10000 6.7 180 21:38 06.01.2020
4899 Clouds 28 1009 74 10000 6.7 180 21:20 06.01.2020
4900 Clouds 28 1009 74 10000 6.7 180 21:20 06.01.2020
4901 Clouds 29 1010 70 10000 6.2 180 20:56 06.01.2020
4902 Clouds 29 1010 70 10000 6.2 180 20:37 06.01.2020
4903 Clouds 29 1010 70 10000 6.2 180 20:19 06.01.2020
4904 Clouds 28 1015 74 10000 6.2 180 19:55 06.01.2020
4905 Clouds 28 1015 74 10000 6.2 180 19:37 06.01.2020
4906 Clouds 28 1015 74 10000 6.2 180 19:19 06.01.2020
4907 Clouds 28 1012 74 10000 7.2 160 18:45 06.01.2020
4908 Clouds 28 1012 74 10000 7.2 160 18:21 06.01.2020
4909 Clouds 28 1012 74 10000 7.7 150 17:56 06.01.2020
4910 Clouds 28 1012 74 10000 7.7 150 17:37 06.01.2020
4911 Clouds 28 1012 74 10000 7.7 150 17:18 06.01.2020
4912 Clouds 26 1012 83 10000 7.2 160 16:42 06.01.2020
4913 Clouds 26 1012 83 10000 7.2 160 16:42 06.01.2020
4914 Clouds 26 1012 83 10000 7.2 160 16:23 06.01.2020
4915 Clouds 25 1012 88 10000 5.1 160 15:59 06.01.2020
4916 Clouds 25 1012 88 10000 5.1 160 15:37 06.01.2020
4917 Clouds 25 1012 88 10000 5.1 160 15:37 06.01.2020
4918 Clouds 25 1012 88 10000 5.1 160 15:18 06.01.2020
4919 Rain 25 1011 88 10000 6.2 160 14:42 06.01.2020
4920 Rain 25 1011 88 10000 6.2 160 14:23 06.01.2020
4921 Rain 25 1011 88 10000 6.2 160 14:23 06.01.2020
4922 Clouds 25 1010 88 10000 4.6 160 13:59 06.01.2020
4923 Clouds 25 1010 88 10000 4.6 160 13:39 06.01.2020
4924 Clouds 25 1010 88 10000 4.6 160 13:21 06.01.2020
4925 Clouds 25 1010 88 10000 4.6 160 13:21 06.01.2020
4926 Clouds 24 1013 83 0 5.57 154 12:58 06.01.2020
4927 Clouds 24 1013 83 0 5.57 154 12:39 06.01.2020
4928 Clouds 24 1013 83 0 5.57 154 12:19 06.01.2020
4929 Clouds 24 1013 83 0 5.57 154 12:19 06.01.2020
4930 Clouds 24 1013 83 0 5.57 154 11:43 06.01.2020
4931 Clouds 24 1013 83 0 5.57 154 11:43 06.01.2020
4932 Clouds 24 1013 83 0 5.57 154 11:24 06.01.2020
4933 Clouds 24 1013 84 0 5.05 155 10:59 06.01.2020
4934 Clouds 24 1013 84 0 5.05 155 10:40 06.01.2020
4935 Clouds 24 1013 84 0 5.05 155 10:20 06.01.2020
4936 Clouds 24 1013 84 0 5.05 155 09:40 06.01.2020
4937 Clouds 24 1013 84 0 5.05 155 09:21 06.01.2020
4938 Clouds 24 1013 84 0 5.05 155 08:52 06.01.2020
4939 Clouds 24 1013 84 0 5.05 155 08:34 06.01.2020
4940 Clouds 25 1015 84 0 5.25 163 07:57 06.01.2020
4941 Clouds 25 1015 84 0 5.25 163 07:38 06.01.2020
4942 Clouds 25 1015 84 0 5.25 163 06:49 06.01.2020
4943 Clouds 25 1015 84 0 5.25 163 06:30 06.01.2020
4944 Clouds 25 1015 84 0 5.25 163 05:48 06.01.2020
4945 Clouds 25 1016 86 0 5.06 163 04:55 06.01.2020
4946 Clouds 25 1016 86 0 5.06 163 04:21 06.01.2020
4947 Clouds 25 1016 86 0 5.06 163 03:25 06.01.2020
4948 Clouds 25 1011 83 10000 6.2 150 02:25 06.01.2020
4949 Clouds 25 1011 83 10000 6.2 150 01:46 06.01.2020
4950 Clouds 25 1011 83 10000 6.2 150 01:28 06.01.2020
4951 Clouds 26 1011 78 10000 6.2 180 00:44 06.01.2020
4952 Clouds 26 1011 78 10000 6.2 180 00:24 06.01.2020
4953 Clouds 28 1011 74 10000 6.7 180 23:43 05.01.2020
4954 Clouds 28 1011 74 10000 6.7 180 23:43 05.01.2020
4955 Clouds 28 1011 74 10000 6.7 180 23:23 05.01.2020
4956 Clouds 28 1011 74 10000 6.7 180 23:23 05.01.2020
4957 Clouds 28 1011 74 10000 6.7 170 22:58 05.01.2020
4958 Clouds 28 1011 74 10000 6.7 170 22:39 05.01.2020
4959 Clouds 28 1011 74 10000 6.7 170 22:20 05.01.2020
4960 Clouds 28 1011 69 10000 6.2 180 21:55 05.01.2020
4961 Clouds 28 1011 69 10000 6.2 180 21:37 05.01.2020
4962 Clouds 28 1011 69 10000 6.2 180 21:37 05.01.2020
4963 Clouds 28 1011 69 10000 6.2 180 21:19 05.01.2020
4964 Clouds 28 1011 69 10000 6.2 180 21:19 05.01.2020
4965 Clouds 28 1012 69 10000 6.7 180 20:55 05.01.2020
4966 Clouds 28 1012 69 10000 6.7 180 20:36 05.01.2020
4967 Clouds 28 1012 69 10000 6.7 180 20:18 05.01.2020
4968 Clouds 27 1013 74 10000 6.2 170 19:56 05.01.2020
4969 Clouds 27 1013 74 10000 6.2 170 19:37 05.01.2020
4970 Clouds 27 1013 74 10000 6.2 170 19:18 05.01.2020
4971 Clouds 27 1014 74 10000 6.7 170 18:54 05.01.2020
4972 Clouds 27 1014 74 10000 6.7 170 18:36 05.01.2020
4973 Clouds 27 1014 74 10000 6.7 170 18:18 05.01.2020
4974 Clouds 27 1014 74 10000 6.7 170 18:18 05.01.2020
4975 Clouds 26 1014 83 10000 6.2 160 17:39 05.01.2020
4976 Clouds 26 1014 83 10000 6.2 160 17:20 05.01.2020
4977 Clouds 26 1014 83 10000 6.2 190 16:58 05.01.2020
4978 Clouds 26 1014 83 10000 6.2 190 16:40 05.01.2020
4979 Clouds 26 1014 83 10000 6.2 190 16:20 05.01.2020
4980 Clouds 25 1014 83 10000 5.1 180 15:41 05.01.2020
4981 Clouds 25 1014 83 10000 5.1 180 15:22 05.01.2020
4982 Clouds 25 1014 88 10000 4.6 170 14:58 05.01.2020
4983 Clouds 25 1014 88 10000 4.6 170 14:40 05.01.2020
4984 Clouds 25 1014 88 10000 4.6 170 14:22 05.01.2020
4985 Clouds 24 1013 88 10000 4.1 170 13:59 05.01.2020
4986 Clouds 24 1013 88 10000 4.1 170 13:39 05.01.2020
4987 Clouds 24 1013 88 10000 4.1 170 13:20 05.01.2020
4988 Rain 24 1016 84 0 4.55 172 12:57 05.01.2020
4989 Rain 24 1016 84 0 4.55 172 12:38 05.01.2020
4990 Rain 24 1016 84 0 4.55 172 12:20 05.01.2020
4991 Rain 24 1016 84 0 4.55 172 11:54 05.01.2020
4992 Rain 24 1016 84 0 4.55 172 11:36 05.01.2020
4993 Clouds 24 1014 85 0 4.67 185 11:18 05.01.2020
4994 Clouds 24 1014 85 0 4.67 185 10:40 05.01.2020
4995 Clouds 24 1014 85 0 4.67 185 10:20 05.01.2020
4996 Clouds 24 1014 85 0 4.67 185 09:43 05.01.2020
4997 Clouds 24 1014 85 0 4.67 185 09:23 05.01.2020
4998 Clouds 24 1014 85 0 4.67 185 08:56 05.01.2020
4999 Clouds 24 1014 85 0 4.67 185 08:38 05.01.2020
5000 Clouds 24 1016 84 0 4.63 183 08:20 05.01.2020
5001 Clouds 24 1016 84 0 4.35 184 07:39 05.01.2020
5002 Clouds 24 1016 84 0 4.35 184 07:21 05.01.2020
5003 Clouds 24 1016 84 0 4.35 184 06:47 05.01.2020
5004 Clouds 24 1016 84 0 4.35 184 05:41 05.01.2020
5005 Clouds 24 1016 83 0 4.68 190 04:56 05.01.2020
5006 Clouds 24 1016 83 0 4.68 190 04:18 05.01.2020
5007 Clouds 24 1016 83 0 4.68 190 03:27 05.01.2020
5008 Clouds 24 1016 83 0 4.68 190 02:33 05.01.2020
5009 Clouds 25 1011 83 10000 6.2 180 01:49 05.01.2020
5010 Clouds 25 1011 83 10000 6.2 180 01:20 05.01.2020
5011 Clouds 26 1011 74 10000 6.2 170 00:57 05.01.2020
5012 Clouds 26 1011 74 10000 6.2 170 00:57 05.01.2020
5013 Clouds 26 1011 74 10000 6.2 170 00:57 05.01.2020
5014 Clouds 26 1011 74 10000 6.2 170 00:39 05.01.2020
5015 Clouds 26 1011 74 10000 6.2 170 00:19 05.01.2020
5016 Clouds 27 1011 69 10000 6.7 160 23:41 04.01.2020
5017 Clouds 27 1011 69 10000 6.7 160 23:41 04.01.2020
5018 Clouds 27 1011 69 10000 6.7 160 23:20 04.01.2020
5019 Clouds 28 1011 69 10000 6.7 170 22:55 04.01.2020
5020 Clouds 28 1011 69 10000 6.7 170 22:37 04.01.2020
5021 Clouds 28 1011 69 10000 6.7 170 22:19 04.01.2020
5022 Clouds 28 1012 69 10000 6.7 180 21:55 04.01.2020
5023 Clouds 28 1012 69 10000 6.7 180 21:36 04.01.2020
5024 Clouds 28 1012 69 10000 6.7 180 21:18 04.01.2020
5025 Clouds 28 1013 69 10000 6.7 170 20:41 04.01.2020
5026 Clouds 28 1013 69 10000 6.7 170 20:22 04.01.2020
5027 Clouds 28 1013 69 10000 6.2 190 19:57 04.01.2020
5028 Clouds 28 1013 69 10000 6.2 190 19:39 04.01.2020
5029 Clouds 28 1013 69 10000 6.2 190 19:20 04.01.2020
5030 Clouds 28 1014 69 10000 7.2 180 18:56 04.01.2020
5031 Clouds 28 1014 69 10000 7.2 180 18:37 04.01.2020
5032 Clouds 28 1014 69 10000 7.2 180 18:19 04.01.2020
5033 Clouds 28 1015 69 10000 6.7 170 17:41 04.01.2020
5034 Clouds 28 1015 69 10000 6.7 170 17:23 04.01.2020
5035 Clouds 27 1015 74 10000 6.7 160 16:59 04.01.2020
5036 Clouds 27 1015 74 10000 6.7 160 16:40 04.01.2020
5037 Clouds 27 1015 74 10000 6.7 160 16:21 04.01.2020
5038 Clouds 26 1014 78 10000 6.2 160 15:56 04.01.2020
5039 Clouds 26 1014 78 10000 6.2 160 15:38 04.01.2020
5040 Clouds 26 1014 78 10000 6.2 160 15:18 04.01.2020
5041 Clouds 24 1014 83 10000 5.1 170 14:43 04.01.2020
5042 Clouds 24 1014 83 10000 5.1 170 14:20 04.01.2020
5043 Clouds 24 1013 83 10000 5.1 170 13:59 04.01.2020
5044 Clouds 24 1013 83 10000 5.1 170 13:39 04.01.2020
5045 Clouds 24 1013 83 10000 5.1 170 13:20 04.01.2020
5046 Rain 24 1015 86 0 5.59 188 12:57 04.01.2020
5047 Rain 24 1015 86 0 5.59 188 12:39 04.01.2020
5048 Rain 24 1015 86 0 5.59 188 12:19 04.01.2020
5049 Rain 24 1015 86 0 5.59 188 11:57 04.01.2020
5050 Rain 24 1015 86 0 5.59 188 11:57 04.01.2020
5051 Rain 24 1015 86 0 5.59 188 11:38 04.01.2020
5052 Rain 24 1015 86 0 5.59 188 11:38 04.01.2020
5053 Clouds 24 1014 86 0 5.22 187 11:18 04.01.2020
5054 Clouds 24 1014 86 0 5.22 187 10:41 04.01.2020
5055 Clouds 24 1014 86 0 5.22 187 10:22 04.01.2020
5056 Clouds 24 1014 86 0 5.22 187 09:48 04.01.2020
5057 Clouds 24 1014 86 0 5.22 187 09:26 04.01.2020
5058 Clouds 24 1014 86 0 5.22 187 08:49 04.01.2020
5059 Clouds 24 1014 86 0 5.2 193 08:29 04.01.2020
5060 Clouds 24 1015 87 0 5.39 166 07:59 04.01.2020
5061 Clouds 24 1015 87 0 5.39 166 07:40 04.01.2020
5062 Clouds 24 1015 87 0 5.39 166 06:46 04.01.2020
5063 Clouds 24 1015 87 0 5.39 166 05:59 04.01.2020
5064 Clear 24 1016 87 0 5.07 174 04:53 04.01.2020
5065 Clear 24 1016 87 0 5.07 174 04:32 04.01.2020
5066 Clear 24 1016 87 0 5.07 174 03:37 04.01.2020
5067 Clear 24 1016 87 0 5.07 174 03:18 04.01.2020
5068 Clouds 25 1011 83 10000 6.2 170 02:18 04.01.2020
5069 Clouds 25 1011 83 10000 6.2 170 01:45 04.01.2020
5070 Clouds 25 1011 83 10000 6.2 170 01:27 04.01.2020
5071 Clouds 26 1010 74 10000 6.7 160 00:29 04.01.2020
5072 Clouds 27 1010 74 10000 6.2 170 23:59 03.01.2020
5073 Clouds 27 1010 74 10000 6.2 170 23:59 03.01.2020
5074 Clouds 27 1010 74 10000 6.2 170 23:37 03.01.2020
5075 Clouds 27 1010 74 10000 6.2 170 23:18 03.01.2020
5076 Clouds 28 1010 69 10000 7.2 180 22:40 03.01.2020
5077 Clouds 28 1010 69 10000 7.2 180 22:19 03.01.2020
5078 Clouds 28 1011 69 10000 6.2 180 21:57 03.01.2020
5079 Clouds 28 1011 69 10000 6.2 180 21:38 03.01.2020
5080 Clouds 28 1011 69 10000 6.2 180 21:19 03.01.2020
5081 Clouds 28 1011 65 10000 7.2 170 20:55 03.01.2020
5082 Clouds 28 1011 65 10000 7.2 170 20:55 03.01.2020
5083 Clouds 28 1011 65 10000 7.2 170 20:36 03.01.2020
5084 Clouds 28 1011 65 10000 7.2 170 20:18 03.01.2020
5085 Clouds 24 1014 86 0 6.23 155 19:44 03.01.2020
5086 Clouds 28 1013 74 10000 7.2 180 19:23 03.01.2020
5087 Clouds 28 1013 74 10000 7.2 180 18:57 03.01.2020
5088 Clouds 28 1013 74 10000 7.2 180 18:38 03.01.2020
5089 Clouds 28 1013 74 10000 7.2 180 18:20 03.01.2020
5090 Clouds 27 1013 78 10000 7.2 170 17:42 03.01.2020
5091 Clouds 27 1013 78 10000 7.2 170 17:22 03.01.2020
5092 Clouds 27 1013 78 10000 7.2 170 16:58 03.01.2020
5093 Clouds 27 1013 78 10000 7.2 170 16:39 03.01.2020
5094 Clouds 27 1013 78 10000 7.2 170 16:20 03.01.2020
5095 Clouds 26 1012 74 10000 6.2 180 15:41 03.01.2020
5096 Clouds 26 1012 74 10000 6.2 180 15:19 03.01.2020
5097 Clouds 24 1012 83 10000 5.1 170 14:40 03.01.2020
5098 Clouds 24 1012 83 10000 5.1 170 14:40 03.01.2020
5099 Clouds 24 1012 83 10000 5.1 170 14:20 03.01.2020
5100 Clouds 24 1011 83 10000 6.7 180 13:59 03.01.2020
5101 Clouds 24 1011 83 10000 6.7 180 13:40 03.01.2020
5102 Clouds 24 1011 83 10000 6.7 180 13:21 03.01.2020
5103 Rain 24 1014 86 0 5.43 159 12:41 03.01.2020
5104 Rain 24 1014 86 0 5.43 159 12:22 03.01.2020
5105 Rain 24 1014 86 0 5.43 159 11:53 03.01.2020
5106 Rain 24 1014 86 0 5.43 159 11:34 03.01.2020
5107 Clouds 24 1012 87 0 5.9 175 10:58 03.01.2020
5108 Clouds 24 1012 87 0 5.9 175 10:39 03.01.2020
5109 Clouds 24 1012 87 0 5.9 175 10:21 03.01.2020
5110 Clouds 24 1012 87 0 5.9 175 09:55 03.01.2020
5111 Clouds 24 1012 87 0 5.9 175 09:37 03.01.2020
5112 Clouds 24 1012 87 0 5.9 175 09:19 03.01.2020
5113 Clouds 24 1012 87 0 5.9 175 08:44 03.01.2020
5114 Clouds 24 1014 88 0 3.98 170 08:22 03.01.2020
5115 Clouds 24 1014 88 0 3.98 170 07:43 03.01.2020
5116 Clouds 24 1014 88 0 3.98 170 07:19 03.01.2020
5117 Clouds 24 1014 88 0 3.98 170 06:59 03.01.2020
5118 Clouds 24 1014 88 0 3.98 170 06:40 03.01.2020
5119 Clouds 24 1014 88 0 3.98 170 06:22 03.01.2020
5120 Clouds 24 1014 88 0 3.98 170 06:22 03.01.2020
5121 Rain 24 1014 87 0 5.15 172 04:45 03.01.2020
5122 Rain 24 1014 87 0 5.15 172 03:38 03.01.2020
5123 Rain 24 1014 87 0 5.15 172 02:53 03.01.2020
5124 Clouds 25 1009 83 10000 5.1 180 01:50 03.01.2020
5125 Clouds 25 1009 83 10000 5.1 180 01:18 03.01.2020
5126 Clouds 25 1008 83 10000 6.7 180 00:34 03.01.2020
5127 Clouds 26 1008 83 10000 7.2 190 23:59 02.01.2020
5128 Clouds 26 1008 83 10000 7.2 190 23:39 02.01.2020
5129 Clouds 26 1008 83 10000 7.2 190 23:20 02.01.2020
5130 Rain 25 1008 83 10000 7.2 190 22:58 02.01.2020
5131 Rain 25 1008 83 10000 7.2 190 22:39 02.01.2020
5132 Rain 25 1008 83 10000 7.2 190 22:19 02.01.2020
5133 Clouds 27 1009 74 10000 7.7 190 21:55 02.01.2020
5134 Clouds 27 1009 74 10000 7.7 190 21:36 02.01.2020
5135 Clouds 27 1009 74 10000 7.7 190 21:18 02.01.2020
5136 Clouds 26 1010 83 10000 8.2 190 20:55 02.01.2020
5137 Clouds 26 1010 83 10000 8.2 190 20:36 02.01.2020
5138 Clouds 26 1010 83 10000 8.2 190 20:18 02.01.2020
5139 Clouds 27 1011 78 10000 7.2 180 19:54 02.01.2020
5140 Clouds 27 1011 78 10000 7.2 180 19:36 02.01.2020
5141 Clouds 27 1011 78 10000 7.2 180 19:36 02.01.2020
5142 Clouds 27 1011 78 10000 7.2 180 19:18 02.01.2020
5143 Clouds 26 1011 83 10000 6.2 180 18:42 02.01.2020
5144 Clouds 26 1011 83 10000 6.2 180 18:23 02.01.2020
5145 Clouds 26 1012 83 10000 5.7 190 17:58 02.01.2020
5146 Clouds 26 1012 83 10000 5.7 190 17:38 02.01.2020
5147 Clouds 26 1012 83 10000 5.7 190 17:19 02.01.2020
5148 Rain 24 1012 94 10000 5.1 170 16:57 02.01.2020
5149 Rain 24 1012 94 10000 5.1 170 16:39 02.01.2020
5150 Rain 24 1012 94 10000 5.1 170 16:20 02.01.2020
5151 Rain 24 1012 94 10000 5.1 190 15:57 02.01.2020
5152 Rain 24 1012 94 10000 5.1 190 15:57 02.01.2020
5153 Rain 24 1012 94 10000 5.1 190 15:37 02.01.2020
5154 Rain 24 1012 94 10000 5.1 190 15:19 02.01.2020
5155 Clouds 24 1011 94 10000 4.1 180 14:55 02.01.2020
5156 Clouds 24 1011 94 10000 4.1 180 14:36 02.01.2020
5157 Clouds 24 1011 94 10000 4.1 180 14:18 02.01.2020
5158 Clouds 24 1010 88 10000 4.6 180 13:47 02.01.2020
5159 Clouds 24 1010 88 10000 4.6 180 13:47 02.01.2020
5160 Clouds 24 1010 88 10000 4.6 180 13:29 02.01.2020
5161 Clouds 24 1012 86 0 5.26 175 12:44 02.01.2020
5162 Clouds 24 1012 86 0 5.26 175 12:25 02.01.2020
5163 Clouds 24 1012 86 0 5.26 175 11:43 02.01.2020
5164 Clouds 24 1012 86 0 5.26 175 11:25 02.01.2020
5165 Clouds 24 1011 87 0 6.12 174 10:57 02.01.2020
5166 Clouds 24 1011 87 0 6.12 174 10:38 02.01.2020
5167 Clouds 24 1011 87 0 6.12 174 10:19 02.01.2020
5168 Clouds 24 1011 87 0 6.12 174 09:41 02.01.2020
5169 Clouds 24 1011 87 0 6.12 174 09:22 02.01.2020
5170 Clouds 24 1011 87 0 6.12 174 08:44 02.01.2020
5171 Clouds 24 1011 87 0 6.12 174 08:25 02.01.2020
5172 Clouds 24 1013 87 0 6.24 184 07:48 02.01.2020
5173 Clouds 24 1013 87 0 6.24 184 07:28 02.01.2020
5174 Clouds 24 1013 87 0 6.24 184 06:43 02.01.2020
5175 Clouds 24 1013 87 0 6.24 184 05:54 02.01.2020
5176 Clouds 24 1013 87 0 6.23 191 04:38 02.01.2020
5177 Clouds 24 1013 87 0 6.23 191 04:19 02.01.2020
5178 Clouds 25 1008 88 10000 5.1 180 02:21 02.01.2020
5179 Clouds 25 1008 88 10000 5.1 180 01:57 02.01.2020
5180 Clouds 25 1008 88 10000 5.1 180 01:26 02.01.2020
5181 Clouds 25 1008 83 10000 6.2 170 00:52 02.01.2020
5182 Clouds 25 1008 83 10000 6.2 170 00:26 02.01.2020
5183 Clouds 27 1008 78 10000 6.2 180 23:43 01.01.2020
5184 Clouds 27 1008 78 10000 6.2 180 23:23 01.01.2020
5185 Clouds 27 1008 78 10000 6.2 170 22:39 01.01.2020
5186 Clouds 27 1008 78 10000 6.2 170 22:21 01.01.2020
5187 Clouds 28 1009 69 10000 6.2 180 21:59 01.01.2020
5188 Clouds 28 1009 69 10000 6.2 180 21:40 01.01.2020
5189 Clouds 28 1009 69 10000 6.2 180 21:20 01.01.2020
5190 Clouds 28 1009 69 10000 6.2 180 21:20 01.01.2020
5191 Clouds 27 1010 74 10000 6.7 170 20:58 01.01.2020
5192 Clouds 27 1010 74 10000 6.7 170 20:38 01.01.2020
5193 Clouds 27 1010 74 10000 6.7 170 20:20 01.01.2020
5194 Clouds 28 1011 74 10000 6.7 190 19:57 01.01.2020
5195 Clouds 28 1011 74 10000 6.7 190 19:38 01.01.2020
5196 Clouds 28 1011 74 10000 6.7 190 19:20 01.01.2020
5197 Clouds 27 1011 78 10000 5.1 200 18:57 01.01.2020
5198 Clouds 27 1011 78 10000 5.1 200 18:37 01.01.2020
5199 Clouds 27 1011 78 10000 5.1 200 18:37 01.01.2020
5200 Clouds 27 1011 78 10000 5.1 200 18:19 01.01.2020
5201 Rain 25 1012 88 10000 5.1 200 17:57 01.01.2020
5202 Rain 25 1012 88 10000 5.1 200 17:39 01.01.2020
5203 Rain 25 1012 88 10000 5.1 200 17:19 01.01.2020
5204 Clouds 26 1012 83 10000 6.2 210 16:56 01.01.2020
5205 Clouds 26 1012 83 10000 6.2 210 16:56 01.01.2020
5206 Clouds 26 1012 83 10000 6.2 210 16:37 01.01.2020
5207 Clouds 26 1012 83 10000 6.2 210 16:18 01.01.2020
5208 Clouds 25 1011 83 10000 6.2 180 15:54 01.01.2020
5209 Clouds 25 1011 83 10000 6.2 180 15:36 01.01.2020
5210 Clouds 25 1011 83 10000 6.2 180 15:18 01.01.2020
5211 Clouds 24 1010 88 10000 4.1 170 14:41 01.01.2020
5212 Clouds 24 1010 88 10000 4.1 170 14:22 01.01.2020
5213 Clouds 23 1010 94 10000 4.1 160 13:56 01.01.2020
5214 Clouds 23 1010 94 10000 4.1 160 13:56 01.01.2020
5215 Clouds 23 1010 94 10000 4.1 160 13:37 01.01.2020
5216 Clouds 23 1010 94 10000 4.1 160 13:19 01.01.2020
5217 Clouds 24 1011 87 0 4.53 188 12:57 01.01.2020
5218 Clouds 24 1011 87 0 4.53 188 12:39 01.01.2020
5219 Clouds 24 1011 87 0 4.53 188 12:19 01.01.2020
5220 Clouds 24 1011 87 0 4.53 188 11:43 01.01.2020
5221 Clouds 24 1011 87 0 4.53 188 11:23 01.01.2020
5222 Clouds 24 1011 87 0 2.97 200 10:59 01.01.2020
5223 Clouds 24 1011 87 0 2.97 200 10:41 01.01.2020
5224 Clouds 24 1011 87 0 2.97 200 10:21 01.01.2020
5225 Clouds 24 1011 87 0 2.97 200 09:57 01.01.2020
5226 Clouds 24 1011 87 0 2.97 200 09:37 01.01.2020
5227 Clouds 24 1011 87 0 2.97 200 09:18 01.01.2020
5228 Clouds 24 1011 87 0 2.97 200 09:18 01.01.2020
5229 Clouds 24 1011 87 0 2.97 200 08:55 01.01.2020
5230 Clouds 24 1011 87 0 2.97 200 08:36 01.01.2020
5231 Clouds 24 1011 87 0 2.97 200 08:36 01.01.2020
5232 Clouds 24 1011 87 0 2.97 200 08:36 01.01.2020
5233 Clouds 24 1011 87 0 2.97 200 08:36 01.01.2020
5234 Clear 24 1013 87 0 2.96 195 08:18 01.01.2020
5235 Clear 24 1013 88 0 2.85 189 07:48 01.01.2020
5236 Clear 24 1013 88 0 2.85 189 07:30 01.01.2020
5237 Clear 24 1013 88 0 2.85 189 06:44 01.01.2020
5238 Clear 24 1013 88 0 2.85 189 06:20 01.01.2020
5239 Clear 24 1014 88 0 3.93 181 04:44 01.01.2020
5240 Clear 24 1014 88 0 3.93 181 03:43 01.01.2020
5241 Clear 24 1014 88 0 3.93 181 03:22 01.01.2020
5242 Clear 24 1014 88 0 3.93 181 03:22 01.01.2020
5243 Clear 24 1014 88 0 3.93 181 02:55 01.01.2020
5244 Clear 24 1014 88 0 3.93 181 02:32 01.01.2020
5245 Clouds 25 1008 83 10000 5.1 160 01:45 01.01.2020
5246 Clouds 25 1008 83 10000 5.1 160 01:23 01.01.2020
5247 Clouds 26 1008 78 10000 6.2 170 00:54 01.01.2020
5248 Clouds 26 1008 78 10000 6.2 170 00:36 01.01.2020
5249 Clouds 26 1008 78 10000 6.2 170 00:18 01.01.2020
5250 Clouds 27 1008 74 10000 6.2 160 23:38 31.12.2019
5251 Clouds 27 1008 74 10000 6.2 160 23:19 31.12.2019
5252 Clouds 28 1008 69 10000 5.1 180 22:56 31.12.2019
5253 Clouds 28 1008 69 10000 5.1 180 22:37 31.12.2019
5254 Clouds 28 1008 69 10000 5.1 180 22:18 31.12.2019
5255 Clouds 24 1009 86 0 4.06 177 21:44 31.12.2019
5256 Clouds 27 1010 78 10000 5.1 150 21:25 31.12.2019
5257 Clouds 27 1010 78 10000 5.1 150 20:58 31.12.2019
5258 Clouds 27 1010 78 10000 5.1 150 20:39 31.12.2019
5259 Clouds 27 1010 78 10000 5.1 150 20:21 31.12.2019
5260 Clouds 28 1011 74 10000 6.7 170 19:58 31.12.2019
5261 Clouds 28 1011 74 10000 6.7 170 19:40 31.12.2019
5262 Clouds 28 1011 74 10000 6.7 170 19:21 31.12.2019
5263 Clouds 27 1011 74 10000 6.7 160 18:57 31.12.2019
5264 Clouds 27 1011 74 10000 6.7 160 18:38 31.12.2019
5265 Clouds 27 1011 74 10000 6.7 160 18:38 31.12.2019
5266 Clouds 27 1011 74 10000 6.7 160 18:19 31.12.2019
5267 Clouds 27 1012 78 10000 6.7 170 17:56 31.12.2019
5268 Clouds 27 1012 78 10000 6.7 170 17:56 31.12.2019
5269 Clouds 27 1012 78 10000 6.7 170 17:36 31.12.2019
5270 Clouds 27 1012 78 10000 6.7 170 17:18 31.12.2019
5271 Clouds 25 1012 88 10000 6.2 170 16:56 31.12.2019
5272 Clouds 25 1012 88 10000 6.2 170 16:37 31.12.2019
5273 Clouds 25 1012 88 10000 6.2 170 16:18 31.12.2019
5274 Clouds 25 1011 88 10000 5.1 160 15:56 31.12.2019
5275 Clouds 25 1011 88 10000 5.1 160 15:38 31.12.2019
5276 Clouds 25 1011 88 10000 5.1 160 15:19 31.12.2019
5277 Clouds 24 1010 88 10000 4.1 160 14:55 31.12.2019
5278 Clouds 24 1010 88 10000 4.1 160 14:37 31.12.2019
5279 Clouds 24 1010 88 10000 4.1 160 14:18 31.12.2019
5280 Clouds 24 1009 88 10000 4.6 170 13:56 31.12.2019
5281 Clouds 24 1009 88 10000 4.6 170 13:37 31.12.2019
5282 Clouds 24 1009 88 10000 4.6 170 13:19 31.12.2019
5283 Rain 24 1011 90 0 3.99 180 12:55 31.12.2019
5284 Rain 24 1011 90 0 3.99 180 12:37 31.12.2019
5285 Rain 24 1011 90 0 3.99 180 12:18 31.12.2019
5286 Rain 24 1011 90 0 3.99 180 12:18 31.12.2019
5287 Rain 24 1011 90 0 3.99 180 11:54 31.12.2019
5288 Rain 24 1011 90 0 3.99 180 11:36 31.12.2019
5289 Rain 24 1011 90 0 3.99 180 11:36 31.12.2019
5290 Clouds 24 1011 90 0 4.4 193 11:18 31.12.2019
5291 Clouds 24 1011 90 0 4.4 193 10:54 31.12.2019
5292 Clouds 24 1011 90 0 4.4 193 10:36 31.12.2019
5293 Clouds 24 1011 90 0 4.4 193 10:18 31.12.2019
5294 Clouds 24 1011 90 0 4.4 193 10:18 31.12.2019
5295 Clouds 24 1011 90 0 4.4 193 09:54 31.12.2019
5296 Clouds 24 1011 90 0 4.4 193 09:36 31.12.2019
5297 Clouds 24 1011 90 0 4.4 193 09:18 31.12.2019
5298 Clouds 24 1011 90 0 4.4 193 08:42 31.12.2019
5299 Clouds 24 1011 90 0 4.4 193 08:42 31.12.2019
5300 Clouds 24 1013 90 0 5.26 195 08:21 31.12.2019
5301 Clouds 24 1013 90 0 5.26 195 07:44 31.12.2019
5302 Clouds 24 1013 90 0 5.26 195 07:22 31.12.2019
5303 Clouds 24 1013 90 0 5.26 195 06:51 31.12.2019
5304 Clouds 24 1013 90 0 5.26 195 06:23 31.12.2019
5305 Clouds 24 1013 90 0 5.26 195 06:23 31.12.2019
5306 Clouds 24 1013 90 0 5.2 191 04:54 31.12.2019
5307 Clouds 24 1013 90 0 5.2 191 04:21 31.12.2019
5308 Clouds 24 1013 90 0 5.2 191 02:57 31.12.2019
5309 Rain 23 1008 100 8000 5.7 170 02:19 31.12.2019
5310 Rain 23 1008 100 8000 5.7 170 01:48 31.12.2019
5311 Rain 23 1008 100 8000 5.7 170 01:48 31.12.2019
5312 Rain 23 1008 100 8000 5.7 170 01:28 31.12.2019
5313 Rain 24 1008 88 8000 5.1 170 00:47 31.12.2019
5314 Rain 24 1008 88 8000 5.1 170 00:23 31.12.2019
5315 Rain 24 1008 88 8000 5.1 170 00:23 31.12.2019
5316 Clouds 24 1010 88 0 5.89 198 23:57 30.12.2019
5317 Clouds 24 1010 88 0 5.89 198 23:38 30.12.2019
5318 Clouds 24 1010 88 0 5.72 198 23:20 30.12.2019
5319 Clouds 26 1008 83 10000 6.2 180 22:58 30.12.2019
5320 Clouds 26 1008 83 10000 6.2 180 22:39 30.12.2019
5321 Clouds 26 1008 83 10000 6.2 180 22:20 30.12.2019
5322 Clouds 27 1008 78 10000 6.7 170 21:56 30.12.2019
5323 Clouds 27 1008 78 10000 6.7 170 21:38 30.12.2019
5324 Clouds 27 1008 78 10000 6.7 170 21:38 30.12.2019
5325 Clouds 27 1008 78 10000 6.7 170 21:19 30.12.2019
5326 Clouds 28 1010 74 10000 6.7 180 20:56 30.12.2019
5327 Clouds 28 1010 74 10000 6.7 180 20:56 30.12.2019
5328 Clouds 28 1010 74 10000 6.7 180 20:38 30.12.2019
5329 Clouds 28 1010 74 10000 6.7 180 20:20 30.12.2019
5330 Clouds 27 1011 78 10000 6.7 180 19:57 30.12.2019
5331 Clouds 27 1011 78 10000 6.7 180 19:37 30.12.2019
5332 Clouds 27 1011 78 10000 6.7 180 19:19 30.12.2019
5333 Clouds 27 1012 78 10000 5.1 170 18:56 30.12.2019
5334 Clouds 27 1012 78 10000 5.1 170 18:37 30.12.2019
5335 Clouds 27 1012 78 10000 5.1 170 18:19 30.12.2019
5336 Clouds 26 1012 83 10000 5.1 170 17:54 30.12.2019
5337 Clouds 26 1012 83 10000 5.1 170 17:36 30.12.2019
5338 Clouds 26 1012 83 10000 5.1 170 17:18 30.12.2019
5339 Clouds 26 1012 83 10000 5.7 170 16:41 30.12.2019
5340 Clouds 26 1012 83 10000 5.7 170 16:21 30.12.2019
5341 Clouds 24 1011 94 10000 5.1 180 15:58 30.12.2019
5342 Clouds 24 1011 94 10000 5.1 180 15:40 30.12.2019
5343 Clouds 24 1011 94 10000 5.1 180 15:20 30.12.2019
5344 Clouds 24 1011 94 10000 5.1 180 15:20 30.12.2019
5345 Clouds 24 1011 94 10000 5.1 180 15:20 30.12.2019
5346 Drizzle 23 1011 94 10000 4.1 190 14:56 30.12.2019
5347 Drizzle 23 1011 94 10000 4.1 190 14:38 30.12.2019
5348 Drizzle 23 1011 94 10000 4.1 190 14:18 30.12.2019
5349 Drizzle 23 1010 94 10000 5.1 200 13:43 30.12.2019
5350 Drizzle 23 1010 94 10000 5.1 200 13:24 30.12.2019
5351 Clouds 24 1011 88 0 5.98 193 12:59 30.12.2019
5352 Clouds 24 1011 88 0 5.98 193 12:41 30.12.2019
5353 Clouds 24 1011 88 0 5.98 193 12:19 30.12.2019
5354 Clouds 24 1011 88 0 5.98 193 11:58 30.12.2019
5355 Clouds 24 1011 88 0 5.98 193 11:39 30.12.2019
5356 Clouds 24 1011 88 0 5.41 201 11:18 30.12.2019
5357 Clouds 24 1011 88 0 5.41 201 10:43 30.12.2019
5358 Clouds 24 1011 88 0 5.41 201 10:21 30.12.2019
5359 Clouds 24 1011 88 0 5.41 201 09:55 30.12.2019
5360 Clouds 24 1011 88 0 5.41 201 09:37 30.12.2019
5361 Clouds 24 1011 88 0 5.41 201 09:18 30.12.2019
5362 Clouds 24 1011 88 0 5.41 201 08:46 30.12.2019
5363 Clouds 24 1011 88 0 5.41 201 08:23 30.12.2019
5364 Clouds 24 1012 89 0 5.51 206 07:53 30.12.2019
5365 Clouds 24 1012 89 0 5.51 206 07:33 30.12.2019
5366 Clouds 24 1012 89 0 5.51 206 06:50 30.12.2019
5367 Clouds 24 1013 89 0 5.12 190 04:45 30.12.2019
5368 Clouds 24 1013 89 0 5.12 190 03:52 30.12.2019
5369 Clouds 24 1013 89 0 5.12 190 02:47 30.12.2019
5370 Clouds 24 1008 88 10000 4.6 210 02:29 30.12.2019
5371 Clouds 24 1008 88 10000 4.6 210 01:43 30.12.2019
5372 Clouds 24 1008 88 10000 4.6 210 01:19 30.12.2019
5373 Clouds 25 1008 88 10000 3.6 190 00:42 30.12.2019
5374 Clouds 25 1008 88 10000 5.1 170 23:58 29.12.2019
5375 Clouds 25 1008 88 10000 5.1 170 23:38 29.12.2019
5376 Clouds 25 1008 88 10000 5.1 170 23:38 29.12.2019
5377 Clouds 25 1008 88 10000 5.1 170 23:19 29.12.2019
5378 Clouds 25 1008 88 10000 5.7 180 22:41 29.12.2019
5379 Clouds 25 1008 88 10000 5.7 180 22:22 29.12.2019
5380 Clouds 26 1009 83 10000 5.1 190 21:56 29.12.2019
5381 Clouds 26 1009 83 10000 5.1 190 21:38 29.12.2019
5382 Clouds 26 1009 83 10000 5.1 190 21:19 29.12.2019
5383 Clouds 27 1010 78 10000 4.6 230 20:56 29.12.2019
5384 Clouds 27 1010 78 10000 4.6 230 20:38 29.12.2019
5385 Clouds 27 1010 78 10000 4.6 230 20:18 29.12.2019
5386 Clouds 25 1010 88 10000 4.1 220 19:56 29.12.2019
5387 Clouds 25 1010 88 10000 4.1 220 19:38 29.12.2019
5388 Clouds 25 1010 88 10000 4.1 220 19:19 29.12.2019
5389 Drizzle 25 1010 88 10000 4.1 210 18:55 29.12.2019
5390 Drizzle 25 1010 88 10000 4.1 210 18:55 29.12.2019
5391 Drizzle 25 1010 88 10000 4.1 210 18:37 29.12.2019
5392 Drizzle 25 1010 88 10000 4.1 210 18:18 29.12.2019
5393 Drizzle 24 1010 94 8000 3.6 200 17:56 29.12.2019
5394 Drizzle 24 1010 94 8000 3.6 200 17:37 29.12.2019
5395 Drizzle 24 1010 94 8000 3.6 200 17:37 29.12.2019
5396 Drizzle 24 1010 94 8000 3.6 200 17:19 29.12.2019
5397 Clouds 25 1010 88 10000 3.6 210 16:55 29.12.2019
5398 Clouds 25 1010 88 10000 3.6 210 16:36 29.12.2019
5399 Clouds 25 1010 88 10000 3.6 210 16:18 29.12.2019
5400 Clouds 24 1009 94 10000 4.1 200 15:55 29.12.2019
5401 Clouds 24 1009 94 10000 4.1 200 15:37 29.12.2019
5402 Clouds 24 1009 94 10000 4.1 200 15:18 29.12.2019
5403 Rain 24 1008 94 10000 2.6 190 14:47 29.12.2019
5404 Rain 24 1008 94 10000 2.6 190 14:19 29.12.2019
5405 Rain 24 1008 94 10000 3.1 200 14:00 29.12.2019
5406 Rain 24 1008 94 10000 3.1 200 13:40 29.12.2019
5407 Rain 24 1008 94 10000 3.1 200 13:40 29.12.2019
5408 Rain 24 1008 94 10000 3.1 200 13:22 29.12.2019
5409 Clouds 24 1010 87 0 4.66 204 12:58 29.12.2019
5410 Clouds 24 1010 87 0 4.66 204 12:39 29.12.2019
5411 Clouds 24 1010 87 0 4.66 204 12:21 29.12.2019
5412 Clouds 24 1010 87 0 4.66 204 11:43 29.12.2019
5413 Clouds 24 1010 85 0 3.72 205 11:22 29.12.2019
5414 Clouds 24 1010 85 0 3.72 205 10:57 29.12.2019
5415 Clouds 24 1010 85 0 3.72 205 10:39 29.12.2019
5416 Clouds 24 1010 85 0 3.72 205 10:18 29.12.2019
5417 Clouds 24 1010 85 0 3.72 205 09:45 29.12.2019
5418 Clouds 24 1010 85 0 3.72 205 09:27 29.12.2019
5419 Clouds 24 1010 85 0 3.72 205 08:55 29.12.2019
5420 Clouds 24 1010 85 0 3.72 205 08:37 29.12.2019
5421 Clouds 24 1012 87 0 4.35 201 08:18 29.12.2019
5422 Clouds 24 1012 87 0 4.35 201 07:43 29.12.2019
5423 Clouds 24 1012 87 0 4.35 201 07:25 29.12.2019
5424 Clouds 24 1012 87 0 4.35 201 06:28 29.12.2019
5425 Clouds 24 1012 87 0 4.35 201 05:55 29.12.2019
5426 Clouds 24 1012 87 0 4.88 194 04:59 29.12.2019
5427 Clouds 24 1012 87 0 4.88 194 04:30 29.12.2019
5428 Clouds 24 1012 87 0 4.88 194 03:32 29.12.2019
5429 Clouds 24 1006 88 10000 4.1 160 02:27 29.12.2019
5430 Clouds 24 1006 88 10000 4.1 160 01:47 29.12.2019
5431 Clouds 24 1006 88 10000 4.1 160 01:28 29.12.2019
5432 Drizzle 24 1007 88 10000 4.6 170 00:45 29.12.2019
5433 Drizzle 24 1007 88 10000 4.6 170 00:24 29.12.2019
5434 Clouds 26 1006 78 10000 5.1 170 23:45 28.12.2019
5435 Clouds 26 1006 78 10000 5.1 170 23:19 28.12.2019
5436 Clouds 26 1006 78 10000 5.1 170 23:19 28.12.2019
5437 Clouds 26 1006 78 10000 5.1 170 23:19 28.12.2019
5438 Clouds 26 1007 83 10000 6.7 200 22:54 28.12.2019
5439 Clouds 26 1007 83 10000 6.7 200 22:36 28.12.2019
5440 Clouds 26 1007 83 10000 6.7 200 22:18 28.12.2019
5441 Clouds 26 1008 83 10000 5.7 190 21:55 28.12.2019
5442 Clouds 26 1008 83 10000 5.7 190 21:36 28.12.2019
5443 Clouds 26 1008 83 10000 5.7 190 21:18 28.12.2019
5444 Clouds 27 1008 74 10000 4.6 180 20:38 28.12.2019
5445 Clouds 27 1008 74 10000 4.6 180 20:20 28.12.2019
5446 Clouds 27 1008 74 10000 5.1 190 19:59 28.12.2019
5447 Clouds 27 1008 74 10000 5.1 190 19:39 28.12.2019
5448 Clouds 27 1008 74 10000 5.1 190 19:21 28.12.2019
5449 Clouds 27 1009 74 10000 5.7 170 18:59 28.12.2019
5450 Clouds 27 1009 74 10000 5.7 170 18:40 28.12.2019
5451 Clouds 27 1009 74 10000 5.7 170 18:19 28.12.2019
5452 Clouds 26 1010 78 10000 4.1 190 17:55 28.12.2019
5453 Clouds 26 1010 78 10000 4.1 190 17:55 28.12.2019
5454 Clouds 26 1010 78 10000 4.1 190 17:37 28.12.2019
5455 Clouds 26 1010 78 10000 4.1 190 17:18 28.12.2019
5456 Clouds 26 1010 78 10000 4.1 190 17:18 28.12.2019
5457 Rain 25 1010 88 10000 3.6 170 16:46 28.12.2019
5458 Rain 25 1010 88 10000 3.6 170 16:26 28.12.2019
5459 Rain 23 1010 100 10000 4.1 190 15:47 28.12.2019
5460 Rain 23 1010 100 10000 4.1 190 15:24 28.12.2019
5461 Drizzle 23 1009 94 10000 3.1 180 14:59 28.12.2019
5462 Drizzle 23 1009 94 10000 3.1 180 14:39 28.12.2019
5463 Drizzle 23 1009 94 10000 3.1 180 14:20 28.12.2019
5464 Rain 23 1009 94 10000 4.1 180 13:56 28.12.2019
5465 Rain 23 1009 94 10000 4.1 180 13:37 28.12.2019
5466 Rain 23 1009 94 10000 4.1 180 13:18 28.12.2019
5467 Clouds 24 1011 87 0 4.57 173 12:42 28.12.2019
5468 Clouds 24 1011 87 0 4.57 173 12:23 28.12.2019
5469 Clouds 24 1011 87 0 4.57 173 11:56 28.12.2019
5470 Clouds 24 1011 87 0 4.57 173 11:37 28.12.2019
5471 Clouds 24 1010 87 0 3.66 165 11:18 28.12.2019
5472 Clouds 24 1010 87 0 3.66 165 10:43 28.12.2019
5473 Clouds 24 1010 87 0 3.66 165 10:21 28.12.2019
5474 Clouds 24 1010 87 0 3.66 165 09:57 28.12.2019
5475 Clouds 24 1010 87 0 3.66 165 09:39 28.12.2019
5476 Clouds 24 1010 87 0 3.66 165 09:19 28.12.2019
5477 Clouds 24 1010 87 0 3.66 165 08:43 28.12.2019
5478 Clouds 24 1010 87 0 3.91 169 08:25 28.12.2019
5479 Rain 24 1012 86 0 4.55 162 07:49 28.12.2019
5480 Rain 24 1012 86 0 4.55 162 07:27 28.12.2019
5481 Rain 24 1012 86 0 4.55 162 05:53 28.12.2019
5482 Clouds 24 1012 86 0 5.04 163 03:52 28.12.2019
5483 Clouds 24 1012 86 0 5.04 163 03:33 28.12.2019
5484 Clouds 24 1012 86 0 5.04 163 02:43 28.12.2019
5485 Clouds 25 1007 83 10000 5.1 170 01:59 28.12.2019
5486 Clouds 25 1007 83 10000 5.1 170 01:25 28.12.2019
5487 Clouds 25 1007 83 10000 5.7 160 00:51 28.12.2019
5488 Clouds 25 1007 83 10000 5.7 160 00:32 28.12.2019
5489 Clouds 26 1007 78 10000 6.7 170 00:00 28.12.2019
5490 Clouds 26 1007 78 10000 6.7 170 23:41 27.12.2019
5491 Clouds 26 1007 78 10000 6.7 170 23:19 27.12.2019
5492 Clouds 27 1007 74 10000 7.7 170 22:57 27.12.2019
5493 Clouds 27 1007 74 10000 7.7 170 22:57 27.12.2019
5494 Clouds 27 1007 74 10000 7.7 170 22:38 27.12.2019
5495 Clouds 27 1007 74 10000 7.7 170 22:20 27.12.2019
5496 Clouds 27 1008 74 10000 8.2 160 21:44 27.12.2019
5497 Clouds 27 1008 74 10000 8.2 160 21:25 27.12.2019
5498 Clouds 27 1009 74 10000 8.7 180 20:58 27.12.2019
5499 Clouds 27 1009 74 10000 8.7 180 20:40 27.12.2019
5500 Clouds 27 1009 74 10000 8.7 180 20:21 27.12.2019
5501 Clouds 26 1009 78 10000 8.2 170 19:42 27.12.2019
5502 Clouds 26 1009 78 10000 8.2 170 19:20 27.12.2019
5503 Clouds 26 1010 78 10000 7.2 160 18:58 27.12.2019
5504 Clouds 26 1010 78 10000 7.2 160 18:37 27.12.2019
5505 Clouds 26 1010 78 10000 7.2 160 18:19 27.12.2019
5506 Clouds 26 1010 78 10000 9.3 170 17:56 27.12.2019
5507 Clouds 26 1010 78 10000 9.3 170 17:38 27.12.2019
5508 Clouds 26 1010 78 10000 9.3 170 17:18 27.12.2019
5509 Clouds 26 1010 83 10000 8.7 170 16:44 27.12.2019
5510 Clouds 26 1010 83 10000 8.7 170 16:26 27.12.2019
5511 Clouds 25 1010 83 10000 9.3 160 15:59 27.12.2019
5512 Clouds 25 1010 83 10000 9.3 160 15:40 27.12.2019
5513 Clouds 25 1010 83 10000 9.3 160 15:20 27.12.2019
5514 Clouds 24 1009 88 10000 7.2 170 14:56 27.12.2019
5515 Clouds 24 1009 88 10000 7.2 170 14:38 27.12.2019
5516 Clouds 24 1009 88 10000 7.2 170 14:20 27.12.2019
5517 Clouds 24 1009 88 10000 6.7 180 13:47 27.12.2019
5518 Clouds 24 1009 88 10000 6.7 180 13:24 27.12.2019
5519 Clouds 24 1011 87 0 6.91 166 12:56 27.12.2019
5520 Clouds 24 1011 87 0 6.91 166 12:37 27.12.2019
5521 Clouds 24 1011 87 0 6.91 166 12:18 27.12.2019
5522 Clouds 24 1011 87 0 6.91 166 12:18 27.12.2019
5523 Clouds 24 1011 87 0 6.91 166 11:42 27.12.2019
5524 Clouds 24 1011 88 0 6.06 179 11:20 27.12.2019
5525 Clouds 24 1011 88 0 6.06 179 10:47 27.12.2019
5526 Clouds 24 1011 88 0 6.06 179 10:24 27.12.2019
5527 Clouds 24 1011 88 0 6.06 179 09:59 27.12.2019
5528 Clouds 24 1011 88 0 6.06 179 09:39 27.12.2019
5529 Clouds 24 1011 88 0 6.06 179 09:21 27.12.2019
5530 Clouds 24 1011 88 0 6.06 179 08:49 27.12.2019
5531 Clouds 24 1010 88 0 5.98 174 08:30 27.12.2019
5532 Clouds 24 1012 89 0 6.11 179 07:48 27.12.2019
5533 Clouds 24 1012 89 0 6.11 179 07:25 27.12.2019
5534 Clouds 24 1012 89 0 6.11 179 06:33 27.12.2019
5535 Clouds 24 1012 89 0 4.82 191 04:48 27.12.2019
5536 Clouds 25 1007 83 10000 6.7 170 02:29 27.12.2019
5537 Clouds 25 1007 83 10000 6.7 170 01:48 27.12.2019
5538 Clouds 25 1007 83 10000 6.7 170 01:23 27.12.2019
5539 Clouds 25 1006 83 10000 6.7 180 00:51 27.12.2019
5540 Clouds 25 1006 83 10000 6.7 180 00:33 27.12.2019
5541 Clouds 25 1006 83 10000 6.7 170 23:56 26.12.2019
5542 Clouds 25 1006 83 10000 6.7 170 23:38 26.12.2019
5543 Clouds 25 1006 83 10000 6.7 170 23:20 26.12.2019
5544 Clouds 26 1006 83 10000 6.2 170 22:41 26.12.2019
5545 Clouds 26 1006 83 10000 6.2 170 22:19 26.12.2019
5546 Rain 26 1007 83 10000 4.1 190 21:40 26.12.2019
5547 Rain 26 1007 83 10000 4.1 190 21:22 26.12.2019
5548 Rain 26 1007 83 10000 7.2 170 20:59 26.12.2019
5549 Rain 26 1007 83 10000 7.2 170 20:41 26.12.2019
5550 Rain 26 1007 83 10000 7.2 170 20:22 26.12.2019
5551 Clouds 25 1008 88 10000 5.7 180 19:56 26.12.2019
5552 Clouds 25 1008 88 10000 5.7 180 19:38 26.12.2019
5553 Clouds 25 1008 88 10000 5.7 180 19:20 26.12.2019
5554 Clouds 25 1009 88 10000 3.6 180 18:57 26.12.2019
5555 Clouds 25 1009 88 10000 3.6 180 18:37 26.12.2019
5556 Clouds 25 1009 88 10000 3.6 180 18:18 26.12.2019
5557 Rain 24 1009 94 10000 4.1 170 17:42 26.12.2019
5558 Rain 24 1009 94 10000 4.1 170 17:22 26.12.2019
5559 Clouds 24 1012 88 0 7.57 165 16:50 26.12.2019
5560 Clouds 24 1012 88 0 7.57 165 16:28 26.12.2019
5561 Rain 24 1009 94 10000 5.1 190 15:58 26.12.2019
5562 Rain 24 1009 94 10000 5.1 190 15:39 26.12.2019
5563 Rain 24 1009 94 10000 5.1 190 15:19 26.12.2019
5564 Drizzle 23 1008 94 10000 4.1 190 14:41 26.12.2019
5565 Drizzle 23 1008 94 10000 4.1 190 14:23 26.12.2019
5566 Drizzle 23 1008 94 10000 4.1 190 14:23 26.12.2019
5567 Drizzle 23 1007 94 8000 4.6 150 13:55 26.12.2019
5568 Drizzle 23 1007 94 8000 4.6 150 13:36 26.12.2019
5569 Drizzle 23 1007 94 8000 4.6 150 13:18 26.12.2019
5570 Clouds 24 1010 86 0 7.52 163 12:45 26.12.2019
5571 Clouds 24 1010 86 0 7.52 163 12:25 26.12.2019
5572 Clouds 24 1010 86 0 7.52 163 11:59 26.12.2019
5573 Clouds 24 1010 86 0 7.52 163 11:40 26.12.2019
5574 Clouds 24 1010 86 0 7.52 163 11:40 26.12.2019
5575 Clouds 24 1009 87 0 5.84 163 11:21 26.12.2019
5576 Clouds 24 1009 87 0 5.84 163 10:50 26.12.2019
5577 Clouds 24 1009 87 0 5.84 163 10:26 26.12.2019
5578 Clouds 24 1009 87 0 5.84 163 09:55 26.12.2019
5579 Clouds 24 1009 87 0 5.84 163 09:36 26.12.2019
5580 Clouds 24 1009 87 0 5.84 163 09:18 26.12.2019
5581 Clouds 24 1009 87 0 5.84 163 08:39 26.12.2019
5582 Clouds 24 1010 87 0 5.39 164 08:20 26.12.2019
5583 Clouds 24 1010 87 0 5.39 164 07:41 26.12.2019
5584 Clouds 24 1010 87 0 5.39 164 07:19 26.12.2019
5585 Clouds 24 1010 87 0 5.39 164 06:37 26.12.2019
5586 Clouds 24 1010 87 0 5.39 164 06:19 26.12.2019
5587 Clouds 24 1010 87 0 5.39 164 05:41 26.12.2019
5588 Clouds 24 1010 87 0 5.25 169 04:33 26.12.2019
5589 Clouds 24 1010 87 0 5.25 169 03:31 26.12.2019
5590 Clouds 24 1010 87 0 5.25 169 02:46 26.12.2019
5591 Clouds 25 1005 83 10000 5.1 170 02:25 26.12.2019
5592 Clouds 25 1005 83 10000 5.1 170 01:44 26.12.2019
5593 Clouds 25 1005 83 10000 5.1 170 01:24 26.12.2019
5594 Clouds 26 1005 78 10000 6.2 180 00:44 26.12.2019
5595 Clouds 26 1005 78 10000 6.2 180 00:23 26.12.2019
5596 Clouds 27 1005 74 10000 5.7 190 23:57 25.12.2019
5597 Clouds 27 1005 74 10000 5.7 190 23:36 25.12.2019
5598 Clouds 27 1005 74 10000 5.7 190 23:18 25.12.2019
5599 Clouds 27 1005 74 10000 6.2 190 22:55 25.12.2019
5600 Clouds 27 1005 74 10000 6.2 190 22:37 25.12.2019
5601 Clouds 27 1005 74 10000 6.2 190 22:18 25.12.2019
5602 Clouds 27 1005 74 10000 6.7 190 21:40 25.12.2019
5603 Clouds 27 1005 74 10000 6.7 190 21:22 25.12.2019
5604 Clouds 27 1006 74 10000 8.2 170 20:59 25.12.2019
5605 Clouds 27 1006 74 10000 8.2 170 20:40 25.12.2019
5606 Clouds 27 1006 74 10000 8.2 170 20:19 25.12.2019
5607 Clouds 27 1007 74 10000 6.7 160 19:57 25.12.2019
5608 Clouds 27 1007 74 10000 6.7 160 19:39 25.12.2019
5609 Clouds 27 1007 74 10000 6.7 160 19:21 25.12.2019
5610 Clouds 27 1008 74 10000 6.2 190 18:39 25.12.2019
5611 Clouds 27 1008 74 10000 6.2 190 18:20 25.12.2019
5612 Clouds 26 1009 78 10000 4.6 170 17:43 25.12.2019
5613 Clouds 26 1009 78 10000 4.6 170 17:21 25.12.2019
5614 Clouds 24 1009 88 10000 5.7 180 16:59 25.12.2019
5615 Clouds 24 1009 88 10000 5.7 180 16:39 25.12.2019
5616 Clouds 24 1009 88 10000 5.7 180 16:19 25.12.2019
5617 Clouds 24 1009 88 10000 3.6 180 15:57 25.12.2019
5618 Clouds 24 1009 88 10000 3.6 180 15:39 25.12.2019
5619 Clouds 24 1009 88 10000 3.6 180 15:39 25.12.2019
5620 Clouds 24 1009 88 10000 3.6 180 15:39 25.12.2019
5621 Clouds 24 1009 88 10000 3.6 180 15:21 25.12.2019
5622 Clouds 24 1008 88 10000 4.1 180 14:58 25.12.2019
5623 Clouds 24 1008 88 10000 4.1 180 14:40 25.12.2019
5624 Clouds 24 1008 88 10000 4.1 180 14:21 25.12.2019
5625 Clouds 23 1008 94 10000 5.1 180 13:55 25.12.2019
5626 Clouds 23 1008 94 10000 5.1 180 13:36 25.12.2019
5627 Clouds 23 1008 94 10000 5.1 180 13:18 25.12.2019
5628 Rain 24 1010 87 0 5.31 168 12:39 25.12.2019
5629 Rain 24 1010 87 0 5.31 168 12:20 25.12.2019
5630 Rain 24 1010 87 0 5.31 168 11:54 25.12.2019
5631 Rain 24 1010 87 0 5.31 168 11:36 25.12.2019
5632 Clouds 24 1009 86 0 4.41 171 11:18 25.12.2019
5633 Clouds 24 1009 86 0 4.41 171 10:37 25.12.2019
5634 Clouds 24 1009 86 0 4.41 171 10:19 25.12.2019
5635 Clouds 24 1009 86 0 4.41 171 09:49 25.12.2019
5636 Clouds 24 1009 86 0 4.41 171 09:30 25.12.2019
5637 Clouds 24 1009 86 0 4.41 171 08:47 25.12.2019
5638 Clouds 24 1009 85 0 4.52 173 08:29 25.12.2019
5639 Clouds 24 1011 84 0 4.35 176 07:50 25.12.2019
5640 Clouds 24 1011 84 0 4.35 176 07:31 25.12.2019
5641 Clouds 24 1011 84 0 4.35 176 06:50 25.12.2019
5642 Clouds 24 1011 84 0 4.35 176 06:22 25.12.2019
5643 Clouds 24 1012 85 0 4.17 171 05:18 25.12.2019
5644 Clouds 24 1012 85 0 4.17 171 04:39 25.12.2019
5645 Clouds 24 1012 85 0 4.17 171 04:18 25.12.2019
5646 Clouds 24 1012 85 0 4.17 171 03:40 25.12.2019
5647 Clouds 24 1012 85 0 4.17 171 02:39 25.12.2019
5648 Clouds 25 1007 83 10000 4.6 170 01:59 25.12.2019
5649 Clouds 25 1007 83 10000 4.6 170 01:25 25.12.2019
5650 Clouds 26 1006 78 10000 5.1 180 00:52 25.12.2019
5651 Clouds 26 1006 78 10000 5.1 180 00:29 25.12.2019
5652 Clouds 26 1006 78 10000 6.7 180 23:56 24.12.2019
5653 Clouds 26 1006 78 10000 6.7 180 23:37 24.12.2019
5654 Clouds 26 1006 78 10000 6.7 180 23:19 24.12.2019
5655 Clouds 27 1006 74 10000 5.7 180 22:40 24.12.2019
5656 Clouds 27 1006 74 10000 5.7 180 22:21 24.12.2019
5657 Clouds 27 1007 74 10000 7.2 190 21:43 24.12.2019
5658 Clouds 27 1007 74 10000 7.2 190 21:22 24.12.2019
5659 Clouds 27 1008 74 10000 5.1 200 20:54 24.12.2019
5660 Clouds 27 1008 74 10000 5.1 200 20:36 24.12.2019
5661 Clouds 27 1008 74 10000 5.1 200 20:18 24.12.2019
5662 Clouds 27 1008 74 10000 5.1 200 20:18 24.12.2019
5663 Clouds 27 1009 74 10000 6.2 170 19:43 24.12.2019
5664 Clouds 27 1009 74 10000 6.2 170 19:19 24.12.2019
5665 Clouds 27 1009 74 10000 5.7 180 18:43 24.12.2019
5666 Clouds 27 1009 74 10000 5.7 180 18:24 24.12.2019
5667 Clouds 26 1010 78 10000 4.1 180 17:58 24.12.2019
5668 Clouds 26 1010 78 10000 4.1 180 17:37 24.12.2019
5669 Clouds 26 1010 78 10000 4.1 180 17:19 24.12.2019
5670 Clouds 25 1010 83 10000 5.1 190 16:55 24.12.2019
5671 Clouds 25 1010 83 10000 5.1 190 16:36 24.12.2019
5672 Clouds 25 1010 83 10000 5.1 190 16:18 24.12.2019
5673 Clouds 24 1010 83 10000 4.6 140 15:54 24.12.2019
5674 Clouds 24 1010 83 10000 4.6 140 15:36 24.12.2019
5675 Clouds 24 1010 83 10000 4.6 140 15:36 24.12.2019
5676 Clouds 24 1010 83 10000 4.6 140 15:18 24.12.2019
5677 Clouds 24 1009 83 10000 5.7 150 14:41 24.12.2019
5678 Clouds 24 1009 83 10000 5.7 150 14:22 24.12.2019
5679 Clouds 24 1009 83 10000 4.6 160 13:57 24.12.2019
5680 Clouds 24 1009 83 10000 4.6 160 13:39 24.12.2019
5681 Clouds 24 1009 83 10000 4.6 160 13:21 24.12.2019
5682 Rain 23 1011 84 0 4.82 154 12:58 24.12.2019
5683 Rain 23 1011 84 0 4.82 154 12:58 24.12.2019
5684 Rain 23 1011 84 0 4.82 154 12:38 24.12.2019
5685 Rain 23 1011 84 0 4.82 154 12:19 24.12.2019
5686 Rain 23 1011 84 0 4.82 154 11:58 24.12.2019
5687 Rain 23 1011 84 0 4.82 154 11:38 24.12.2019
5688 Clouds 23 1010 84 0 4.41 166 11:20 24.12.2019
5689 Clouds 23 1010 84 0 4.41 166 10:57 24.12.2019
5690 Clouds 23 1010 84 0 4.41 166 10:38 24.12.2019
5691 Clouds 23 1010 84 0 4.41 166 10:20 24.12.2019
5692 Clouds 23 1010 84 0 4.41 166 09:58 24.12.2019
5693 Clouds 23 1010 84 0 4.41 166 09:40 24.12.2019
5694 Clouds 23 1010 84 0 4.41 166 09:21 24.12.2019
5695 Clouds 23 1010 84 0 4.41 166 08:47 24.12.2019
5696 Clouds 23 1010 84 0 4.67 171 08:25 24.12.2019
5697 Clouds 24 1011 82 0 4.6 172 07:59 24.12.2019
5698 Clouds 24 1011 82 0 4.6 172 07:39 24.12.2019
5699 Clouds 24 1011 82 0 4.6 172 07:21 24.12.2019
5700 Clouds 24 1011 82 0 4.6 172 07:21 24.12.2019
5701 Clouds 24 1011 82 0 4.6 172 06:40 24.12.2019
5702 Clouds 24 1011 82 0 4.6 172 06:19 24.12.2019
5703 Clouds 24 1011 82 0 4.6 172 05:51 24.12.2019
5704 Clouds 24 1012 84 0 4.48 173 05:19 24.12.2019
5705 Clouds 24 1012 84 0 4.48 173 05:19 24.12.2019
5706 Clouds 24 1012 84 0 4.48 173 04:21 24.12.2019
5707 Clouds 24 1012 84 0 4.48 173 03:46 24.12.2019
5708 Clouds 25 1007 78 10000 4.6 140 02:28 24.12.2019
5709 Clouds 25 1007 78 10000 4.6 140 01:54 24.12.2019
5710 Clouds 25 1007 78 10000 4.6 140 01:25 24.12.2019
5711 Clouds 26 1006 78 10000 5.1 170 00:56 24.12.2019
5712 Clouds 26 1006 78 10000 5.1 170 00:37 24.12.2019
5713 Clouds 26 1006 78 10000 5.1 170 00:19 24.12.2019
5714 Clouds 26 1006 78 10000 5.1 170 00:19 24.12.2019
5715 Clouds 26 1006 78 10000 5.7 200 23:41 23.12.2019
5716 Clouds 26 1006 78 10000 5.7 200 23:23 23.12.2019
5717 Clouds 27 1006 74 10000 5.1 190 22:56 23.12.2019
5718 Clouds 27 1006 74 10000 5.1 190 22:37 23.12.2019
5719 Clouds 27 1006 74 10000 5.1 190 22:19 23.12.2019
5720 Clouds 23 1008 82 0 4.98 170 21:55 23.12.2019
5721 Clouds 23 1008 82 0 4.98 170 21:36 23.12.2019
5722 Clouds 28 1008 69 10000 6.7 160 21:18 23.12.2019
5723 Clouds 28 1008 69 10000 6.7 160 20:57 23.12.2019
5724 Clouds 28 1008 69 10000 6.7 160 20:39 23.12.2019
5725 Clouds 28 1008 69 10000 6.7 160 20:39 23.12.2019
5726 Clouds 28 1008 69 10000 6.7 160 20:18 23.12.2019
5727 Clouds 28 1008 69 10000 7.2 160 19:56 23.12.2019
5728 Clouds 28 1008 69 10000 7.2 160 19:38 23.12.2019
5729 Clouds 28 1008 69 10000 7.2 160 19:19 23.12.2019
5730 Clouds 28 1008 69 10000 7.2 160 19:19 23.12.2019
5731 Clouds 27 1009 69 10000 8.2 150 18:57 23.12.2019
5732 Clouds 27 1009 69 10000 8.2 150 18:38 23.12.2019
5733 Clouds 27 1009 69 10000 8.2 150 18:20 23.12.2019
5734 Clouds 26 1010 78 10000 7.2 140 17:56 23.12.2019
5735 Clouds 26 1010 78 10000 7.2 140 17:37 23.12.2019
5736 Clouds 26 1010 78 10000 7.2 140 17:19 23.12.2019
5737 Clouds 25 1010 78 10000 7.7 160 16:42 23.12.2019
5738 Clouds 25 1010 78 10000 7.7 160 16:42 23.12.2019
5739 Clouds 25 1010 78 10000 7.7 160 16:19 23.12.2019
5740 Clouds 25 1010 83 10000 5.1 150 15:59 23.12.2019
5741 Clouds 25 1010 83 10000 5.1 150 15:39 23.12.2019
5742 Clouds 25 1010 83 10000 5.1 150 15:20 23.12.2019
5743 Clouds 24 1010 83 10000 4.6 150 14:59 23.12.2019
5744 Clouds 24 1010 83 10000 4.6 150 14:41 23.12.2019
5745 Clouds 24 1010 83 10000 4.6 150 14:23 23.12.2019
5746 Clouds 23 1009 88 10000 4.1 160 13:58 23.12.2019
5747 Clouds 23 1009 88 10000 4.1 160 13:40 23.12.2019
5748 Clouds 23 1009 88 10000 4.1 160 13:22 23.12.2019
5749 Clouds 23 1009 88 10000 4.1 160 13:22 23.12.2019
5750 Clouds 23 1011 82 0 5.5 171 12:57 23.12.2019
5751 Clouds 23 1011 82 0 5.5 171 12:39 23.12.2019
5752 Clouds 23 1011 82 0 5.5 171 12:19 23.12.2019
5753 Clouds 23 1011 82 0 5.5 171 11:44 23.12.2019
5754 Clouds 23 1011 82 0 5.5 171 11:26 23.12.2019
5755 Clouds 23 1010 81 0 5.51 180 10:59 23.12.2019
5756 Clouds 23 1010 81 0 5.51 180 10:40 23.12.2019
5757 Clouds 23 1010 81 0 5.51 180 10:20 23.12.2019
5758 Clouds 23 1010 81 0 5.51 180 09:59 23.12.2019
5759 Clouds 23 1010 81 0 5.51 180 09:39 23.12.2019
5760 Clouds 23 1010 81 0 5.51 180 09:21 23.12.2019
5761 Clouds 23 1010 81 0 5.51 180 08:56 23.12.2019
5762 Clouds 23 1010 81 0 5.51 180 08:38 23.12.2019
5763 Clouds 23 1011 82 0 5.37 191 08:19 23.12.2019
5764 Clouds 23 1011 82 0 5.37 191 07:43 23.12.2019
5765 Clouds 23 1011 82 0 5.37 191 07:20 23.12.2019
5766 Clouds 23 1011 82 0 5.37 191 06:52 23.12.2019
5767 Clouds 23 1011 82 0 5.37 191 06:25 23.12.2019
5768 Clouds 23 1011 82 0 5.37 191 05:50 23.12.2019
5769 Clouds 23 1011 82 0 5.37 191 05:26 23.12.2019
5770 Clouds 23 1012 83 0 4.83 205 04:31 23.12.2019
5771 Clouds 23 1012 83 0 4.83 205 02:58 23.12.2019
5772 Clouds 23 1012 83 0 4.83 205 02:40 23.12.2019
5773 Clouds 24 1007 83 10000 4.6 200 02:18 23.12.2019
5774 Clouds 24 1007 83 10000 4.6 200 01:41 23.12.2019
5775 Clouds 24 1007 83 10000 4.6 200 01:19 23.12.2019
5776 Clouds 25 1007 78 10000 5.1 210 00:41 23.12.2019
5777 Clouds 25 1007 78 10000 5.1 210 00:19 23.12.2019
5778 Clouds 25 1007 78 10000 5.7 230 23:39 22.12.2019
5779 Clouds 25 1007 78 10000 5.7 230 23:20 22.12.2019
5780 Clouds 26 1007 74 10000 4.6 190 22:58 22.12.2019
5781 Clouds 26 1007 74 10000 4.6 190 22:39 22.12.2019
5782 Clouds 26 1007 74 10000 4.6 190 22:19 22.12.2019
5783 Clouds 26 1008 74 10000 5.1 190 21:57 22.12.2019
5784 Clouds 26 1008 74 10000 5.1 190 21:39 22.12.2019
5785 Clouds 26 1008 74 10000 5.1 190 21:20 22.12.2019
5786 Clouds 26 1009 74 10000 4.6 200 20:56 22.12.2019
5787 Clouds 26 1009 74 10000 4.6 200 20:38 22.12.2019
5788 Clouds 26 1009 74 10000 4.6 200 20:18 22.12.2019
5789 Clouds 26 1009 74 10000 4.1 190 19:41 22.12.2019
5790 Clouds 26 1009 74 10000 4.1 190 19:21 22.12.2019
5791 Clouds 27 1010 74 10000 5.1 200 18:58 22.12.2019
5792 Clouds 27 1010 74 10000 5.1 200 18:38 22.12.2019
5793 Clouds 27 1010 74 10000 5.1 200 18:19 22.12.2019
5794 Clouds 26 1011 78 10000 6.2 170 17:55 22.12.2019
5795 Clouds 26 1011 78 10000 6.2 170 17:37 22.12.2019
5796 Clouds 26 1011 78 10000 6.2 170 17:18 22.12.2019
5797 Clouds 26 1011 74 10000 6.2 200 16:43 22.12.2019
5798 Clouds 26 1011 74 10000 6.2 200 16:43 22.12.2019
5799 Clouds 26 1011 74 10000 6.2 200 16:23 22.12.2019
5800 Clouds 26 1011 74 10000 4.1 210 15:59 22.12.2019
5801 Clouds 26 1011 74 10000 4.1 210 15:39 22.12.2019
5802 Clouds 26 1011 74 10000 4.1 210 15:21 22.12.2019
5803 Clouds 26 1011 74 10000 4.1 210 15:21 22.12.2019
5804 Clouds 24 1010 83 10000 3.6 180 14:59 22.12.2019
5805 Clouds 24 1010 83 10000 3.6 180 14:39 22.12.2019
5806 Clouds 24 1010 83 10000 3.6 180 14:19 22.12.2019
5807 Clouds 23 1009 88 10000 4.1 190 13:56 22.12.2019
5808 Clouds 23 1009 88 10000 4.1 190 13:38 22.12.2019
5809 Clouds 23 1009 88 10000 4.1 190 13:19 22.12.2019
5810 Clouds 23 1011 87 0 5.26 179 12:57 22.12.2019
5811 Clouds 23 1011 87 0 5.26 179 12:57 22.12.2019
5812 Clouds 23 1011 87 0 5.26 179 12:38 22.12.2019
5813 Clouds 23 1011 87 0 5.26 179 12:19 22.12.2019
5814 Clouds 23 1011 87 0 5.26 179 12:19 22.12.2019
5815 Clouds 23 1011 87 0 5.26 179 11:58 22.12.2019
5816 Clouds 23 1011 87 0 5.26 179 11:38 22.12.2019
5817 Clouds 22 1010 88 0 5.86 181 11:19 22.12.2019
5818 Clouds 22 1010 88 0 5.86 181 10:57 22.12.2019
5819 Clouds 22 1010 88 0 5.86 181 10:38 22.12.2019
5820 Clouds 22 1010 88 0 5.86 181 10:19 22.12.2019
5821 Clouds 22 1010 88 0 5.86 181 09:57 22.12.2019
5822 Clouds 22 1010 88 0 5.86 181 09:57 22.12.2019
5823 Clouds 22 1010 88 0 5.86 181 09:39 22.12.2019
5824 Clouds 22 1010 88 0 5.86 181 09:20 22.12.2019
5825 Clouds 22 1010 88 0 5.86 181 08:45 22.12.2019
5826 Clouds 23 1011 88 0 6.12 186 08:22 22.12.2019
5827 Clouds 23 1011 87 0 6.2 186 07:44 22.12.2019
5828 Clouds 23 1011 87 0 6.2 186 07:21 22.12.2019
5829 Clouds 23 1011 87 0 6.2 186 06:53 22.12.2019
5830 Clouds 23 1011 87 0 6.2 186 06:26 22.12.2019
5831 Clouds 23 1011 87 0 6.2 186 05:33 22.12.2019
5832 Clouds 23 1012 87 0 5.11 200 04:46 22.12.2019
5833 Clouds 23 1012 87 0 5.11 200 04:25 22.12.2019
5834 Clouds 23 1012 87 0 5.11 200 02:45 22.12.2019
5835 Clouds 24 1007 83 10000 5.7 220 02:21 22.12.2019
5836 Clouds 24 1007 83 10000 5.7 220 01:31 22.12.2019
5837 Clouds 25 1007 78 10000 5.1 200 00:54 22.12.2019
5838 Clouds 25 1007 78 10000 5.1 200 00:36 22.12.2019
5839 Clouds 25 1007 78 10000 5.1 200 00:18 22.12.2019
5840 Clouds 26 1007 74 10000 5.1 190 23:40 21.12.2019
5841 Clouds 26 1007 74 10000 5.1 190 23:21 21.12.2019
5842 Clouds 27 1007 69 10000 6.7 210 22:47 21.12.2019
5843 Clouds 27 1007 69 10000 6.7 210 22:20 21.12.2019
5844 Clouds 27 1007 74 10000 5.1 190 21:59 21.12.2019
5845 Clouds 27 1007 74 10000 5.1 190 21:40 21.12.2019
5846 Clouds 27 1007 74 10000 5.1 190 21:40 21.12.2019
5847 Clouds 27 1007 74 10000 5.1 190 21:21 21.12.2019
5848 Clouds 27 1008 74 10000 6.2 210 20:59 21.12.2019
5849 Clouds 27 1008 74 10000 6.2 210 20:59 21.12.2019
5850 Clouds 27 1008 74 10000 6.2 210 20:41 21.12.2019
5851 Clouds 27 1008 74 10000 6.2 210 20:22 21.12.2019
5852 Clouds 26 1009 78 10000 5.7 200 19:59 21.12.2019
5853 Clouds 26 1009 78 10000 5.7 200 19:41 21.12.2019
5854 Clouds 26 1009 78 10000 5.7 200 19:41 21.12.2019
5855 Clouds 26 1009 78 10000 5.7 200 19:20 21.12.2019
5856 Clouds 26 1010 78 10000 6.2 170 18:59 21.12.2019
5857 Clouds 26 1010 78 10000 6.2 170 18:40 21.12.2019
5858 Clouds 26 1010 78 10000 6.2 170 18:22 21.12.2019
5859 Clouds 25 1011 83 10000 6.2 190 17:55 21.12.2019
5860 Clouds 25 1011 83 10000 6.2 190 17:37 21.12.2019
5861 Clouds 25 1011 83 10000 6.2 190 17:18 21.12.2019
5862 Rain 25 1011 78 10000 6.7 170 16:41 21.12.2019
5863 Rain 25 1011 78 10000 6.7 170 16:19 21.12.2019
5864 Rain 25 1011 78 10000 6.7 170 16:19 21.12.2019
5865 Rain 24 1010 83 10000 4.6 180 15:58 21.12.2019
5866 Rain 24 1010 83 10000 4.6 180 15:39 21.12.2019
5867 Rain 24 1010 83 10000 4.6 180 15:20 21.12.2019
5868 Rain 23 1009 88 10000 9.3 180 14:57 21.12.2019
5869 Rain 23 1009 88 10000 9.3 180 14:39 21.12.2019
5870 Rain 23 1009 88 10000 9.3 180 14:39 21.12.2019
5871 Rain 23 1009 88 10000 9.3 180 14:20 21.12.2019
5872 Clouds 23 1011 86 0 5.29 174 13:56 21.12.2019
5873 Clouds 23 1011 86 0 5.29 174 13:38 21.12.2019
5874 Drizzle 22 1009 94 5000 5.7 170 13:18 21.12.2019
5875 Clouds 23 1011 85 0 5.54 169 12:55 21.12.2019
5876 Clouds 23 1011 85 0 5.54 169 12:37 21.12.2019
5877 Clouds 23 1011 85 0 5.54 169 12:18 21.12.2019
5878 Clouds 23 1011 85 0 5.54 169 11:44 21.12.2019
5879 Clouds 23 1011 85 0 5.54 169 11:26 21.12.2019
5880 Rain 23 1010 84 0 6.14 175 10:57 21.12.2019
5881 Rain 23 1010 84 0 6.14 175 10:57 21.12.2019
5882 Rain 23 1010 84 0 6.14 175 10:38 21.12.2019
5883 Rain 23 1010 84 0 6.14 175 10:20 21.12.2019
5884 Rain 23 1010 84 0 6.14 175 09:44 21.12.2019
5885 Rain 23 1010 84 0 6.14 175 09:22 21.12.2019
5886 Rain 23 1010 84 0 6.14 175 08:59 21.12.2019
5887 Rain 23 1010 84 0 6.14 175 08:39 21.12.2019
5888 Rain 23 1012 86 0 5.85 177 08:21 21.12.2019
5889 Rain 23 1012 85 0 5.84 180 07:44 21.12.2019
5890 Rain 23 1012 85 0 5.84 180 07:22 21.12.2019
5891 Rain 23 1012 85 0 5.84 180 06:45 21.12.2019
5892 Rain 23 1012 85 0 5.84 180 06:26 21.12.2019
5893 Rain 23 1012 85 0 5.84 180 05:51 21.12.2019
5894 Clouds 23 1012 85 0 5.87 184 04:58 21.12.2019
5895 Clouds 23 1012 85 0 5.87 184 03:57 21.12.2019
5896 Clouds 23 1012 85 0 5.87 184 02:52 21.12.2019
5897 Clouds 24 1008 83 10000 6.2 190 01:59 21.12.2019
5898 Clouds 24 1008 83 10000 6.2 190 01:28 21.12.2019
5899 Clouds 24 1007 83 10000 5.1 180 00:53 21.12.2019
5900 Clouds 24 1007 83 10000 5.1 180 00:33 21.12.2019
5901 Clouds 26 1007 69 10000 6.2 160 23:59 20.12.2019
5902 Clouds 26 1007 69 10000 6.2 160 23:38 20.12.2019
5903 Clouds 26 1007 69 10000 6.2 160 23:18 20.12.2019
5904 Clouds 26 1007 74 10000 5.1 170 22:40 20.12.2019
5905 Clouds 26 1007 74 10000 5.1 170 22:21 20.12.2019
5906 Clouds 26 1008 74 10000 6.7 160 21:58 20.12.2019
5907 Clouds 26 1008 74 10000 6.7 160 21:39 20.12.2019
5908 Clouds 26 1008 74 10000 6.7 160 21:19 20.12.2019
5909 Clouds 26 1009 78 10000 5.7 170 20:39 20.12.2019
5910 Clouds 26 1009 78 10000 5.7 170 20:20 20.12.2019
5911 Clouds 26 1010 78 10000 6.2 190 19:58 20.12.2019
5912 Clouds 26 1010 78 10000 6.2 190 19:40 20.12.2019
5913 Clouds 26 1010 78 10000 6.2 190 19:40 20.12.2019
5914 Clouds 26 1010 78 10000 6.2 190 19:19 20.12.2019
5915 Clouds 26 1010 78 10000 6.2 180 18:42 20.12.2019
5916 Clouds 26 1010 78 10000 6.2 180 18:24 20.12.2019
5917 Clouds 25 1011 83 10000 4.6 180 17:59 20.12.2019
5918 Clouds 25 1011 83 10000 4.6 180 17:41 20.12.2019
5919 Clouds 25 1011 83 10000 4.6 180 17:21 20.12.2019
5920 Clouds 25 1011 83 10000 4.6 180 17:21 20.12.2019
5921 Clouds 25 1011 83 10000 4.1 170 16:59 20.12.2019
5922 Clouds 25 1011 83 10000 4.1 170 16:39 20.12.2019
5923 Clouds 25 1011 83 10000 4.1 170 16:20 20.12.2019
5924 Clouds 24 1010 88 10000 4.6 130 15:56 20.12.2019
5925 Clouds 24 1010 88 10000 4.6 130 15:38 20.12.2019
5926 Clouds 24 1010 88 10000 4.6 130 15:19 20.12.2019
5927 Clouds 24 1009 83 10000 3.6 150 14:43 20.12.2019
5928 Clouds 24 1009 83 10000 3.6 150 14:25 20.12.2019
5929 Clouds 23 1009 88 10000 5.1 160 13:59 20.12.2019
5930 Clouds 23 1009 88 10000 5.1 160 13:59 20.12.2019
5931 Clouds 23 1009 88 10000 5.1 160 13:40 20.12.2019
5932 Clouds 23 1009 88 10000 5.1 160 13:20 20.12.2019
5933 Clouds 23 1011 85 0 6.18 173 12:57 20.12.2019
5934 Clouds 23 1011 85 0 6.18 173 12:37 20.12.2019
5935 Clouds 23 1011 85 0 6.18 173 12:18 20.12.2019
5936 Clouds 23 1011 85 0 6.18 173 11:57 20.12.2019
5937 Clouds 23 1011 85 0 6.18 173 11:39 20.12.2019
5938 Clouds 23 1010 85 0 6.71 165 11:18 20.12.2019
5939 Clouds 23 1010 85 0 6.71 165 10:56 20.12.2019
5940 Clouds 23 1010 85 0 6.71 165 10:38 20.12.2019
5941 Clouds 23 1010 85 0 6.71 165 10:20 20.12.2019
5942 Clouds 23 1010 85 0 6.71 165 10:20 20.12.2019
5943 Clouds 23 1010 85 0 6.71 165 09:43 20.12.2019
5944 Clouds 23 1010 85 0 6.71 165 09:22 20.12.2019
5945 Clouds 23 1010 85 0 6.71 165 08:58 20.12.2019
5946 Clouds 23 1010 85 0 6.71 165 08:40 20.12.2019
5947 Clouds 23 1012 85 0 6.93 162 08:21 20.12.2019
5948 Clouds 23 1012 85 0 6.93 162 07:57 20.12.2019
5949 Clouds 23 1012 85 0 6.93 162 07:57 20.12.2019
5950 Clouds 23 1012 85 0 6.93 162 07:38 20.12.2019
5951 Clouds 23 1012 85 0 6.93 162 07:18 20.12.2019
5952 Clouds 23 1012 85 0 6.93 162 06:46 20.12.2019
5953 Clouds 23 1012 85 0 6.93 162 06:28 20.12.2019
5954 Clouds 23 1012 85 0 6.93 162 05:48 20.12.2019
5955 Clouds 23 1012 86 0 6.29 173 05:18 20.12.2019
5956 Clouds 23 1012 86 0 6.29 173 03:49 20.12.2019
5957 Clouds 23 1012 86 0 6.29 173 03:20 20.12.2019
5958 Clouds 25 1007 78 10000 5.1 160 01:59 20.12.2019
5959 Clouds 25 1007 78 10000 5.1 160 01:35 20.12.2019
5960 Clouds 25 1007 78 10000 5.7 150 00:55 20.12.2019
5961 Clouds 25 1007 78 10000 5.7 150 00:35 20.12.2019
5962 Clouds 27 1006 69 10000 6.7 170 23:58 19.12.2019
5963 Clouds 27 1006 69 10000 6.7 170 23:39 19.12.2019
5964 Clouds 27 1006 69 10000 6.7 170 23:19 19.12.2019
5965 Clouds 27 1007 69 10000 7.7 180 22:39 19.12.2019
5966 Clouds 27 1007 69 10000 7.7 180 22:21 19.12.2019
5967 Clouds 27 1008 69 10000 7.2 180 21:56 19.12.2019
5968 Clouds 27 1008 69 10000 7.2 180 21:56 19.12.2019
5969 Clouds 27 1008 69 10000 7.2 180 21:38 19.12.2019
5970 Clouds 27 1008 69 10000 7.2 180 21:19 19.12.2019
5971 Clouds 27 1008 69 10000 7.7 160 20:56 19.12.2019
5972 Clouds 27 1008 69 10000 7.7 160 20:37 19.12.2019
5973 Clouds 27 1008 69 10000 7.7 160 20:19 19.12.2019
5974 Clouds 27 1009 69 10000 7.7 190 19:58 19.12.2019
5975 Clouds 27 1009 69 10000 7.7 190 19:39 19.12.2019
5976 Clouds 27 1009 69 10000 7.7 190 19:19 19.12.2019
5977 Clouds 27 1009 69 10000 7.7 190 19:19 19.12.2019
5978 Clouds 26 1009 74 10000 7.2 170 18:56 19.12.2019
5979 Clouds 26 1009 74 10000 7.2 170 18:38 19.12.2019
5980 Clouds 26 1009 74 10000 7.2 170 18:18 19.12.2019
5981 Clouds 26 1009 74 0 7.2 170 17:55 19.12.2019
5982 Clouds 26 1009 74 0 7.2 170 17:37 19.12.2019
5983 Clouds 26 1009 74 0 7.2 170 17:18 19.12.2019
5984 Clouds 26 1009 74 0 7.2 170 17:18 19.12.2019
5985 Clouds 25 1009 78 10000 7.7 140 16:54 19.12.2019
5986 Clouds 25 1009 78 10000 7.7 140 16:36 19.12.2019
5987 Clouds 25 1009 78 10000 7.7 140 16:18 19.12.2019
5988 Clouds 24 1009 83 10000 6.2 150 15:54 19.12.2019
5989 Clouds 24 1009 83 10000 6.2 150 15:36 19.12.2019
5990 Clouds 24 1009 83 10000 6.2 150 15:18 19.12.2019
5991 Clouds 23 1008 83 10000 5.1 160 14:42 19.12.2019
5992 Clouds 23 1008 83 10000 5.1 160 14:20 19.12.2019
5993 Clouds 23 1008 83 10000 6.2 160 13:57 19.12.2019
5994 Clouds 23 1008 83 10000 6.2 160 13:38 19.12.2019
5995 Clouds 23 1008 83 10000 6.2 160 13:19 19.12.2019
5996 Clouds 23 1011 84 0 5.72 149 12:55 19.12.2019
5997 Clouds 23 1011 84 0 5.72 149 12:37 19.12.2019
5998 Clouds 23 1011 84 0 5.72 149 12:18 19.12.2019
5999 Clouds 23 1011 84 0 5.72 149 11:57 19.12.2019
6000 Clouds 23 1011 84 0 5.72 149 11:39 19.12.2019
6001 Clouds 23 1010 85 0 6.22 151 11:18 19.12.2019
6002 Clouds 23 1010 85 0 6.22 151 10:55 19.12.2019
6003 Clouds 23 1010 85 0 6.22 151 10:36 19.12.2019
6004 Clouds 23 1010 85 0 6.22 151 10:18 19.12.2019
6005 Clouds 23 1010 85 0 6.22 151 10:18 19.12.2019
6006 Clouds 23 1010 85 0 6.22 151 10:18 19.12.2019
6007 Clouds 23 1010 85 0 6.22 151 09:38 19.12.2019
6008 Clouds 23 1010 85 0 6.22 151 09:20 19.12.2019
6009 Clouds 23 1010 85 0 6.22 151 08:58 19.12.2019
6010 Clouds 23 1010 85 0 6.22 151 08:39 19.12.2019
6011 Clouds 23 1011 85 0 5.89 159 08:19 19.12.2019
6012 Clouds 23 1011 85 0 5.89 159 07:56 19.12.2019
6013 Clouds 23 1011 85 0 5.89 159 07:37 19.12.2019
6014 Clouds 23 1011 85 0 5.89 159 07:19 19.12.2019
6015 Clouds 23 1011 85 0 5.89 159 06:46 19.12.2019
6016 Clouds 23 1011 85 0 5.89 159 06:27 19.12.2019
6017 Clouds 23 1011 85 0 5.89 159 05:49 19.12.2019
6018 Clouds 23 1011 85 0 5.89 159 05:28 19.12.2019
6019 Clouds 23 1011 84 0 6.2 173 04:41 19.12.2019
6020 Clouds 24 1006 83 10000 4.6 170 02:30 19.12.2019
6021 Clouds 24 1006 83 10000 4.6 170 01:43 19.12.2019
6022 Clouds 24 1006 83 10000 4.6 170 01:21 19.12.2019
6023 Clouds 25 1006 78 10000 6.2 170 00:39 19.12.2019
6024 Clouds 25 1006 78 10000 6.2 170 00:39 19.12.2019
6025 Clouds 25 1006 78 10000 6.2 170 00:19 19.12.2019
6026 Clouds 25 1006 78 10000 6.2 170 00:19 19.12.2019
6027 Clouds 25 1006 78 10000 4.6 160 23:45 18.12.2019
6028 Clouds 25 1006 78 10000 4.6 160 23:19 18.12.2019
6029 Clouds 25 1006 78 10000 4.6 160 23:19 18.12.2019
6030 Clouds 25 1006 78 10000 4.6 160 23:19 18.12.2019
6031 Clouds 25 1006 78 10000 6.7 170 22:58 18.12.2019
6032 Clouds 25 1006 78 10000 6.7 170 22:40 18.12.2019
6033 Clouds 25 1006 78 10000 6.7 170 22:40 18.12.2019
6034 Clouds 25 1006 78 10000 6.7 170 22:22 18.12.2019
6035 Clouds 24 1007 83 10000 7.2 180 21:59 18.12.2019
6036 Clouds 24 1007 83 10000 7.2 180 21:40 18.12.2019
6037 Clouds 24 1007 83 10000 7.2 180 21:20 18.12.2019
6038 Rain 24 1008 83 10000 6.7 160 20:57 18.12.2019
6039 Rain 24 1008 83 10000 6.7 160 20:38 18.12.2019
6040 Rain 24 1008 83 10000 6.7 160 20:20 18.12.2019
6041 Drizzle 23 1009 94 10000 5.7 150 19:57 18.12.2019
6042 Drizzle 23 1009 94 10000 5.7 150 19:39 18.12.2019
6043 Drizzle 23 1009 94 10000 5.7 150 19:19 18.12.2019
6044 Drizzle 22 1010 100 8000 6.7 170 18:55 18.12.2019
6045 Drizzle 22 1010 100 8000 6.7 170 18:37 18.12.2019
6046 Drizzle 22 1010 100 8000 6.7 170 18:18 18.12.2019
6047 Drizzle 22 1011 100 8000 5.7 160 17:55 18.12.2019
6048 Drizzle 22 1011 100 8000 5.7 160 17:55 18.12.2019
6049 Drizzle 22 1011 100 8000 5.7 160 17:37 18.12.2019
6050 Drizzle 22 1011 100 8000 5.7 160 17:18 18.12.2019
6051 Drizzle 22 1011 94 8000 5.1 160 16:42 18.12.2019
6052 Drizzle 22 1011 94 8000 5.1 160 16:23 18.12.2019
6053 Drizzle 23 1010 88 8000 3.6 160 15:57 18.12.2019
6054 Drizzle 23 1010 88 8000 3.6 160 15:39 18.12.2019
6055 Drizzle 23 1010 88 8000 3.6 160 15:21 18.12.2019
6056 Rain 23 1010 88 10000 4.1 170 14:56 18.12.2019
6057 Rain 23 1010 88 10000 4.1 170 14:38 18.12.2019
6058 Rain 23 1010 88 10000 4.1 170 14:19 18.12.2019
6059 Clouds 23 1009 88 10000 4.6 180 13:55 18.12.2019
6060 Clouds 23 1009 88 10000 4.6 180 13:36 18.12.2019
6061 Clouds 23 1009 88 10000 4.6 180 13:18 18.12.2019
6062 Clouds 23 1009 88 10000 4.6 180 13:18 18.12.2019
6063 Clouds 22 1012 81 0 5.8 173 12:40 18.12.2019
6064 Clouds 22 1012 81 0 5.8 173 12:21 18.12.2019
6065 Clouds 22 1012 81 0 5.8 173 11:57 18.12.2019
6066 Clouds 22 1012 81 0 5.8 173 11:39 18.12.2019
6067 Clouds 22 1011 81 0 6.25 181 11:20 18.12.2019
6068 Clouds 22 1011 81 0 6.25 181 10:58 18.12.2019
6069 Clouds 22 1011 81 0 6.25 181 10:39 18.12.2019
6070 Clouds 22 1011 81 0 6.25 181 10:20 18.12.2019
6071 Clouds 22 1011 81 0 6.25 181 10:20 18.12.2019
6072 Clouds 22 1011 81 0 6.25 181 09:57 18.12.2019
6073 Clouds 22 1011 81 0 6.25 181 09:19 18.12.2019
6074 Clouds 22 1011 81 0 6.25 181 08:42 18.12.2019
6075 Clouds 22 1011 81 0 6.25 181 08:42 18.12.2019
6076 Clouds 22 1011 81 0 6.18 184 08:24 18.12.2019
6077 Clouds 22 1011 82 0 6.74 179 07:56 18.12.2019
6078 Clouds 22 1011 82 0 6.74 179 07:56 18.12.2019
6079 Clouds 22 1011 82 0 6.74 179 07:38 18.12.2019
6080 Clouds 22 1011 82 0 6.74 179 07:19 18.12.2019
6081 Clouds 22 1011 82 0 6.74 179 06:50 18.12.2019
6082 Clouds 22 1011 82 0 6.74 179 06:22 18.12.2019
6083 Clouds 22 1011 82 0 6.74 179 05:30 18.12.2019
6084 Clouds 23 1012 81 0 4.9 181 03:45 18.12.2019
6085 Clouds 23 1012 81 0 4.9 181 02:43 18.12.2019
6086 Clouds 24 1007 83 10000 5.7 170 02:25 18.12.2019
6087 Clouds 24 1007 83 10000 5.7 170 01:43 18.12.2019
6088 Clouds 24 1007 83 10000 5.7 170 01:24 18.12.2019
6089 Clouds 25 1006 78 10000 6.2 170 00:42 18.12.2019
6090 Clouds 25 1006 78 10000 6.2 170 00:24 18.12.2019
6091 Clouds 25 1006 78 10000 6.2 170 00:24 18.12.2019
6092 Clouds 25 1006 78 10000 7.7 170 23:58 17.12.2019
6093 Clouds 25 1006 78 10000 7.7 170 23:39 17.12.2019
6094 Clouds 25 1006 78 10000 7.7 170 23:20 17.12.2019
6095 Clouds 25 1006 78 10000 7.7 170 22:56 17.12.2019
6096 Clouds 25 1006 78 10000 7.7 170 22:38 17.12.2019
6097 Clouds 25 1006 78 10000 7.7 170 22:19 17.12.2019
6098 Clouds 26 1007 69 10000 6.7 180 21:55 17.12.2019
6099 Clouds 26 1007 69 10000 6.7 180 21:37 17.12.2019
6100 Clouds 26 1007 69 10000 6.7 180 21:19 17.12.2019
6101 Clouds 26 1008 74 10000 7.7 170 20:57 17.12.2019
6102 Clouds 26 1008 74 10000 7.7 170 20:38 17.12.2019
6103 Clouds 26 1008 74 10000 7.7 170 20:18 17.12.2019
6104 Clouds 26 1009 74 10000 7.2 180 19:56 17.12.2019
6105 Clouds 26 1009 74 10000 7.2 180 19:37 17.12.2019
6106 Clouds 26 1009 74 10000 7.2 180 19:18 17.12.2019
6107 Clouds 26 1010 74 10000 7.2 180 18:43 17.12.2019
6108 Clouds 26 1010 74 10000 7.2 180 18:43 17.12.2019
6109 Clouds 26 1010 74 10000 7.2 180 18:23 17.12.2019
6110 Clouds 25 1011 78 10000 7.7 180 17:59 17.12.2019
6111 Clouds 25 1011 78 10000 7.7 180 17:41 17.12.2019
6112 Clouds 25 1011 78 10000 7.7 180 17:19 17.12.2019
6113 Clouds 25 1011 78 10000 7.2 160 16:56 17.12.2019
6114 Clouds 25 1011 78 10000 7.2 160 16:37 17.12.2019
6115 Clouds 25 1011 78 10000 7.2 160 16:37 17.12.2019
6116 Clouds 25 1011 78 10000 7.2 160 16:19 17.12.2019
6117 Clouds 24 1010 78 10000 6.7 180 15:56 17.12.2019
6118 Clouds 24 1010 78 10000 6.7 180 15:37 17.12.2019
6119 Clouds 24 1010 78 10000 6.7 180 15:19 17.12.2019
6120 Clouds 23 1009 83 10000 6.2 180 14:55 17.12.2019
6121 Clouds 23 1009 83 10000 6.2 180 14:36 17.12.2019
6122 Clouds 23 1009 83 10000 6.2 180 14:18 17.12.2019
6123 Clouds 23 1009 83 10000 4.6 170 13:55 17.12.2019
6124 Clouds 23 1009 83 10000 4.6 170 13:55 17.12.2019
6125 Clouds 23 1009 83 10000 4.6 170 13:37 17.12.2019
6126 Clouds 23 1009 83 10000 4.6 170 13:18 17.12.2019
6127 Rain 22 1011 81 0 5.76 178 12:41 17.12.2019
6128 Rain 22 1011 81 0 5.76 178 12:19 17.12.2019
6129 Rain 22 1011 81 0 5.76 178 12:19 17.12.2019
6130 Rain 22 1011 81 0 5.76 178 12:19 17.12.2019
6131 Rain 22 1011 81 0 5.76 178 12:19 17.12.2019
6132 Rain 22 1011 81 0 5.76 178 11:59 17.12.2019
6133 Rain 22 1011 81 0 5.76 178 11:37 17.12.2019
6134 Clouds 22 1011 81 0 5.89 178 11:19 17.12.2019
6135 Clouds 22 1011 81 0 5.89 178 11:19 17.12.2019
6136 Clouds 22 1011 81 0 5.89 178 10:59 17.12.2019
6137 Clouds 22 1011 81 0 5.89 178 10:40 17.12.2019
6138 Clouds 22 1011 81 0 5.89 178 10:21 17.12.2019
6139 Clouds 22 1011 81 0 5.89 178 09:59 17.12.2019
6140 Clouds 22 1011 81 0 5.89 178 09:41 17.12.2019
6141 Clouds 22 1011 81 0 5.89 178 09:20 17.12.2019
6142 Clouds 22 1011 81 0 5.89 178 08:56 17.12.2019
6143 Clouds 22 1011 81 0 5.89 178 08:38 17.12.2019
6144 Clouds 23 1012 82 0 6.47 182 08:19 17.12.2019
6145 Clouds 23 1012 82 0 6.47 182 07:45 17.12.2019
6146 Clouds 23 1012 82 0 6.47 182 07:26 17.12.2019
6147 Clouds 23 1012 82 0 6.47 182 06:56 17.12.2019
6148 Clouds 23 1012 82 0 6.47 182 06:34 17.12.2019
6149 Clouds 23 1012 82 0 6.47 182 05:52 17.12.2019
6150 Clouds 23 1012 82 0 6.47 182 05:34 17.12.2019
6151 Clouds 23 1013 83 0 5.63 175 04:25 17.12.2019
6152 Clouds 23 1013 83 0 5.63 175 02:33 17.12.2019
6153 Clouds 23 1013 83 0 5.63 175 02:33 17.12.2019
6154 Clouds 24 1007 78 10000 6.2 170 01:50 17.12.2019
6155 Clouds 25 1007 73 10000 7.2 170 00:56 17.12.2019
6156 Clouds 25 1007 73 10000 7.2 170 00:36 17.12.2019
6157 Clouds 25 1007 73 10000 7.2 170 00:18 17.12.2019
6158 Clouds 23 1010 82 0 4.68 176 23:40 16.12.2019
6159 Clouds 25 1007 78 10000 6.2 170 23:19 16.12.2019
6160 Clouds 25 1007 78 10000 6.2 170 22:55 16.12.2019
6161 Clouds 25 1007 78 10000 6.2 170 22:37 16.12.2019
6162 Clouds 25 1007 78 10000 6.2 170 22:19 16.12.2019
6163 Rain 25 1008 78 10000 6.2 160 21:54 16.12.2019
6164 Rain 25 1008 78 10000 6.2 160 21:36 16.12.2019
6165 Rain 25 1008 78 10000 6.2 160 21:18 16.12.2019
6166 Rain 24 1009 83 10000 6.7 170 20:56 16.12.2019
6167 Rain 24 1009 83 10000 6.7 170 20:37 16.12.2019
6168 Rain 24 1009 83 10000 6.7 170 20:37 16.12.2019
6169 Rain 24 1009 83 10000 6.7 170 20:18 16.12.2019
6170 Rain 26 1010 78 10000 6.7 170 19:55 16.12.2019
6171 Rain 26 1010 78 10000 6.7 170 19:36 16.12.2019
6172 Rain 26 1010 78 10000 6.7 170 19:18 16.12.2019
6173 Rain 26 1010 78 10000 6.7 170 19:18 16.12.2019
6174 Rain 26 1011 78 10000 6.7 170 18:42 16.12.2019
6175 Rain 26 1011 78 10000 6.7 170 18:20 16.12.2019
6176 Clouds 26 1011 78 10000 6.2 170 17:59 16.12.2019
6177 Clouds 26 1011 78 10000 6.2 170 17:41 16.12.2019
6178 Clouds 26 1011 78 10000 6.2 170 17:22 16.12.2019
6179 Clouds 25 1011 78 10000 6.2 190 16:59 16.12.2019
6180 Clouds 25 1011 78 10000 6.2 190 16:59 16.12.2019
6181 Clouds 25 1011 78 10000 6.2 190 16:39 16.12.2019
6182 Clouds 25 1011 78 10000 6.2 190 16:39 16.12.2019
6183 Clouds 25 1011 78 10000 6.2 190 16:20 16.12.2019
6184 Clouds 24 1011 83 10000 4.6 170 15:59 16.12.2019
6185 Clouds 24 1011 83 10000 4.6 170 15:59 16.12.2019
6186 Clouds 24 1011 83 10000 4.6 170 15:39 16.12.2019
6187 Clouds 24 1011 83 10000 4.6 170 15:21 16.12.2019
6188 Clouds 23 1014 81 0 5.75 150 14:58 16.12.2019
6189 Clouds 23 1014 81 0 5.75 150 14:38 16.12.2019
6190 Rain 22 1012 83 0 6.06 147 14:20 16.12.2019
6191 Rain 22 1012 83 0 6.06 147 13:58 16.12.2019
6192 Rain 22 1012 83 0 6.06 147 13:38 16.12.2019
6193 Rain 22 1012 84 0 5.88 150 13:20 16.12.2019
6194 Rain 23 1012 86 0 5.51 154 12:58 16.12.2019
6195 Rain 23 1012 86 0 5.51 154 12:40 16.12.2019
6196 Rain 23 1012 86 0 5.51 154 12:20 16.12.2019
6197 Rain 22 1012 84 0 5.88 150 11:59 16.12.2019
6198 Rain 22 1012 84 0 5.88 150 11:41 16.12.2019
6199 Rain 22 1012 85 0 5.32 151 11:21 16.12.2019
6200 Rain 22 1012 87 0 5.04 160 10:58 16.12.2019
6201 Rain 22 1012 87 0 5.04 160 10:40 16.12.2019
6202 Rain 22 1012 85 0 5.32 151 10:20 16.12.2019
6203 Rain 22 1012 85 0 5.32 151 09:46 16.12.2019
6204 Rain 22 1012 85 0 5.32 151 09:27 16.12.2019
6205 Rain 22 1012 87 0 5.04 160 08:57 16.12.2019
6206 Rain 22 1012 85 0 5.32 151 08:38 16.12.2019
6207 Rain 23 1013 86 0 4.52 167 08:18 16.12.2019
6208 Rain 23 1013 86 0 4.52 167 08:18 16.12.2019
6209 Rain 23 1013 86 0 4.52 167 07:44 16.12.2019
6210 Rain 23 1013 86 0 4.52 167 07:22 16.12.2019
6211 Rain 23 1013 86 0 4.52 167 06:45 16.12.2019
6212 Rain 23 1013 86 0 4.52 167 06:25 16.12.2019
6213 Rain 23 1013 86 0 4.52 167 05:50 16.12.2019
6214 Rain 23 1013 86 0 4.52 167 05:31 16.12.2019
6215 Clouds 23 1013 84 0 4.04 171 04:22 16.12.2019
6216 Clouds 24 1008 83 10000 5.7 170 02:19 16.12.2019
6217 Clouds 24 1008 83 10000 5.7 170 01:44 16.12.2019
6218 Clouds 24 1007 78 10000 6.2 170 00:42 16.12.2019
6219 Clouds 24 1007 78 10000 6.2 170 00:24 16.12.2019
6220 Clouds 25 1007 78 10000 6.7 170 23:58 15.12.2019
6221 Clouds 25 1007 78 10000 6.7 170 23:38 15.12.2019
6222 Clouds 25 1007 78 10000 6.7 170 23:19 15.12.2019
6223 Rain 25 1008 78 10000 6.7 160 22:55 15.12.2019
6224 Rain 25 1008 78 10000 6.7 160 22:37 15.12.2019
6225 Rain 25 1008 78 10000 6.7 160 22:18 15.12.2019
6226 Rain 25 1008 78 10000 6.7 160 22:18 15.12.2019
6227 Rain 26 1008 78 10000 7.7 150 21:55 15.12.2019
6228 Rain 26 1008 78 10000 7.7 150 21:37 15.12.2019
6229 Rain 26 1008 78 10000 7.7 150 21:19 15.12.2019
6230 Clouds 27 1009 69 10000 7.2 160 20:55 15.12.2019
6231 Clouds 27 1009 69 10000 7.2 160 20:37 15.12.2019
6232 Clouds 27 1009 69 10000 7.2 160 20:18 15.12.2019
6233 Clouds 27 1009 69 10000 7.2 160 20:18 15.12.2019
6234 Clouds 26 1010 74 10000 8.2 160 19:55 15.12.2019
6235 Clouds 26 1010 74 10000 8.2 160 19:37 15.12.2019
6236 Clouds 26 1010 74 10000 8.2 160 19:18 15.12.2019
6237 Clouds 26 1011 69 10000 8.2 170 18:55 15.12.2019
6238 Clouds 26 1011 69 10000 8.2 170 18:36 15.12.2019
6239 Clouds 26 1011 69 10000 8.2 170 18:18 15.12.2019
6240 Clouds 26 1011 69 10000 7.7 160 17:55 15.12.2019
6241 Clouds 26 1011 69 10000 7.7 160 17:36 15.12.2019
6242 Clouds 26 1011 69 10000 7.7 160 17:18 15.12.2019
6243 Clouds 25 1011 73 10000 7.7 170 16:42 15.12.2019
6244 Clouds 25 1011 73 10000 7.7 170 16:23 15.12.2019
6245 Clouds 24 1010 78 10000 7.2 170 15:57 15.12.2019
6246 Clouds 24 1010 78 10000 7.2 170 15:39 15.12.2019
6247 Clouds 24 1010 78 10000 7.2 170 15:19 15.12.2019
6248 Clouds 23 1009 83 10000 5.7 160 14:56 15.12.2019
6249 Clouds 23 1009 83 10000 5.7 160 14:37 15.12.2019
6250 Clouds 23 1009 83 10000 5.7 160 14:19 15.12.2019
6251 Clouds 22 1009 88 10000 4.1 160 13:58 15.12.2019
6252 Clouds 22 1009 88 10000 4.1 160 13:38 15.12.2019
6253 Clouds 22 1009 88 10000 4.1 160 13:19 15.12.2019
6254 Clouds 22 1012 82 0 4.28 158 12:57 15.12.2019
6255 Clouds 22 1012 82 0 4.28 158 12:39 15.12.2019
6256 Clouds 22 1012 82 0 4.28 158 12:20 15.12.2019
6257 Clouds 22 1012 82 0 4.28 158 12:20 15.12.2019
6258 Clouds 22 1012 82 0 4.28 158 11:56 15.12.2019
6259 Clouds 22 1012 82 0 4.28 158 11:37 15.12.2019
6260 Clear 22 1011 83 0 4.96 146 11:18 15.12.2019
6261 Clear 22 1011 83 0 4.96 146 10:55 15.12.2019
6262 Clear 22 1011 83 0 4.96 146 10:37 15.12.2019
6263 Clear 22 1011 83 0 4.96 146 10:18 15.12.2019
6264 Clear 22 1011 83 0 4.96 146 09:41 15.12.2019
6265 Clear 22 1011 83 0 4.96 146 09:20 15.12.2019
6266 Clear 22 1011 83 0 4.96 146 08:58 15.12.2019
6267 Clear 22 1011 83 0 4.96 146 08:39 15.12.2019
6268 Clouds 22 1013 82 0 5.46 151 08:21 15.12.2019
6269 Clouds 22 1013 82 0 5.46 151 07:56 15.12.2019
6270 Clouds 22 1013 82 0 5.46 151 07:34 15.12.2019
6271 Clouds 22 1013 82 0 5.46 151 06:51 15.12.2019
6272 Clouds 22 1013 82 0 5.46 151 06:20 15.12.2019
6273 Clouds 22 1013 82 0 5.46 151 05:26 15.12.2019
6274 Clouds 22 1014 80 0 6.3 163 04:47 15.12.2019
6275 Clouds 22 1014 80 0 6.3 163 03:29 15.12.2019
6276 Clouds 22 1014 80 0 6.3 163 02:34 15.12.2019
6277 Clouds 23 1008 83 10000 6.2 170 01:47 15.12.2019
6278 Clouds 23 1008 83 10000 6.2 170 01:28 15.12.2019
6279 Clouds 25 1008 73 10000 6.2 170 00:57 15.12.2019
6280 Clouds 25 1008 73 10000 6.2 170 00:38 15.12.2019
6281 Clouds 25 1008 73 10000 6.2 170 00:20 15.12.2019
6282 Clouds 25 1008 73 10000 6.7 190 23:39 14.12.2019
6283 Clouds 25 1008 73 10000 6.7 190 23:19 14.12.2019
6284 Clouds 26 1008 69 10000 6.7 190 22:57 14.12.2019
6285 Clouds 26 1008 69 10000 6.7 190 22:57 14.12.2019
6286 Clouds 26 1008 69 10000 6.7 190 22:39 14.12.2019
6287 Clouds 26 1008 69 10000 6.7 190 22:20 14.12.2019
6288 Clouds 21 1010 81 0 6.21 183 21:56 14.12.2019
6289 Clouds 21 1010 81 0 6.21 183 21:37 14.12.2019
6290 Clouds 26 1010 69 10000 6.7 180 21:18 14.12.2019
6291 Clouds 26 1010 69 10000 6.7 180 20:55 14.12.2019
6292 Clouds 26 1010 69 10000 6.7 180 20:37 14.12.2019
6293 Clouds 26 1010 69 10000 6.7 180 20:37 14.12.2019
6294 Clouds 26 1010 69 10000 6.7 180 20:19 14.12.2019
6295 Clouds 26 1011 69 10000 6.2 170 19:40 14.12.2019
6296 Clouds 26 1011 69 10000 6.2 170 19:21 14.12.2019
6297 Clouds 26 1012 69 10000 6.2 170 18:58 14.12.2019
6298 Clouds 26 1012 69 10000 6.2 170 18:39 14.12.2019
6299 Clouds 26 1012 69 10000 6.2 170 18:21 14.12.2019
6300 Clouds 25 1012 73 10000 6.2 190 17:59 14.12.2019
6301 Clouds 25 1012 73 10000 6.2 190 17:41 14.12.2019
6302 Clouds 25 1012 73 10000 6.2 190 17:22 14.12.2019
6303 Clouds 24 1012 73 10000 6.2 180 16:41 14.12.2019
6304 Clouds 24 1012 73 10000 6.2 180 16:19 14.12.2019
6305 Clouds 23 1011 78 10000 6.2 190 15:56 14.12.2019
6306 Clouds 23 1011 78 10000 6.2 190 15:38 14.12.2019
6307 Clouds 23 1011 78 10000 6.2 190 15:19 14.12.2019
6308 Clouds 23 1010 83 10000 6.2 190 14:56 14.12.2019
6309 Clouds 23 1010 83 10000 6.2 190 14:37 14.12.2019
6310 Clouds 23 1010 83 10000 6.2 190 14:37 14.12.2019
6311 Clouds 23 1010 83 10000 6.2 190 14:18 14.12.2019
6312 Clouds 23 1010 83 10000 5.1 190 13:44 14.12.2019
6313 Clouds 23 1010 83 10000 5.1 190 13:19 14.12.2019
6314 Clouds 22 1012 83 0 5.64 182 12:58 14.12.2019
6315 Clouds 21 1013 82 0 5.51 182 12:39 14.12.2019
6316 Clouds 21 1013 82 0 5.51 182 12:20 14.12.2019
6317 Clouds 21 1013 82 0 5.51 182 11:57 14.12.2019
6318 Clouds 21 1013 82 0 5.51 182 11:38 14.12.2019
6319 Clouds 22 1012 81 0 5.52 183 11:19 14.12.2019
6320 Clouds 22 1012 81 0 5.77 186 10:56 14.12.2019
6321 Clouds 22 1012 81 0 5.77 186 10:38 14.12.2019
6322 Clouds 22 1012 81 0 5.77 186 10:19 14.12.2019
6323 Clouds 22 1012 81 0 5.77 186 09:43 14.12.2019
6324 Clouds 22 1012 81 0 5.77 186 09:23 14.12.2019
6325 Clouds 22 1012 81 0 5.77 186 08:57 14.12.2019
6326 Clouds 22 1012 81 0 5.77 186 08:38 14.12.2019
6327 Clouds 22 1012 81 0 5.77 186 08:38 14.12.2019
6328 Clouds 22 1013 81 0 5.22 179 08:19 14.12.2019
6329 Clouds 22 1013 81 0 5.22 179 07:40 14.12.2019
6330 Clouds 22 1013 81 0 5.22 179 07:21 14.12.2019
6331 Clouds 22 1013 81 0 5.22 179 07:21 14.12.2019
6332 Clouds 22 1013 81 0 5.22 179 06:48 14.12.2019
6333 Clouds 22 1013 81 0 5.22 179 06:30 14.12.2019
6334 Clouds 22 1013 81 0 5.22 179 05:43 14.12.2019
6335 Clouds 22 1014 81 0 5.12 172 03:44 14.12.2019
6336 Clouds 23 1008 83 10000 5.1 170 02:23 14.12.2019
6337 Clouds 23 1008 83 10000 5.1 170 01:44 14.12.2019
6338 Clouds 23 1007 83 10000 6.2 170 00:59 14.12.2019
6339 Clouds 23 1007 83 10000 6.2 170 00:40 14.12.2019
6340 Clouds 23 1007 83 10000 6.2 170 00:20 14.12.2019
6341 Clouds 25 1007 69 10000 8.2 180 23:41 13.12.2019
6342 Clouds 25 1007 69 10000 8.2 180 23:19 13.12.2019
6343 Clouds 25 1007 69 10000 7.7 190 22:56 13.12.2019
6344 Clouds 25 1007 69 10000 7.7 190 22:37 13.12.2019
6345 Clouds 25 1007 69 10000 7.7 190 22:18 13.12.2019
6346 Clouds 25 1007 69 10000 7.7 190 22:18 13.12.2019
6347 Clouds 25 1008 69 10000 7.2 190 21:42 13.12.2019
6348 Clouds 25 1008 69 10000 7.2 190 21:21 13.12.2019
6349 Clouds 26 1008 69 10000 7.2 180 20:58 13.12.2019
6350 Clouds 22 1010 83 0 5.31 179 20:39 13.12.2019
6351 Clouds 25 1010 73 10000 6.2 200 20:20 13.12.2019
6352 Clouds 25 1010 73 10000 6.2 200 19:56 13.12.2019
6353 Clouds 25 1010 73 10000 6.2 200 19:56 13.12.2019
6354 Clouds 25 1010 73 10000 6.2 200 19:38 13.12.2019
6355 Clouds 25 1010 73 10000 6.2 200 19:19 13.12.2019
6356 Clouds 26 1011 69 10000 6.7 190 18:42 13.12.2019
6357 Clouds 26 1011 69 10000 6.7 190 18:20 13.12.2019
6358 Clouds 26 1011 69 10000 6.7 190 18:00 13.12.2019
6359 Clouds 26 1011 69 10000 6.7 190 17:39 13.12.2019
6360 Clouds 26 1011 69 10000 6.7 190 17:18 13.12.2019
6361 Clouds 26 1011 69 10000 6.7 190 17:18 13.12.2019
6362 Clouds 23 1011 78 10000 6.2 180 16:56 13.12.2019
6363 Clouds 23 1011 78 10000 6.2 180 16:38 13.12.2019
6364 Clouds 23 1011 78 10000 6.2 180 16:19 13.12.2019
6365 Clouds 23 1011 78 10000 5.1 170 15:42 13.12.2019
6366 Clouds 23 1011 78 10000 5.1 170 15:42 13.12.2019
6367 Clouds 23 1011 78 10000 5.1 170 15:21 13.12.2019
6368 Clouds 23 1011 78 10000 5.1 170 14:57 13.12.2019
6369 Clouds 23 1011 78 10000 5.1 170 14:37 13.12.2019
6370 Clouds 23 1011 78 10000 5.1 170 14:19 13.12.2019
6371 Clouds 22 1010 78 10000 5.7 170 13:43 13.12.2019
6372 Clouds 22 1010 78 10000 5.7 170 13:24 13.12.2019
6373 Clouds 22 1012 83 0 6.1 169 12:57 13.12.2019
6374 Clouds 22 1012 83 0 6.1 169 12:39 13.12.2019
6375 Clouds 22 1012 83 0 6.1 169 12:18 13.12.2019
6376 Clouds 22 1012 83 0 6.1 169 11:43 13.12.2019
6377 Clouds 22 1012 83 0 6.1 169 11:24 13.12.2019
6378 Clouds 22 1011 82 0 5.63 171 10:56 13.12.2019
6379 Clouds 22 1011 82 0 5.63 171 10:38 13.12.2019
6380 Clouds 22 1011 82 0 5.63 171 10:19 13.12.2019
6381 Clouds 22 1011 82 0 5.63 171 09:42 13.12.2019
6382 Clouds 22 1011 82 0 5.63 171 09:21 13.12.2019
6383 Clouds 22 1011 82 0 5.63 171 08:45 13.12.2019
6384 Clouds 22 1011 82 0 5.63 171 08:45 13.12.2019
6385 Clouds 22 1011 82 0 5.67 170 08:26 13.12.2019
6386 Clear 22 1013 81 0 5.88 179 07:49 13.12.2019
6387 Clear 22 1013 81 0 5.88 179 07:25 13.12.2019
6388 Clear 22 1013 81 0 5.88 179 06:57 13.12.2019
6389 Clear 22 1013 81 0 5.88 179 06:31 13.12.2019
6390 Clear 22 1013 81 0 5.88 179 05:51 13.12.2019
6391 Clear 22 1013 81 0 5.88 179 05:31 13.12.2019
6392 Clear 22 1014 80 0 5.51 179 04:53 13.12.2019
6393 Clear 22 1014 80 0 5.51 179 03:50 13.12.2019
6394 Clear 22 1014 80 0 5.51 179 02:35 13.12.2019
6395 Clear 23 1009 78 10000 6.2 180 01:50 13.12.2019
6396 Clouds 23 1009 78 10000 6.2 180 01:21 13.12.2019
6397 Clouds 24 1008 73 10000 6.7 180 00:46 13.12.2019
6398 Clouds 24 1008 73 10000 6.7 180 00:24 13.12.2019
6399 Clouds 26 1008 65 10000 7.2 180 23:41 12.12.2019
6400 Clouds 26 1008 65 10000 7.2 180 23:22 12.12.2019
6401 Clouds 26 1009 57 10000 7.7 180 22:56 12.12.2019
6402 Clouds 26 1009 57 10000 7.7 180 22:38 12.12.2019
6403 Clouds 26 1009 57 10000 7.7 180 22:19 12.12.2019
6404 Clouds 26 1009 65 10000 7.2 180 21:55 12.12.2019
6405 Clouds 26 1009 65 10000 7.2 180 21:37 12.12.2019
6406 Clouds 26 1009 65 10000 7.2 180 21:19 12.12.2019
6407 Clouds 27 1010 61 10000 8.7 160 20:56 12.12.2019
6408 Clouds 27 1010 61 10000 8.7 160 20:38 12.12.2019
6409 Clouds 27 1010 61 10000 8.7 160 20:20 12.12.2019
6410 Clouds 26 1011 65 10000 7.7 180 19:43 12.12.2019
6411 Clouds 26 1011 65 10000 7.7 180 19:43 12.12.2019
6412 Clouds 26 1011 65 10000 7.7 180 19:23 12.12.2019
6413 Clouds 26 1011 65 10000 8.2 160 18:58 12.12.2019
6414 Clouds 26 1011 65 10000 8.2 160 18:40 12.12.2019
6415 Clouds 26 1011 65 10000 8.2 160 18:21 12.12.2019
6416 Clouds 26 1011 69 10000 7.7 180 17:59 12.12.2019
6417 Clouds 26 1011 69 10000 7.7 180 17:40 12.12.2019
6418 Clouds 26 1011 69 10000 7.7 180 17:21 12.12.2019
6419 Clouds 25 1011 73 10000 8.2 160 16:59 12.12.2019
6420 Clouds 25 1011 73 10000 8.2 160 16:41 12.12.2019
6421 Clouds 25 1011 73 10000 8.2 160 16:21 12.12.2019
6422 Clouds 24 1011 78 10000 7.2 170 15:58 12.12.2019
6423 Clouds 24 1011 78 10000 7.2 170 15:40 12.12.2019
6424 Clouds 24 1011 78 10000 7.2 170 15:19 12.12.2019
6425 Clouds 22 1010 88 10000 5.7 170 14:56 12.12.2019
6426 Clouds 22 1010 88 10000 5.7 170 14:36 12.12.2019
6427 Clouds 22 1010 88 10000 5.7 170 14:18 12.12.2019
6428 Clouds 22 1010 88 10000 5.7 180 13:54 12.12.2019
6429 Clouds 22 1010 88 10000 5.7 180 13:36 12.12.2019
6430 Clouds 22 1010 88 10000 5.7 180 13:18 12.12.2019
6431 Clouds 22 1012 83 0 6.21 178 12:40 12.12.2019
6432 Clouds 22 1012 83 0 6.21 178 12:22 12.12.2019
6433 Clouds 22 1012 83 0 6.21 178 11:57 12.12.2019
6434 Clouds 22 1012 83 0 6.21 178 11:38 12.12.2019
6435 Clouds 22 1012 83 0 6.21 178 11:38 12.12.2019
6436 Clouds 22 1012 80 0 5.23 184 11:20 12.12.2019
6437 Clouds 22 1012 80 0 5.23 184 10:56 12.12.2019
6438 Clouds 22 1012 80 0 5.23 184 10:38 12.12.2019
6439 Clouds 22 1012 80 0 5.23 184 10:20 12.12.2019
6440 Clouds 22 1012 80 0 5.23 184 09:55 12.12.2019
6441 Clouds 22 1012 80 0 5.23 184 09:37 12.12.2019
6442 Clouds 22 1012 80 0 5.23 184 09:18 12.12.2019
6443 Clouds 22 1012 80 0 5.23 184 08:43 12.12.2019
6444 Clouds 22 1012 80 0 5.23 184 08:43 12.12.2019
6445 Clouds 22 1012 82 0 5.34 184 08:25 12.12.2019
6446 Clouds 22 1012 82 0 5.34 184 08:25 12.12.2019
6447 Clouds 22 1014 82 0 5.93 181 07:49 12.12.2019
6448 Clouds 22 1014 82 0 5.93 181 07:49 12.12.2019
6449 Clouds 22 1014 82 0 5.93 181 07:27 12.12.2019
6450 Clouds 22 1014 82 0 5.93 181 06:55 12.12.2019
6451 Clouds 22 1014 82 0 5.93 181 06:35 12.12.2019
6452 Clouds 22 1014 82 0 5.93 181 05:42 12.12.2019
6453 Clouds 22 1014 83 0 5.36 173 04:54 12.12.2019
6454 Clouds 22 1014 83 0 5.36 173 03:50 12.12.2019
6455 Clouds 22 1014 83 0 5.36 173 02:40 12.12.2019
6456 Clouds 23 1009 83 10000 7.2 160 02:21 12.12.2019
6457 Clouds 23 1009 83 10000 7.2 160 01:43 12.12.2019
6458 Clouds 23 1009 83 10000 7.2 160 01:24 12.12.2019
6459 Clouds 24 1009 78 10000 7.2 160 00:47 12.12.2019
6460 Clouds 24 1009 78 10000 7.2 160 00:20 12.12.2019
6461 Clouds 25 1008 78 10000 8.2 150 23:44 11.12.2019
6462 Clouds 25 1008 78 10000 8.2 150 23:21 11.12.2019
6463 Clouds 24 1009 83 10000 6.7 180 22:58 11.12.2019
6464 Clouds 24 1009 83 10000 6.7 180 22:39 11.12.2019
6465 Clouds 24 1009 83 10000 6.7 180 22:20 11.12.2019
6466 Clouds 25 1010 78 10000 6.2 170 21:57 11.12.2019
6467 Clouds 25 1010 78 10000 6.2 170 21:38 11.12.2019
6468 Clouds 25 1010 78 10000 6.2 170 21:20 11.12.2019
6469 Clouds 25 1011 78 10000 6.7 170 20:56 11.12.2019
6470 Clouds 25 1011 78 10000 6.7 170 20:56 11.12.2019
6471 Clouds 25 1011 78 10000 6.7 170 20:37 11.12.2019
6472 Clouds 25 1011 78 10000 6.7 170 20:19 11.12.2019
6473 Clouds 24 1012 83 10000 5.1 180 19:58 11.12.2019
6474 Clouds 24 1012 83 10000 5.1 180 19:39 11.12.2019
6475 Clouds 24 1012 83 10000 5.1 180 19:19 11.12.2019
6476 Clouds 24 1013 83 10000 5.7 180 18:42 11.12.2019
6477 Clouds 24 1013 83 10000 5.7 180 18:21 11.12.2019
6478 Clouds 24 1013 83 10000 4.1 170 17:57 11.12.2019
6479 Clouds 24 1013 83 10000 4.1 170 17:57 11.12.2019
6480 Clouds 24 1013 83 10000 4.1 170 17:39 11.12.2019
6481 Clouds 24 1013 83 10000 4.1 170 17:19 11.12.2019
6482 Clouds 23 1013 88 10000 4.6 170 16:57 11.12.2019
6483 Clouds 23 1013 88 10000 4.6 170 16:38 11.12.2019
6484 Clouds 23 1013 88 10000 4.6 170 16:20 11.12.2019
6485 Clouds 23 1012 88 10000 5.1 180 15:59 11.12.2019
6486 Clouds 23 1012 88 10000 5.1 180 15:39 11.12.2019
6487 Clouds 23 1012 88 10000 5.1 180 15:21 11.12.2019
6488 Clouds 22 1011 94 10000 5.1 180 14:56 11.12.2019
6489 Clouds 22 1011 94 10000 5.1 180 14:37 11.12.2019
6490 Clouds 22 1011 94 10000 5.1 180 14:19 11.12.2019
6491 Clouds 22 1011 94 10000 4.6 170 13:55 11.12.2019
6492 Clouds 22 1011 94 10000 4.6 170 13:36 11.12.2019
6493 Clouds 22 1011 94 10000 4.6 170 13:36 11.12.2019
6494 Clouds 22 1011 94 10000 4.6 170 13:18 11.12.2019
6495 Clouds 22 1011 94 10000 4.6 170 13:18 11.12.2019
6496 Rain 22 1013 87 0 5.85 168 12:54 11.12.2019
6497 Rain 22 1013 87 0 5.85 168 12:36 11.12.2019
6498 Rain 22 1013 87 0 5.85 168 12:18 11.12.2019
6499 Rain 22 1013 87 0 5.85 168 11:55 11.12.2019
6500 Rain 22 1013 87 0 5.85 168 11:37 11.12.2019
6501 Clouds 22 1012 88 0 5.74 164 11:18 11.12.2019
6502 Clouds 22 1012 88 0 5.74 164 10:41 11.12.2019
6503 Clouds 22 1012 88 0 5.74 164 10:23 11.12.2019
6504 Clouds 22 1012 88 0 5.74 164 09:58 11.12.2019
6505 Clouds 22 1012 88 0 5.74 164 09:38 11.12.2019
6506 Clouds 22 1012 88 0 5.74 164 09:20 11.12.2019
6507 Clouds 22 1012 88 0 5.74 164 08:56 11.12.2019
6508 Clouds 22 1012 88 0 5.74 164 08:37 11.12.2019
6509 Clouds 22 1013 89 0 4.89 179 08:18 11.12.2019
6510 Clouds 22 1013 89 0 4.89 179 07:44 11.12.2019
6511 Clouds 22 1013 89 0 4.89 179 07:24 11.12.2019
6512 Clouds 22 1013 89 0 4.89 179 06:46 11.12.2019
6513 Clouds 22 1013 89 0 4.89 179 06:25 11.12.2019
6514 Clouds 22 1013 89 0 4.89 179 05:56 11.12.2019
6515 Clouds 22 1013 89 0 4.89 179 05:35 11.12.2019
6516 Clouds 22 1013 89 0 4.75 182 04:51 11.12.2019
6517 Clouds 22 1013 89 0 4.75 182 03:29 11.12.2019
6518 Clouds 22 1013 89 0 4.75 182 02:35 11.12.2019
6519 Clouds 23 1008 88 10000 7.2 170 01:22 11.12.2019
6520 Clouds 24 1008 83 10000 7.2 170 00:38 11.12.2019
6521 Clouds 24 1008 83 10000 7.2 170 00:19 11.12.2019
6522 Clouds 25 1008 78 10000 7.2 180 23:44 10.12.2019
6523 Clouds 25 1008 78 10000 7.2 180 23:23 10.12.2019
6524 Clouds 25 1011 78 10000 7.2 160 22:56 10.12.2019
6525 Clouds 25 1011 78 10000 7.2 160 22:56 10.12.2019
6526 Clouds 25 1011 78 10000 7.2 160 22:38 10.12.2019
6527 Clouds 25 1011 78 10000 7.2 160 22:20 10.12.2019
6528 Clouds 25 1009 78 10000 7.2 180 21:54 10.12.2019
6529 Clouds 25 1009 78 10000 7.2 180 21:36 10.12.2019
6530 Clouds 25 1009 78 10000 7.2 180 21:18 10.12.2019
6531 Clouds 25 1011 78 10000 7.2 170 20:55 10.12.2019
6532 Clouds 25 1011 78 10000 7.2 170 20:55 10.12.2019
6533 Clouds 25 1011 78 10000 7.2 170 20:36 10.12.2019
6534 Clouds 25 1011 78 10000 7.2 170 20:18 10.12.2019
6535 Clouds 25 1011 78 10000 7.2 170 20:18 10.12.2019
6536 Clouds 25 1011 78 10000 7.2 170 20:18 10.12.2019
6537 Clouds 25 1011 78 10000 7.7 160 19:42 10.12.2019
6538 Clouds 25 1011 78 10000 7.7 160 19:24 10.12.2019
6539 Clouds 25 1012 78 10000 7.7 170 18:57 10.12.2019
6540 Clouds 25 1012 78 10000 7.7 170 18:38 10.12.2019
6541 Clouds 25 1012 78 10000 7.7 170 18:19 10.12.2019
6542 Clouds 25 1012 78 10000 7.7 170 17:54 10.12.2019
6543 Clouds 25 1012 78 10000 7.7 170 17:36 10.12.2019
6544 Clouds 25 1012 78 10000 7.7 170 17:18 10.12.2019
6545 Clouds 25 1011 78 10000 7.2 160 16:41 10.12.2019
6546 Clouds 25 1011 78 10000 7.2 160 16:20 10.12.2019
6547 Clouds 24 1011 78 10000 7.2 160 15:40 10.12.2019
6548 Clouds 24 1011 78 10000 7.2 160 15:19 10.12.2019
6549 Clouds 23 1010 88 10000 5.7 170 14:59 10.12.2019
6550 Clouds 23 1010 88 10000 5.7 170 14:41 10.12.2019
6551 Clouds 23 1010 88 10000 5.7 170 14:23 10.12.2019
6552 Clouds 22 1009 94 10000 5.7 160 13:58 10.12.2019
6553 Clouds 22 1009 94 10000 5.7 160 13:40 10.12.2019
6554 Clouds 22 1009 94 10000 5.7 160 13:20 10.12.2019
6555 Clouds 22 1012 87 0 6.49 167 12:49 10.12.2019
6556 Clouds 22 1012 87 0 6.49 167 12:28 10.12.2019
6557 Clouds 22 1012 87 0 6.49 167 11:59 10.12.2019
6558 Clouds 22 1012 87 0 6.49 167 11:40 10.12.2019
6559 Clouds 22 1012 88 0 6.24 173 11:21 10.12.2019
6560 Clouds 22 1012 88 0 6.24 173 10:43 10.12.2019
6561 Clouds 22 1012 88 0 6.24 173 10:25 10.12.2019
6562 Clouds 22 1012 88 0 6.24 173 09:57 10.12.2019
6563 Clouds 22 1012 88 0 6.24 173 09:39 10.12.2019
6564 Clouds 22 1012 88 0 6.24 173 09:20 10.12.2019
6565 Clouds 22 1012 88 0 6.24 173 08:58 10.12.2019
6566 Clouds 22 1012 88 0 6.24 173 08:39 10.12.2019
6567 Clouds 22 1012 89 0 6.49 173 08:20 10.12.2019
6568 Clouds 22 1012 89 0 6.49 173 07:45 10.12.2019
6569 Clouds 22 1012 89 0 6.49 173 07:27 10.12.2019
6570 Clouds 22 1012 89 0 6.49 173 06:55 10.12.2019
6571 Clouds 22 1012 89 0 6.49 173 06:37 10.12.2019
6572 Clouds 22 1012 89 0 6.49 173 06:19 10.12.2019
6573 Clouds 22 1012 89 0 6.49 173 05:47 10.12.2019
6574 Clouds 22 1013 91 0 4.92 166 04:23 10.12.2019
6575 Clouds 22 1013 91 0 4.92 166 03:25 10.12.2019
6576 Clouds 23 1008 88 10000 6.7 170 01:56 10.12.2019
6577 Clouds 23 1008 88 10000 6.7 170 01:28 10.12.2019
6578 Clouds 24 1007 83 10000 7.2 170 00:58 10.12.2019
6579 Clouds 24 1007 83 10000 7.2 170 00:26 10.12.2019
6580 Clouds 25 1007 73 10000 7.7 170 23:58 09.12.2019
6581 Clouds 25 1007 73 10000 7.7 170 23:39 09.12.2019
6582 Clouds 25 1007 73 10000 7.7 170 23:39 09.12.2019
6583 Clouds 25 1007 73 10000 7.7 170 23:20 09.12.2019
6584 Clouds 26 1008 69 10000 8.7 170 22:56 09.12.2019
6585 Clouds 26 1008 69 10000 8.7 170 22:38 09.12.2019
6586 Clouds 26 1008 69 10000 8.7 170 22:18 09.12.2019
6587 Clouds 25 1008 73 10000 8.7 160 21:55 09.12.2019
6588 Clouds 25 1008 73 10000 8.7 160 21:37 09.12.2019
6589 Clouds 25 1008 73 10000 8.7 160 21:18 09.12.2019
6590 Clouds 25 1009 73 10000 8.2 160 20:55 09.12.2019
6591 Clouds 25 1009 73 10000 8.2 160 20:37 09.12.2019
6592 Clouds 25 1009 73 10000 8.2 160 20:37 09.12.2019
6593 Clouds 25 1009 73 10000 8.2 160 20:37 09.12.2019
6594 Clouds 25 1009 73 10000 8.2 160 20:18 09.12.2019
6595 Clouds 25 1010 78 10000 6.2 170 19:54 09.12.2019
6596 Clouds 25 1010 78 10000 6.2 170 19:36 09.12.2019
6597 Clouds 25 1010 78 10000 6.2 170 19:18 09.12.2019
6598 Clouds 24 1011 78 10000 6.2 160 18:40 09.12.2019
6599 Clouds 24 1011 78 10000 6.2 160 18:20 09.12.2019
6600 Clouds 24 1011 78 10000 6.2 160 18:20 09.12.2019
6601 Clouds 23 1011 88 10000 6.2 170 17:59 09.12.2019
6602 Clouds 23 1011 88 10000 6.2 170 17:41 09.12.2019
6603 Clouds 23 1011 88 10000 6.2 170 17:21 09.12.2019
6604 Clouds 23 1011 88 10000 5.1 160 16:57 09.12.2019
6605 Clouds 23 1011 88 10000 5.1 160 16:39 09.12.2019
6606 Clouds 23 1011 88 10000 5.1 160 16:21 09.12.2019
6607 Clouds 23 1011 88 10000 4.6 160 15:56 09.12.2019
6608 Clouds 23 1011 88 10000 4.6 160 15:38 09.12.2019
6609 Clouds 23 1011 88 10000 4.6 160 15:19 09.12.2019
6610 Clouds 22 1010 94 10000 4.6 180 14:59 09.12.2019
6611 Clouds 22 1010 94 10000 4.6 180 14:40 09.12.2019
6612 Clouds 22 1010 94 10000 4.6 180 14:18 09.12.2019
6613 Clouds 21 1010 94 10000 3.6 190 13:55 09.12.2019
6614 Clouds 21 1010 94 10000 3.6 190 13:36 09.12.2019
6615 Clouds 21 1010 94 10000 3.6 190 13:18 09.12.2019
6616 Rain 22 1012 91 0 5.05 170 12:54 09.12.2019
6617 Rain 22 1012 91 0 5.05 170 12:36 09.12.2019
6618 Rain 22 1012 91 0 5.05 170 12:18 09.12.2019
6619 Rain 22 1012 91 0 5.05 170 11:40 09.12.2019
6620 Rain 22 1011 92 0 4.29 181 11:22 09.12.2019
6621 Rain 22 1011 92 0 4.29 181 10:59 09.12.2019
6622 Rain 22 1011 92 0 4.29 181 10:39 09.12.2019
6623 Rain 22 1011 92 0 4.29 181 10:19 09.12.2019
6624 Rain 22 1011 92 0 4.29 181 09:44 09.12.2019
6625 Rain 22 1011 92 0 4.29 181 09:24 09.12.2019
6626 Rain 22 1011 92 0 4.29 181 08:57 09.12.2019
6627 Rain 22 1011 92 0 4.29 181 08:38 09.12.2019
6628 Rain 22 1012 93 0 3.47 172 08:20 09.12.2019
6629 Rain 22 1013 91 0 2.97 178 07:48 09.12.2019
6630 Rain 22 1013 91 0 2.97 178 07:30 09.12.2019
6631 Rain 22 1013 91 0 2.97 178 06:55 09.12.2019
6632 Rain 22 1013 91 0 2.97 178 06:29 09.12.2019
6633 Rain 22 1013 91 0 2.97 178 05:30 09.12.2019
6634 Clouds 22 1013 92 0 3.43 151 04:58 09.12.2019
6635 Clouds 22 1013 92 0 3.43 151 04:25 09.12.2019
6636 Clouds 23 1009 88 10000 5.1 160 02:28 09.12.2019
6637 Clouds 23 1009 88 10000 5.1 160 01:45 09.12.2019
6638 Clouds 23 1008 88 10000 5.1 150 00:57 09.12.2019
6639 Clouds 23 1008 88 10000 5.1 150 00:32 09.12.2019
6640 Clouds 24 1008 83 10000 5.1 160 23:54 08.12.2019
6641 Clouds 24 1008 83 10000 5.1 160 23:36 08.12.2019
6642 Clouds 24 1008 83 10000 5.1 160 23:18 08.12.2019
6643 Clouds 24 1008 83 10000 6.7 170 22:56 08.12.2019
6644 Clouds 24 1008 83 10000 6.7 170 22:37 08.12.2019
6645 Clouds 24 1008 83 10000 6.7 170 22:18 08.12.2019
6646 Clouds 24 1009 83 10000 6.7 160 21:54 08.12.2019
6647 Clouds 24 1009 83 10000 6.7 160 21:54 08.12.2019
6648 Clouds 24 1009 83 10000 6.7 160 21:36 08.12.2019
6649 Clouds 24 1009 83 10000 6.7 160 21:18 08.12.2019
6650 Clouds 25 1010 78 10000 6.2 170 20:54 08.12.2019
6651 Clouds 25 1010 78 10000 6.2 170 20:54 08.12.2019
6652 Clouds 25 1010 78 10000 6.2 170 20:36 08.12.2019
6653 Clouds 25 1010 78 10000 6.2 170 20:18 08.12.2019
6654 Clouds 26 1011 74 10000 6.2 180 19:42 08.12.2019
6655 Clouds 26 1011 74 10000 6.2 180 19:24 08.12.2019
6656 Clouds 26 1011 69 10000 6.7 170 18:56 08.12.2019
6657 Clouds 26 1011 69 10000 6.7 170 18:37 08.12.2019
6658 Clouds 26 1011 69 10000 6.7 170 18:19 08.12.2019
6659 Clouds 25 1012 78 10000 6.2 180 17:57 08.12.2019
6660 Clouds 25 1012 78 10000 6.2 180 17:39 08.12.2019
6661 Clouds 25 1012 78 10000 6.2 180 17:20 08.12.2019
6662 Clouds 24 1012 78 10000 4.1 180 16:57 08.12.2019
6663 Clouds 24 1012 78 10000 4.1 180 16:39 08.12.2019
6664 Clouds 24 1012 78 10000 4.1 180 16:21 08.12.2019
6665 Clouds 24 1012 78 10000 4.1 160 15:56 08.12.2019
6666 Clouds 24 1012 78 10000 4.1 160 15:36 08.12.2019
6667 Clouds 24 1012 78 10000 4.1 160 15:18 08.12.2019
6668 Clouds 23 1011 83 10000 3.1 90 14:44 08.12.2019
6669 Clouds 23 1011 83 10000 3.1 90 14:24 08.12.2019
6670 Clouds 22 1011 88 10000 5.1 160 13:59 08.12.2019
6671 Clouds 22 1011 88 10000 5.1 160 13:40 08.12.2019
6672 Clouds 22 1011 88 10000 5.1 160 13:21 08.12.2019
6673 Clouds 22 1011 88 10000 5.1 160 13:21 08.12.2019
6674 Clouds 22 1013 87 0 2.77 152 12:57 08.12.2019
6675 Clouds 22 1013 87 0 2.77 152 12:38 08.12.2019
6676 Clouds 22 1013 87 0 2.77 152 12:18 08.12.2019
6677 Clouds 22 1013 87 0 2.77 152 11:57 08.12.2019
6678 Clouds 22 1013 87 0 2.77 152 11:37 08.12.2019
6679 Clouds 22 1012 85 0 3.32 153 11:19 08.12.2019
6680 Clouds 22 1012 85 0 3.32 153 10:40 08.12.2019
6681 Clouds 22 1012 85 0 3.32 153 10:21 08.12.2019
6682 Clouds 22 1012 85 0 3.32 153 09:58 08.12.2019
6683 Clouds 22 1012 85 0 3.32 153 09:39 08.12.2019
6684 Clouds 22 1012 85 0 3.32 153 09:20 08.12.2019
6685 Clouds 22 1012 85 0 3.32 153 09:20 08.12.2019
6686 Clouds 22 1012 85 0 3.32 153 08:59 08.12.2019
6687 Clouds 22 1012 85 0 3.32 153 08:39 08.12.2019
6688 Clouds 22 1012 85 0 3.32 153 08:39 08.12.2019
6689 Clouds 23 1013 84 0 2.92 165 08:21 08.12.2019
6690 Clouds 23 1013 84 0 2.92 165 07:44 08.12.2019
6691 Clouds 23 1013 84 0 2.92 165 07:20 08.12.2019
6692 Clouds 23 1013 84 0 2.92 165 06:51 08.12.2019
6693 Clouds 23 1013 84 0 2.92 165 06:23 08.12.2019
6694 Clouds 23 1013 84 0 2.92 165 05:51 08.12.2019
6695 Clouds 23 1015 87 0 2.8 165 05:18 08.12.2019
6696 Clouds 23 1015 87 0 2.8 165 03:54 08.12.2019
6697 Clouds 23 1015 87 0 2.8 165 03:36 08.12.2019
6698 Clouds 23 1015 87 0 2.8 165 02:40 08.12.2019
6699 Clouds 23 1011 83 10000 5.1 160 01:56 08.12.2019
6700 Clouds 23 1011 83 10000 5.1 160 01:27 08.12.2019
6701 Clouds 23 1011 83 10000 5.1 190 00:42 08.12.2019
6702 Clouds 23 1011 83 10000 5.1 190 00:21 08.12.2019
6703 Rain 23 1011 88 10000 6.2 180 23:42 07.12.2019
6704 Rain 23 1011 88 10000 6.2 180 23:21 07.12.2019
6705 Clouds 25 1011 73 10000 5.7 180 22:58 07.12.2019
6706 Clouds 25 1011 73 10000 5.7 180 22:40 07.12.2019
6707 Clouds 25 1011 73 10000 5.7 180 22:22 07.12.2019
6708 Clouds 25 1011 78 10000 4.6 170 21:56 07.12.2019
6709 Clouds 25 1011 78 10000 4.6 170 21:38 07.12.2019
6710 Clouds 25 1011 78 10000 4.6 170 21:20 07.12.2019
6711 Clouds 24 1012 83 10000 5.1 170 20:59 07.12.2019
6712 Clouds 24 1012 83 10000 5.1 170 20:37 07.12.2019
6713 Clouds 24 1012 83 10000 5.1 1